<?xml version="1.0" encoding="UTF-8" standalone="no" ?>
<gpx xmlns="http://www.topografix.com/GPX/1/1" xmlns:xsi="http://www.w3.org/2001/XMLSchema-instance" xsi:schemaLocation="http://www.topografix.com/GPX/1/1 http://www.topografix.com/GPX/1/1/gpx.xsd" version="1.1" creator="VisuGPX - https://www.visugpx.com">
  <metadata>
    <name>lundi 2016 03</name>
    <desc><![CDATA[cumul mars 2016]]></desc>
  </metadata>
  <trk>
    <name><![CDATA[Lundi 2016 03 14]]></name>
    <extensions>
      <line xmlns="http://www.topografix.com/GPX/gpx_style/0/2">
        <color>000000</color>
      </line>
    </extensions>
    <trkseg>
      <trkpt lat="48.85704" lon="2.34719">
        <ele>40.79999923706</ele>
        <time>2016-03-14T19:21:03Z</time>
      </trkpt>
      <trkpt lat="48.85706" lon="2.34708">
        <ele>40.79999923706</ele>
        <time>2016-03-14T19:21:16Z</time>
      </trkpt>
      <trkpt lat="48.85728" lon="2.34708">
        <ele>40.599998474121</ele>
        <time>2016-03-14T19:21:29Z</time>
      </trkpt>
      <trkpt lat="48.85746" lon="2.34701">
        <ele>39.599998474121</ele>
        <time>2016-03-14T19:21:32Z</time>
      </trkpt>
      <trkpt lat="48.85767" lon="2.34688">
        <ele>38.20000076294</ele>
        <time>2016-03-14T19:21:37Z</time>
      </trkpt>
      <trkpt lat="48.85784" lon="2.34674">
        <ele>38.400001525879</ele>
        <time>2016-03-14T19:21:41Z</time>
      </trkpt>
      <trkpt lat="48.85794" lon="2.34649">
        <ele>41.400001525879</ele>
        <time>2016-03-14T19:21:45Z</time>
      </trkpt>
      <trkpt lat="48.85806" lon="2.34622">
        <ele>45.79999923706</ele>
        <time>2016-03-14T19:21:50Z</time>
      </trkpt>
      <trkpt lat="48.8582" lon="2.34603">
        <ele>47.79999923706</ele>
        <time>2016-03-14T19:21:57Z</time>
      </trkpt>
      <trkpt lat="48.85822" lon="2.34599">
        <ele>48.20000076294</ele>
        <time>2016-03-14T19:22:02Z</time>
      </trkpt>
      <trkpt lat="48.85851" lon="2.34611">
        <ele>50</ele>
        <time>2016-03-14T19:22:08Z</time>
      </trkpt>
      <trkpt lat="48.85884" lon="2.34616">
        <ele>49.400001525879</ele>
        <time>2016-03-14T19:22:09Z</time>
      </trkpt>
      <trkpt lat="48.85891" lon="2.34612">
        <ele>49.400001525879</ele>
        <time>2016-03-14T19:22:12Z</time>
      </trkpt>
      <trkpt lat="48.859" lon="2.34584">
        <ele>50.79999923706</ele>
        <time>2016-03-14T19:22:15Z</time>
      </trkpt>
      <trkpt lat="48.85906" lon="2.34562">
        <ele>50.400001525879</ele>
        <time>2016-03-14T19:22:18Z</time>
      </trkpt>
      <trkpt lat="48.8592" lon="2.3454">
        <ele>50.20000076294</ele>
        <time>2016-03-14T19:22:22Z</time>
      </trkpt>
      <trkpt lat="48.85931" lon="2.34523">
        <ele>50.599998474121</ele>
        <time>2016-03-14T19:22:26Z</time>
      </trkpt>
      <trkpt lat="48.85933" lon="2.34515">
        <ele>50.79999923706</ele>
        <time>2016-03-14T19:22:28Z</time>
      </trkpt>
      <trkpt lat="48.85907" lon="2.34507">
        <ele>49.79999923706</ele>
        <time>2016-03-14T19:22:34Z</time>
      </trkpt>
      <trkpt lat="48.85892" lon="2.34507">
        <ele>49.20000076294</ele>
        <time>2016-03-14T19:22:37Z</time>
      </trkpt>
      <trkpt lat="48.85894" lon="2.34507">
        <ele>49.400001525879</ele>
        <time>2016-03-14T19:22:47Z</time>
      </trkpt>
      <trkpt lat="48.85916" lon="2.3449">
        <ele>50</ele>
        <time>2016-03-14T19:22:52Z</time>
      </trkpt>
      <trkpt lat="48.85939" lon="2.3447">
        <ele>51.400001525879</ele>
        <time>2016-03-14T19:22:56Z</time>
      </trkpt>
      <trkpt lat="48.85954" lon="2.34445">
        <ele>52</ele>
        <time>2016-03-14T19:23:01Z</time>
      </trkpt>
      <trkpt lat="48.85976" lon="2.34445">
        <ele>52.599998474121</ele>
        <time>2016-03-14T19:23:02Z</time>
      </trkpt>
      <trkpt lat="48.8601" lon="2.34442">
        <ele>53.400001525879</ele>
        <time>2016-03-14T19:23:04Z</time>
      </trkpt>
      <trkpt lat="48.86037" lon="2.34432">
        <ele>53.400001525879</ele>
        <time>2016-03-14T19:23:07Z</time>
      </trkpt>
      <trkpt lat="48.86051" lon="2.34432">
        <ele>52.79999923706</ele>
        <time>2016-03-14T19:23:08Z</time>
      </trkpt>
      <trkpt lat="48.86064" lon="2.34412">
        <ele>52</ele>
        <time>2016-03-14T19:23:13Z</time>
      </trkpt>
      <trkpt lat="48.86078" lon="2.34396">
        <ele>51.20000076294</ele>
        <time>2016-03-14T19:23:16Z</time>
      </trkpt>
      <trkpt lat="48.86094" lon="2.34373">
        <ele>50.79999923706</ele>
        <time>2016-03-14T19:23:20Z</time>
      </trkpt>
      <trkpt lat="48.86109" lon="2.3435">
        <ele>50.599998474121</ele>
        <time>2016-03-14T19:23:24Z</time>
      </trkpt>
      <trkpt lat="48.86109" lon="2.34344">
        <ele>50.599998474121</ele>
        <time>2016-03-14T19:23:25Z</time>
      </trkpt>
      <trkpt lat="48.86118" lon="2.34317">
        <ele>50.400001525879</ele>
        <time>2016-03-14T19:23:29Z</time>
      </trkpt>
      <trkpt lat="48.86115" lon="2.34278">
        <ele>49.599998474121</ele>
        <time>2016-03-14T19:23:34Z</time>
      </trkpt>
      <trkpt lat="48.86123" lon="2.34252">
        <ele>49.20000076294</ele>
        <time>2016-03-14T19:23:38Z</time>
      </trkpt>
      <trkpt lat="48.86129" lon="2.34224">
        <ele>49</ele>
        <time>2016-03-14T19:23:42Z</time>
      </trkpt>
      <trkpt lat="48.86136" lon="2.34196">
        <ele>48.79999923706</ele>
        <time>2016-03-14T19:23:46Z</time>
      </trkpt>
      <trkpt lat="48.86141" lon="2.34168">
        <ele>48.79999923706</ele>
        <time>2016-03-14T19:23:50Z</time>
      </trkpt>
      <trkpt lat="48.86141" lon="2.34139">
        <ele>48.20000076294</ele>
        <time>2016-03-14T19:23:54Z</time>
      </trkpt>
      <trkpt lat="48.86152" lon="2.34116">
        <ele>48</ele>
        <time>2016-03-14T19:23:57Z</time>
      </trkpt>
      <trkpt lat="48.86136" lon="2.34091">
        <ele>47.20000076294</ele>
        <time>2016-03-14T19:24:00Z</time>
      </trkpt>
      <trkpt lat="48.86141" lon="2.34057">
        <ele>47.599998474121</ele>
        <time>2016-03-14T19:24:05Z</time>
      </trkpt>
      <trkpt lat="48.86149" lon="2.34044">
        <ele>48</ele>
        <time>2016-03-14T19:24:07Z</time>
      </trkpt>
      <trkpt lat="48.86173" lon="2.34027">
        <ele>48.599998474121</ele>
        <time>2016-03-14T19:24:10Z</time>
      </trkpt>
      <trkpt lat="48.86185" lon="2.34006">
        <ele>48.79999923706</ele>
        <time>2016-03-14T19:24:13Z</time>
      </trkpt>
      <trkpt lat="48.86192" lon="2.33992">
        <ele>48.79999923706</ele>
        <time>2016-03-14T19:24:15Z</time>
      </trkpt>
      <trkpt lat="48.86203" lon="2.33964">
        <ele>47.599998474121</ele>
        <time>2016-03-14T19:24:19Z</time>
      </trkpt>
      <trkpt lat="48.86212" lon="2.33936">
        <ele>46.400001525879</ele>
        <time>2016-03-14T19:24:23Z</time>
      </trkpt>
      <trkpt lat="48.86215" lon="2.33931">
        <ele>46.400001525879</ele>
        <time>2016-03-14T19:24:24Z</time>
      </trkpt>
      <trkpt lat="48.86232" lon="2.33929">
        <ele>47</ele>
        <time>2016-03-14T19:24:34Z</time>
      </trkpt>
      <trkpt lat="48.8625" lon="2.3394">
        <ele>47.79999923706</ele>
        <time>2016-03-14T19:24:39Z</time>
      </trkpt>
      <trkpt lat="48.86252" lon="2.33941">
        <ele>48</ele>
        <time>2016-03-14T19:24:40Z</time>
      </trkpt>
      <trkpt lat="48.86262" lon="2.3393">
        <ele>48</ele>
        <time>2016-03-14T19:24:44Z</time>
      </trkpt>
      <trkpt lat="48.86282" lon="2.33924">
        <ele>48.20000076294</ele>
        <time>2016-03-14T19:24:48Z</time>
      </trkpt>
      <trkpt lat="48.86301" lon="2.33928">
        <ele>47.79999923706</ele>
        <time>2016-03-14T19:24:52Z</time>
      </trkpt>
      <trkpt lat="48.86318" lon="2.33935">
        <ele>47.599998474121</ele>
        <time>2016-03-14T19:24:58Z</time>
      </trkpt>
      <trkpt lat="48.8634" lon="2.33937">
        <ele>47.20000076294</ele>
        <time>2016-03-14T19:25:05Z</time>
      </trkpt>
      <trkpt lat="48.86357" lon="2.33956">
        <ele>47.599998474121</ele>
        <time>2016-03-14T19:25:11Z</time>
      </trkpt>
      <trkpt lat="48.86372" lon="2.33975">
        <ele>48.599998474121</ele>
        <time>2016-03-14T19:25:18Z</time>
      </trkpt>
      <trkpt lat="48.86393" lon="2.33983">
        <ele>49.400001525879</ele>
        <time>2016-03-14T19:25:24Z</time>
      </trkpt>
      <trkpt lat="48.86412" lon="2.33988">
        <ele>50</ele>
        <time>2016-03-14T19:25:28Z</time>
      </trkpt>
      <trkpt lat="48.86433" lon="2.33996">
        <ele>50.79999923706</ele>
        <time>2016-03-14T19:25:33Z</time>
      </trkpt>
      <trkpt lat="48.86451" lon="2.34002">
        <ele>50.599998474121</ele>
        <time>2016-03-14T19:25:39Z</time>
      </trkpt>
      <trkpt lat="48.8647" lon="2.34011">
        <ele>50.20000076294</ele>
        <time>2016-03-14T19:25:43Z</time>
      </trkpt>
      <trkpt lat="48.86488" lon="2.34022">
        <ele>49.79999923706</ele>
        <time>2016-03-14T19:25:48Z</time>
      </trkpt>
      <trkpt lat="48.86509" lon="2.34033">
        <ele>49.400001525879</ele>
        <time>2016-03-14T19:25:53Z</time>
      </trkpt>
      <trkpt lat="48.86526" lon="2.34042">
        <ele>49</ele>
        <time>2016-03-14T19:25:57Z</time>
      </trkpt>
      <trkpt lat="48.86544" lon="2.34055">
        <ele>49.20000076294</ele>
        <time>2016-03-14T19:26:02Z</time>
      </trkpt>
      <trkpt lat="48.8656" lon="2.34072">
        <ele>49.400001525879</ele>
        <time>2016-03-14T19:26:08Z</time>
      </trkpt>
      <trkpt lat="48.86572" lon="2.34096">
        <ele>49.20000076294</ele>
        <time>2016-03-14T19:26:14Z</time>
      </trkpt>
      <trkpt lat="48.86591" lon="2.34106">
        <ele>48.79999923706</ele>
        <time>2016-03-14T19:26:18Z</time>
      </trkpt>
      <trkpt lat="48.8661" lon="2.34122">
        <ele>48.599998474121</ele>
        <time>2016-03-14T19:26:21Z</time>
      </trkpt>
      <trkpt lat="48.86629" lon="2.34117">
        <ele>48.79999923706</ele>
        <time>2016-03-14T19:26:25Z</time>
      </trkpt>
      <trkpt lat="48.86636" lon="2.34113">
        <ele>49</ele>
        <time>2016-03-14T19:26:27Z</time>
      </trkpt>
      <trkpt lat="48.86641" lon="2.34109">
        <ele>49</ele>
        <time>2016-03-14T19:26:29Z</time>
      </trkpt>
      <trkpt lat="48.86639" lon="2.34089">
        <ele>49</ele>
        <time>2016-03-14T19:26:34Z</time>
      </trkpt>
      <trkpt lat="48.86648" lon="2.34063">
        <ele>49.400001525879</ele>
        <time>2016-03-14T19:26:39Z</time>
      </trkpt>
      <trkpt lat="48.86661" lon="2.34041">
        <ele>50</ele>
        <time>2016-03-14T19:26:43Z</time>
      </trkpt>
      <trkpt lat="48.86677" lon="2.34021">
        <ele>50.400001525879</ele>
        <time>2016-03-14T19:26:47Z</time>
      </trkpt>
      <trkpt lat="48.86691" lon="2.34002">
        <ele>50.79999923706</ele>
        <time>2016-03-14T19:26:51Z</time>
      </trkpt>
      <trkpt lat="48.86689" lon="2.3399">
        <ele>50.79999923706</ele>
        <time>2016-03-14T19:26:53Z</time>
      </trkpt>
      <trkpt lat="48.86689" lon="2.33953">
        <ele>49.400001525879</ele>
        <time>2016-03-14T19:26:58Z</time>
      </trkpt>
      <trkpt lat="48.86692" lon="2.33926">
        <ele>48.400001525879</ele>
        <time>2016-03-14T19:27:01Z</time>
      </trkpt>
      <trkpt lat="48.86702" lon="2.33905">
        <ele>48.20000076294</ele>
        <time>2016-03-14T19:27:04Z</time>
      </trkpt>
      <trkpt lat="48.86711" lon="2.33878">
        <ele>48.599998474121</ele>
        <time>2016-03-14T19:27:08Z</time>
      </trkpt>
      <trkpt lat="48.86716" lon="2.33847">
        <ele>49</ele>
        <time>2016-03-14T19:27:13Z</time>
      </trkpt>
      <trkpt lat="48.86704" lon="2.33807">
        <ele>49.599998474121</ele>
        <time>2016-03-14T19:27:18Z</time>
      </trkpt>
      <trkpt lat="48.86699" lon="2.33774">
        <ele>50.400001525879</ele>
        <time>2016-03-14T19:27:24Z</time>
      </trkpt>
      <trkpt lat="48.86691" lon="2.33749">
        <ele>51</ele>
        <time>2016-03-14T19:27:29Z</time>
      </trkpt>
      <trkpt lat="48.86686" lon="2.33724">
        <ele>51</ele>
        <time>2016-03-14T19:27:33Z</time>
      </trkpt>
      <trkpt lat="48.8669" lon="2.33697">
        <ele>51</ele>
        <time>2016-03-14T19:27:37Z</time>
      </trkpt>
      <trkpt lat="48.86694" lon="2.33672">
        <ele>51</ele>
        <time>2016-03-14T19:27:41Z</time>
      </trkpt>
      <trkpt lat="48.867" lon="2.33646">
        <ele>51</ele>
        <time>2016-03-14T19:27:45Z</time>
      </trkpt>
      <trkpt lat="48.86705" lon="2.33624">
        <ele>50.79999923706</ele>
        <time>2016-03-14T19:27:48Z</time>
      </trkpt>
      <trkpt lat="48.86715" lon="2.33593">
        <ele>50.20000076294</ele>
        <time>2016-03-14T19:27:53Z</time>
      </trkpt>
      <trkpt lat="48.86729" lon="2.33573">
        <ele>50</ele>
        <time>2016-03-14T19:27:57Z</time>
      </trkpt>
      <trkpt lat="48.86736" lon="2.33548">
        <ele>50</ele>
        <time>2016-03-14T19:28:01Z</time>
      </trkpt>
      <trkpt lat="48.8675" lon="2.33524">
        <ele>50</ele>
        <time>2016-03-14T19:28:05Z</time>
      </trkpt>
      <trkpt lat="48.86767" lon="2.33505">
        <ele>50</ele>
        <time>2016-03-14T19:28:09Z</time>
      </trkpt>
      <trkpt lat="48.86786" lon="2.33495">
        <ele>49.79999923706</ele>
        <time>2016-03-14T19:28:13Z</time>
      </trkpt>
      <trkpt lat="48.8679" lon="2.33493">
        <ele>49.79999923706</ele>
        <time>2016-03-14T19:28:14Z</time>
      </trkpt>
      <trkpt lat="48.868" lon="2.33488">
        <ele>49.79999923706</ele>
        <time>2016-03-14T19:28:17Z</time>
      </trkpt>
      <trkpt lat="48.8681" lon="2.33485">
        <ele>49.599998474121</ele>
        <time>2016-03-14T19:28:19Z</time>
      </trkpt>
      <trkpt lat="48.86829" lon="2.33486">
        <ele>49.400001525879</ele>
        <time>2016-03-14T19:28:22Z</time>
      </trkpt>
      <trkpt lat="48.86842" lon="2.3349">
        <ele>49.20000076294</ele>
        <time>2016-03-14T19:28:24Z</time>
      </trkpt>
      <trkpt lat="48.86855" lon="2.33496">
        <ele>49</ele>
        <time>2016-03-14T19:28:26Z</time>
      </trkpt>
      <trkpt lat="48.86845" lon="2.33525">
        <ele>48.400001525879</ele>
        <time>2016-03-14T19:28:36Z</time>
      </trkpt>
      <trkpt lat="48.86839" lon="2.33528">
        <ele>48.400001525879</ele>
        <time>2016-03-14T19:28:40Z</time>
      </trkpt>
      <trkpt lat="48.86849" lon="2.33534">
        <ele>48.20000076294</ele>
        <time>2016-03-14T19:28:46Z</time>
      </trkpt>
      <trkpt lat="48.86863" lon="2.33521">
        <ele>48.599998474121</ele>
        <time>2016-03-14T19:28:50Z</time>
      </trkpt>
      <trkpt lat="48.86864" lon="2.33507">
        <ele>48.79999923706</ele>
        <time>2016-03-14T19:28:53Z</time>
      </trkpt>
      <trkpt lat="48.86871" lon="2.3349">
        <ele>49</ele>
        <time>2016-03-14T19:28:57Z</time>
      </trkpt>
      <trkpt lat="48.86869" lon="2.33482">
        <ele>49.20000076294</ele>
        <time>2016-03-14T19:29:01Z</time>
      </trkpt>
      <trkpt lat="48.86867" lon="2.33477">
        <ele>49.400001525879</ele>
        <time>2016-03-14T19:29:03Z</time>
      </trkpt>
      <trkpt lat="48.86849" lon="2.33466">
        <ele>49.79999923706</ele>
        <time>2016-03-14T19:29:10Z</time>
      </trkpt>
      <trkpt lat="48.86835" lon="2.33484">
        <ele>49.400001525879</ele>
        <time>2016-03-14T19:29:13Z</time>
      </trkpt>
      <trkpt lat="48.86833" lon="2.33487">
        <ele>49.400001525879</ele>
        <time>2016-03-14T19:29:14Z</time>
      </trkpt>
      <trkpt lat="48.86823" lon="2.33488">
        <ele>49.599998474121</ele>
        <time>2016-03-14T19:29:21Z</time>
      </trkpt>
      <trkpt lat="48.86844" lon="2.33469">
        <ele>49.599998474121</ele>
        <time>2016-03-14T19:29:26Z</time>
      </trkpt>
      <trkpt lat="48.86847" lon="2.33466">
        <ele>49.79999923706</ele>
        <time>2016-03-14T19:29:27Z</time>
      </trkpt>
      <trkpt lat="48.86862" lon="2.33445">
        <ele>50.20000076294</ele>
        <time>2016-03-14T19:29:33Z</time>
      </trkpt>
      <trkpt lat="48.86854" lon="2.33423">
        <ele>50.79999923706</ele>
        <time>2016-03-14T19:29:38Z</time>
      </trkpt>
      <trkpt lat="48.86842" lon="2.33396">
        <ele>50.599998474121</ele>
        <time>2016-03-14T19:29:42Z</time>
      </trkpt>
      <trkpt lat="48.86817" lon="2.3336">
        <ele>49.79999923706</ele>
        <time>2016-03-14T19:29:47Z</time>
      </trkpt>
      <trkpt lat="48.86819" lon="2.33326">
        <ele>49.400001525879</ele>
        <time>2016-03-14T19:29:52Z</time>
      </trkpt>
      <trkpt lat="48.86825" lon="2.33299">
        <ele>48.79999923706</ele>
        <time>2016-03-14T19:29:56Z</time>
      </trkpt>
      <trkpt lat="48.86833" lon="2.33273">
        <ele>49.20000076294</ele>
        <time>2016-03-14T19:30:00Z</time>
      </trkpt>
      <trkpt lat="48.86842" lon="2.33249">
        <ele>49.400001525879</ele>
        <time>2016-03-14T19:30:04Z</time>
      </trkpt>
      <trkpt lat="48.86848" lon="2.33223">
        <ele>49.599998474121</ele>
        <time>2016-03-14T19:30:08Z</time>
      </trkpt>
      <trkpt lat="48.86857" lon="2.33196">
        <ele>50</ele>
        <time>2016-03-14T19:30:12Z</time>
      </trkpt>
      <trkpt lat="48.86855" lon="2.33166">
        <ele>50</ele>
        <time>2016-03-14T19:30:16Z</time>
      </trkpt>
      <trkpt lat="48.8685" lon="2.33135">
        <ele>50.20000076294</ele>
        <time>2016-03-14T19:30:20Z</time>
      </trkpt>
      <trkpt lat="48.86847" lon="2.33105">
        <ele>50.400001525879</ele>
        <time>2016-03-14T19:30:24Z</time>
      </trkpt>
      <trkpt lat="48.86849" lon="2.33076">
        <ele>50.400001525879</ele>
        <time>2016-03-14T19:30:28Z</time>
      </trkpt>
      <trkpt lat="48.86857" lon="2.33051">
        <ele>49.20000076294</ele>
        <time>2016-03-14T19:30:32Z</time>
      </trkpt>
      <trkpt lat="48.86864" lon="2.33022">
        <ele>47.599998474121</ele>
        <time>2016-03-14T19:30:37Z</time>
      </trkpt>
      <trkpt lat="48.86876" lon="2.32996">
        <ele>47.20000076294</ele>
        <time>2016-03-14T19:30:42Z</time>
      </trkpt>
      <trkpt lat="48.86889" lon="2.32974">
        <ele>48</ele>
        <time>2016-03-14T19:30:47Z</time>
      </trkpt>
      <trkpt lat="48.86901" lon="2.3296">
        <ele>48.599998474121</ele>
        <time>2016-03-14T19:30:51Z</time>
      </trkpt>
      <trkpt lat="48.86916" lon="2.32941">
        <ele>49.20000076294</ele>
        <time>2016-03-14T19:30:54Z</time>
      </trkpt>
      <trkpt lat="48.86924" lon="2.32911">
        <ele>49.400001525879</ele>
        <time>2016-03-14T19:31:00Z</time>
      </trkpt>
      <trkpt lat="48.86922" lon="2.32902">
        <ele>49.79999923706</ele>
        <time>2016-03-14T19:31:02Z</time>
      </trkpt>
      <trkpt lat="48.86926" lon="2.32872">
        <ele>50</ele>
        <time>2016-03-14T19:31:08Z</time>
      </trkpt>
      <trkpt lat="48.86928" lon="2.32869">
        <ele>50</ele>
        <time>2016-03-14T19:31:09Z</time>
      </trkpt>
      <trkpt lat="48.86945" lon="2.32855">
        <ele>50</ele>
        <time>2016-03-14T19:31:13Z</time>
      </trkpt>
      <trkpt lat="48.86961" lon="2.32839">
        <ele>49.599998474121</ele>
        <time>2016-03-14T19:31:16Z</time>
      </trkpt>
      <trkpt lat="48.86964" lon="2.32835">
        <ele>49.20000076294</ele>
        <time>2016-03-14T19:31:17Z</time>
      </trkpt>
      <trkpt lat="48.87006" lon="2.32842">
        <ele>48</ele>
        <time>2016-03-14T19:31:18Z</time>
      </trkpt>
      <trkpt lat="48.87019" lon="2.32839">
        <ele>47.400001525879</ele>
        <time>2016-03-14T19:31:21Z</time>
      </trkpt>
      <trkpt lat="48.87022" lon="2.32835">
        <ele>47.20000076294</ele>
        <time>2016-03-14T19:31:24Z</time>
      </trkpt>
      <trkpt lat="48.87022" lon="2.32831">
        <ele>47</ele>
        <time>2016-03-14T19:31:26Z</time>
      </trkpt>
      <trkpt lat="48.87021" lon="2.32831">
        <ele>47</ele>
        <time>2016-03-14T19:31:28Z</time>
      </trkpt>
      <trkpt lat="48.87014" lon="2.3283">
        <ele>47.400001525879</ele>
        <time>2016-03-14T19:31:33Z</time>
      </trkpt>
      <trkpt lat="48.87012" lon="2.328">
        <ele>47.400001525879</ele>
        <time>2016-03-14T19:31:44Z</time>
      </trkpt>
      <trkpt lat="48.87004" lon="2.32773">
        <ele>47.599998474121</ele>
        <time>2016-03-14T19:31:48Z</time>
      </trkpt>
      <trkpt lat="48.87006" lon="2.3274">
        <ele>47.400001525879</ele>
        <time>2016-03-14T19:31:53Z</time>
      </trkpt>
      <trkpt lat="48.87001" lon="2.32712">
        <ele>47.20000076294</ele>
        <time>2016-03-14T19:31:57Z</time>
      </trkpt>
      <trkpt lat="48.87007" lon="2.32685">
        <ele>47.599998474121</ele>
        <time>2016-03-14T19:32:01Z</time>
      </trkpt>
      <trkpt lat="48.87011" lon="2.32668">
        <ele>47.79999923706</ele>
        <time>2016-03-14T19:32:04Z</time>
      </trkpt>
      <trkpt lat="48.87022" lon="2.32641">
        <ele>47.400001525879</ele>
        <time>2016-03-14T19:32:09Z</time>
      </trkpt>
      <trkpt lat="48.8703" lon="2.32611">
        <ele>47</ele>
        <time>2016-03-14T19:32:15Z</time>
      </trkpt>
      <trkpt lat="48.87034" lon="2.32597">
        <ele>46.599998474121</ele>
        <time>2016-03-14T19:32:19Z</time>
      </trkpt>
      <trkpt lat="48.87052" lon="2.32595">
        <ele>46.79999923706</ele>
        <time>2016-03-14T19:32:29Z</time>
      </trkpt>
      <trkpt lat="48.87072" lon="2.326">
        <ele>47.400001525879</ele>
        <time>2016-03-14T19:32:34Z</time>
      </trkpt>
      <trkpt lat="48.87091" lon="2.32608">
        <ele>47.79999923706</ele>
        <time>2016-03-14T19:32:38Z</time>
      </trkpt>
      <trkpt lat="48.87114" lon="2.32615">
        <ele>48.20000076294</ele>
        <time>2016-03-14T19:32:42Z</time>
      </trkpt>
      <trkpt lat="48.87138" lon="2.32621">
        <ele>48</ele>
        <time>2016-03-14T19:32:46Z</time>
      </trkpt>
      <trkpt lat="48.87157" lon="2.32623">
        <ele>48.400001525879</ele>
        <time>2016-03-14T19:32:49Z</time>
      </trkpt>
      <trkpt lat="48.87181" lon="2.32628">
        <ele>49.20000076294</ele>
        <time>2016-03-14T19:32:53Z</time>
      </trkpt>
      <trkpt lat="48.87199" lon="2.32635">
        <ele>49.400001525879</ele>
        <time>2016-03-14T19:32:57Z</time>
      </trkpt>
      <trkpt lat="48.87215" lon="2.32637">
        <ele>49.400001525879</ele>
        <time>2016-03-14T19:33:00Z</time>
      </trkpt>
      <trkpt lat="48.87231" lon="2.32641">
        <ele>49.20000076294</ele>
        <time>2016-03-14T19:33:03Z</time>
      </trkpt>
      <trkpt lat="48.87245" lon="2.32643">
        <ele>49.20000076294</ele>
        <time>2016-03-14T19:33:06Z</time>
      </trkpt>
      <trkpt lat="48.8727" lon="2.32654">
        <ele>49</ele>
        <time>2016-03-14T19:33:11Z</time>
      </trkpt>
      <trkpt lat="48.87274" lon="2.32657">
        <ele>48.79999923706</ele>
        <time>2016-03-14T19:33:12Z</time>
      </trkpt>
      <trkpt lat="48.87283" lon="2.3266">
        <ele>48.79999923706</ele>
        <time>2016-03-14T19:33:15Z</time>
      </trkpt>
      <trkpt lat="48.87301" lon="2.32648">
        <ele>48.400001525879</ele>
        <time>2016-03-14T19:33:21Z</time>
      </trkpt>
      <trkpt lat="48.87304" lon="2.32654">
        <ele>48.599998474121</ele>
        <time>2016-03-14T19:33:23Z</time>
      </trkpt>
      <trkpt lat="48.873" lon="2.32661">
        <ele>48.599998474121</ele>
        <time>2016-03-14T19:33:24Z</time>
      </trkpt>
      <trkpt lat="48.87307" lon="2.32683">
        <ele>48.599998474121</ele>
        <time>2016-03-14T19:33:34Z</time>
      </trkpt>
      <trkpt lat="48.87309" lon="2.32683">
        <ele>48.599998474121</ele>
        <time>2016-03-14T19:33:35Z</time>
      </trkpt>
      <trkpt lat="48.87316" lon="2.32685">
        <ele>48.400001525879</ele>
        <time>2016-03-14T19:33:41Z</time>
      </trkpt>
      <trkpt lat="48.87294" lon="2.32693">
        <ele>49</ele>
        <time>2016-03-14T19:33:45Z</time>
      </trkpt>
      <trkpt lat="48.87299" lon="2.32675">
        <ele>48.599998474121</ele>
        <time>2016-03-14T19:33:49Z</time>
      </trkpt>
      <trkpt lat="48.87318" lon="2.32653">
        <ele>48.400001525879</ele>
        <time>2016-03-14T19:33:53Z</time>
      </trkpt>
      <trkpt lat="48.87331" lon="2.32631">
        <ele>48.20000076294</ele>
        <time>2016-03-14T19:33:56Z</time>
      </trkpt>
      <trkpt lat="48.87345" lon="2.32606">
        <ele>49.20000076294</ele>
        <time>2016-03-14T19:33:59Z</time>
      </trkpt>
      <trkpt lat="48.87358" lon="2.32578">
        <ele>49.79999923706</ele>
        <time>2016-03-14T19:34:03Z</time>
      </trkpt>
      <trkpt lat="48.87369" lon="2.32548">
        <ele>48</ele>
        <time>2016-03-14T19:34:07Z</time>
      </trkpt>
      <trkpt lat="48.87377" lon="2.32519">
        <ele>46.599998474121</ele>
        <time>2016-03-14T19:34:11Z</time>
      </trkpt>
      <trkpt lat="48.87385" lon="2.32492">
        <ele>45.20000076294</ele>
        <time>2016-03-14T19:34:15Z</time>
      </trkpt>
      <trkpt lat="48.87392" lon="2.32462">
        <ele>44</ele>
        <time>2016-03-14T19:34:19Z</time>
      </trkpt>
      <trkpt lat="48.87396" lon="2.3244">
        <ele>43.79999923706</ele>
        <time>2016-03-14T19:34:22Z</time>
      </trkpt>
      <trkpt lat="48.874" lon="2.32412">
        <ele>44</ele>
        <time>2016-03-14T19:34:26Z</time>
      </trkpt>
      <trkpt lat="48.874" lon="2.32393">
        <ele>43.400001525879</ele>
        <time>2016-03-14T19:34:29Z</time>
      </trkpt>
      <trkpt lat="48.87399" lon="2.32373">
        <ele>43</ele>
        <time>2016-03-14T19:34:32Z</time>
      </trkpt>
      <trkpt lat="48.87401" lon="2.32342">
        <ele>43</ele>
        <time>2016-03-14T19:34:37Z</time>
      </trkpt>
      <trkpt lat="48.87409" lon="2.32311">
        <ele>43</ele>
        <time>2016-03-14T19:34:42Z</time>
      </trkpt>
      <trkpt lat="48.87409" lon="2.32299">
        <ele>43</ele>
        <time>2016-03-14T19:34:44Z</time>
      </trkpt>
      <trkpt lat="48.87413" lon="2.32268">
        <ele>44.20000076294</ele>
        <time>2016-03-14T19:34:49Z</time>
      </trkpt>
      <trkpt lat="48.87411" lon="2.32248">
        <ele>45</ele>
        <time>2016-03-14T19:34:52Z</time>
      </trkpt>
      <trkpt lat="48.87415" lon="2.32216">
        <ele>46.20000076294</ele>
        <time>2016-03-14T19:34:57Z</time>
      </trkpt>
      <trkpt lat="48.87416" lon="2.3221">
        <ele>46.400001525879</ele>
        <time>2016-03-14T19:34:58Z</time>
      </trkpt>
      <trkpt lat="48.87421" lon="2.32188">
        <ele>47.400001525879</ele>
        <time>2016-03-14T19:35:01Z</time>
      </trkpt>
      <trkpt lat="48.87427" lon="2.32162">
        <ele>48.599998474121</ele>
        <time>2016-03-14T19:35:05Z</time>
      </trkpt>
      <trkpt lat="48.87434" lon="2.32136">
        <ele>48.400001525879</ele>
        <time>2016-03-14T19:35:09Z</time>
      </trkpt>
      <trkpt lat="48.87438" lon="2.32108">
        <ele>48.20000076294</ele>
        <time>2016-03-14T19:35:13Z</time>
      </trkpt>
      <trkpt lat="48.87439" lon="2.32078">
        <ele>48</ele>
        <time>2016-03-14T19:35:18Z</time>
      </trkpt>
      <trkpt lat="48.87443" lon="2.32054">
        <ele>47.20000076294</ele>
        <time>2016-03-14T19:35:22Z</time>
      </trkpt>
      <trkpt lat="48.87445" lon="2.32021">
        <ele>46.400001525879</ele>
        <time>2016-03-14T19:35:28Z</time>
      </trkpt>
      <trkpt lat="48.87451" lon="2.31998">
        <ele>46</ele>
        <time>2016-03-14T19:35:35Z</time>
      </trkpt>
      <trkpt lat="48.8745" lon="2.31986">
        <ele>46</ele>
        <time>2016-03-14T19:35:42Z</time>
      </trkpt>
      <trkpt lat="48.87453" lon="2.31985">
        <ele>46</ele>
        <time>2016-03-14T19:35:46Z</time>
      </trkpt>
      <trkpt lat="48.87455" lon="2.31985">
        <ele>46</ele>
        <time>2016-03-14T19:35:47Z</time>
      </trkpt>
      <trkpt lat="48.8748" lon="2.3198">
        <ele>46</ele>
        <time>2016-03-14T19:36:09Z</time>
      </trkpt>
      <trkpt lat="48.87495" lon="2.31964">
        <ele>45.79999923706</ele>
        <time>2016-03-14T19:36:15Z</time>
      </trkpt>
      <trkpt lat="48.87509" lon="2.31946">
        <ele>45.20000076294</ele>
        <time>2016-03-14T19:36:20Z</time>
      </trkpt>
      <trkpt lat="48.87526" lon="2.31928">
        <ele>44.20000076294</ele>
        <time>2016-03-14T19:36:25Z</time>
      </trkpt>
      <trkpt lat="48.87549" lon="2.3192">
        <ele>43.79999923706</ele>
        <time>2016-03-14T19:36:29Z</time>
      </trkpt>
      <trkpt lat="48.87563" lon="2.319">
        <ele>44</ele>
        <time>2016-03-14T19:36:35Z</time>
      </trkpt>
      <trkpt lat="48.87569" lon="2.31873">
        <ele>45</ele>
        <time>2016-03-14T19:36:41Z</time>
      </trkpt>
      <trkpt lat="48.87564" lon="2.31842">
        <ele>46.79999923706</ele>
        <time>2016-03-14T19:36:47Z</time>
      </trkpt>
      <trkpt lat="48.87556" lon="2.31817">
        <ele>47.599998474121</ele>
        <time>2016-03-14T19:36:51Z</time>
      </trkpt>
      <trkpt lat="48.87546" lon="2.31789">
        <ele>47.79999923706</ele>
        <time>2016-03-14T19:36:55Z</time>
      </trkpt>
      <trkpt lat="48.87539" lon="2.31761">
        <ele>48</ele>
        <time>2016-03-14T19:36:59Z</time>
      </trkpt>
      <trkpt lat="48.87532" lon="2.31734">
        <ele>48.400001525879</ele>
        <time>2016-03-14T19:37:03Z</time>
      </trkpt>
      <trkpt lat="48.87527" lon="2.31706">
        <ele>48.20000076294</ele>
        <time>2016-03-14T19:37:07Z</time>
      </trkpt>
      <trkpt lat="48.87526" lon="2.31681">
        <ele>48.20000076294</ele>
        <time>2016-03-14T19:37:11Z</time>
      </trkpt>
      <trkpt lat="48.87526" lon="2.31653">
        <ele>48</ele>
        <time>2016-03-14T19:37:16Z</time>
      </trkpt>
      <trkpt lat="48.87517" lon="2.31636">
        <ele>48</ele>
        <time>2016-03-14T19:37:20Z</time>
      </trkpt>
      <trkpt lat="48.87511" lon="2.31611">
        <ele>48</ele>
        <time>2016-03-14T19:37:28Z</time>
      </trkpt>
      <trkpt lat="48.87508" lon="2.31609">
        <ele>48</ele>
        <time>2016-03-14T19:37:29Z</time>
      </trkpt>
      <trkpt lat="48.87512" lon="2.31595">
        <ele>48</ele>
        <time>2016-03-14T19:37:33Z</time>
      </trkpt>
      <trkpt lat="48.87525" lon="2.31573">
        <ele>48.20000076294</ele>
        <time>2016-03-14T19:37:41Z</time>
      </trkpt>
      <trkpt lat="48.87529" lon="2.31565">
        <ele>48.599998474121</ele>
        <time>2016-03-14T19:37:45Z</time>
      </trkpt>
      <trkpt lat="48.87543" lon="2.31543">
        <ele>49.400001525879</ele>
        <time>2016-03-14T19:37:56Z</time>
      </trkpt>
      <trkpt lat="48.8754" lon="2.31529">
        <ele>49.599998474121</ele>
        <time>2016-03-14T19:38:02Z</time>
      </trkpt>
      <trkpt lat="48.87543" lon="2.31515">
        <ele>50</ele>
        <time>2016-03-14T19:38:07Z</time>
      </trkpt>
      <trkpt lat="48.87541" lon="2.31504">
        <ele>50.20000076294</ele>
        <time>2016-03-14T19:38:11Z</time>
      </trkpt>
      <trkpt lat="48.87525" lon="2.31483">
        <ele>50.20000076294</ele>
        <time>2016-03-14T19:38:16Z</time>
      </trkpt>
      <trkpt lat="48.8751" lon="2.31465">
        <ele>50.599998474121</ele>
        <time>2016-03-14T19:38:23Z</time>
      </trkpt>
      <trkpt lat="48.87507" lon="2.3144">
        <ele>50.79999923706</ele>
        <time>2016-03-14T19:38:32Z</time>
      </trkpt>
      <trkpt lat="48.87514" lon="2.31411">
        <ele>51</ele>
        <time>2016-03-14T19:38:40Z</time>
      </trkpt>
      <trkpt lat="48.87529" lon="2.31388">
        <ele>50.599998474121</ele>
        <time>2016-03-14T19:38:46Z</time>
      </trkpt>
      <trkpt lat="48.8755" lon="2.31368">
        <ele>50.79999923706</ele>
        <time>2016-03-14T19:38:51Z</time>
      </trkpt>
      <trkpt lat="48.87571" lon="2.31356">
        <ele>51.79999923706</ele>
        <time>2016-03-14T19:38:55Z</time>
      </trkpt>
      <trkpt lat="48.87591" lon="2.31343">
        <ele>53</ele>
        <time>2016-03-14T19:39:00Z</time>
      </trkpt>
      <trkpt lat="48.8761" lon="2.31326">
        <ele>54</ele>
        <time>2016-03-14T19:39:04Z</time>
      </trkpt>
      <trkpt lat="48.87617" lon="2.31289">
        <ele>54.599998474121</ele>
        <time>2016-03-14T19:39:12Z</time>
      </trkpt>
      <trkpt lat="48.87629" lon="2.31265">
        <ele>54.79999923706</ele>
        <time>2016-03-14T19:39:20Z</time>
      </trkpt>
      <trkpt lat="48.87644" lon="2.31245">
        <ele>55</ele>
        <time>2016-03-14T19:39:27Z</time>
      </trkpt>
      <trkpt lat="48.87653" lon="2.31221">
        <ele>55</ele>
        <time>2016-03-14T19:39:36Z</time>
      </trkpt>
      <trkpt lat="48.8766" lon="2.31193">
        <ele>56.400001525879</ele>
        <time>2016-03-14T19:39:43Z</time>
      </trkpt>
      <trkpt lat="48.87665" lon="2.31162">
        <ele>58.400001525879</ele>
        <time>2016-03-14T19:39:50Z</time>
      </trkpt>
      <trkpt lat="48.87666" lon="2.31135">
        <ele>58.20000076294</ele>
        <time>2016-03-14T19:39:56Z</time>
      </trkpt>
      <trkpt lat="48.87677" lon="2.31112">
        <ele>59.79999923706</ele>
        <time>2016-03-14T19:40:04Z</time>
      </trkpt>
      <trkpt lat="48.87682" lon="2.31085">
        <ele>61</ele>
        <time>2016-03-14T19:40:14Z</time>
      </trkpt>
      <trkpt lat="48.87701" lon="2.31071">
        <ele>61</ele>
        <time>2016-03-14T19:40:19Z</time>
      </trkpt>
      <trkpt lat="48.87719" lon="2.31058">
        <ele>59.400001525879</ele>
        <time>2016-03-14T19:40:24Z</time>
      </trkpt>
      <trkpt lat="48.87741" lon="2.31052">
        <ele>58.20000076294</ele>
        <time>2016-03-14T19:40:28Z</time>
      </trkpt>
      <trkpt lat="48.87738" lon="2.31024">
        <ele>57</ele>
        <time>2016-03-14T19:40:38Z</time>
      </trkpt>
      <trkpt lat="48.87739" lon="2.31021">
        <ele>56.79999923706</ele>
        <time>2016-03-14T19:40:39Z</time>
      </trkpt>
      <trkpt lat="48.87746" lon="2.31009">
        <ele>56.400001525879</ele>
        <time>2016-03-14T19:40:43Z</time>
      </trkpt>
      <trkpt lat="48.87753" lon="2.30986">
        <ele>55.599998474121</ele>
        <time>2016-03-14T19:40:49Z</time>
      </trkpt>
      <trkpt lat="48.87751" lon="2.30976">
        <ele>55.20000076294</ele>
        <time>2016-03-14T19:40:53Z</time>
      </trkpt>
      <trkpt lat="48.8774" lon="2.30958">
        <ele>55</ele>
        <time>2016-03-14T19:41:16Z</time>
      </trkpt>
      <trkpt lat="48.87736" lon="2.30931">
        <ele>55.400001525879</ele>
        <time>2016-03-14T19:41:21Z</time>
      </trkpt>
      <trkpt lat="48.87735" lon="2.30898">
        <ele>56.20000076294</ele>
        <time>2016-03-14T19:41:27Z</time>
      </trkpt>
      <trkpt lat="48.87737" lon="2.30868">
        <ele>57.599998474121</ele>
        <time>2016-03-14T19:41:32Z</time>
      </trkpt>
      <trkpt lat="48.87733" lon="2.30838">
        <ele>58.79999923706</ele>
        <time>2016-03-14T19:41:36Z</time>
      </trkpt>
      <trkpt lat="48.87731" lon="2.30811">
        <ele>59.20000076294</ele>
        <time>2016-03-14T19:41:40Z</time>
      </trkpt>
      <trkpt lat="48.87733" lon="2.3078">
        <ele>59.599998474121</ele>
        <time>2016-03-14T19:41:45Z</time>
      </trkpt>
      <trkpt lat="48.87734" lon="2.30748">
        <ele>59.599998474121</ele>
        <time>2016-03-14T19:41:50Z</time>
      </trkpt>
      <trkpt lat="48.87732" lon="2.30727">
        <ele>58.79999923706</ele>
        <time>2016-03-14T19:41:53Z</time>
      </trkpt>
      <trkpt lat="48.87732" lon="2.30695">
        <ele>57.79999923706</ele>
        <time>2016-03-14T19:41:58Z</time>
      </trkpt>
      <trkpt lat="48.87733" lon="2.30688">
        <ele>57.79999923706</ele>
        <time>2016-03-14T19:41:59Z</time>
      </trkpt>
      <trkpt lat="48.87737" lon="2.30656">
        <ele>57.400001525879</ele>
        <time>2016-03-14T19:42:03Z</time>
      </trkpt>
      <trkpt lat="48.87739" lon="2.3065">
        <ele>57.599998474121</ele>
        <time>2016-03-14T19:42:04Z</time>
      </trkpt>
      <trkpt lat="48.87743" lon="2.30636">
        <ele>58.20000076294</ele>
        <time>2016-03-14T19:42:06Z</time>
      </trkpt>
      <trkpt lat="48.87752" lon="2.30612">
        <ele>58</ele>
        <time>2016-03-14T19:42:10Z</time>
      </trkpt>
      <trkpt lat="48.87764" lon="2.30586">
        <ele>57.79999923706</ele>
        <time>2016-03-14T19:42:15Z</time>
      </trkpt>
      <trkpt lat="48.87778" lon="2.30564">
        <ele>57.599998474121</ele>
        <time>2016-03-14T19:42:20Z</time>
      </trkpt>
      <trkpt lat="48.87791" lon="2.30541">
        <ele>56.20000076294</ele>
        <time>2016-03-14T19:42:26Z</time>
      </trkpt>
      <trkpt lat="48.87793" lon="2.30538">
        <ele>56</ele>
        <time>2016-03-14T19:42:27Z</time>
      </trkpt>
      <trkpt lat="48.87796" lon="2.30522">
        <ele>55.79999923706</ele>
        <time>2016-03-14T19:42:31Z</time>
      </trkpt>
      <trkpt lat="48.87798" lon="2.30494">
        <ele>56.79999923706</ele>
        <time>2016-03-14T19:42:37Z</time>
      </trkpt>
      <trkpt lat="48.8779" lon="2.30469">
        <ele>57.599998474121</ele>
        <time>2016-03-14T19:42:42Z</time>
      </trkpt>
      <trkpt lat="48.87779" lon="2.30445">
        <ele>58.400001525879</ele>
        <time>2016-03-14T19:42:47Z</time>
      </trkpt>
      <trkpt lat="48.87767" lon="2.30419">
        <ele>58.599998474121</ele>
        <time>2016-03-14T19:42:52Z</time>
      </trkpt>
      <trkpt lat="48.87754" lon="2.30394">
        <ele>58.79999923706</ele>
        <time>2016-03-14T19:42:57Z</time>
      </trkpt>
      <trkpt lat="48.87741" lon="2.30371">
        <ele>58.20000076294</ele>
        <time>2016-03-14T19:43:01Z</time>
      </trkpt>
      <trkpt lat="48.87731" lon="2.30346">
        <ele>57.599998474121</ele>
        <time>2016-03-14T19:43:05Z</time>
      </trkpt>
      <trkpt lat="48.87718" lon="2.30323">
        <ele>57.400001525879</ele>
        <time>2016-03-14T19:43:09Z</time>
      </trkpt>
      <trkpt lat="48.87705" lon="2.30298">
        <ele>58.400001525879</ele>
        <time>2016-03-14T19:43:13Z</time>
      </trkpt>
      <trkpt lat="48.87695" lon="2.30273">
        <ele>59.20000076294</ele>
        <time>2016-03-14T19:43:17Z</time>
      </trkpt>
      <trkpt lat="48.87684" lon="2.30246">
        <ele>60.20000076294</ele>
        <time>2016-03-14T19:43:22Z</time>
      </trkpt>
      <trkpt lat="48.87678" lon="2.30229">
        <ele>61</ele>
        <time>2016-03-14T19:43:25Z</time>
      </trkpt>
      <trkpt lat="48.87666" lon="2.30202">
        <ele>62.400001525879</ele>
        <time>2016-03-14T19:43:30Z</time>
      </trkpt>
      <trkpt lat="48.87664" lon="2.30197">
        <ele>62.79999923706</ele>
        <time>2016-03-14T19:43:31Z</time>
      </trkpt>
      <trkpt lat="48.87659" lon="2.30167">
        <ele>64</ele>
        <time>2016-03-14T19:43:35Z</time>
      </trkpt>
      <trkpt lat="48.87663" lon="2.3016">
        <ele>64</ele>
        <time>2016-03-14T19:43:36Z</time>
      </trkpt>
      <trkpt lat="48.87669" lon="2.30133">
        <ele>64.199996948242</ele>
        <time>2016-03-14T19:43:40Z</time>
      </trkpt>
      <trkpt lat="48.87673" lon="2.30119">
        <ele>64.400001525879</ele>
        <time>2016-03-14T19:43:43Z</time>
      </trkpt>
      <trkpt lat="48.87677" lon="2.3011">
        <ele>64.599998474121</ele>
        <time>2016-03-14T19:43:45Z</time>
      </trkpt>
      <trkpt lat="48.87681" lon="2.30094">
        <ele>64.800003051758</ele>
        <time>2016-03-14T19:43:49Z</time>
      </trkpt>
      <trkpt lat="48.87683" lon="2.30084">
        <ele>65</ele>
        <time>2016-03-14T19:43:51Z</time>
      </trkpt>
      <trkpt lat="48.87686" lon="2.30071">
        <ele>65</ele>
        <time>2016-03-14T19:43:54Z</time>
      </trkpt>
      <trkpt lat="48.87696" lon="2.30046">
        <ele>63.79999923706</ele>
        <time>2016-03-14T19:44:01Z</time>
      </trkpt>
      <trkpt lat="48.87713" lon="2.30031">
        <ele>62.79999923706</ele>
        <time>2016-03-14T19:44:06Z</time>
      </trkpt>
      <trkpt lat="48.87725" lon="2.30007">
        <ele>61.599998474121</ele>
        <time>2016-03-14T19:44:13Z</time>
      </trkpt>
      <trkpt lat="48.87736" lon="2.29981">
        <ele>60.400001525879</ele>
        <time>2016-03-14T19:44:20Z</time>
      </trkpt>
      <trkpt lat="48.87748" lon="2.29954">
        <ele>58.79999923706</ele>
        <time>2016-03-14T19:44:27Z</time>
      </trkpt>
      <trkpt lat="48.87762" lon="2.29934">
        <ele>56.79999923706</ele>
        <time>2016-03-14T19:44:32Z</time>
      </trkpt>
      <trkpt lat="48.87766" lon="2.29901">
        <ele>55</ele>
        <time>2016-03-14T19:44:37Z</time>
      </trkpt>
      <trkpt lat="48.87776" lon="2.29874">
        <ele>52.599998474121</ele>
        <time>2016-03-14T19:44:43Z</time>
      </trkpt>
      <trkpt lat="48.87788" lon="2.29848">
        <ele>50.79999923706</ele>
        <time>2016-03-14T19:44:47Z</time>
      </trkpt>
      <trkpt lat="48.87794" lon="2.29822">
        <ele>50.20000076294</ele>
        <time>2016-03-14T19:44:55Z</time>
      </trkpt>
      <trkpt lat="48.87799" lon="2.29792">
        <ele>51</ele>
        <time>2016-03-14T19:45:04Z</time>
      </trkpt>
      <trkpt lat="48.87814" lon="2.29769">
        <ele>51.20000076294</ele>
        <time>2016-03-14T19:45:10Z</time>
      </trkpt>
      <trkpt lat="48.87825" lon="2.29743">
        <ele>51.400001525879</ele>
        <time>2016-03-14T19:45:16Z</time>
      </trkpt>
      <trkpt lat="48.87827" lon="2.29714">
        <ele>51</ele>
        <time>2016-03-14T19:45:20Z</time>
      </trkpt>
      <trkpt lat="48.87826" lon="2.29683">
        <ele>50.599998474121</ele>
        <time>2016-03-14T19:45:24Z</time>
      </trkpt>
      <trkpt lat="48.87832" lon="2.29651">
        <ele>50.599998474121</ele>
        <time>2016-03-14T19:45:28Z</time>
      </trkpt>
      <trkpt lat="48.87831" lon="2.29622">
        <ele>50.79999923706</ele>
        <time>2016-03-14T19:45:32Z</time>
      </trkpt>
      <trkpt lat="48.87826" lon="2.29589">
        <ele>50.599998474121</ele>
        <time>2016-03-14T19:45:38Z</time>
      </trkpt>
      <trkpt lat="48.8783" lon="2.29561">
        <ele>50.400001525879</ele>
        <time>2016-03-14T19:45:43Z</time>
      </trkpt>
      <trkpt lat="48.87838" lon="2.29529">
        <ele>50.79999923706</ele>
        <time>2016-03-14T19:45:48Z</time>
      </trkpt>
      <trkpt lat="48.87844" lon="2.295">
        <ele>51.400001525879</ele>
        <time>2016-03-14T19:45:52Z</time>
      </trkpt>
      <trkpt lat="48.87851" lon="2.29472">
        <ele>50.79999923706</ele>
        <time>2016-03-14T19:45:56Z</time>
      </trkpt>
      <trkpt lat="48.87859" lon="2.29441">
        <ele>49.599998474121</ele>
        <time>2016-03-14T19:46:01Z</time>
      </trkpt>
      <trkpt lat="48.87867" lon="2.29411">
        <ele>49.20000076294</ele>
        <time>2016-03-14T19:46:06Z</time>
      </trkpt>
      <trkpt lat="48.87872" lon="2.2939">
        <ele>49.20000076294</ele>
        <time>2016-03-14T19:46:09Z</time>
      </trkpt>
      <trkpt lat="48.87874" lon="2.29374">
        <ele>49</ele>
        <time>2016-03-14T19:46:11Z</time>
      </trkpt>
      <trkpt lat="48.87879" lon="2.29344">
        <ele>48.79999923706</ele>
        <time>2016-03-14T19:46:15Z</time>
      </trkpt>
      <trkpt lat="48.87881" lon="2.29326">
        <ele>48.599998474121</ele>
        <time>2016-03-14T19:46:17Z</time>
      </trkpt>
      <trkpt lat="48.87882" lon="2.29312">
        <ele>48.79999923706</ele>
        <time>2016-03-14T19:46:19Z</time>
      </trkpt>
      <trkpt lat="48.87888" lon="2.29285">
        <ele>49.400001525879</ele>
        <time>2016-03-14T19:46:23Z</time>
      </trkpt>
      <trkpt lat="48.87897" lon="2.29262">
        <ele>48.20000076294</ele>
        <time>2016-03-14T19:46:26Z</time>
      </trkpt>
      <trkpt lat="48.87904" lon="2.29231">
        <ele>47.599998474121</ele>
        <time>2016-03-14T19:46:30Z</time>
      </trkpt>
      <trkpt lat="48.87909" lon="2.29203">
        <ele>47.79999923706</ele>
        <time>2016-03-14T19:46:34Z</time>
      </trkpt>
      <trkpt lat="48.87912" lon="2.29193">
        <ele>47.400001525879</ele>
        <time>2016-03-14T19:46:36Z</time>
      </trkpt>
      <trkpt lat="48.87916" lon="2.29185">
        <ele>47</ele>
        <time>2016-03-14T19:46:38Z</time>
      </trkpt>
      <trkpt lat="48.87923" lon="2.29172">
        <ele>46.20000076294</ele>
        <time>2016-03-14T19:46:42Z</time>
      </trkpt>
      <trkpt lat="48.87929" lon="2.29145">
        <ele>45.599998474121</ele>
        <time>2016-03-14T19:46:47Z</time>
      </trkpt>
      <trkpt lat="48.87934" lon="2.29133">
        <ele>45.79999923706</ele>
        <time>2016-03-14T19:46:49Z</time>
      </trkpt>
      <trkpt lat="48.87941" lon="2.29108">
        <ele>46.400001525879</ele>
        <time>2016-03-14T19:46:53Z</time>
      </trkpt>
      <trkpt lat="48.87947" lon="2.29077">
        <ele>47</ele>
        <time>2016-03-14T19:46:57Z</time>
      </trkpt>
      <trkpt lat="48.87955" lon="2.29048">
        <ele>47.400001525879</ele>
        <time>2016-03-14T19:47:01Z</time>
      </trkpt>
      <trkpt lat="48.87961" lon="2.29019">
        <ele>47.79999923706</ele>
        <time>2016-03-14T19:47:05Z</time>
      </trkpt>
      <trkpt lat="48.87963" lon="2.28988">
        <ele>47.79999923706</ele>
        <time>2016-03-14T19:47:09Z</time>
      </trkpt>
      <trkpt lat="48.87965" lon="2.28954">
        <ele>48.20000076294</ele>
        <time>2016-03-14T19:47:14Z</time>
      </trkpt>
      <trkpt lat="48.87964" lon="2.28923">
        <ele>48.400001525879</ele>
        <time>2016-03-14T19:47:19Z</time>
      </trkpt>
      <trkpt lat="48.87969" lon="2.28891">
        <ele>48.599998474121</ele>
        <time>2016-03-14T19:47:24Z</time>
      </trkpt>
      <trkpt lat="48.87969" lon="2.2888">
        <ele>48.599998474121</ele>
        <time>2016-03-14T19:47:26Z</time>
      </trkpt>
      <trkpt lat="48.87973" lon="2.28864">
        <ele>48.79999923706</ele>
        <time>2016-03-14T19:47:29Z</time>
      </trkpt>
      <trkpt lat="48.87981" lon="2.28839">
        <ele>48.599998474121</ele>
        <time>2016-03-14T19:47:34Z</time>
      </trkpt>
      <trkpt lat="48.87982" lon="2.28834">
        <ele>48.400001525879</ele>
        <time>2016-03-14T19:47:35Z</time>
      </trkpt>
      <trkpt lat="48.87985" lon="2.28819">
        <ele>48.400001525879</ele>
        <time>2016-03-14T19:47:39Z</time>
      </trkpt>
      <trkpt lat="48.87994" lon="2.28793">
        <ele>48.20000076294</ele>
        <time>2016-03-14T19:47:45Z</time>
      </trkpt>
      <trkpt lat="48.87999" lon="2.28788">
        <ele>48</ele>
        <time>2016-03-14T19:47:46Z</time>
      </trkpt>
      <trkpt lat="48.88014" lon="2.28765">
        <ele>48</ele>
        <time>2016-03-14T19:47:52Z</time>
      </trkpt>
      <trkpt lat="48.88027" lon="2.28739">
        <ele>47.400001525879</ele>
        <time>2016-03-14T19:47:58Z</time>
      </trkpt>
      <trkpt lat="48.88035" lon="2.2871">
        <ele>45.79999923706</ele>
        <time>2016-03-14T19:48:03Z</time>
      </trkpt>
      <trkpt lat="48.88042" lon="2.28682">
        <ele>44.400001525879</ele>
        <time>2016-03-14T19:48:07Z</time>
      </trkpt>
      <trkpt lat="48.88039" lon="2.28651">
        <ele>44.20000076294</ele>
        <time>2016-03-14T19:48:11Z</time>
      </trkpt>
      <trkpt lat="48.88039" lon="2.28617">
        <ele>43.79999923706</ele>
        <time>2016-03-14T19:48:16Z</time>
      </trkpt>
      <trkpt lat="48.88044" lon="2.2859">
        <ele>43.79999923706</ele>
        <time>2016-03-14T19:48:20Z</time>
      </trkpt>
      <trkpt lat="48.88044" lon="2.2856">
        <ele>45.400001525879</ele>
        <time>2016-03-14T19:48:24Z</time>
      </trkpt>
      <trkpt lat="48.88046" lon="2.28553">
        <ele>46</ele>
        <time>2016-03-14T19:48:25Z</time>
      </trkpt>
      <trkpt lat="48.88051" lon="2.28529">
        <ele>47.599998474121</ele>
        <time>2016-03-14T19:48:29Z</time>
      </trkpt>
      <trkpt lat="48.88054" lon="2.28511">
        <ele>47.400001525879</ele>
        <time>2016-03-14T19:48:32Z</time>
      </trkpt>
      <trkpt lat="48.88061" lon="2.28484">
        <ele>48.20000076294</ele>
        <time>2016-03-14T19:48:37Z</time>
      </trkpt>
      <trkpt lat="48.8807" lon="2.28466">
        <ele>50.20000076294</ele>
        <time>2016-03-14T19:48:41Z</time>
      </trkpt>
      <trkpt lat="48.88071" lon="2.28457">
        <ele>50.79999923706</ele>
        <time>2016-03-14T19:48:47Z</time>
      </trkpt>
      <trkpt lat="48.88072" lon="2.28456">
        <ele>50.599998474121</ele>
        <time>2016-03-14T19:48:48Z</time>
      </trkpt>
      <trkpt lat="48.88075" lon="2.28456">
        <ele>50</ele>
        <time>2016-03-14T19:48:52Z</time>
      </trkpt>
      <trkpt lat="48.88079" lon="2.28452">
        <ele>49</ele>
        <time>2016-03-14T19:48:57Z</time>
      </trkpt>
      <trkpt lat="48.88077" lon="2.28448">
        <ele>49.400001525879</ele>
        <time>2016-03-14T19:49:01Z</time>
      </trkpt>
      <trkpt lat="48.88099" lon="2.28453">
        <ele>43.79999923706</ele>
        <time>2016-03-14T19:49:13Z</time>
      </trkpt>
      <trkpt lat="48.88105" lon="2.28461">
        <ele>42.20000076294</ele>
        <time>2016-03-14T19:49:22Z</time>
      </trkpt>
      <trkpt lat="48.88102" lon="2.28454">
        <ele>43</ele>
        <time>2016-03-14T19:49:41Z</time>
      </trkpt>
      <trkpt lat="48.88106" lon="2.28459">
        <ele>42</ele>
        <time>2016-03-14T19:49:55Z</time>
      </trkpt>
      <trkpt lat="48.88099" lon="2.28464">
        <ele>43.79999923706</ele>
        <time>2016-03-14T19:50:48Z</time>
      </trkpt>
      <trkpt lat="48.88092" lon="2.28465">
        <ele>45.599998474121</ele>
        <time>2016-03-14T19:50:52Z</time>
      </trkpt>
      <trkpt lat="48.88088" lon="2.2846">
        <ele>46.599998474121</ele>
        <time>2016-03-14T19:51:14Z</time>
      </trkpt>
      <trkpt lat="48.88087" lon="2.28457">
        <ele>46.79999923706</ele>
        <time>2016-03-14T19:51:21Z</time>
      </trkpt>
      <trkpt lat="48.88089" lon="2.28451">
        <ele>46.400001525879</ele>
        <time>2016-03-14T19:51:37Z</time>
      </trkpt>
      <trkpt lat="48.88089" lon="2.28441">
        <ele>46.400001525879</ele>
        <time>2016-03-14T19:51:59Z</time>
      </trkpt>
      <trkpt lat="48.88103" lon="2.28421">
        <ele>42.79999923706</ele>
        <time>2016-03-14T19:52:12Z</time>
      </trkpt>
      <trkpt lat="48.88105" lon="2.28417">
        <ele>42.400001525879</ele>
        <time>2016-03-14T19:52:14Z</time>
      </trkpt>
      <trkpt lat="48.88114" lon="2.28391">
        <ele>41.79999923706</ele>
        <time>2016-03-14T19:52:23Z</time>
      </trkpt>
      <trkpt lat="48.88109" lon="2.2836">
        <ele>40.20000076294</ele>
        <time>2016-03-14T19:52:30Z</time>
      </trkpt>
      <trkpt lat="48.88113" lon="2.28329">
        <ele>39</ele>
        <time>2016-03-14T19:52:36Z</time>
      </trkpt>
      <trkpt lat="48.88118" lon="2.28299">
        <ele>39</ele>
        <time>2016-03-14T19:52:42Z</time>
      </trkpt>
      <trkpt lat="48.88124" lon="2.28269">
        <ele>39</ele>
        <time>2016-03-14T19:52:48Z</time>
      </trkpt>
      <trkpt lat="48.8813" lon="2.28241">
        <ele>38.20000076294</ele>
        <time>2016-03-14T19:52:53Z</time>
      </trkpt>
      <trkpt lat="48.88137" lon="2.28214">
        <ele>39.400001525879</ele>
        <time>2016-03-14T19:52:59Z</time>
      </trkpt>
      <trkpt lat="48.88144" lon="2.28202">
        <ele>39.79999923706</ele>
        <time>2016-03-14T19:53:02Z</time>
      </trkpt>
      <trkpt lat="48.88147" lon="2.28199">
        <ele>39.79999923706</ele>
        <time>2016-03-14T19:53:04Z</time>
      </trkpt>
      <trkpt lat="48.88152" lon="2.28196">
        <ele>39.599998474121</ele>
        <time>2016-03-14T19:53:08Z</time>
      </trkpt>
      <trkpt lat="48.88155" lon="2.28167">
        <ele>40.400001525879</ele>
        <time>2016-03-14T19:53:18Z</time>
      </trkpt>
      <trkpt lat="48.88158" lon="2.2814">
        <ele>41.20000076294</ele>
        <time>2016-03-14T19:53:24Z</time>
      </trkpt>
      <trkpt lat="48.88163" lon="2.2811">
        <ele>43.400001525879</ele>
        <time>2016-03-14T19:53:30Z</time>
      </trkpt>
      <trkpt lat="48.88171" lon="2.28077">
        <ele>46.20000076294</ele>
        <time>2016-03-14T19:53:35Z</time>
      </trkpt>
      <trkpt lat="48.88176" lon="2.28051">
        <ele>46.400001525879</ele>
        <time>2016-03-14T19:53:39Z</time>
      </trkpt>
      <trkpt lat="48.88184" lon="2.28025">
        <ele>47.20000076294</ele>
        <time>2016-03-14T19:53:43Z</time>
      </trkpt>
      <trkpt lat="48.88193" lon="2.27999">
        <ele>48</ele>
        <time>2016-03-14T19:53:47Z</time>
      </trkpt>
      <trkpt lat="48.882" lon="2.27972">
        <ele>47.20000076294</ele>
        <time>2016-03-14T19:53:51Z</time>
      </trkpt>
      <trkpt lat="48.88207" lon="2.27944">
        <ele>46.20000076294</ele>
        <time>2016-03-14T19:53:55Z</time>
      </trkpt>
      <trkpt lat="48.88213" lon="2.27914">
        <ele>44.20000076294</ele>
        <time>2016-03-14T19:53:59Z</time>
      </trkpt>
      <trkpt lat="48.8822" lon="2.27885">
        <ele>44</ele>
        <time>2016-03-14T19:54:03Z</time>
      </trkpt>
      <trkpt lat="48.88225" lon="2.27862">
        <ele>43.79999923706</ele>
        <time>2016-03-14T19:54:06Z</time>
      </trkpt>
      <trkpt lat="48.88232" lon="2.27831">
        <ele>43</ele>
        <time>2016-03-14T19:54:10Z</time>
      </trkpt>
      <trkpt lat="48.8824" lon="2.27803">
        <ele>42.599998474121</ele>
        <time>2016-03-14T19:54:14Z</time>
      </trkpt>
      <trkpt lat="48.88246" lon="2.27777">
        <ele>43.20000076294</ele>
        <time>2016-03-14T19:54:18Z</time>
      </trkpt>
      <trkpt lat="48.88252" lon="2.27745">
        <ele>44.20000076294</ele>
        <time>2016-03-14T19:54:23Z</time>
      </trkpt>
      <trkpt lat="48.88253" lon="2.27739">
        <ele>44.400001525879</ele>
        <time>2016-03-14T19:54:24Z</time>
      </trkpt>
      <trkpt lat="48.88258" lon="2.27707">
        <ele>45.20000076294</ele>
        <time>2016-03-14T19:54:29Z</time>
      </trkpt>
      <trkpt lat="48.88263" lon="2.27675">
        <ele>45.79999923706</ele>
        <time>2016-03-14T19:54:33Z</time>
      </trkpt>
      <trkpt lat="48.88268" lon="2.27646">
        <ele>46.79999923706</ele>
        <time>2016-03-14T19:54:37Z</time>
      </trkpt>
      <trkpt lat="48.88271" lon="2.2764">
        <ele>47</ele>
        <time>2016-03-14T19:54:38Z</time>
      </trkpt>
      <trkpt lat="48.88273" lon="2.27609">
        <ele>48.599998474121</ele>
        <time>2016-03-14T19:54:42Z</time>
      </trkpt>
      <trkpt lat="48.88274" lon="2.27602">
        <ele>48.79999923706</ele>
        <time>2016-03-14T19:54:43Z</time>
      </trkpt>
      <trkpt lat="48.88281" lon="2.27572">
        <ele>49.599998474121</ele>
        <time>2016-03-14T19:54:47Z</time>
      </trkpt>
      <trkpt lat="48.88291" lon="2.27542">
        <ele>49.599998474121</ele>
        <time>2016-03-14T19:54:51Z</time>
      </trkpt>
      <trkpt lat="48.88299" lon="2.27512">
        <ele>49.79999923706</ele>
        <time>2016-03-14T19:54:55Z</time>
      </trkpt>
      <trkpt lat="48.88305" lon="2.27484">
        <ele>48.400001525879</ele>
        <time>2016-03-14T19:54:59Z</time>
      </trkpt>
      <trkpt lat="48.88313" lon="2.27453">
        <ele>45.599998474121</ele>
        <time>2016-03-14T19:55:03Z</time>
      </trkpt>
      <trkpt lat="48.88321" lon="2.27422">
        <ele>44.599998474121</ele>
        <time>2016-03-14T19:55:07Z</time>
      </trkpt>
      <trkpt lat="48.88329" lon="2.27396">
        <ele>43.599998474121</ele>
        <time>2016-03-14T19:55:11Z</time>
      </trkpt>
      <trkpt lat="48.8834" lon="2.27372">
        <ele>43.599998474121</ele>
        <time>2016-03-14T19:55:16Z</time>
      </trkpt>
      <trkpt lat="48.88358" lon="2.27367">
        <ele>43.599998474121</ele>
        <time>2016-03-14T19:55:23Z</time>
      </trkpt>
      <trkpt lat="48.88365" lon="2.27359">
        <ele>44.20000076294</ele>
        <time>2016-03-14T19:55:25Z</time>
      </trkpt>
      <trkpt lat="48.88374" lon="2.2735">
        <ele>44.599998474121</ele>
        <time>2016-03-14T19:55:28Z</time>
      </trkpt>
      <trkpt lat="48.88394" lon="2.27349">
        <ele>44.20000076294</ele>
        <time>2016-03-14T19:55:34Z</time>
      </trkpt>
      <trkpt lat="48.88414" lon="2.27359">
        <ele>43.599998474121</ele>
        <time>2016-03-14T19:55:39Z</time>
      </trkpt>
      <trkpt lat="48.88432" lon="2.27369">
        <ele>43.20000076294</ele>
        <time>2016-03-14T19:55:44Z</time>
      </trkpt>
      <trkpt lat="48.88437" lon="2.27373">
        <ele>43.20000076294</ele>
        <time>2016-03-14T19:55:46Z</time>
      </trkpt>
      <trkpt lat="48.88454" lon="2.27383">
        <ele>42.400001525879</ele>
        <time>2016-03-14T19:55:51Z</time>
      </trkpt>
      <trkpt lat="48.88475" lon="2.27391">
        <ele>41.400001525879</ele>
        <time>2016-03-14T19:55:56Z</time>
      </trkpt>
      <trkpt lat="48.88494" lon="2.274">
        <ele>40.400001525879</ele>
        <time>2016-03-14T19:56:00Z</time>
      </trkpt>
      <trkpt lat="48.88515" lon="2.27409">
        <ele>39.400001525879</ele>
        <time>2016-03-14T19:56:04Z</time>
      </trkpt>
      <trkpt lat="48.88534" lon="2.27421">
        <ele>39</ele>
        <time>2016-03-14T19:56:08Z</time>
      </trkpt>
      <trkpt lat="48.88551" lon="2.27432">
        <ele>39.20000076294</ele>
        <time>2016-03-14T19:56:12Z</time>
      </trkpt>
      <trkpt lat="48.88559" lon="2.27436">
        <ele>39.20000076294</ele>
        <time>2016-03-14T19:56:14Z</time>
      </trkpt>
      <trkpt lat="48.88577" lon="2.27448">
        <ele>39.20000076294</ele>
        <time>2016-03-14T19:56:18Z</time>
      </trkpt>
      <trkpt lat="48.88597" lon="2.27459">
        <ele>39.20000076294</ele>
        <time>2016-03-14T19:56:23Z</time>
      </trkpt>
      <trkpt lat="48.88615" lon="2.27471">
        <ele>39.20000076294</ele>
        <time>2016-03-14T19:56:28Z</time>
      </trkpt>
      <trkpt lat="48.88632" lon="2.27473">
        <ele>38.79999923706</ele>
        <time>2016-03-14T19:56:31Z</time>
      </trkpt>
      <trkpt lat="48.88646" lon="2.2748">
        <ele>38.599998474121</ele>
        <time>2016-03-14T19:56:34Z</time>
      </trkpt>
      <trkpt lat="48.88658" lon="2.27486">
        <ele>38.400001525879</ele>
        <time>2016-03-14T19:56:37Z</time>
      </trkpt>
      <trkpt lat="48.88676" lon="2.27495">
        <ele>38.400001525879</ele>
        <time>2016-03-14T19:56:41Z</time>
      </trkpt>
      <trkpt lat="48.88693" lon="2.27505">
        <ele>38.400001525879</ele>
        <time>2016-03-14T19:56:45Z</time>
      </trkpt>
      <trkpt lat="48.88712" lon="2.27517">
        <ele>38</ele>
        <time>2016-03-14T19:56:50Z</time>
      </trkpt>
      <trkpt lat="48.8873" lon="2.27526">
        <ele>38</ele>
        <time>2016-03-14T19:56:55Z</time>
      </trkpt>
      <trkpt lat="48.88749" lon="2.27542">
        <ele>38</ele>
        <time>2016-03-14T19:57:00Z</time>
      </trkpt>
      <trkpt lat="48.88753" lon="2.27543">
        <ele>38</ele>
        <time>2016-03-14T19:57:01Z</time>
      </trkpt>
      <trkpt lat="48.88773" lon="2.27549">
        <ele>38</ele>
        <time>2016-03-14T19:57:06Z</time>
      </trkpt>
      <trkpt lat="48.8878" lon="2.2755">
        <ele>38</ele>
        <time>2016-03-14T19:57:08Z</time>
      </trkpt>
      <trkpt lat="48.88786" lon="2.2755">
        <ele>38.20000076294</ele>
        <time>2016-03-14T19:57:10Z</time>
      </trkpt>
      <trkpt lat="48.88795" lon="2.2755">
        <ele>38.20000076294</ele>
        <time>2016-03-14T19:57:13Z</time>
      </trkpt>
      <trkpt lat="48.88808" lon="2.27533">
        <ele>38.400001525879</ele>
        <time>2016-03-14T19:57:19Z</time>
      </trkpt>
      <trkpt lat="48.88822" lon="2.27507">
        <ele>38.599998474121</ele>
        <time>2016-03-14T19:57:24Z</time>
      </trkpt>
      <trkpt lat="48.88836" lon="2.27481">
        <ele>38.79999923706</ele>
        <time>2016-03-14T19:57:28Z</time>
      </trkpt>
      <trkpt lat="48.8885" lon="2.27456">
        <ele>39.400001525879</ele>
        <time>2016-03-14T19:57:32Z</time>
      </trkpt>
      <trkpt lat="48.88865" lon="2.27429">
        <ele>39.79999923706</ele>
        <time>2016-03-14T19:57:36Z</time>
      </trkpt>
      <trkpt lat="48.88878" lon="2.27401">
        <ele>39.20000076294</ele>
        <time>2016-03-14T19:57:40Z</time>
      </trkpt>
      <trkpt lat="48.8889" lon="2.27379">
        <ele>38.400001525879</ele>
        <time>2016-03-14T19:57:43Z</time>
      </trkpt>
      <trkpt lat="48.889" lon="2.27359">
        <ele>38</ele>
        <time>2016-03-14T19:57:46Z</time>
      </trkpt>
      <trkpt lat="48.88915" lon="2.27335">
        <ele>38</ele>
        <time>2016-03-14T19:57:50Z</time>
      </trkpt>
      <trkpt lat="48.88921" lon="2.27325">
        <ele>37.79999923706</ele>
        <time>2016-03-14T19:57:52Z</time>
      </trkpt>
      <trkpt lat="48.88932" lon="2.27301">
        <ele>37.79999923706</ele>
        <time>2016-03-14T19:57:57Z</time>
      </trkpt>
      <trkpt lat="48.88942" lon="2.27282">
        <ele>38</ele>
        <time>2016-03-14T19:58:01Z</time>
      </trkpt>
      <trkpt lat="48.88948" lon="2.27272">
        <ele>38</ele>
        <time>2016-03-14T19:58:03Z</time>
      </trkpt>
      <trkpt lat="48.88955" lon="2.27256">
        <ele>38.20000076294</ele>
        <time>2016-03-14T19:58:06Z</time>
      </trkpt>
      <trkpt lat="48.88963" lon="2.27241">
        <ele>38.20000076294</ele>
        <time>2016-03-14T19:58:09Z</time>
      </trkpt>
      <trkpt lat="48.88975" lon="2.27218">
        <ele>37.79999923706</ele>
        <time>2016-03-14T19:58:13Z</time>
      </trkpt>
      <trkpt lat="48.88981" lon="2.27206">
        <ele>37.599998474121</ele>
        <time>2016-03-14T19:58:15Z</time>
      </trkpt>
      <trkpt lat="48.88993" lon="2.27185">
        <ele>35.599998474121</ele>
        <time>2016-03-14T19:58:19Z</time>
      </trkpt>
      <trkpt lat="48.89002" lon="2.27167">
        <ele>34</ele>
        <time>2016-03-14T19:58:22Z</time>
      </trkpt>
      <trkpt lat="48.89014" lon="2.27144">
        <ele>33.400001525879</ele>
        <time>2016-03-14T19:58:26Z</time>
      </trkpt>
      <trkpt lat="48.89027" lon="2.27121">
        <ele>33</ele>
        <time>2016-03-14T19:58:30Z</time>
      </trkpt>
      <trkpt lat="48.89042" lon="2.27097">
        <ele>33.20000076294</ele>
        <time>2016-03-14T19:58:35Z</time>
      </trkpt>
      <trkpt lat="48.89054" lon="2.27077">
        <ele>32.599998474121</ele>
        <time>2016-03-14T19:58:40Z</time>
      </trkpt>
      <trkpt lat="48.89059" lon="2.27071">
        <ele>32.79999923706</ele>
        <time>2016-03-14T19:58:42Z</time>
      </trkpt>
      <trkpt lat="48.8907" lon="2.27056">
        <ele>33</ele>
        <time>2016-03-14T19:58:47Z</time>
      </trkpt>
      <trkpt lat="48.89074" lon="2.27049">
        <ele>33.20000076294</ele>
        <time>2016-03-14T19:58:49Z</time>
      </trkpt>
      <trkpt lat="48.8909" lon="2.27032">
        <ele>33</ele>
        <time>2016-03-14T19:58:54Z</time>
      </trkpt>
      <trkpt lat="48.89106" lon="2.27015">
        <ele>32.79999923706</ele>
        <time>2016-03-14T19:58:58Z</time>
      </trkpt>
      <trkpt lat="48.89123" lon="2.26998">
        <ele>33.20000076294</ele>
        <time>2016-03-14T19:59:02Z</time>
      </trkpt>
      <trkpt lat="48.89141" lon="2.26978">
        <ele>34</ele>
        <time>2016-03-14T19:59:06Z</time>
      </trkpt>
      <trkpt lat="48.8916" lon="2.26959">
        <ele>34.599998474121</ele>
        <time>2016-03-14T19:59:10Z</time>
      </trkpt>
      <trkpt lat="48.89178" lon="2.26941">
        <ele>33.20000076294</ele>
        <time>2016-03-14T19:59:14Z</time>
      </trkpt>
      <trkpt lat="48.89197" lon="2.26922">
        <ele>32.20000076294</ele>
        <time>2016-03-14T19:59:18Z</time>
      </trkpt>
      <trkpt lat="48.89215" lon="2.26901">
        <ele>32.79999923706</ele>
        <time>2016-03-14T19:59:22Z</time>
      </trkpt>
      <trkpt lat="48.89234" lon="2.26881">
        <ele>33.400001525879</ele>
        <time>2016-03-14T19:59:26Z</time>
      </trkpt>
      <trkpt lat="48.89253" lon="2.26862">
        <ele>34.400001525879</ele>
        <time>2016-03-14T19:59:30Z</time>
      </trkpt>
      <trkpt lat="48.89272" lon="2.26844">
        <ele>35.599998474121</ele>
        <time>2016-03-14T19:59:34Z</time>
      </trkpt>
      <trkpt lat="48.89289" lon="2.26825">
        <ele>35.599998474121</ele>
        <time>2016-03-14T19:59:38Z</time>
      </trkpt>
      <trkpt lat="48.89293" lon="2.26821">
        <ele>35.599998474121</ele>
        <time>2016-03-14T19:59:39Z</time>
      </trkpt>
      <trkpt lat="48.89311" lon="2.26804">
        <ele>35.400001525879</ele>
        <time>2016-03-14T19:59:43Z</time>
      </trkpt>
      <trkpt lat="48.89329" lon="2.26786">
        <ele>34.79999923706</ele>
        <time>2016-03-14T19:59:47Z</time>
      </trkpt>
      <trkpt lat="48.89348" lon="2.26772">
        <ele>33.79999923706</ele>
        <time>2016-03-14T19:59:50Z</time>
      </trkpt>
      <trkpt lat="48.89366" lon="2.26755">
        <ele>32.79999923706</ele>
        <time>2016-03-14T19:59:54Z</time>
      </trkpt>
      <trkpt lat="48.89374" lon="2.26749">
        <ele>32.400001525879</ele>
        <time>2016-03-14T19:59:56Z</time>
      </trkpt>
      <trkpt lat="48.89389" lon="2.26741">
        <ele>31.60000038147</ele>
        <time>2016-03-14T20:00:00Z</time>
      </trkpt>
      <trkpt lat="48.89401" lon="2.2673">
        <ele>31</ele>
        <time>2016-03-14T20:00:04Z</time>
      </trkpt>
      <trkpt lat="48.8941" lon="2.26722">
        <ele>30.60000038147</ele>
        <time>2016-03-14T20:00:09Z</time>
      </trkpt>
      <trkpt lat="48.89416" lon="2.26716">
        <ele>30.60000038147</ele>
        <time>2016-03-14T20:00:15Z</time>
      </trkpt>
      <trkpt lat="48.89429" lon="2.26699">
        <ele>31.799999237061</ele>
        <time>2016-03-14T20:00:28Z</time>
      </trkpt>
      <trkpt lat="48.89445" lon="2.26681">
        <ele>33.599998474121</ele>
        <time>2016-03-14T20:00:33Z</time>
      </trkpt>
      <trkpt lat="48.89462" lon="2.26665">
        <ele>35.20000076294</ele>
        <time>2016-03-14T20:00:38Z</time>
      </trkpt>
      <trkpt lat="48.89478" lon="2.2665">
        <ele>37</ele>
        <time>2016-03-14T20:00:43Z</time>
      </trkpt>
      <trkpt lat="48.89495" lon="2.26632">
        <ele>38.599998474121</ele>
        <time>2016-03-14T20:00:48Z</time>
      </trkpt>
      <trkpt lat="48.89509" lon="2.26613">
        <ele>37.599998474121</ele>
        <time>2016-03-14T20:00:54Z</time>
      </trkpt>
      <trkpt lat="48.89514" lon="2.26586">
        <ele>36.400001525879</ele>
        <time>2016-03-14T20:01:01Z</time>
      </trkpt>
      <trkpt lat="48.89515" lon="2.26556">
        <ele>35.400001525879</ele>
        <time>2016-03-14T20:01:07Z</time>
      </trkpt>
      <trkpt lat="48.89503" lon="2.26532">
        <ele>35</ele>
        <time>2016-03-14T20:01:12Z</time>
      </trkpt>
      <trkpt lat="48.89493" lon="2.26508">
        <ele>34.599998474121</ele>
        <time>2016-03-14T20:01:19Z</time>
      </trkpt>
      <trkpt lat="48.89478" lon="2.26483">
        <ele>33.79999923706</ele>
        <time>2016-03-14T20:01:24Z</time>
      </trkpt>
      <trkpt lat="48.89464" lon="2.26465">
        <ele>32.79999923706</ele>
        <time>2016-03-14T20:01:27Z</time>
      </trkpt>
      <trkpt lat="48.89451" lon="2.26442">
        <ele>31.60000038147</ele>
        <time>2016-03-14T20:01:30Z</time>
      </trkpt>
      <trkpt lat="48.89439" lon="2.26419">
        <ele>30.60000038147</ele>
        <time>2016-03-14T20:01:33Z</time>
      </trkpt>
      <trkpt lat="48.89426" lon="2.26397">
        <ele>29.60000038147</ele>
        <time>2016-03-14T20:01:36Z</time>
      </trkpt>
      <trkpt lat="48.89413" lon="2.26375">
        <ele>29.39999961853</ele>
        <time>2016-03-14T20:01:39Z</time>
      </trkpt>
      <trkpt lat="48.89399" lon="2.26354">
        <ele>29</ele>
        <time>2016-03-14T20:01:42Z</time>
      </trkpt>
      <trkpt lat="48.89384" lon="2.2633">
        <ele>28.60000038147</ele>
        <time>2016-03-14T20:01:45Z</time>
      </trkpt>
      <trkpt lat="48.89369" lon="2.26306">
        <ele>27.799999237061</ele>
        <time>2016-03-14T20:01:48Z</time>
      </trkpt>
      <trkpt lat="48.89356" lon="2.26284">
        <ele>27</ele>
        <time>2016-03-14T20:01:51Z</time>
      </trkpt>
      <trkpt lat="48.89341" lon="2.26266">
        <ele>26.60000038147</ele>
        <time>2016-03-14T20:01:54Z</time>
      </trkpt>
      <trkpt lat="48.89329" lon="2.26256">
        <ele>26.60000038147</ele>
        <time>2016-03-14T20:01:56Z</time>
      </trkpt>
      <trkpt lat="48.89313" lon="2.26239">
        <ele>25.39999961853</ele>
        <time>2016-03-14T20:02:00Z</time>
      </trkpt>
      <trkpt lat="48.89309" lon="2.26236">
        <ele>25</ele>
        <time>2016-03-14T20:02:01Z</time>
      </trkpt>
      <trkpt lat="48.89289" lon="2.26222">
        <ele>23.200000762939</ele>
        <time>2016-03-14T20:02:05Z</time>
      </trkpt>
      <trkpt lat="48.8927" lon="2.26212">
        <ele>22</ele>
        <time>2016-03-14T20:02:09Z</time>
      </trkpt>
      <trkpt lat="48.89265" lon="2.2621">
        <ele>22.200000762939</ele>
        <time>2016-03-14T20:02:10Z</time>
      </trkpt>
      <trkpt lat="48.89249" lon="2.26226">
        <ele>26.200000762939</ele>
        <time>2016-03-14T20:02:15Z</time>
      </trkpt>
      <trkpt lat="48.89241" lon="2.26237">
        <ele>26.799999237061</ele>
        <time>2016-03-14T20:02:17Z</time>
      </trkpt>
      <trkpt lat="48.8923" lon="2.26253">
        <ele>28</ele>
        <time>2016-03-14T20:02:20Z</time>
      </trkpt>
      <trkpt lat="48.89219" lon="2.26278">
        <ele>29.39999961853</ele>
        <time>2016-03-14T20:02:24Z</time>
      </trkpt>
      <trkpt lat="48.89224" lon="2.26301">
        <ele>29.60000038147</ele>
        <time>2016-03-14T20:02:28Z</time>
      </trkpt>
      <trkpt lat="48.89236" lon="2.26323">
        <ele>30.200000762939</ele>
        <time>2016-03-14T20:02:32Z</time>
      </trkpt>
      <trkpt lat="48.89247" lon="2.26345">
        <ele>30.200000762939</ele>
        <time>2016-03-14T20:02:36Z</time>
      </trkpt>
      <trkpt lat="48.89259" lon="2.26368">
        <ele>30</ele>
        <time>2016-03-14T20:02:40Z</time>
      </trkpt>
      <trkpt lat="48.8927" lon="2.26389">
        <ele>29.799999237061</ele>
        <time>2016-03-14T20:02:44Z</time>
      </trkpt>
      <trkpt lat="48.89276" lon="2.264">
        <ele>29.60000038147</ele>
        <time>2016-03-14T20:02:46Z</time>
      </trkpt>
      <trkpt lat="48.89289" lon="2.26422">
        <ele>30.60000038147</ele>
        <time>2016-03-14T20:02:50Z</time>
      </trkpt>
      <trkpt lat="48.89304" lon="2.26441">
        <ele>32.79999923706</ele>
        <time>2016-03-14T20:02:54Z</time>
      </trkpt>
      <trkpt lat="48.89316" lon="2.26462">
        <ele>34.400001525879</ele>
        <time>2016-03-14T20:02:58Z</time>
      </trkpt>
      <trkpt lat="48.89318" lon="2.26467">
        <ele>34.599998474121</ele>
        <time>2016-03-14T20:02:59Z</time>
      </trkpt>
      <trkpt lat="48.89333" lon="2.26492">
        <ele>36.400001525879</ele>
        <time>2016-03-14T20:03:04Z</time>
      </trkpt>
      <trkpt lat="48.89348" lon="2.26517">
        <ele>37.599998474121</ele>
        <time>2016-03-14T20:03:08Z</time>
      </trkpt>
      <trkpt lat="48.89361" lon="2.2654">
        <ele>38</ele>
        <time>2016-03-14T20:03:12Z</time>
      </trkpt>
      <trkpt lat="48.89363" lon="2.26546">
        <ele>37.79999923706</ele>
        <time>2016-03-14T20:03:13Z</time>
      </trkpt>
      <trkpt lat="48.89373" lon="2.2657">
        <ele>36.79999923706</ele>
        <time>2016-03-14T20:03:17Z</time>
      </trkpt>
      <trkpt lat="48.89384" lon="2.26597">
        <ele>35.79999923706</ele>
        <time>2016-03-14T20:03:21Z</time>
      </trkpt>
      <trkpt lat="48.89392" lon="2.26617">
        <ele>35</ele>
        <time>2016-03-14T20:03:25Z</time>
      </trkpt>
      <trkpt lat="48.894" lon="2.26642">
        <ele>33.79999923706</ele>
        <time>2016-03-14T20:03:30Z</time>
      </trkpt>
      <trkpt lat="48.89401" lon="2.26645">
        <ele>33.599998474121</ele>
        <time>2016-03-14T20:03:31Z</time>
      </trkpt>
      <trkpt lat="48.89403" lon="2.26649">
        <ele>33.400001525879</ele>
        <time>2016-03-14T20:03:33Z</time>
      </trkpt>
      <trkpt lat="48.89406" lon="2.26674">
        <ele>32.20000076294</ele>
        <time>2016-03-14T20:04:23Z</time>
      </trkpt>
      <trkpt lat="48.89422" lon="2.2669">
        <ele>32</ele>
        <time>2016-03-14T20:04:35Z</time>
      </trkpt>
      <trkpt lat="48.89426" lon="2.26691">
        <ele>32.20000076294</ele>
        <time>2016-03-14T20:04:37Z</time>
      </trkpt>
      <trkpt lat="48.89445" lon="2.26675">
        <ele>33.79999923706</ele>
        <time>2016-03-14T20:04:42Z</time>
      </trkpt>
      <trkpt lat="48.89464" lon="2.26657">
        <ele>35.599998474121</ele>
        <time>2016-03-14T20:04:46Z</time>
      </trkpt>
      <trkpt lat="48.89482" lon="2.26638">
        <ele>37.79999923706</ele>
        <time>2016-03-14T20:04:50Z</time>
      </trkpt>
      <trkpt lat="48.89498" lon="2.26621">
        <ele>38.20000076294</ele>
        <time>2016-03-14T20:04:53Z</time>
      </trkpt>
      <trkpt lat="48.89514" lon="2.26606">
        <ele>37.20000076294</ele>
        <time>2016-03-14T20:04:56Z</time>
      </trkpt>
      <trkpt lat="48.89532" lon="2.26599">
        <ele>36.599998474121</ele>
        <time>2016-03-14T20:05:00Z</time>
      </trkpt>
      <trkpt lat="48.8954" lon="2.26619">
        <ele>37.20000076294</ele>
        <time>2016-03-14T20:05:04Z</time>
      </trkpt>
      <trkpt lat="48.89543" lon="2.26625">
        <ele>37.400001525879</ele>
        <time>2016-03-14T20:05:05Z</time>
      </trkpt>
      <trkpt lat="48.89553" lon="2.26651">
        <ele>38.20000076294</ele>
        <time>2016-03-14T20:05:09Z</time>
      </trkpt>
      <trkpt lat="48.89556" lon="2.26659">
        <ele>38.400001525879</ele>
        <time>2016-03-14T20:05:10Z</time>
      </trkpt>
      <trkpt lat="48.89564" lon="2.26687">
        <ele>38.20000076294</ele>
        <time>2016-03-14T20:05:13Z</time>
      </trkpt>
      <trkpt lat="48.89572" lon="2.26711">
        <ele>37.79999923706</ele>
        <time>2016-03-14T20:05:16Z</time>
      </trkpt>
      <trkpt lat="48.89583" lon="2.26741">
        <ele>37.20000076294</ele>
        <time>2016-03-14T20:05:20Z</time>
      </trkpt>
      <trkpt lat="48.89589" lon="2.26758">
        <ele>37.20000076294</ele>
        <time>2016-03-14T20:05:22Z</time>
      </trkpt>
      <trkpt lat="48.89598" lon="2.26785">
        <ele>37.400001525879</ele>
        <time>2016-03-14T20:05:25Z</time>
      </trkpt>
      <trkpt lat="48.89607" lon="2.26812">
        <ele>37.79999923706</ele>
        <time>2016-03-14T20:05:28Z</time>
      </trkpt>
      <trkpt lat="48.89617" lon="2.26838">
        <ele>38.79999923706</ele>
        <time>2016-03-14T20:05:31Z</time>
      </trkpt>
      <trkpt lat="48.89626" lon="2.26864">
        <ele>39</ele>
        <time>2016-03-14T20:05:34Z</time>
      </trkpt>
      <trkpt lat="48.89637" lon="2.2689">
        <ele>39</ele>
        <time>2016-03-14T20:05:37Z</time>
      </trkpt>
      <trkpt lat="48.89647" lon="2.26915">
        <ele>39.20000076294</ele>
        <time>2016-03-14T20:05:40Z</time>
      </trkpt>
      <trkpt lat="48.89659" lon="2.26945">
        <ele>38.20000076294</ele>
        <time>2016-03-14T20:05:44Z</time>
      </trkpt>
      <trkpt lat="48.89665" lon="2.2696">
        <ele>37.79999923706</ele>
        <time>2016-03-14T20:05:46Z</time>
      </trkpt>
      <trkpt lat="48.89675" lon="2.26984">
        <ele>37.20000076294</ele>
        <time>2016-03-14T20:05:50Z</time>
      </trkpt>
      <trkpt lat="48.89684" lon="2.27011">
        <ele>36.599998474121</ele>
        <time>2016-03-14T20:05:55Z</time>
      </trkpt>
      <trkpt lat="48.89695" lon="2.27037">
        <ele>36</ele>
        <time>2016-03-14T20:05:59Z</time>
      </trkpt>
      <trkpt lat="48.89704" lon="2.27061">
        <ele>35.400001525879</ele>
        <time>2016-03-14T20:06:03Z</time>
      </trkpt>
      <trkpt lat="48.89715" lon="2.27091">
        <ele>34</ele>
        <time>2016-03-14T20:06:08Z</time>
      </trkpt>
      <trkpt lat="48.8972" lon="2.27103">
        <ele>33.400001525879</ele>
        <time>2016-03-14T20:06:10Z</time>
      </trkpt>
      <trkpt lat="48.89731" lon="2.27132">
        <ele>32.20000076294</ele>
        <time>2016-03-14T20:06:15Z</time>
      </trkpt>
      <trkpt lat="48.89741" lon="2.27157">
        <ele>31.799999237061</ele>
        <time>2016-03-14T20:06:20Z</time>
      </trkpt>
      <trkpt lat="48.89752" lon="2.27183">
        <ele>31.200000762939</ele>
        <time>2016-03-14T20:06:23Z</time>
      </trkpt>
      <trkpt lat="48.89752" lon="2.27194">
        <ele>31</ele>
        <time>2016-03-14T20:06:24Z</time>
      </trkpt>
      <trkpt lat="48.89753" lon="2.27222">
        <ele>30.39999961853</ele>
        <time>2016-03-14T20:06:28Z</time>
      </trkpt>
      <trkpt lat="48.8974" lon="2.27237">
        <ele>29.799999237061</ele>
        <time>2016-03-14T20:06:35Z</time>
      </trkpt>
      <trkpt lat="48.89739" lon="2.27237">
        <ele>29.799999237061</ele>
        <time>2016-03-14T20:06:36Z</time>
      </trkpt>
      <trkpt lat="48.89733" lon="2.27233">
        <ele>29.799999237061</ele>
        <time>2016-03-14T20:06:40Z</time>
      </trkpt>
      <trkpt lat="48.89731" lon="2.27231">
        <ele>29.799999237061</ele>
        <time>2016-03-14T20:06:41Z</time>
      </trkpt>
      <trkpt lat="48.8972" lon="2.27207">
        <ele>30.200000762939</ele>
        <time>2016-03-14T20:06:49Z</time>
      </trkpt>
      <trkpt lat="48.89708" lon="2.27185">
        <ele>30.60000038147</ele>
        <time>2016-03-14T20:06:55Z</time>
      </trkpt>
      <trkpt lat="48.89694" lon="2.2716">
        <ele>31.200000762939</ele>
        <time>2016-03-14T20:07:00Z</time>
      </trkpt>
      <trkpt lat="48.89681" lon="2.27138">
        <ele>31.200000762939</ele>
        <time>2016-03-14T20:07:05Z</time>
      </trkpt>
      <trkpt lat="48.89669" lon="2.27113">
        <ele>31.200000762939</ele>
        <time>2016-03-14T20:07:10Z</time>
      </trkpt>
      <trkpt lat="48.89658" lon="2.27091">
        <ele>31.200000762939</ele>
        <time>2016-03-14T20:07:14Z</time>
      </trkpt>
      <trkpt lat="48.89645" lon="2.27069">
        <ele>31</ele>
        <time>2016-03-14T20:07:18Z</time>
      </trkpt>
      <trkpt lat="48.89626" lon="2.27045">
        <ele>30.799999237061</ele>
        <time>2016-03-14T20:07:22Z</time>
      </trkpt>
      <trkpt lat="48.89611" lon="2.27028">
        <ele>30.39999961853</ele>
        <time>2016-03-14T20:07:25Z</time>
      </trkpt>
      <trkpt lat="48.89596" lon="2.27006">
        <ele>30.200000762939</ele>
        <time>2016-03-14T20:07:29Z</time>
      </trkpt>
      <trkpt lat="48.89589" lon="2.26995">
        <ele>30.200000762939</ele>
        <time>2016-03-14T20:07:31Z</time>
      </trkpt>
      <trkpt lat="48.89576" lon="2.26973">
        <ele>30.39999961853</ele>
        <time>2016-03-14T20:07:35Z</time>
      </trkpt>
      <trkpt lat="48.89571" lon="2.2697">
        <ele>30.200000762939</ele>
        <time>2016-03-14T20:07:36Z</time>
      </trkpt>
      <trkpt lat="48.89565" lon="2.26959">
        <ele>30.39999961853</ele>
        <time>2016-03-14T20:07:38Z</time>
      </trkpt>
      <trkpt lat="48.8955" lon="2.26936">
        <ele>30.39999961853</ele>
        <time>2016-03-14T20:07:42Z</time>
      </trkpt>
      <trkpt lat="48.89536" lon="2.2691">
        <ele>30.799999237061</ele>
        <time>2016-03-14T20:07:45Z</time>
      </trkpt>
      <trkpt lat="48.89523" lon="2.26887">
        <ele>31</ele>
        <time>2016-03-14T20:07:48Z</time>
      </trkpt>
      <trkpt lat="48.89508" lon="2.26862">
        <ele>31.39999961853</ele>
        <time>2016-03-14T20:07:52Z</time>
      </trkpt>
      <trkpt lat="48.89494" lon="2.26836">
        <ele>32</ele>
        <time>2016-03-14T20:07:56Z</time>
      </trkpt>
      <trkpt lat="48.89482" lon="2.26814">
        <ele>31.799999237061</ele>
        <time>2016-03-14T20:08:00Z</time>
      </trkpt>
      <trkpt lat="48.89473" lon="2.268">
        <ele>31.39999961853</ele>
        <time>2016-03-14T20:08:03Z</time>
      </trkpt>
      <trkpt lat="48.89465" lon="2.26784">
        <ele>31</ele>
        <time>2016-03-14T20:08:06Z</time>
      </trkpt>
      <trkpt lat="48.89461" lon="2.26774">
        <ele>30.799999237061</ele>
        <time>2016-03-14T20:08:08Z</time>
      </trkpt>
      <trkpt lat="48.89448" lon="2.2675">
        <ele>30.60000038147</ele>
        <time>2016-03-14T20:08:13Z</time>
      </trkpt>
      <trkpt lat="48.89437" lon="2.2673">
        <ele>30.60000038147</ele>
        <time>2016-03-14T20:08:18Z</time>
      </trkpt>
      <trkpt lat="48.89433" lon="2.26722">
        <ele>31</ele>
        <time>2016-03-14T20:08:22Z</time>
      </trkpt>
      <trkpt lat="48.8943" lon="2.26699">
        <ele>31.799999237061</ele>
        <time>2016-03-14T20:09:21Z</time>
      </trkpt>
      <trkpt lat="48.89431" lon="2.26697">
        <ele>32</ele>
        <time>2016-03-14T20:09:22Z</time>
      </trkpt>
      <trkpt lat="48.89447" lon="2.26679">
        <ele>33.79999923706</ele>
        <time>2016-03-14T20:09:29Z</time>
      </trkpt>
      <trkpt lat="48.89466" lon="2.26667">
        <ele>35.400001525879</ele>
        <time>2016-03-14T20:09:35Z</time>
      </trkpt>
      <trkpt lat="48.89484" lon="2.26653">
        <ele>37.20000076294</ele>
        <time>2016-03-14T20:09:41Z</time>
      </trkpt>
      <trkpt lat="48.89499" lon="2.26636">
        <ele>38.599998474121</ele>
        <time>2016-03-14T20:09:47Z</time>
      </trkpt>
      <trkpt lat="48.89514" lon="2.26617">
        <ele>37.599998474121</ele>
        <time>2016-03-14T20:09:53Z</time>
      </trkpt>
      <trkpt lat="48.89529" lon="2.26598">
        <ele>36.599998474121</ele>
        <time>2016-03-14T20:10:00Z</time>
      </trkpt>
      <trkpt lat="48.89547" lon="2.26588">
        <ele>35.79999923706</ele>
        <time>2016-03-14T20:10:07Z</time>
      </trkpt>
      <trkpt lat="48.89562" lon="2.26574">
        <ele>34.79999923706</ele>
        <time>2016-03-14T20:10:13Z</time>
      </trkpt>
      <trkpt lat="48.89578" lon="2.26556">
        <ele>33.79999923706</ele>
        <time>2016-03-14T20:10:19Z</time>
      </trkpt>
      <trkpt lat="48.89596" lon="2.26539">
        <ele>33.20000076294</ele>
        <time>2016-03-14T20:10:25Z</time>
      </trkpt>
      <trkpt lat="48.89613" lon="2.26522">
        <ele>32.599998474121</ele>
        <time>2016-03-14T20:10:31Z</time>
      </trkpt>
      <trkpt lat="48.89629" lon="2.26507">
        <ele>32.599998474121</ele>
        <time>2016-03-14T20:10:36Z</time>
      </trkpt>
      <trkpt lat="48.89645" lon="2.26492">
        <ele>33.20000076294</ele>
        <time>2016-03-14T20:10:41Z</time>
      </trkpt>
      <trkpt lat="48.89662" lon="2.26475">
        <ele>33.20000076294</ele>
        <time>2016-03-14T20:10:47Z</time>
      </trkpt>
      <trkpt lat="48.8968" lon="2.26457">
        <ele>34</ele>
        <time>2016-03-14T20:10:53Z</time>
      </trkpt>
      <trkpt lat="48.89695" lon="2.2644">
        <ele>34.79999923706</ele>
        <time>2016-03-14T20:10:58Z</time>
      </trkpt>
      <trkpt lat="48.89709" lon="2.26417">
        <ele>36.20000076294</ele>
        <time>2016-03-14T20:11:04Z</time>
      </trkpt>
      <trkpt lat="48.89724" lon="2.26401">
        <ele>38.599998474121</ele>
        <time>2016-03-14T20:11:09Z</time>
      </trkpt>
      <trkpt lat="48.89744" lon="2.26386">
        <ele>41.400001525879</ele>
        <time>2016-03-14T20:11:14Z</time>
      </trkpt>
      <trkpt lat="48.89763" lon="2.2637">
        <ele>43.599998474121</ele>
        <time>2016-03-14T20:11:19Z</time>
      </trkpt>
      <trkpt lat="48.89782" lon="2.26353">
        <ele>44.79999923706</ele>
        <time>2016-03-14T20:11:24Z</time>
      </trkpt>
      <trkpt lat="48.89797" lon="2.26337">
        <ele>45.20000076294</ele>
        <time>2016-03-14T20:11:28Z</time>
      </trkpt>
      <trkpt lat="48.89815" lon="2.26317">
        <ele>46</ele>
        <time>2016-03-14T20:11:33Z</time>
      </trkpt>
      <trkpt lat="48.8983" lon="2.26301">
        <ele>46.599998474121</ele>
        <time>2016-03-14T20:11:37Z</time>
      </trkpt>
      <trkpt lat="48.89844" lon="2.26283">
        <ele>46.79999923706</ele>
        <time>2016-03-14T20:11:41Z</time>
      </trkpt>
      <trkpt lat="48.8986" lon="2.26268">
        <ele>46.599998474121</ele>
        <time>2016-03-14T20:11:45Z</time>
      </trkpt>
      <trkpt lat="48.89876" lon="2.26254">
        <ele>46.599998474121</ele>
        <time>2016-03-14T20:11:49Z</time>
      </trkpt>
      <trkpt lat="48.89884" lon="2.26245">
        <ele>46.599998474121</ele>
        <time>2016-03-14T20:11:51Z</time>
      </trkpt>
      <trkpt lat="48.89903" lon="2.26223">
        <ele>46.79999923706</ele>
        <time>2016-03-14T20:11:55Z</time>
      </trkpt>
      <trkpt lat="48.89918" lon="2.26206">
        <ele>46.599998474121</ele>
        <time>2016-03-14T20:11:58Z</time>
      </trkpt>
      <trkpt lat="48.89934" lon="2.26189">
        <ele>46.20000076294</ele>
        <time>2016-03-14T20:12:01Z</time>
      </trkpt>
      <trkpt lat="48.8995" lon="2.26169">
        <ele>46</ele>
        <time>2016-03-14T20:12:05Z</time>
      </trkpt>
      <trkpt lat="48.89961" lon="2.26157">
        <ele>45.599998474121</ele>
        <time>2016-03-14T20:12:08Z</time>
      </trkpt>
      <trkpt lat="48.89977" lon="2.2614">
        <ele>45.20000076294</ele>
        <time>2016-03-14T20:12:12Z</time>
      </trkpt>
      <trkpt lat="48.89986" lon="2.26133">
        <ele>45</ele>
        <time>2016-03-14T20:12:14Z</time>
      </trkpt>
      <trkpt lat="48.90003" lon="2.26115">
        <ele>45.599998474121</ele>
        <time>2016-03-14T20:12:18Z</time>
      </trkpt>
      <trkpt lat="48.9002" lon="2.26097">
        <ele>46.599998474121</ele>
        <time>2016-03-14T20:12:22Z</time>
      </trkpt>
      <trkpt lat="48.90034" lon="2.26088">
        <ele>47.20000076294</ele>
        <time>2016-03-14T20:12:25Z</time>
      </trkpt>
      <trkpt lat="48.90048" lon="2.26086">
        <ele>47</ele>
        <time>2016-03-14T20:12:30Z</time>
      </trkpt>
      <trkpt lat="48.90048" lon="2.26085">
        <ele>47</ele>
        <time>2016-03-14T20:12:31Z</time>
      </trkpt>
      <trkpt lat="48.90058" lon="2.26072">
        <ele>46.599998474121</ele>
        <time>2016-03-14T20:12:55Z</time>
      </trkpt>
      <trkpt lat="48.90075" lon="2.26055">
        <ele>46.599998474121</ele>
        <time>2016-03-14T20:12:59Z</time>
      </trkpt>
      <trkpt lat="48.90089" lon="2.26042">
        <ele>45.20000076294</ele>
        <time>2016-03-14T20:13:02Z</time>
      </trkpt>
      <trkpt lat="48.90106" lon="2.26024">
        <ele>42.79999923706</ele>
        <time>2016-03-14T20:13:05Z</time>
      </trkpt>
      <trkpt lat="48.90124" lon="2.26007">
        <ele>41.599998474121</ele>
        <time>2016-03-14T20:13:08Z</time>
      </trkpt>
      <trkpt lat="48.90142" lon="2.25987">
        <ele>41.400001525879</ele>
        <time>2016-03-14T20:13:11Z</time>
      </trkpt>
      <trkpt lat="48.90159" lon="2.25965">
        <ele>41.20000076294</ele>
        <time>2016-03-14T20:13:14Z</time>
      </trkpt>
      <trkpt lat="48.90177" lon="2.25945">
        <ele>42.20000076294</ele>
        <time>2016-03-14T20:13:17Z</time>
      </trkpt>
      <trkpt lat="48.90194" lon="2.25928">
        <ele>42.79999923706</ele>
        <time>2016-03-14T20:13:20Z</time>
      </trkpt>
      <trkpt lat="48.90211" lon="2.25913">
        <ele>43</ele>
        <time>2016-03-14T20:13:23Z</time>
      </trkpt>
      <trkpt lat="48.90222" lon="2.25901">
        <ele>43</ele>
        <time>2016-03-14T20:13:26Z</time>
      </trkpt>
      <trkpt lat="48.90239" lon="2.25885">
        <ele>43</ele>
        <time>2016-03-14T20:13:30Z</time>
      </trkpt>
      <trkpt lat="48.90247" lon="2.25876">
        <ele>43</ele>
        <time>2016-03-14T20:13:32Z</time>
      </trkpt>
      <trkpt lat="48.90266" lon="2.25859">
        <ele>43</ele>
        <time>2016-03-14T20:13:36Z</time>
      </trkpt>
      <trkpt lat="48.90284" lon="2.25842">
        <ele>43.400001525879</ele>
        <time>2016-03-14T20:13:40Z</time>
      </trkpt>
      <trkpt lat="48.90302" lon="2.25824">
        <ele>43.599998474121</ele>
        <time>2016-03-14T20:13:44Z</time>
      </trkpt>
      <trkpt lat="48.9032" lon="2.25806">
        <ele>44.20000076294</ele>
        <time>2016-03-14T20:13:48Z</time>
      </trkpt>
      <trkpt lat="48.90338" lon="2.2579">
        <ele>44.400001525879</ele>
        <time>2016-03-14T20:13:52Z</time>
      </trkpt>
      <trkpt lat="48.90357" lon="2.25772">
        <ele>44.400001525879</ele>
        <time>2016-03-14T20:13:56Z</time>
      </trkpt>
      <trkpt lat="48.90376" lon="2.25752">
        <ele>44.400001525879</ele>
        <time>2016-03-14T20:14:00Z</time>
      </trkpt>
      <trkpt lat="48.90391" lon="2.25736">
        <ele>45</ele>
        <time>2016-03-14T20:14:03Z</time>
      </trkpt>
      <trkpt lat="48.90401" lon="2.25726">
        <ele>45.599998474121</ele>
        <time>2016-03-14T20:14:05Z</time>
      </trkpt>
      <trkpt lat="48.90417" lon="2.25712">
        <ele>46.20000076294</ele>
        <time>2016-03-14T20:14:08Z</time>
      </trkpt>
      <trkpt lat="48.90437" lon="2.25693">
        <ele>47.20000076294</ele>
        <time>2016-03-14T20:14:12Z</time>
      </trkpt>
      <trkpt lat="48.90452" lon="2.2568">
        <ele>47.400001525879</ele>
        <time>2016-03-14T20:14:15Z</time>
      </trkpt>
      <trkpt lat="48.90473" lon="2.25666">
        <ele>46</ele>
        <time>2016-03-14T20:14:19Z</time>
      </trkpt>
      <trkpt lat="48.90478" lon="2.25662">
        <ele>45.79999923706</ele>
        <time>2016-03-14T20:14:20Z</time>
      </trkpt>
      <trkpt lat="48.90495" lon="2.25646">
        <ele>44.79999923706</ele>
        <time>2016-03-14T20:14:24Z</time>
      </trkpt>
      <trkpt lat="48.90499" lon="2.25643">
        <ele>44.400001525879</ele>
        <time>2016-03-14T20:14:25Z</time>
      </trkpt>
      <trkpt lat="48.90516" lon="2.25628">
        <ele>44.79999923706</ele>
        <time>2016-03-14T20:14:30Z</time>
      </trkpt>
      <trkpt lat="48.90533" lon="2.25626">
        <ele>44.79999923706</ele>
        <time>2016-03-14T20:14:36Z</time>
      </trkpt>
      <trkpt lat="48.90535" lon="2.25627">
        <ele>44.79999923706</ele>
        <time>2016-03-14T20:14:37Z</time>
      </trkpt>
      <trkpt lat="48.90535" lon="2.25627">
        <ele>44.79999923706</ele>
        <time>2016-03-14T20:14:38Z</time>
      </trkpt>
      <trkpt lat="48.90534" lon="2.25618">
        <ele>45.20000076294</ele>
        <time>2016-03-14T20:15:14Z</time>
      </trkpt>
      <trkpt lat="48.90547" lon="2.25596">
        <ele>46.400001525879</ele>
        <time>2016-03-14T20:15:20Z</time>
      </trkpt>
      <trkpt lat="48.90546" lon="2.25569">
        <ele>46.79999923706</ele>
        <time>2016-03-14T20:15:25Z</time>
      </trkpt>
      <trkpt lat="48.90543" lon="2.25541">
        <ele>46.79999923706</ele>
        <time>2016-03-14T20:15:30Z</time>
      </trkpt>
      <trkpt lat="48.90546" lon="2.25513">
        <ele>46.79999923706</ele>
        <time>2016-03-14T20:15:34Z</time>
      </trkpt>
      <trkpt lat="48.90551" lon="2.2548">
        <ele>46.400001525879</ele>
        <time>2016-03-14T20:15:39Z</time>
      </trkpt>
      <trkpt lat="48.90556" lon="2.25447">
        <ele>45.20000076294</ele>
        <time>2016-03-14T20:15:44Z</time>
      </trkpt>
      <trkpt lat="48.90561" lon="2.25414">
        <ele>45.400001525879</ele>
        <time>2016-03-14T20:15:49Z</time>
      </trkpt>
      <trkpt lat="48.90566" lon="2.25383">
        <ele>46.20000076294</ele>
        <time>2016-03-14T20:15:54Z</time>
      </trkpt>
      <trkpt lat="48.9057" lon="2.25364">
        <ele>46.400001525879</ele>
        <time>2016-03-14T20:15:57Z</time>
      </trkpt>
      <trkpt lat="48.90575" lon="2.25331">
        <ele>46</ele>
        <time>2016-03-14T20:16:02Z</time>
      </trkpt>
      <trkpt lat="48.90577" lon="2.25298">
        <ele>46</ele>
        <time>2016-03-14T20:16:07Z</time>
      </trkpt>
      <trkpt lat="48.90579" lon="2.25269">
        <ele>45.599998474121</ele>
        <time>2016-03-14T20:16:11Z</time>
      </trkpt>
      <trkpt lat="48.90581" lon="2.25262">
        <ele>45.599998474121</ele>
        <time>2016-03-14T20:16:12Z</time>
      </trkpt>
      <trkpt lat="48.90584" lon="2.25248">
        <ele>45.20000076294</ele>
        <time>2016-03-14T20:16:14Z</time>
      </trkpt>
      <trkpt lat="48.90589" lon="2.2522">
        <ele>45</ele>
        <time>2016-03-14T20:16:18Z</time>
      </trkpt>
      <trkpt lat="48.90593" lon="2.25187">
        <ele>45</ele>
        <time>2016-03-14T20:16:23Z</time>
      </trkpt>
      <trkpt lat="48.90594" lon="2.25165">
        <ele>45</ele>
        <time>2016-03-14T20:16:26Z</time>
      </trkpt>
      <trkpt lat="48.90593" lon="2.25151">
        <ele>44.79999923706</ele>
        <time>2016-03-14T20:16:28Z</time>
      </trkpt>
      <trkpt lat="48.90594" lon="2.25137">
        <ele>44.599998474121</ele>
        <time>2016-03-14T20:16:30Z</time>
      </trkpt>
      <trkpt lat="48.90597" lon="2.25109">
        <ele>44.79999923706</ele>
        <time>2016-03-14T20:16:34Z</time>
      </trkpt>
      <trkpt lat="48.906" lon="2.25086">
        <ele>44.79999923706</ele>
        <time>2016-03-14T20:16:37Z</time>
      </trkpt>
      <trkpt lat="48.90601" lon="2.25071">
        <ele>45</ele>
        <time>2016-03-14T20:16:39Z</time>
      </trkpt>
      <trkpt lat="48.90608" lon="2.25039">
        <ele>45</ele>
        <time>2016-03-14T20:16:43Z</time>
      </trkpt>
      <trkpt lat="48.90613" lon="2.25004">
        <ele>45</ele>
        <time>2016-03-14T20:16:47Z</time>
      </trkpt>
      <trkpt lat="48.90617" lon="2.24971">
        <ele>44.79999923706</ele>
        <time>2016-03-14T20:16:51Z</time>
      </trkpt>
      <trkpt lat="48.90621" lon="2.24938">
        <ele>44.400001525879</ele>
        <time>2016-03-14T20:16:55Z</time>
      </trkpt>
      <trkpt lat="48.90625" lon="2.24916">
        <ele>44.599998474121</ele>
        <time>2016-03-14T20:16:58Z</time>
      </trkpt>
      <trkpt lat="48.90631" lon="2.24889">
        <ele>44.79999923706</ele>
        <time>2016-03-14T20:17:02Z</time>
      </trkpt>
      <trkpt lat="48.90636" lon="2.24879">
        <ele>45</ele>
        <time>2016-03-14T20:17:04Z</time>
      </trkpt>
      <trkpt lat="48.90646" lon="2.24867">
        <ele>45.400001525879</ele>
        <time>2016-03-14T20:17:08Z</time>
      </trkpt>
      <trkpt lat="48.9066" lon="2.2485">
        <ele>46.400001525879</ele>
        <time>2016-03-14T20:17:16Z</time>
      </trkpt>
      <trkpt lat="48.90662" lon="2.24831">
        <ele>46.599998474121</ele>
        <time>2016-03-14T20:17:21Z</time>
      </trkpt>
      <trkpt lat="48.90663" lon="2.24824">
        <ele>46.79999923706</ele>
        <time>2016-03-14T20:17:24Z</time>
      </trkpt>
      <trkpt lat="48.90679" lon="2.24811">
        <ele>47.599998474121</ele>
        <time>2016-03-14T20:17:30Z</time>
      </trkpt>
      <trkpt lat="48.90698" lon="2.24798">
        <ele>48.20000076294</ele>
        <time>2016-03-14T20:17:36Z</time>
      </trkpt>
      <trkpt lat="48.90717" lon="2.24789">
        <ele>47.79999923706</ele>
        <time>2016-03-14T20:17:41Z</time>
      </trkpt>
      <trkpt lat="48.90735" lon="2.24781">
        <ele>47.599998474121</ele>
        <time>2016-03-14T20:17:45Z</time>
      </trkpt>
      <trkpt lat="48.90752" lon="2.2477">
        <ele>47.20000076294</ele>
        <time>2016-03-14T20:17:49Z</time>
      </trkpt>
      <trkpt lat="48.90769" lon="2.24758">
        <ele>47</ele>
        <time>2016-03-14T20:17:53Z</time>
      </trkpt>
      <trkpt lat="48.90787" lon="2.24747">
        <ele>46.599998474121</ele>
        <time>2016-03-14T20:17:57Z</time>
      </trkpt>
      <trkpt lat="48.90805" lon="2.24738">
        <ele>45.400001525879</ele>
        <time>2016-03-14T20:18:02Z</time>
      </trkpt>
      <trkpt lat="48.90825" lon="2.24724">
        <ele>44.20000076294</ele>
        <time>2016-03-14T20:18:07Z</time>
      </trkpt>
      <trkpt lat="48.90843" lon="2.24715">
        <ele>42.79999923706</ele>
        <time>2016-03-14T20:18:11Z</time>
      </trkpt>
      <trkpt lat="48.90857" lon="2.24705">
        <ele>41.599998474121</ele>
        <time>2016-03-14T20:18:15Z</time>
      </trkpt>
      <trkpt lat="48.9087" lon="2.24693">
        <ele>40.599998474121</ele>
        <time>2016-03-14T20:18:19Z</time>
      </trkpt>
      <trkpt lat="48.90886" lon="2.2469">
        <ele>40.400001525879</ele>
        <time>2016-03-14T20:18:25Z</time>
      </trkpt>
      <trkpt lat="48.90889" lon="2.24686">
        <ele>40.400001525879</ele>
        <time>2016-03-14T20:18:27Z</time>
      </trkpt>
      <trkpt lat="48.90891" lon="2.24682">
        <ele>40.20000076294</ele>
        <time>2016-03-14T20:18:32Z</time>
      </trkpt>
      <trkpt lat="48.90895" lon="2.24676">
        <ele>40.20000076294</ele>
        <time>2016-03-14T20:18:37Z</time>
      </trkpt>
      <trkpt lat="48.90907" lon="2.2468">
        <ele>40.599998474121</ele>
        <time>2016-03-14T20:18:54Z</time>
      </trkpt>
      <trkpt lat="48.90908" lon="2.24682">
        <ele>40.79999923706</ele>
        <time>2016-03-14T20:19:53Z</time>
      </trkpt>
      <trkpt lat="48.90903" lon="2.24689">
        <ele>40.79999923706</ele>
        <time>2016-03-14T20:20:35Z</time>
      </trkpt>
      <trkpt lat="48.90901" lon="2.24685">
        <ele>40.599998474121</ele>
        <time>2016-03-14T20:21:29Z</time>
      </trkpt>
      <trkpt lat="48.90905" lon="2.24684">
        <ele>40.599998474121</ele>
        <time>2016-03-14T20:21:46Z</time>
      </trkpt>
      <trkpt lat="48.90906" lon="2.24682">
        <ele>40.599998474121</ele>
        <time>2016-03-14T20:21:50Z</time>
      </trkpt>
      <trkpt lat="48.90919" lon="2.24693">
        <ele>41.20000076294</ele>
        <time>2016-03-14T20:22:07Z</time>
      </trkpt>
      <trkpt lat="48.90931" lon="2.24699">
        <ele>41.599998474121</ele>
        <time>2016-03-14T20:22:11Z</time>
      </trkpt>
      <trkpt lat="48.90939" lon="2.24721">
        <ele>42.400001525879</ele>
        <time>2016-03-14T20:22:18Z</time>
      </trkpt>
      <trkpt lat="48.90939" lon="2.24751">
        <ele>43.20000076294</ele>
        <time>2016-03-14T20:22:24Z</time>
      </trkpt>
      <trkpt lat="48.90941" lon="2.24782">
        <ele>43.79999923706</ele>
        <time>2016-03-14T20:22:32Z</time>
      </trkpt>
      <trkpt lat="48.90931" lon="2.24806">
        <ele>44.599998474121</ele>
        <time>2016-03-14T20:22:40Z</time>
      </trkpt>
      <trkpt lat="48.90924" lon="2.24834">
        <ele>45.20000076294</ele>
        <time>2016-03-14T20:22:46Z</time>
      </trkpt>
      <trkpt lat="48.90919" lon="2.24861">
        <ele>44.79999923706</ele>
        <time>2016-03-14T20:22:51Z</time>
      </trkpt>
      <trkpt lat="48.90912" lon="2.24888">
        <ele>44.20000076294</ele>
        <time>2016-03-14T20:22:56Z</time>
      </trkpt>
      <trkpt lat="48.90906" lon="2.24916">
        <ele>43.79999923706</ele>
        <time>2016-03-14T20:23:01Z</time>
      </trkpt>
      <trkpt lat="48.90903" lon="2.24947">
        <ele>43</ele>
        <time>2016-03-14T20:23:06Z</time>
      </trkpt>
      <trkpt lat="48.90892" lon="2.24977">
        <ele>42.599998474121</ele>
        <time>2016-03-14T20:23:11Z</time>
      </trkpt>
      <trkpt lat="48.90884" lon="2.25004">
        <ele>42.79999923706</ele>
        <time>2016-03-14T20:23:15Z</time>
      </trkpt>
      <trkpt lat="48.90882" lon="2.25041">
        <ele>44.20000076294</ele>
        <time>2016-03-14T20:23:20Z</time>
      </trkpt>
      <trkpt lat="48.90877" lon="2.25067">
        <ele>44.400001525879</ele>
        <time>2016-03-14T20:23:24Z</time>
      </trkpt>
      <trkpt lat="48.90877" lon="2.25073">
        <ele>44.400001525879</ele>
        <time>2016-03-14T20:23:25Z</time>
      </trkpt>
      <trkpt lat="48.90876" lon="2.25084">
        <ele>44.400001525879</ele>
        <time>2016-03-14T20:23:27Z</time>
      </trkpt>
      <trkpt lat="48.90874" lon="2.25109">
        <ele>44.599998474121</ele>
        <time>2016-03-14T20:23:31Z</time>
      </trkpt>
      <trkpt lat="48.90872" lon="2.25112">
        <ele>44.599998474121</ele>
        <time>2016-03-14T20:23:32Z</time>
      </trkpt>
      <trkpt lat="48.9088" lon="2.25133">
        <ele>45</ele>
        <time>2016-03-14T20:23:39Z</time>
      </trkpt>
      <trkpt lat="48.90871" lon="2.2512">
        <ele>44.599998474121</ele>
        <time>2016-03-14T20:23:48Z</time>
      </trkpt>
      <trkpt lat="48.90862" lon="2.25112">
        <ele>44.400001525879</ele>
        <time>2016-03-14T20:23:51Z</time>
      </trkpt>
      <trkpt lat="48.90845" lon="2.25094">
        <ele>44.20000076294</ele>
        <time>2016-03-14T20:23:56Z</time>
      </trkpt>
      <trkpt lat="48.90828" lon="2.25072">
        <ele>43.79999923706</ele>
        <time>2016-03-14T20:24:01Z</time>
      </trkpt>
      <trkpt lat="48.90812" lon="2.25053">
        <ele>43.400001525879</ele>
        <time>2016-03-14T20:24:05Z</time>
      </trkpt>
      <trkpt lat="48.90797" lon="2.25036">
        <ele>43</ele>
        <time>2016-03-14T20:24:08Z</time>
      </trkpt>
      <trkpt lat="48.90783" lon="2.25018">
        <ele>42.599998474121</ele>
        <time>2016-03-14T20:24:11Z</time>
      </trkpt>
      <trkpt lat="48.90765" lon="2.24998">
        <ele>42.400001525879</ele>
        <time>2016-03-14T20:24:14Z</time>
      </trkpt>
      <trkpt lat="48.90748" lon="2.24977">
        <ele>43.400001525879</ele>
        <time>2016-03-14T20:24:17Z</time>
      </trkpt>
      <trkpt lat="48.90733" lon="2.24957">
        <ele>44.400001525879</ele>
        <time>2016-03-14T20:24:20Z</time>
      </trkpt>
      <trkpt lat="48.90716" lon="2.24937">
        <ele>45.400001525879</ele>
        <time>2016-03-14T20:24:23Z</time>
      </trkpt>
      <trkpt lat="48.90711" lon="2.24932">
        <ele>45.79999923706</ele>
        <time>2016-03-14T20:24:24Z</time>
      </trkpt>
      <trkpt lat="48.90696" lon="2.24913">
        <ele>46.599998474121</ele>
        <time>2016-03-14T20:24:27Z</time>
      </trkpt>
      <trkpt lat="48.9068" lon="2.2489">
        <ele>46.79999923706</ele>
        <time>2016-03-14T20:24:31Z</time>
      </trkpt>
      <trkpt lat="48.90669" lon="2.24875">
        <ele>46.400001525879</ele>
        <time>2016-03-14T20:24:34Z</time>
      </trkpt>
      <trkpt lat="48.90664" lon="2.24868">
        <ele>46.20000076294</ele>
        <time>2016-03-14T20:24:36Z</time>
      </trkpt>
      <trkpt lat="48.9066" lon="2.24843">
        <ele>46.400001525879</ele>
        <time>2016-03-14T20:24:43Z</time>
      </trkpt>
      <trkpt lat="48.90659" lon="2.24835">
        <ele>46.400001525879</ele>
        <time>2016-03-14T20:24:45Z</time>
      </trkpt>
      <trkpt lat="48.90656" lon="2.24822">
        <ele>46.400001525879</ele>
        <time>2016-03-14T20:24:49Z</time>
      </trkpt>
      <trkpt lat="48.90649" lon="2.24805">
        <ele>46</ele>
        <time>2016-03-14T20:24:56Z</time>
      </trkpt>
      <trkpt lat="48.90648" lon="2.24802">
        <ele>46</ele>
        <time>2016-03-14T20:24:57Z</time>
      </trkpt>
      <trkpt lat="48.90646" lon="2.24797">
        <ele>45.79999923706</ele>
        <time>2016-03-14T20:25:01Z</time>
      </trkpt>
      <trkpt lat="48.90645" lon="2.24798">
        <ele>45.79999923706</ele>
        <time>2016-03-14T20:25:02Z</time>
      </trkpt>
      <trkpt lat="48.90628" lon="2.24782">
        <ele>45</ele>
        <time>2016-03-14T20:25:10Z</time>
      </trkpt>
      <trkpt lat="48.90618" lon="2.24755">
        <ele>44.599998474121</ele>
        <time>2016-03-14T20:25:15Z</time>
      </trkpt>
      <trkpt lat="48.90605" lon="2.24725">
        <ele>43.20000076294</ele>
        <time>2016-03-14T20:25:20Z</time>
      </trkpt>
      <trkpt lat="48.90596" lon="2.24698">
        <ele>42.400001525879</ele>
        <time>2016-03-14T20:25:24Z</time>
      </trkpt>
      <trkpt lat="48.90588" lon="2.24668">
        <ele>41.400001525879</ele>
        <time>2016-03-14T20:25:28Z</time>
      </trkpt>
      <trkpt lat="48.9058" lon="2.24636">
        <ele>41</ele>
        <time>2016-03-14T20:25:32Z</time>
      </trkpt>
      <trkpt lat="48.90574" lon="2.24608">
        <ele>41</ele>
        <time>2016-03-14T20:25:36Z</time>
      </trkpt>
      <trkpt lat="48.90568" lon="2.24581">
        <ele>41</ele>
        <time>2016-03-14T20:25:40Z</time>
      </trkpt>
      <trkpt lat="48.9056" lon="2.24557">
        <ele>41.20000076294</ele>
        <time>2016-03-14T20:25:44Z</time>
      </trkpt>
      <trkpt lat="48.90551" lon="2.2453">
        <ele>41.599998474121</ele>
        <time>2016-03-14T20:25:48Z</time>
      </trkpt>
      <trkpt lat="48.90543" lon="2.24499">
        <ele>42.20000076294</ele>
        <time>2016-03-14T20:25:52Z</time>
      </trkpt>
      <trkpt lat="48.90535" lon="2.24469">
        <ele>41.400001525879</ele>
        <time>2016-03-14T20:25:55Z</time>
      </trkpt>
      <trkpt lat="48.9053" lon="2.24442">
        <ele>40.79999923706</ele>
        <time>2016-03-14T20:25:58Z</time>
      </trkpt>
      <trkpt lat="48.90526" lon="2.24412">
        <ele>40</ele>
        <time>2016-03-14T20:26:02Z</time>
      </trkpt>
      <trkpt lat="48.9052" lon="2.24385">
        <ele>40.400001525879</ele>
        <time>2016-03-14T20:26:06Z</time>
      </trkpt>
      <trkpt lat="48.90512" lon="2.24357">
        <ele>41.20000076294</ele>
        <time>2016-03-14T20:26:10Z</time>
      </trkpt>
      <trkpt lat="48.90505" lon="2.24326">
        <ele>41.79999923706</ele>
        <time>2016-03-14T20:26:14Z</time>
      </trkpt>
      <trkpt lat="48.90494" lon="2.24293">
        <ele>42.20000076294</ele>
        <time>2016-03-14T20:26:18Z</time>
      </trkpt>
      <trkpt lat="48.90487" lon="2.24266">
        <ele>43</ele>
        <time>2016-03-14T20:26:21Z</time>
      </trkpt>
      <trkpt lat="48.90481" lon="2.2424">
        <ele>43.599998474121</ele>
        <time>2016-03-14T20:26:24Z</time>
      </trkpt>
      <trkpt lat="48.90472" lon="2.24208">
        <ele>43.599998474121</ele>
        <time>2016-03-14T20:26:28Z</time>
      </trkpt>
      <trkpt lat="48.90467" lon="2.24177">
        <ele>43.400001525879</ele>
        <time>2016-03-14T20:26:31Z</time>
      </trkpt>
      <trkpt lat="48.90466" lon="2.2417">
        <ele>43.20000076294</ele>
        <time>2016-03-14T20:26:32Z</time>
      </trkpt>
      <trkpt lat="48.9046" lon="2.24141">
        <ele>43</ele>
        <time>2016-03-14T20:26:36Z</time>
      </trkpt>
      <trkpt lat="48.90455" lon="2.24112">
        <ele>42.79999923706</ele>
        <time>2016-03-14T20:26:40Z</time>
      </trkpt>
      <trkpt lat="48.90448" lon="2.24082">
        <ele>42.79999923706</ele>
        <time>2016-03-14T20:26:45Z</time>
      </trkpt>
      <trkpt lat="48.90445" lon="2.24072">
        <ele>42.79999923706</ele>
        <time>2016-03-14T20:26:47Z</time>
      </trkpt>
      <trkpt lat="48.90446" lon="2.24051">
        <ele>42.400001525879</ele>
        <time>2016-03-14T20:26:52Z</time>
      </trkpt>
      <trkpt lat="48.9045" lon="2.24027">
        <ele>42</ele>
        <time>2016-03-14T20:27:17Z</time>
      </trkpt>
      <trkpt lat="48.90452" lon="2.24026">
        <ele>42</ele>
        <time>2016-03-14T20:27:18Z</time>
      </trkpt>
      <trkpt lat="48.90471" lon="2.24014">
        <ele>41</ele>
        <time>2016-03-14T20:27:26Z</time>
      </trkpt>
      <trkpt lat="48.90473" lon="2.24008">
        <ele>40.599998474121</ele>
        <time>2016-03-14T20:27:28Z</time>
      </trkpt>
      <trkpt lat="48.90472" lon="2.23991">
        <ele>40.400001525879</ele>
        <time>2016-03-14T20:27:32Z</time>
      </trkpt>
      <trkpt lat="48.90468" lon="2.23963">
        <ele>39.79999923706</ele>
        <time>2016-03-14T20:27:41Z</time>
      </trkpt>
      <trkpt lat="48.90467" lon="2.23958">
        <ele>39.79999923706</ele>
        <time>2016-03-14T20:27:43Z</time>
      </trkpt>
      <trkpt lat="48.90472" lon="2.2395">
        <ele>39.400001525879</ele>
        <time>2016-03-14T20:27:47Z</time>
      </trkpt>
      <trkpt lat="48.90492" lon="2.23941">
        <ele>39.400001525879</ele>
        <time>2016-03-14T20:27:54Z</time>
      </trkpt>
      <trkpt lat="48.90501" lon="2.23931">
        <ele>39.599998474121</ele>
        <time>2016-03-14T20:27:59Z</time>
      </trkpt>
      <trkpt lat="48.90494" lon="2.23905">
        <ele>40.20000076294</ele>
        <time>2016-03-14T20:28:12Z</time>
      </trkpt>
      <trkpt lat="48.90481" lon="2.23887">
        <ele>40.599998474121</ele>
        <time>2016-03-14T20:28:22Z</time>
      </trkpt>
      <trkpt lat="48.90474" lon="2.23861">
        <ele>41.20000076294</ele>
        <time>2016-03-14T20:28:27Z</time>
      </trkpt>
      <trkpt lat="48.90472" lon="2.2383">
        <ele>42</ele>
        <time>2016-03-14T20:28:33Z</time>
      </trkpt>
      <trkpt lat="48.90469" lon="2.238">
        <ele>42</ele>
        <time>2016-03-14T20:28:41Z</time>
      </trkpt>
      <trkpt lat="48.90463" lon="2.23771">
        <ele>42</ele>
        <time>2016-03-14T20:28:46Z</time>
      </trkpt>
      <trkpt lat="48.90461" lon="2.23741">
        <ele>41.79999923706</ele>
        <time>2016-03-14T20:28:50Z</time>
      </trkpt>
      <trkpt lat="48.90454" lon="2.23706">
        <ele>41.79999923706</ele>
        <time>2016-03-14T20:28:57Z</time>
      </trkpt>
      <trkpt lat="48.90452" lon="2.23679">
        <ele>41.79999923706</ele>
        <time>2016-03-14T20:29:00Z</time>
      </trkpt>
      <trkpt lat="48.90451" lon="2.23646">
        <ele>41.599998474121</ele>
        <time>2016-03-14T20:29:04Z</time>
      </trkpt>
      <trkpt lat="48.90443" lon="2.2362">
        <ele>41.400001525879</ele>
        <time>2016-03-14T20:29:08Z</time>
      </trkpt>
      <trkpt lat="48.90439" lon="2.2361">
        <ele>41.400001525879</ele>
        <time>2016-03-14T20:29:10Z</time>
      </trkpt>
      <trkpt lat="48.90434" lon="2.23583">
        <ele>41</ele>
        <time>2016-03-14T20:29:15Z</time>
      </trkpt>
      <trkpt lat="48.90431" lon="2.23565">
        <ele>41.20000076294</ele>
        <time>2016-03-14T20:29:20Z</time>
      </trkpt>
      <trkpt lat="48.90416" lon="2.23543">
        <ele>41.20000076294</ele>
        <time>2016-03-14T20:29:25Z</time>
      </trkpt>
      <trkpt lat="48.90408" lon="2.23518">
        <ele>41.400001525879</ele>
        <time>2016-03-14T20:29:30Z</time>
      </trkpt>
      <trkpt lat="48.90403" lon="2.23491">
        <ele>41.400001525879</ele>
        <time>2016-03-14T20:29:34Z</time>
      </trkpt>
      <trkpt lat="48.90394" lon="2.23463">
        <ele>40.79999923706</ele>
        <time>2016-03-14T20:29:39Z</time>
      </trkpt>
      <trkpt lat="48.90388" lon="2.23437">
        <ele>40.20000076294</ele>
        <time>2016-03-14T20:29:44Z</time>
      </trkpt>
      <trkpt lat="48.90383" lon="2.2341">
        <ele>39.400001525879</ele>
        <time>2016-03-14T20:29:49Z</time>
      </trkpt>
      <trkpt lat="48.90375" lon="2.23384">
        <ele>39.79999923706</ele>
        <time>2016-03-14T20:29:54Z</time>
      </trkpt>
      <trkpt lat="48.9037" lon="2.23353">
        <ele>40.400001525879</ele>
        <time>2016-03-14T20:29:59Z</time>
      </trkpt>
      <trkpt lat="48.90367" lon="2.23325">
        <ele>40.400001525879</ele>
        <time>2016-03-14T20:30:03Z</time>
      </trkpt>
      <trkpt lat="48.90362" lon="2.23296">
        <ele>40.400001525879</ele>
        <time>2016-03-14T20:30:08Z</time>
      </trkpt>
      <trkpt lat="48.90357" lon="2.23267">
        <ele>40.20000076294</ele>
        <time>2016-03-14T20:30:13Z</time>
      </trkpt>
      <trkpt lat="48.90352" lon="2.23239">
        <ele>40</ele>
        <time>2016-03-14T20:30:18Z</time>
      </trkpt>
      <trkpt lat="48.90346" lon="2.23212">
        <ele>39.79999923706</ele>
        <time>2016-03-14T20:30:23Z</time>
      </trkpt>
      <trkpt lat="48.90341" lon="2.23182">
        <ele>39.400001525879</ele>
        <time>2016-03-14T20:30:28Z</time>
      </trkpt>
      <trkpt lat="48.90334" lon="2.23154">
        <ele>39.20000076294</ele>
        <time>2016-03-14T20:30:33Z</time>
      </trkpt>
      <trkpt lat="48.90328" lon="2.23122">
        <ele>38.79999923706</ele>
        <time>2016-03-14T20:30:38Z</time>
      </trkpt>
      <trkpt lat="48.90325" lon="2.23093">
        <ele>38.599998474121</ele>
        <time>2016-03-14T20:30:42Z</time>
      </trkpt>
      <trkpt lat="48.90324" lon="2.23062">
        <ele>38.79999923706</ele>
        <time>2016-03-14T20:30:46Z</time>
      </trkpt>
      <trkpt lat="48.90317" lon="2.23036">
        <ele>39.400001525879</ele>
        <time>2016-03-14T20:30:50Z</time>
      </trkpt>
      <trkpt lat="48.9031" lon="2.23006">
        <ele>39.400001525879</ele>
        <time>2016-03-14T20:30:55Z</time>
      </trkpt>
      <trkpt lat="48.90302" lon="2.22979">
        <ele>40</ele>
        <time>2016-03-14T20:30:59Z</time>
      </trkpt>
      <trkpt lat="48.90295" lon="2.22952">
        <ele>41</ele>
        <time>2016-03-14T20:31:03Z</time>
      </trkpt>
      <trkpt lat="48.90289" lon="2.22934">
        <ele>41.79999923706</ele>
        <time>2016-03-14T20:31:06Z</time>
      </trkpt>
      <trkpt lat="48.90282" lon="2.22908">
        <ele>42.599998474121</ele>
        <time>2016-03-14T20:31:10Z</time>
      </trkpt>
      <trkpt lat="48.90274" lon="2.22883">
        <ele>43.400001525879</ele>
        <time>2016-03-14T20:31:14Z</time>
      </trkpt>
      <trkpt lat="48.90269" lon="2.22848">
        <ele>43.79999923706</ele>
        <time>2016-03-14T20:31:19Z</time>
      </trkpt>
      <trkpt lat="48.90264" lon="2.22815">
        <ele>43.599998474121</ele>
        <time>2016-03-14T20:31:24Z</time>
      </trkpt>
      <trkpt lat="48.90261" lon="2.22793">
        <ele>42.79999923706</ele>
        <time>2016-03-14T20:31:29Z</time>
      </trkpt>
      <trkpt lat="48.90258" lon="2.22775">
        <ele>42.20000076294</ele>
        <time>2016-03-14T20:31:33Z</time>
      </trkpt>
      <trkpt lat="48.90253" lon="2.22754">
        <ele>41.599998474121</ele>
        <time>2016-03-14T20:31:37Z</time>
      </trkpt>
      <trkpt lat="48.9025" lon="2.22749">
        <ele>41.400001525879</ele>
        <time>2016-03-14T20:31:38Z</time>
      </trkpt>
      <trkpt lat="48.90244" lon="2.22735">
        <ele>41.599998474121</ele>
        <time>2016-03-14T20:31:41Z</time>
      </trkpt>
      <trkpt lat="48.90238" lon="2.22714">
        <ele>42.20000076294</ele>
        <time>2016-03-14T20:31:46Z</time>
      </trkpt>
      <trkpt lat="48.90232" lon="2.22686">
        <ele>42.79999923706</ele>
        <time>2016-03-14T20:31:51Z</time>
      </trkpt>
      <trkpt lat="48.90226" lon="2.22657">
        <ele>43.20000076294</ele>
        <time>2016-03-14T20:31:56Z</time>
      </trkpt>
      <trkpt lat="48.90221" lon="2.22626">
        <ele>43.599998474121</ele>
        <time>2016-03-14T20:32:02Z</time>
      </trkpt>
      <trkpt lat="48.90214" lon="2.22598">
        <ele>44.20000076294</ele>
        <time>2016-03-14T20:32:07Z</time>
      </trkpt>
      <trkpt lat="48.90203" lon="2.22569">
        <ele>45.20000076294</ele>
        <time>2016-03-14T20:32:12Z</time>
      </trkpt>
      <trkpt lat="48.90194" lon="2.22545">
        <ele>46.20000076294</ele>
        <time>2016-03-14T20:32:16Z</time>
      </trkpt>
      <trkpt lat="48.90184" lon="2.22515">
        <ele>47.400001525879</ele>
        <time>2016-03-14T20:32:21Z</time>
      </trkpt>
      <trkpt lat="48.90174" lon="2.22486">
        <ele>48.599998474121</ele>
        <time>2016-03-14T20:32:26Z</time>
      </trkpt>
      <trkpt lat="48.90166" lon="2.22461">
        <ele>48.79999923706</ele>
        <time>2016-03-14T20:32:30Z</time>
      </trkpt>
      <trkpt lat="48.90163" lon="2.22451">
        <ele>48.599998474121</ele>
        <time>2016-03-14T20:32:32Z</time>
      </trkpt>
      <trkpt lat="48.90155" lon="2.22423">
        <ele>48.400001525879</ele>
        <time>2016-03-14T20:32:37Z</time>
      </trkpt>
      <trkpt lat="48.90142" lon="2.22398">
        <ele>48.79999923706</ele>
        <time>2016-03-14T20:32:41Z</time>
      </trkpt>
      <trkpt lat="48.90139" lon="2.22393">
        <ele>48.79999923706</ele>
        <time>2016-03-14T20:32:42Z</time>
      </trkpt>
      <trkpt lat="48.90127" lon="2.22371">
        <ele>49.20000076294</ele>
        <time>2016-03-14T20:32:46Z</time>
      </trkpt>
      <trkpt lat="48.90118" lon="2.22347">
        <ele>49.599998474121</ele>
        <time>2016-03-14T20:32:50Z</time>
      </trkpt>
      <trkpt lat="48.9011" lon="2.22322">
        <ele>49.599998474121</ele>
        <time>2016-03-14T20:32:54Z</time>
      </trkpt>
      <trkpt lat="48.90101" lon="2.22297">
        <ele>50</ele>
        <time>2016-03-14T20:32:58Z</time>
      </trkpt>
      <trkpt lat="48.90091" lon="2.2227">
        <ele>50.400001525879</ele>
        <time>2016-03-14T20:33:02Z</time>
      </trkpt>
      <trkpt lat="48.90078" lon="2.22242">
        <ele>50.79999923706</ele>
        <time>2016-03-14T20:33:06Z</time>
      </trkpt>
      <trkpt lat="48.90074" lon="2.22236">
        <ele>50.599998474121</ele>
        <time>2016-03-14T20:33:07Z</time>
      </trkpt>
      <trkpt lat="48.90055" lon="2.22216">
        <ele>50.599998474121</ele>
        <time>2016-03-14T20:33:11Z</time>
      </trkpt>
      <trkpt lat="48.90035" lon="2.22196">
        <ele>50.599998474121</ele>
        <time>2016-03-14T20:33:15Z</time>
      </trkpt>
      <trkpt lat="48.90034" lon="2.22189">
        <ele>50.20000076294</ele>
        <time>2016-03-14T20:33:16Z</time>
      </trkpt>
      <trkpt lat="48.9003" lon="2.22151">
        <ele>48.400001525879</ele>
        <time>2016-03-14T20:33:21Z</time>
      </trkpt>
      <trkpt lat="48.90018" lon="2.22125">
        <ele>47.79999923706</ele>
        <time>2016-03-14T20:33:27Z</time>
      </trkpt>
      <trkpt lat="48.90004" lon="2.2211">
        <ele>47.79999923706</ele>
        <time>2016-03-14T20:33:52Z</time>
      </trkpt>
      <trkpt lat="48.89986" lon="2.2211">
        <ele>48.599998474121</ele>
        <time>2016-03-14T20:33:59Z</time>
      </trkpt>
      <trkpt lat="48.89967" lon="2.22108">
        <ele>49</ele>
        <time>2016-03-14T20:34:05Z</time>
      </trkpt>
      <trkpt lat="48.8996" lon="2.22108">
        <ele>49.20000076294</ele>
        <time>2016-03-14T20:34:08Z</time>
      </trkpt>
      <trkpt lat="48.89968" lon="2.2211">
        <ele>49</ele>
        <time>2016-03-14T20:34:13Z</time>
      </trkpt>
      <trkpt lat="48.89987" lon="2.22118">
        <ele>48.79999923706</ele>
        <time>2016-03-14T20:34:18Z</time>
      </trkpt>
      <trkpt lat="48.90004" lon="2.22115">
        <ele>48</ele>
        <time>2016-03-14T20:34:27Z</time>
      </trkpt>
      <trkpt lat="48.90015" lon="2.22124">
        <ele>48</ele>
        <time>2016-03-14T20:34:46Z</time>
      </trkpt>
      <trkpt lat="48.90019" lon="2.2212">
        <ele>47.599998474121</ele>
        <time>2016-03-14T20:34:51Z</time>
      </trkpt>
      <trkpt lat="48.90031" lon="2.22144">
        <ele>48.20000076294</ele>
        <time>2016-03-14T20:35:00Z</time>
      </trkpt>
      <trkpt lat="48.90042" lon="2.22169">
        <ele>48.79999923706</ele>
        <time>2016-03-14T20:35:05Z</time>
      </trkpt>
      <trkpt lat="48.90053" lon="2.22193">
        <ele>49</ele>
        <time>2016-03-14T20:35:09Z</time>
      </trkpt>
      <trkpt lat="48.9007" lon="2.22218">
        <ele>49.599998474121</ele>
        <time>2016-03-14T20:35:13Z</time>
      </trkpt>
      <trkpt lat="48.90082" lon="2.22232">
        <ele>49.79999923706</ele>
        <time>2016-03-14T20:35:15Z</time>
      </trkpt>
      <trkpt lat="48.90094" lon="2.2226">
        <ele>50.20000076294</ele>
        <time>2016-03-14T20:35:18Z</time>
      </trkpt>
      <trkpt lat="48.901" lon="2.22293">
        <ele>50</ele>
        <time>2016-03-14T20:35:22Z</time>
      </trkpt>
      <trkpt lat="48.90103" lon="2.22302">
        <ele>50</ele>
        <time>2016-03-14T20:35:23Z</time>
      </trkpt>
      <trkpt lat="48.90112" lon="2.22328">
        <ele>49.599998474121</ele>
        <time>2016-03-14T20:35:26Z</time>
      </trkpt>
      <trkpt lat="48.90122" lon="2.22356">
        <ele>49.400001525879</ele>
        <time>2016-03-14T20:35:29Z</time>
      </trkpt>
      <trkpt lat="48.90135" lon="2.22385">
        <ele>49</ele>
        <time>2016-03-14T20:35:32Z</time>
      </trkpt>
      <trkpt lat="48.90147" lon="2.22413">
        <ele>48.599998474121</ele>
        <time>2016-03-14T20:35:35Z</time>
      </trkpt>
      <trkpt lat="48.90157" lon="2.22441">
        <ele>48.79999923706</ele>
        <time>2016-03-14T20:35:38Z</time>
      </trkpt>
      <trkpt lat="48.90169" lon="2.22469">
        <ele>48.79999923706</ele>
        <time>2016-03-14T20:35:41Z</time>
      </trkpt>
      <trkpt lat="48.90173" lon="2.22478">
        <ele>48.79999923706</ele>
        <time>2016-03-14T20:35:42Z</time>
      </trkpt>
      <trkpt lat="48.90186" lon="2.22505">
        <ele>47.79999923706</ele>
        <time>2016-03-14T20:35:46Z</time>
      </trkpt>
      <trkpt lat="48.90188" lon="2.22511">
        <ele>47.400001525879</ele>
        <time>2016-03-14T20:35:47Z</time>
      </trkpt>
      <trkpt lat="48.90193" lon="2.22525">
        <ele>47</ele>
        <time>2016-03-14T20:35:51Z</time>
      </trkpt>
      <trkpt lat="48.90188" lon="2.22518">
        <ele>47.20000076294</ele>
        <time>2016-03-14T20:35:56Z</time>
      </trkpt>
      <trkpt lat="48.90187" lon="2.22517">
        <ele>47.20000076294</ele>
        <time>2016-03-14T20:35:57Z</time>
      </trkpt>
      <trkpt lat="48.90182" lon="2.22508">
        <ele>47.79999923706</ele>
        <time>2016-03-14T20:36:01Z</time>
      </trkpt>
      <trkpt lat="48.90175" lon="2.22496">
        <ele>48.400001525879</ele>
        <time>2016-03-14T20:36:05Z</time>
      </trkpt>
      <trkpt lat="48.90167" lon="2.22488">
        <ele>48.79999923706</ele>
        <time>2016-03-14T20:36:08Z</time>
      </trkpt>
      <trkpt lat="48.90148" lon="2.22497">
        <ele>49</ele>
        <time>2016-03-14T20:36:15Z</time>
      </trkpt>
      <trkpt lat="48.90144" lon="2.22501">
        <ele>48.79999923706</ele>
        <time>2016-03-14T20:36:17Z</time>
      </trkpt>
      <trkpt lat="48.90129" lon="2.22511">
        <ele>49</ele>
        <time>2016-03-14T20:36:25Z</time>
      </trkpt>
      <trkpt lat="48.90124" lon="2.22505">
        <ele>49.20000076294</ele>
        <time>2016-03-14T20:36:29Z</time>
      </trkpt>
      <trkpt lat="48.90109" lon="2.22482">
        <ele>50.20000076294</ele>
        <time>2016-03-14T20:36:38Z</time>
      </trkpt>
      <trkpt lat="48.90093" lon="2.22459">
        <ele>50.79999923706</ele>
        <time>2016-03-14T20:36:43Z</time>
      </trkpt>
      <trkpt lat="48.90077" lon="2.22432">
        <ele>51.599998474121</ele>
        <time>2016-03-14T20:36:47Z</time>
      </trkpt>
      <trkpt lat="48.90063" lon="2.22408">
        <ele>52.20000076294</ele>
        <time>2016-03-14T20:36:51Z</time>
      </trkpt>
      <trkpt lat="48.90057" lon="2.22396">
        <ele>52.599998474121</ele>
        <time>2016-03-14T20:36:53Z</time>
      </trkpt>
      <trkpt lat="48.90046" lon="2.22377">
        <ele>53.20000076294</ele>
        <time>2016-03-14T20:36:57Z</time>
      </trkpt>
      <trkpt lat="48.90038" lon="2.22367">
        <ele>53.599998474121</ele>
        <time>2016-03-14T20:37:01Z</time>
      </trkpt>
      <trkpt lat="48.90037" lon="2.22366">
        <ele>53.599998474121</ele>
        <time>2016-03-14T20:37:02Z</time>
      </trkpt>
      <trkpt lat="48.90029" lon="2.22355">
        <ele>54</ele>
        <time>2016-03-14T20:37:34Z</time>
      </trkpt>
      <trkpt lat="48.90015" lon="2.22332">
        <ele>54.599998474121</ele>
        <time>2016-03-14T20:37:39Z</time>
      </trkpt>
      <trkpt lat="48.90012" lon="2.22326">
        <ele>54.599998474121</ele>
        <time>2016-03-14T20:37:40Z</time>
      </trkpt>
      <trkpt lat="48.90002" lon="2.22303">
        <ele>54.20000076294</ele>
        <time>2016-03-14T20:37:43Z</time>
      </trkpt>
      <trkpt lat="48.89994" lon="2.22287">
        <ele>54</ele>
        <time>2016-03-14T20:37:45Z</time>
      </trkpt>
      <trkpt lat="48.8998" lon="2.22263">
        <ele>53.400001525879</ele>
        <time>2016-03-14T20:37:48Z</time>
      </trkpt>
      <trkpt lat="48.89971" lon="2.22248">
        <ele>53.20000076294</ele>
        <time>2016-03-14T20:37:50Z</time>
      </trkpt>
      <trkpt lat="48.89958" lon="2.22224">
        <ele>52.400001525879</ele>
        <time>2016-03-14T20:37:53Z</time>
      </trkpt>
      <trkpt lat="48.89945" lon="2.22202">
        <ele>51.599998474121</ele>
        <time>2016-03-14T20:37:56Z</time>
      </trkpt>
      <trkpt lat="48.8993" lon="2.22176">
        <ele>51.20000076294</ele>
        <time>2016-03-14T20:38:00Z</time>
      </trkpt>
      <trkpt lat="48.89912" lon="2.22156">
        <ele>51.599998474121</ele>
        <time>2016-03-14T20:38:05Z</time>
      </trkpt>
      <trkpt lat="48.89898" lon="2.22135">
        <ele>52.400001525879</ele>
        <time>2016-03-14T20:38:10Z</time>
      </trkpt>
      <trkpt lat="48.89888" lon="2.22115">
        <ele>53.400001525879</ele>
        <time>2016-03-14T20:38:14Z</time>
      </trkpt>
      <trkpt lat="48.89881" lon="2.22099">
        <ele>53.79999923706</ele>
        <time>2016-03-14T20:38:17Z</time>
      </trkpt>
      <trkpt lat="48.89879" lon="2.22078">
        <ele>53.400001525879</ele>
        <time>2016-03-14T20:38:23Z</time>
      </trkpt>
      <trkpt lat="48.89878" lon="2.22076">
        <ele>53.400001525879</ele>
        <time>2016-03-14T20:38:24Z</time>
      </trkpt>
      <trkpt lat="48.89865" lon="2.22051">
        <ele>53</ele>
        <time>2016-03-14T20:38:31Z</time>
      </trkpt>
      <trkpt lat="48.89863" lon="2.22047">
        <ele>53</ele>
        <time>2016-03-14T20:38:32Z</time>
      </trkpt>
      <trkpt lat="48.8985" lon="2.22022">
        <ele>52.20000076294</ele>
        <time>2016-03-14T20:38:39Z</time>
      </trkpt>
      <trkpt lat="48.89836" lon="2.22005">
        <ele>51.400001525879</ele>
        <time>2016-03-14T20:38:46Z</time>
      </trkpt>
      <trkpt lat="48.89819" lon="2.2199">
        <ele>50.79999923706</ele>
        <time>2016-03-14T20:38:54Z</time>
      </trkpt>
      <trkpt lat="48.89817" lon="2.2196">
        <ele>49.79999923706</ele>
        <time>2016-03-14T20:39:00Z</time>
      </trkpt>
      <trkpt lat="48.89814" lon="2.21933">
        <ele>48.599998474121</ele>
        <time>2016-03-14T20:39:07Z</time>
      </trkpt>
      <trkpt lat="48.89824" lon="2.21907">
        <ele>47.599998474121</ele>
        <time>2016-03-14T20:39:14Z</time>
      </trkpt>
      <trkpt lat="48.89831" lon="2.21877">
        <ele>47.79999923706</ele>
        <time>2016-03-14T20:39:21Z</time>
      </trkpt>
      <trkpt lat="48.8983" lon="2.21848">
        <ele>47</ele>
        <time>2016-03-14T20:39:25Z</time>
      </trkpt>
      <trkpt lat="48.89809" lon="2.21841">
        <ele>48.20000076294</ele>
        <time>2016-03-14T20:39:29Z</time>
      </trkpt>
      <trkpt lat="48.8979" lon="2.21824">
        <ele>49.20000076294</ele>
        <time>2016-03-14T20:39:34Z</time>
      </trkpt>
      <trkpt lat="48.89774" lon="2.21809">
        <ele>50.400001525879</ele>
        <time>2016-03-14T20:39:40Z</time>
      </trkpt>
      <trkpt lat="48.89772" lon="2.21806">
        <ele>50.599998474121</ele>
        <time>2016-03-14T20:39:43Z</time>
      </trkpt>
      <trkpt lat="48.89769" lon="2.21808">
        <ele>50.400001525879</ele>
        <time>2016-03-14T20:39:49Z</time>
      </trkpt>
      <trkpt lat="48.89765" lon="2.21808">
        <ele>50.400001525879</ele>
        <time>2016-03-14T20:39:54Z</time>
      </trkpt>
      <trkpt lat="48.89757" lon="2.21834">
        <ele>50.400001525879</ele>
        <time>2016-03-14T20:40:01Z</time>
      </trkpt>
      <trkpt lat="48.89751" lon="2.2186">
        <ele>50</ele>
        <time>2016-03-14T20:40:05Z</time>
      </trkpt>
      <trkpt lat="48.89743" lon="2.21887">
        <ele>49.79999923706</ele>
        <time>2016-03-14T20:40:09Z</time>
      </trkpt>
      <trkpt lat="48.89737" lon="2.21914">
        <ele>50.599998474121</ele>
        <time>2016-03-14T20:40:13Z</time>
      </trkpt>
      <trkpt lat="48.89729" lon="2.21943">
        <ele>52.400001525879</ele>
        <time>2016-03-14T20:40:17Z</time>
      </trkpt>
      <trkpt lat="48.89722" lon="2.21968">
        <ele>52.599998474121</ele>
        <time>2016-03-14T20:40:20Z</time>
      </trkpt>
      <trkpt lat="48.89714" lon="2.21998">
        <ele>52.599998474121</ele>
        <time>2016-03-14T20:40:24Z</time>
      </trkpt>
      <trkpt lat="48.89711" lon="2.22005">
        <ele>53</ele>
        <time>2016-03-14T20:40:25Z</time>
      </trkpt>
      <trkpt lat="48.89702" lon="2.22038">
        <ele>53</ele>
        <time>2016-03-14T20:40:29Z</time>
      </trkpt>
      <trkpt lat="48.89698" lon="2.22051">
        <ele>52.599998474121</ele>
        <time>2016-03-14T20:40:31Z</time>
      </trkpt>
      <trkpt lat="48.89691" lon="2.22074">
        <ele>52</ele>
        <time>2016-03-14T20:40:35Z</time>
      </trkpt>
      <trkpt lat="48.89684" lon="2.22099">
        <ele>52.400001525879</ele>
        <time>2016-03-14T20:40:41Z</time>
      </trkpt>
      <trkpt lat="48.89677" lon="2.22126">
        <ele>52.599998474121</ele>
        <time>2016-03-14T20:40:47Z</time>
      </trkpt>
      <trkpt lat="48.89672" lon="2.22154">
        <ele>53</ele>
        <time>2016-03-14T20:40:53Z</time>
      </trkpt>
      <trkpt lat="48.89671" lon="2.2219">
        <ele>54.400001525879</ele>
        <time>2016-03-14T20:40:59Z</time>
      </trkpt>
      <trkpt lat="48.89673" lon="2.22221">
        <ele>55.79999923706</ele>
        <time>2016-03-14T20:41:03Z</time>
      </trkpt>
      <trkpt lat="48.89666" lon="2.22251">
        <ele>57</ele>
        <time>2016-03-14T20:41:08Z</time>
      </trkpt>
      <trkpt lat="48.89654" lon="2.22272">
        <ele>58.20000076294</ele>
        <time>2016-03-14T20:41:13Z</time>
      </trkpt>
      <trkpt lat="48.89642" lon="2.22299">
        <ele>59.20000076294</ele>
        <time>2016-03-14T20:41:19Z</time>
      </trkpt>
      <trkpt lat="48.89629" lon="2.22324">
        <ele>59.599998474121</ele>
        <time>2016-03-14T20:41:25Z</time>
      </trkpt>
      <trkpt lat="48.89617" lon="2.22345">
        <ele>59.400001525879</ele>
        <time>2016-03-14T20:41:30Z</time>
      </trkpt>
      <trkpt lat="48.89607" lon="2.22371">
        <ele>58.400001525879</ele>
        <time>2016-03-14T20:41:35Z</time>
      </trkpt>
      <trkpt lat="48.89593" lon="2.22398">
        <ele>58</ele>
        <time>2016-03-14T20:41:40Z</time>
      </trkpt>
      <trkpt lat="48.89585" lon="2.22423">
        <ele>57.79999923706</ele>
        <time>2016-03-14T20:41:44Z</time>
      </trkpt>
      <trkpt lat="48.89576" lon="2.22454">
        <ele>58.79999923706</ele>
        <time>2016-03-14T20:41:49Z</time>
      </trkpt>
      <trkpt lat="48.89568" lon="2.2248">
        <ele>58.79999923706</ele>
        <time>2016-03-14T20:41:53Z</time>
      </trkpt>
      <trkpt lat="48.89559" lon="2.22506">
        <ele>58.599998474121</ele>
        <time>2016-03-14T20:41:57Z</time>
      </trkpt>
      <trkpt lat="48.89549" lon="2.22532">
        <ele>58.79999923706</ele>
        <time>2016-03-14T20:42:01Z</time>
      </trkpt>
      <trkpt lat="48.89541" lon="2.2256">
        <ele>59</ele>
        <time>2016-03-14T20:42:05Z</time>
      </trkpt>
      <trkpt lat="48.89533" lon="2.22589">
        <ele>58.599998474121</ele>
        <time>2016-03-14T20:42:09Z</time>
      </trkpt>
      <trkpt lat="48.89525" lon="2.22617">
        <ele>56.79999923706</ele>
        <time>2016-03-14T20:42:13Z</time>
      </trkpt>
      <trkpt lat="48.89516" lon="2.22644">
        <ele>55</ele>
        <time>2016-03-14T20:42:17Z</time>
      </trkpt>
      <trkpt lat="48.89514" lon="2.2265">
        <ele>54.599998474121</ele>
        <time>2016-03-14T20:42:18Z</time>
      </trkpt>
      <trkpt lat="48.89504" lon="2.22675">
        <ele>55</ele>
        <time>2016-03-14T20:42:22Z</time>
      </trkpt>
      <trkpt lat="48.89496" lon="2.22703">
        <ele>54.599998474121</ele>
        <time>2016-03-14T20:42:26Z</time>
      </trkpt>
      <trkpt lat="48.89483" lon="2.22732">
        <ele>54.79999923706</ele>
        <time>2016-03-14T20:42:31Z</time>
      </trkpt>
      <trkpt lat="48.89471" lon="2.22744">
        <ele>55.400001525879</ele>
        <time>2016-03-14T20:42:35Z</time>
      </trkpt>
      <trkpt lat="48.89469" lon="2.22747">
        <ele>55.599998474121</ele>
        <time>2016-03-14T20:42:36Z</time>
      </trkpt>
      <trkpt lat="48.89456" lon="2.22733">
        <ele>57</ele>
        <time>2016-03-14T20:43:03Z</time>
      </trkpt>
      <trkpt lat="48.89439" lon="2.2272">
        <ele>58.599998474121</ele>
        <time>2016-03-14T20:43:10Z</time>
      </trkpt>
      <trkpt lat="48.89419" lon="2.22716">
        <ele>59</ele>
        <time>2016-03-14T20:43:18Z</time>
      </trkpt>
      <trkpt lat="48.89399" lon="2.22717">
        <ele>58.79999923706</ele>
        <time>2016-03-14T20:43:25Z</time>
      </trkpt>
      <trkpt lat="48.89392" lon="2.22719">
        <ele>58.599998474121</ele>
        <time>2016-03-14T20:43:30Z</time>
      </trkpt>
      <trkpt lat="48.894" lon="2.22704">
        <ele>59.400001525879</ele>
        <time>2016-03-14T20:44:04Z</time>
      </trkpt>
      <trkpt lat="48.89389" lon="2.22691">
        <ele>60</ele>
        <time>2016-03-14T20:44:23Z</time>
      </trkpt>
      <trkpt lat="48.89374" lon="2.22673">
        <ele>60.599998474121</ele>
        <time>2016-03-14T20:44:32Z</time>
      </trkpt>
      <trkpt lat="48.89372" lon="2.2267">
        <ele>60.599998474121</ele>
        <time>2016-03-14T20:44:34Z</time>
      </trkpt>
      <trkpt lat="48.89372" lon="2.22662">
        <ele>60.79999923706</ele>
        <time>2016-03-14T20:44:39Z</time>
      </trkpt>
      <trkpt lat="48.89372" lon="2.22663">
        <ele>60.79999923706</ele>
        <time>2016-03-14T20:44:40Z</time>
      </trkpt>
      <trkpt lat="48.89378" lon="2.22636">
        <ele>60.400001525879</ele>
        <time>2016-03-14T20:45:09Z</time>
      </trkpt>
      <trkpt lat="48.89385" lon="2.22608">
        <ele>60</ele>
        <time>2016-03-14T20:45:15Z</time>
      </trkpt>
      <trkpt lat="48.89394" lon="2.2258">
        <ele>59.20000076294</ele>
        <time>2016-03-14T20:45:21Z</time>
      </trkpt>
      <trkpt lat="48.89405" lon="2.22553">
        <ele>58.20000076294</ele>
        <time>2016-03-14T20:45:27Z</time>
      </trkpt>
      <trkpt lat="48.89411" lon="2.22526">
        <ele>57.400001525879</ele>
        <time>2016-03-14T20:45:32Z</time>
      </trkpt>
      <trkpt lat="48.89418" lon="2.22499">
        <ele>56.599998474121</ele>
        <time>2016-03-14T20:45:37Z</time>
      </trkpt>
      <trkpt lat="48.89424" lon="2.22472">
        <ele>56.79999923706</ele>
        <time>2016-03-14T20:45:41Z</time>
      </trkpt>
      <trkpt lat="48.89432" lon="2.22447">
        <ele>57.79999923706</ele>
        <time>2016-03-14T20:45:45Z</time>
      </trkpt>
      <trkpt lat="48.89441" lon="2.22416">
        <ele>58.79999923706</ele>
        <time>2016-03-14T20:45:49Z</time>
      </trkpt>
      <trkpt lat="48.8945" lon="2.22386">
        <ele>59.400001525879</ele>
        <time>2016-03-14T20:45:53Z</time>
      </trkpt>
      <trkpt lat="48.89454" lon="2.22379">
        <ele>59.400001525879</ele>
        <time>2016-03-14T20:45:54Z</time>
      </trkpt>
      <trkpt lat="48.89467" lon="2.22356">
        <ele>59.599998474121</ele>
        <time>2016-03-14T20:45:58Z</time>
      </trkpt>
      <trkpt lat="48.89478" lon="2.22328">
        <ele>61.400001525879</ele>
        <time>2016-03-14T20:46:03Z</time>
      </trkpt>
      <trkpt lat="48.8948" lon="2.22323">
        <ele>61.400001525879</ele>
        <time>2016-03-14T20:46:04Z</time>
      </trkpt>
      <trkpt lat="48.89484" lon="2.22318">
        <ele>61.400001525879</ele>
        <time>2016-03-14T20:46:06Z</time>
      </trkpt>
      <trkpt lat="48.89503" lon="2.22318">
        <ele>62.20000076294</ele>
        <time>2016-03-14T20:46:29Z</time>
      </trkpt>
      <trkpt lat="48.89518" lon="2.22317">
        <ele>62.599998474121</ele>
        <time>2016-03-14T20:46:50Z</time>
      </trkpt>
      <trkpt lat="48.89524" lon="2.22309">
        <ele>62.20000076294</ele>
        <time>2016-03-14T20:47:18Z</time>
      </trkpt>
      <trkpt lat="48.89532" lon="2.22282">
        <ele>61</ele>
        <time>2016-03-14T20:47:29Z</time>
      </trkpt>
      <trkpt lat="48.89539" lon="2.22259">
        <ele>60</ele>
        <time>2016-03-14T20:47:39Z</time>
      </trkpt>
      <trkpt lat="48.89546" lon="2.22229">
        <ele>59.20000076294</ele>
        <time>2016-03-14T20:47:45Z</time>
      </trkpt>
      <trkpt lat="48.89556" lon="2.22203">
        <ele>58.20000076294</ele>
        <time>2016-03-14T20:47:50Z</time>
      </trkpt>
      <trkpt lat="48.89566" lon="2.22189">
        <ele>57.599998474121</ele>
        <time>2016-03-14T20:47:53Z</time>
      </trkpt>
      <trkpt lat="48.89574" lon="2.22165">
        <ele>57</ele>
        <time>2016-03-14T20:47:57Z</time>
      </trkpt>
      <trkpt lat="48.89582" lon="2.22139">
        <ele>57.20000076294</ele>
        <time>2016-03-14T20:48:01Z</time>
      </trkpt>
      <trkpt lat="48.89591" lon="2.22111">
        <ele>56.79999923706</ele>
        <time>2016-03-14T20:48:05Z</time>
      </trkpt>
      <trkpt lat="48.89603" lon="2.22083">
        <ele>56.20000076294</ele>
        <time>2016-03-14T20:48:09Z</time>
      </trkpt>
      <trkpt lat="48.89611" lon="2.22063">
        <ele>56.400001525879</ele>
        <time>2016-03-14T20:48:12Z</time>
      </trkpt>
      <trkpt lat="48.89622" lon="2.22034">
        <ele>56.79999923706</ele>
        <time>2016-03-14T20:48:16Z</time>
      </trkpt>
      <trkpt lat="48.89634" lon="2.22004">
        <ele>57</ele>
        <time>2016-03-14T20:48:20Z</time>
      </trkpt>
      <trkpt lat="48.89642" lon="2.21979">
        <ele>56.400001525879</ele>
        <time>2016-03-14T20:48:23Z</time>
      </trkpt>
      <trkpt lat="48.89646" lon="2.21973">
        <ele>56.20000076294</ele>
        <time>2016-03-14T20:48:24Z</time>
      </trkpt>
      <trkpt lat="48.89658" lon="2.21944">
        <ele>55.599998474121</ele>
        <time>2016-03-14T20:48:28Z</time>
      </trkpt>
      <trkpt lat="48.89667" lon="2.2192">
        <ele>55.20000076294</ele>
        <time>2016-03-14T20:48:31Z</time>
      </trkpt>
      <trkpt lat="48.89674" lon="2.21893">
        <ele>54.400001525879</ele>
        <time>2016-03-14T20:48:34Z</time>
      </trkpt>
      <trkpt lat="48.89678" lon="2.21878">
        <ele>54</ele>
        <time>2016-03-14T20:48:36Z</time>
      </trkpt>
      <trkpt lat="48.89686" lon="2.21853">
        <ele>53.400001525879</ele>
        <time>2016-03-14T20:48:40Z</time>
      </trkpt>
      <trkpt lat="48.89696" lon="2.21828">
        <ele>52.79999923706</ele>
        <time>2016-03-14T20:48:44Z</time>
      </trkpt>
      <trkpt lat="48.89688" lon="2.21805">
        <ele>52.400001525879</ele>
        <time>2016-03-14T20:48:48Z</time>
      </trkpt>
      <trkpt lat="48.89684" lon="2.21799">
        <ele>52.20000076294</ele>
        <time>2016-03-14T20:48:49Z</time>
      </trkpt>
      <trkpt lat="48.89671" lon="2.21773">
        <ele>51.599998474121</ele>
        <time>2016-03-14T20:48:53Z</time>
      </trkpt>
      <trkpt lat="48.89661" lon="2.21751">
        <ele>51.20000076294</ele>
        <time>2016-03-14T20:48:56Z</time>
      </trkpt>
      <trkpt lat="48.89648" lon="2.2173">
        <ele>49.79999923706</ele>
        <time>2016-03-14T20:48:59Z</time>
      </trkpt>
      <trkpt lat="48.89632" lon="2.21706">
        <ele>47.79999923706</ele>
        <time>2016-03-14T20:49:02Z</time>
      </trkpt>
      <trkpt lat="48.89624" lon="2.2169">
        <ele>46.400001525879</ele>
        <time>2016-03-14T20:49:04Z</time>
      </trkpt>
      <trkpt lat="48.89609" lon="2.21667">
        <ele>44.400001525879</ele>
        <time>2016-03-14T20:49:07Z</time>
      </trkpt>
      <trkpt lat="48.8959" lon="2.21644">
        <ele>44.599998474121</ele>
        <time>2016-03-14T20:49:10Z</time>
      </trkpt>
      <trkpt lat="48.89586" lon="2.21622">
        <ele>44.79999923706</ele>
        <time>2016-03-14T20:49:13Z</time>
      </trkpt>
      <trkpt lat="48.89585" lon="2.21609">
        <ele>44.79999923706</ele>
        <time>2016-03-14T20:49:16Z</time>
      </trkpt>
      <trkpt lat="48.89595" lon="2.21594">
        <ele>44.400001525879</ele>
        <time>2016-03-14T20:49:39Z</time>
      </trkpt>
      <trkpt lat="48.89598" lon="2.21568">
        <ele>44.20000076294</ele>
        <time>2016-03-14T20:49:43Z</time>
      </trkpt>
      <trkpt lat="48.89584" lon="2.21547">
        <ele>44.79999923706</ele>
        <time>2016-03-14T20:49:47Z</time>
      </trkpt>
      <trkpt lat="48.8958" lon="2.21542">
        <ele>44.79999923706</ele>
        <time>2016-03-14T20:49:48Z</time>
      </trkpt>
      <trkpt lat="48.89571" lon="2.21532">
        <ele>45.20000076294</ele>
        <time>2016-03-14T20:49:50Z</time>
      </trkpt>
      <trkpt lat="48.89559" lon="2.2151">
        <ele>45.599998474121</ele>
        <time>2016-03-14T20:49:53Z</time>
      </trkpt>
      <trkpt lat="48.89556" lon="2.21502">
        <ele>45.79999923706</ele>
        <time>2016-03-14T20:49:54Z</time>
      </trkpt>
      <trkpt lat="48.89548" lon="2.21488">
        <ele>46.400001525879</ele>
        <time>2016-03-14T20:49:56Z</time>
      </trkpt>
      <trkpt lat="48.89532" lon="2.21462">
        <ele>47.599998474121</ele>
        <time>2016-03-14T20:50:00Z</time>
      </trkpt>
      <trkpt lat="48.89516" lon="2.21435">
        <ele>48.599998474121</ele>
        <time>2016-03-14T20:50:04Z</time>
      </trkpt>
      <trkpt lat="48.89505" lon="2.21413">
        <ele>49</ele>
        <time>2016-03-14T20:50:07Z</time>
      </trkpt>
      <trkpt lat="48.89494" lon="2.21391">
        <ele>48.79999923706</ele>
        <time>2016-03-14T20:50:10Z</time>
      </trkpt>
      <trkpt lat="48.89482" lon="2.21368">
        <ele>48.400001525879</ele>
        <time>2016-03-14T20:50:13Z</time>
      </trkpt>
      <trkpt lat="48.89469" lon="2.21347">
        <ele>47.79999923706</ele>
        <time>2016-03-14T20:50:16Z</time>
      </trkpt>
      <trkpt lat="48.89457" lon="2.21324">
        <ele>47</ele>
        <time>2016-03-14T20:50:19Z</time>
      </trkpt>
      <trkpt lat="48.89444" lon="2.21301">
        <ele>46.400001525879</ele>
        <time>2016-03-14T20:50:22Z</time>
      </trkpt>
      <trkpt lat="48.89431" lon="2.21279">
        <ele>45.79999923706</ele>
        <time>2016-03-14T20:50:25Z</time>
      </trkpt>
      <trkpt lat="48.89417" lon="2.21258">
        <ele>45.400001525879</ele>
        <time>2016-03-14T20:50:28Z</time>
      </trkpt>
      <trkpt lat="48.89405" lon="2.21234">
        <ele>45</ele>
        <time>2016-03-14T20:50:31Z</time>
      </trkpt>
      <trkpt lat="48.89393" lon="2.21211">
        <ele>45</ele>
        <time>2016-03-14T20:50:34Z</time>
      </trkpt>
      <trkpt lat="48.89378" lon="2.2119">
        <ele>45</ele>
        <time>2016-03-14T20:50:37Z</time>
      </trkpt>
      <trkpt lat="48.89363" lon="2.21166">
        <ele>45</ele>
        <time>2016-03-14T20:50:40Z</time>
      </trkpt>
      <trkpt lat="48.89351" lon="2.21144">
        <ele>45</ele>
        <time>2016-03-14T20:50:43Z</time>
      </trkpt>
      <trkpt lat="48.89335" lon="2.21118">
        <ele>45</ele>
        <time>2016-03-14T20:50:47Z</time>
      </trkpt>
      <trkpt lat="48.89322" lon="2.21098">
        <ele>45</ele>
        <time>2016-03-14T20:50:50Z</time>
      </trkpt>
      <trkpt lat="48.89308" lon="2.21079">
        <ele>45</ele>
        <time>2016-03-14T20:50:53Z</time>
      </trkpt>
      <trkpt lat="48.89294" lon="2.21057">
        <ele>45.599998474121</ele>
        <time>2016-03-14T20:50:56Z</time>
      </trkpt>
      <trkpt lat="48.89281" lon="2.21033">
        <ele>46</ele>
        <time>2016-03-14T20:50:59Z</time>
      </trkpt>
      <trkpt lat="48.89268" lon="2.21007">
        <ele>46.79999923706</ele>
        <time>2016-03-14T20:51:02Z</time>
      </trkpt>
      <trkpt lat="48.89254" lon="2.2098">
        <ele>47.599998474121</ele>
        <time>2016-03-14T20:51:05Z</time>
      </trkpt>
      <trkpt lat="48.8924" lon="2.20953">
        <ele>48.599998474121</ele>
        <time>2016-03-14T20:51:08Z</time>
      </trkpt>
      <trkpt lat="48.89226" lon="2.20925">
        <ele>49.79999923706</ele>
        <time>2016-03-14T20:51:11Z</time>
      </trkpt>
      <trkpt lat="48.89211" lon="2.20897">
        <ele>51</ele>
        <time>2016-03-14T20:51:14Z</time>
      </trkpt>
      <trkpt lat="48.89197" lon="2.20868">
        <ele>52.20000076294</ele>
        <time>2016-03-14T20:51:17Z</time>
      </trkpt>
      <trkpt lat="48.89182" lon="2.20839">
        <ele>53</ele>
        <time>2016-03-14T20:51:20Z</time>
      </trkpt>
      <trkpt lat="48.89168" lon="2.20812">
        <ele>52.400001525879</ele>
        <time>2016-03-14T20:51:23Z</time>
      </trkpt>
      <trkpt lat="48.89154" lon="2.20785">
        <ele>51.400001525879</ele>
        <time>2016-03-14T20:51:26Z</time>
      </trkpt>
      <trkpt lat="48.8914" lon="2.20759">
        <ele>50.400001525879</ele>
        <time>2016-03-14T20:51:29Z</time>
      </trkpt>
      <trkpt lat="48.89125" lon="2.20737">
        <ele>49.400001525879</ele>
        <time>2016-03-14T20:51:32Z</time>
      </trkpt>
      <trkpt lat="48.89109" lon="2.20717">
        <ele>48.400001525879</ele>
        <time>2016-03-14T20:51:35Z</time>
      </trkpt>
      <trkpt lat="48.89096" lon="2.20696">
        <ele>49.20000076294</ele>
        <time>2016-03-14T20:51:38Z</time>
      </trkpt>
      <trkpt lat="48.89082" lon="2.20675">
        <ele>50.400001525879</ele>
        <time>2016-03-14T20:51:41Z</time>
      </trkpt>
      <trkpt lat="48.89068" lon="2.20653">
        <ele>50.79999923706</ele>
        <time>2016-03-14T20:51:44Z</time>
      </trkpt>
      <trkpt lat="48.89054" lon="2.20629">
        <ele>49.79999923706</ele>
        <time>2016-03-14T20:51:47Z</time>
      </trkpt>
      <trkpt lat="48.89039" lon="2.20603">
        <ele>48.79999923706</ele>
        <time>2016-03-14T20:51:50Z</time>
      </trkpt>
      <trkpt lat="48.89024" lon="2.20577">
        <ele>47.79999923706</ele>
        <time>2016-03-14T20:51:53Z</time>
      </trkpt>
      <trkpt lat="48.89009" lon="2.2055">
        <ele>46.79999923706</ele>
        <time>2016-03-14T20:51:56Z</time>
      </trkpt>
      <trkpt lat="48.88995" lon="2.20522">
        <ele>45.599998474121</ele>
        <time>2016-03-14T20:51:59Z</time>
      </trkpt>
      <trkpt lat="48.88982" lon="2.20494">
        <ele>44.400001525879</ele>
        <time>2016-03-14T20:52:02Z</time>
      </trkpt>
      <trkpt lat="48.88966" lon="2.20467">
        <ele>44.400001525879</ele>
        <time>2016-03-14T20:52:05Z</time>
      </trkpt>
      <trkpt lat="48.88954" lon="2.20441">
        <ele>44.20000076294</ele>
        <time>2016-03-14T20:52:08Z</time>
      </trkpt>
      <trkpt lat="48.88941" lon="2.20419">
        <ele>44.20000076294</ele>
        <time>2016-03-14T20:52:12Z</time>
      </trkpt>
      <trkpt lat="48.88936" lon="2.20411">
        <ele>44.20000076294</ele>
        <time>2016-03-14T20:52:15Z</time>
      </trkpt>
      <trkpt lat="48.8893" lon="2.20398">
        <ele>43.79999923706</ele>
        <time>2016-03-14T20:52:19Z</time>
      </trkpt>
      <trkpt lat="48.88925" lon="2.20386">
        <ele>43.400001525879</ele>
        <time>2016-03-14T20:52:22Z</time>
      </trkpt>
      <trkpt lat="48.8891" lon="2.2036">
        <ele>42.79999923706</ele>
        <time>2016-03-14T20:52:27Z</time>
      </trkpt>
      <trkpt lat="48.88906" lon="2.20355">
        <ele>42.79999923706</ele>
        <time>2016-03-14T20:52:28Z</time>
      </trkpt>
      <trkpt lat="48.8889" lon="2.20332">
        <ele>42.400001525879</ele>
        <time>2016-03-14T20:52:32Z</time>
      </trkpt>
      <trkpt lat="48.88875" lon="2.2031">
        <ele>42.20000076294</ele>
        <time>2016-03-14T20:52:35Z</time>
      </trkpt>
      <trkpt lat="48.88859" lon="2.20283">
        <ele>41.79999923706</ele>
        <time>2016-03-14T20:52:38Z</time>
      </trkpt>
      <trkpt lat="48.88843" lon="2.20255">
        <ele>42.20000076294</ele>
        <time>2016-03-14T20:52:41Z</time>
      </trkpt>
      <trkpt lat="48.88829" lon="2.20226">
        <ele>43.599998474121</ele>
        <time>2016-03-14T20:52:44Z</time>
      </trkpt>
      <trkpt lat="48.88814" lon="2.20197">
        <ele>45.599998474121</ele>
        <time>2016-03-14T20:52:47Z</time>
      </trkpt>
      <trkpt lat="48.88798" lon="2.20167">
        <ele>47.20000076294</ele>
        <time>2016-03-14T20:52:50Z</time>
      </trkpt>
      <trkpt lat="48.88782" lon="2.2014">
        <ele>47.400001525879</ele>
        <time>2016-03-14T20:52:53Z</time>
      </trkpt>
      <trkpt lat="48.88767" lon="2.2012">
        <ele>47</ele>
        <time>2016-03-14T20:52:56Z</time>
      </trkpt>
      <trkpt lat="48.8875" lon="2.20098">
        <ele>45.400001525879</ele>
        <time>2016-03-14T20:53:00Z</time>
      </trkpt>
      <trkpt lat="48.88736" lon="2.20072">
        <ele>43.599998474121</ele>
        <time>2016-03-14T20:53:04Z</time>
      </trkpt>
      <trkpt lat="48.88736" lon="2.20039">
        <ele>42.20000076294</ele>
        <time>2016-03-14T20:53:08Z</time>
      </trkpt>
      <trkpt lat="48.88737" lon="2.20024">
        <ele>41.400001525879</ele>
        <time>2016-03-14T20:53:11Z</time>
      </trkpt>
      <trkpt lat="48.88735" lon="2.20004">
        <ele>40.400001525879</ele>
        <time>2016-03-14T20:53:17Z</time>
      </trkpt>
      <trkpt lat="48.88737" lon="2.20005">
        <ele>40.400001525879</ele>
        <time>2016-03-14T20:53:21Z</time>
      </trkpt>
      <trkpt lat="48.88725" lon="2.19994">
        <ele>40</ele>
        <time>2016-03-14T20:53:52Z</time>
      </trkpt>
      <trkpt lat="48.88721" lon="2.1999">
        <ele>39.79999923706</ele>
        <time>2016-03-14T20:53:53Z</time>
      </trkpt>
      <trkpt lat="48.88703" lon="2.19986">
        <ele>39.599998474121</ele>
        <time>2016-03-14T20:53:57Z</time>
      </trkpt>
      <trkpt lat="48.88699" lon="2.19987">
        <ele>39.79999923706</ele>
        <time>2016-03-14T20:53:58Z</time>
      </trkpt>
      <trkpt lat="48.88693" lon="2.1999">
        <ele>39.79999923706</ele>
        <time>2016-03-14T20:54:01Z</time>
      </trkpt>
      <trkpt lat="48.88688" lon="2.20014">
        <ele>41</ele>
        <time>2016-03-14T20:54:21Z</time>
      </trkpt>
      <trkpt lat="48.88689" lon="2.20043">
        <ele>42.400001525879</ele>
        <time>2016-03-14T20:54:29Z</time>
      </trkpt>
      <trkpt lat="48.88691" lon="2.2007">
        <ele>43.599998474121</ele>
        <time>2016-03-14T20:54:39Z</time>
      </trkpt>
      <trkpt lat="48.88697" lon="2.20097">
        <ele>45</ele>
        <time>2016-03-14T20:54:47Z</time>
      </trkpt>
      <trkpt lat="48.887" lon="2.20126">
        <ele>46.599998474121</ele>
        <time>2016-03-14T20:54:52Z</time>
      </trkpt>
      <trkpt lat="48.887" lon="2.20158">
        <ele>48</ele>
        <time>2016-03-14T20:54:57Z</time>
      </trkpt>
      <trkpt lat="48.887" lon="2.20188">
        <ele>48.20000076294</ele>
        <time>2016-03-14T20:55:02Z</time>
      </trkpt>
      <trkpt lat="48.88697" lon="2.20219">
        <ele>49.20000076294</ele>
        <time>2016-03-14T20:55:07Z</time>
      </trkpt>
      <trkpt lat="48.88693" lon="2.20249">
        <ele>50</ele>
        <time>2016-03-14T20:55:11Z</time>
      </trkpt>
      <trkpt lat="48.88691" lon="2.20258">
        <ele>50</ele>
        <time>2016-03-14T20:55:12Z</time>
      </trkpt>
      <trkpt lat="48.8869" lon="2.20285">
        <ele>50</ele>
        <time>2016-03-14T20:55:15Z</time>
      </trkpt>
      <trkpt lat="48.88689" lon="2.20301">
        <ele>50</ele>
        <time>2016-03-14T20:55:17Z</time>
      </trkpt>
      <trkpt lat="48.88687" lon="2.20326">
        <ele>50</ele>
        <time>2016-03-14T20:55:20Z</time>
      </trkpt>
      <trkpt lat="48.88685" lon="2.20357">
        <ele>50.599998474121</ele>
        <time>2016-03-14T20:55:24Z</time>
      </trkpt>
      <trkpt lat="48.8868" lon="2.20387">
        <ele>51</ele>
        <time>2016-03-14T20:55:28Z</time>
      </trkpt>
      <trkpt lat="48.88676" lon="2.20416">
        <ele>51.400001525879</ele>
        <time>2016-03-14T20:55:32Z</time>
      </trkpt>
      <trkpt lat="48.88674" lon="2.20438">
        <ele>52.400001525879</ele>
        <time>2016-03-14T20:55:35Z</time>
      </trkpt>
      <trkpt lat="48.88671" lon="2.20465">
        <ele>53.400001525879</ele>
        <time>2016-03-14T20:55:39Z</time>
      </trkpt>
      <trkpt lat="48.88665" lon="2.20497">
        <ele>53.400001525879</ele>
        <time>2016-03-14T20:55:44Z</time>
      </trkpt>
      <trkpt lat="48.88663" lon="2.20515">
        <ele>53.599998474121</ele>
        <time>2016-03-14T20:55:47Z</time>
      </trkpt>
      <trkpt lat="48.88663" lon="2.20527">
        <ele>53.79999923706</ele>
        <time>2016-03-14T20:55:52Z</time>
      </trkpt>
      <trkpt lat="48.88663" lon="2.20527">
        <ele>53.79999923706</ele>
        <time>2016-03-14T20:55:53Z</time>
      </trkpt>
      <trkpt lat="48.88667" lon="2.20545">
        <ele>54</ele>
        <time>2016-03-14T20:56:40Z</time>
      </trkpt>
      <trkpt lat="48.88668" lon="2.20565">
        <ele>54.400001525879</ele>
        <time>2016-03-14T20:56:43Z</time>
      </trkpt>
      <trkpt lat="48.88664" lon="2.20594">
        <ele>54.599998474121</ele>
        <time>2016-03-14T20:56:48Z</time>
      </trkpt>
      <trkpt lat="48.88658" lon="2.20623">
        <ele>54.599998474121</ele>
        <time>2016-03-14T20:56:54Z</time>
      </trkpt>
      <trkpt lat="48.88655" lon="2.20654">
        <ele>55.20000076294</ele>
        <time>2016-03-14T20:56:59Z</time>
      </trkpt>
      <trkpt lat="48.88652" lon="2.20688">
        <ele>56.79999923706</ele>
        <time>2016-03-14T20:57:04Z</time>
      </trkpt>
      <trkpt lat="48.88648" lon="2.2072">
        <ele>57.599998474121</ele>
        <time>2016-03-14T20:57:09Z</time>
      </trkpt>
      <trkpt lat="48.88644" lon="2.20748">
        <ele>57.79999923706</ele>
        <time>2016-03-14T20:57:14Z</time>
      </trkpt>
      <trkpt lat="48.88642" lon="2.2078">
        <ele>57.79999923706</ele>
        <time>2016-03-14T20:57:19Z</time>
      </trkpt>
      <trkpt lat="48.8864" lon="2.20808">
        <ele>58.79999923706</ele>
        <time>2016-03-14T20:57:24Z</time>
      </trkpt>
      <trkpt lat="48.88637" lon="2.20836">
        <ele>59.599998474121</ele>
        <time>2016-03-14T20:57:29Z</time>
      </trkpt>
      <trkpt lat="48.88634" lon="2.20864">
        <ele>59.79999923706</ele>
        <time>2016-03-14T20:57:34Z</time>
      </trkpt>
      <trkpt lat="48.88632" lon="2.20893">
        <ele>60.20000076294</ele>
        <time>2016-03-14T20:57:39Z</time>
      </trkpt>
      <trkpt lat="48.88631" lon="2.2092">
        <ele>60.599998474121</ele>
        <time>2016-03-14T20:57:43Z</time>
      </trkpt>
      <trkpt lat="48.8863" lon="2.20953">
        <ele>61.20000076294</ele>
        <time>2016-03-14T20:57:49Z</time>
      </trkpt>
      <trkpt lat="48.88628" lon="2.20983">
        <ele>61.599998474121</ele>
        <time>2016-03-14T20:57:54Z</time>
      </trkpt>
      <trkpt lat="48.88627" lon="2.21014">
        <ele>62.20000076294</ele>
        <time>2016-03-14T20:57:59Z</time>
      </trkpt>
      <trkpt lat="48.88621" lon="2.21044">
        <ele>63.400001525879</ele>
        <time>2016-03-14T20:58:05Z</time>
      </trkpt>
      <trkpt lat="48.88619" lon="2.21074">
        <ele>64.599998474121</ele>
        <time>2016-03-14T20:58:10Z</time>
      </trkpt>
      <trkpt lat="48.88618" lon="2.21101">
        <ele>65.199996948242</ele>
        <time>2016-03-14T20:58:14Z</time>
      </trkpt>
      <trkpt lat="48.88615" lon="2.21134">
        <ele>66</ele>
        <time>2016-03-14T20:58:19Z</time>
      </trkpt>
      <trkpt lat="48.88614" lon="2.21161">
        <ele>66.800003051758</ele>
        <time>2016-03-14T20:58:23Z</time>
      </trkpt>
      <trkpt lat="48.88612" lon="2.21193">
        <ele>66.800003051758</ele>
        <time>2016-03-14T20:58:28Z</time>
      </trkpt>
      <trkpt lat="48.88608" lon="2.21224">
        <ele>67</ele>
        <time>2016-03-14T20:58:33Z</time>
      </trkpt>
      <trkpt lat="48.88607" lon="2.2124">
        <ele>67</ele>
        <time>2016-03-14T20:58:36Z</time>
      </trkpt>
      <trkpt lat="48.88606" lon="2.2125">
        <ele>67</ele>
        <time>2016-03-14T20:58:38Z</time>
      </trkpt>
      <trkpt lat="48.88604" lon="2.21267">
        <ele>67.400001525879</ele>
        <time>2016-03-14T20:58:41Z</time>
      </trkpt>
      <trkpt lat="48.88604" lon="2.21295">
        <ele>67.599998474121</ele>
        <time>2016-03-14T20:58:45Z</time>
      </trkpt>
      <trkpt lat="48.88599" lon="2.21328">
        <ele>68.400001525879</ele>
        <time>2016-03-14T20:58:50Z</time>
      </trkpt>
      <trkpt lat="48.88598" lon="2.21358">
        <ele>68.400001525879</ele>
        <time>2016-03-14T20:58:54Z</time>
      </trkpt>
      <trkpt lat="48.88599" lon="2.21371">
        <ele>68.400001525879</ele>
        <time>2016-03-14T20:58:56Z</time>
      </trkpt>
      <trkpt lat="48.88596" lon="2.21395">
        <ele>68.599998474121</ele>
        <time>2016-03-14T20:59:00Z</time>
      </trkpt>
      <trkpt lat="48.88596" lon="2.21427">
        <ele>68.599998474121</ele>
        <time>2016-03-14T20:59:05Z</time>
      </trkpt>
      <trkpt lat="48.88594" lon="2.21457">
        <ele>68.400001525879</ele>
        <time>2016-03-14T20:59:10Z</time>
      </trkpt>
      <trkpt lat="48.88591" lon="2.21485">
        <ele>68</ele>
        <time>2016-03-14T20:59:15Z</time>
      </trkpt>
      <trkpt lat="48.88588" lon="2.21516">
        <ele>68.199996948242</ele>
        <time>2016-03-14T20:59:20Z</time>
      </trkpt>
      <trkpt lat="48.88584" lon="2.21547">
        <ele>69</ele>
        <time>2016-03-14T20:59:25Z</time>
      </trkpt>
      <trkpt lat="48.88581" lon="2.21575">
        <ele>69</ele>
        <time>2016-03-14T20:59:29Z</time>
      </trkpt>
      <trkpt lat="48.88578" lon="2.21608">
        <ele>68.599998474121</ele>
        <time>2016-03-14T20:59:34Z</time>
      </trkpt>
      <trkpt lat="48.88577" lon="2.21636">
        <ele>68.599998474121</ele>
        <time>2016-03-14T20:59:38Z</time>
      </trkpt>
      <trkpt lat="48.88575" lon="2.21666">
        <ele>69.800003051758</ele>
        <time>2016-03-14T20:59:42Z</time>
      </trkpt>
      <trkpt lat="48.88573" lon="2.21693">
        <ele>70</ele>
        <time>2016-03-14T20:59:46Z</time>
      </trkpt>
      <trkpt lat="48.88572" lon="2.21706">
        <ele>70</ele>
        <time>2016-03-14T20:59:48Z</time>
      </trkpt>
      <trkpt lat="48.88571" lon="2.2172">
        <ele>70.199996948242</ele>
        <time>2016-03-14T20:59:50Z</time>
      </trkpt>
      <trkpt lat="48.88568" lon="2.21748">
        <ele>70.400001525879</ele>
        <time>2016-03-14T20:59:54Z</time>
      </trkpt>
      <trkpt lat="48.88565" lon="2.21767">
        <ele>71</ele>
        <time>2016-03-14T20:59:57Z</time>
      </trkpt>
      <trkpt lat="48.88562" lon="2.218">
        <ele>71.800003051758</ele>
        <time>2016-03-14T21:00:02Z</time>
      </trkpt>
      <trkpt lat="48.88559" lon="2.21825">
        <ele>72.199996948242</ele>
        <time>2016-03-14T21:00:06Z</time>
      </trkpt>
      <trkpt lat="48.88557" lon="2.2186">
        <ele>73.400001525879</ele>
        <time>2016-03-14T21:00:11Z</time>
      </trkpt>
      <trkpt lat="48.88558" lon="2.21872">
        <ele>73.599998474121</ele>
        <time>2016-03-14T21:00:12Z</time>
      </trkpt>
      <trkpt lat="48.88557" lon="2.219">
        <ele>74</ele>
        <time>2016-03-14T21:00:16Z</time>
      </trkpt>
      <trkpt lat="48.88555" lon="2.21912">
        <ele>74.199996948242</ele>
        <time>2016-03-14T21:00:18Z</time>
      </trkpt>
      <trkpt lat="48.88551" lon="2.2194">
        <ele>75</ele>
        <time>2016-03-14T21:00:23Z</time>
      </trkpt>
      <trkpt lat="48.88551" lon="2.21947">
        <ele>75</ele>
        <time>2016-03-14T21:00:24Z</time>
      </trkpt>
      <trkpt lat="48.88551" lon="2.21959">
        <ele>74.800003051758</ele>
        <time>2016-03-14T21:00:26Z</time>
      </trkpt>
      <trkpt lat="48.88551" lon="2.21974">
        <ele>74.599998474121</ele>
        <time>2016-03-14T21:00:28Z</time>
      </trkpt>
      <trkpt lat="48.88548" lon="2.22006">
        <ele>74.199996948242</ele>
        <time>2016-03-14T21:00:33Z</time>
      </trkpt>
      <trkpt lat="48.88546" lon="2.22012">
        <ele>74.199996948242</ele>
        <time>2016-03-14T21:00:34Z</time>
      </trkpt>
      <trkpt lat="48.88546" lon="2.22026">
        <ele>74.199996948242</ele>
        <time>2016-03-14T21:00:36Z</time>
      </trkpt>
      <trkpt lat="48.88542" lon="2.22058">
        <ele>73.599998474121</ele>
        <time>2016-03-14T21:00:41Z</time>
      </trkpt>
      <trkpt lat="48.88539" lon="2.22081">
        <ele>73.400001525879</ele>
        <time>2016-03-14T21:00:45Z</time>
      </trkpt>
      <trkpt lat="48.88537" lon="2.22107">
        <ele>73.599998474121</ele>
        <time>2016-03-14T21:00:49Z</time>
      </trkpt>
      <trkpt lat="48.88535" lon="2.22126">
        <ele>73.599998474121</ele>
        <time>2016-03-14T21:00:52Z</time>
      </trkpt>
      <trkpt lat="48.88533" lon="2.22147">
        <ele>73.400001525879</ele>
        <time>2016-03-14T21:00:55Z</time>
      </trkpt>
      <trkpt lat="48.88528" lon="2.22173">
        <ele>73.199996948242</ele>
        <time>2016-03-14T21:01:00Z</time>
      </trkpt>
      <trkpt lat="48.88527" lon="2.22179">
        <ele>73.199996948242</ele>
        <time>2016-03-14T21:01:01Z</time>
      </trkpt>
      <trkpt lat="48.88525" lon="2.22198">
        <ele>73.400001525879</ele>
        <time>2016-03-14T21:01:04Z</time>
      </trkpt>
      <trkpt lat="48.88525" lon="2.2221">
        <ele>73.599998474121</ele>
        <time>2016-03-14T21:01:06Z</time>
      </trkpt>
      <trkpt lat="48.88522" lon="2.22237">
        <ele>74</ele>
        <time>2016-03-14T21:01:10Z</time>
      </trkpt>
      <trkpt lat="48.88521" lon="2.22257">
        <ele>74.199996948242</ele>
        <time>2016-03-14T21:01:13Z</time>
      </trkpt>
      <trkpt lat="48.88517" lon="2.22287">
        <ele>74.800003051758</ele>
        <time>2016-03-14T21:01:18Z</time>
      </trkpt>
      <trkpt lat="48.88517" lon="2.22322">
        <ele>75.199996948242</ele>
        <time>2016-03-14T21:01:23Z</time>
      </trkpt>
      <trkpt lat="48.88519" lon="2.2234">
        <ele>75.199996948242</ele>
        <time>2016-03-14T21:01:26Z</time>
      </trkpt>
      <trkpt lat="48.88517" lon="2.22369">
        <ele>75.599998474121</ele>
        <time>2016-03-14T21:01:31Z</time>
      </trkpt>
      <trkpt lat="48.88524" lon="2.22399">
        <ele>75.800003051758</ele>
        <time>2016-03-14T21:01:35Z</time>
      </trkpt>
      <trkpt lat="48.88527" lon="2.22413">
        <ele>76</ele>
        <time>2016-03-14T21:01:37Z</time>
      </trkpt>
      <trkpt lat="48.88527" lon="2.22418">
        <ele>76</ele>
        <time>2016-03-14T21:01:38Z</time>
      </trkpt>
      <trkpt lat="48.88521" lon="2.22444">
        <ele>75.199996948242</ele>
        <time>2016-03-14T21:01:43Z</time>
      </trkpt>
      <trkpt lat="48.8852" lon="2.22456">
        <ele>75</ele>
        <time>2016-03-14T21:01:45Z</time>
      </trkpt>
      <trkpt lat="48.88516" lon="2.22482">
        <ele>74.400001525879</ele>
        <time>2016-03-14T21:01:50Z</time>
      </trkpt>
      <trkpt lat="48.88511" lon="2.22514">
        <ele>74</ele>
        <time>2016-03-14T21:01:55Z</time>
      </trkpt>
      <trkpt lat="48.88508" lon="2.22544">
        <ele>74</ele>
        <time>2016-03-14T21:01:59Z</time>
      </trkpt>
      <trkpt lat="48.88508" lon="2.22563">
        <ele>74</ele>
        <time>2016-03-14T21:02:01Z</time>
      </trkpt>
      <trkpt lat="48.88509" lon="2.22592">
        <ele>74.400001525879</ele>
        <time>2016-03-14T21:02:05Z</time>
      </trkpt>
      <trkpt lat="48.88508" lon="2.22624">
        <ele>74.800003051758</ele>
        <time>2016-03-14T21:02:10Z</time>
      </trkpt>
      <trkpt lat="48.88508" lon="2.22657">
        <ele>75.199996948242</ele>
        <time>2016-03-14T21:02:15Z</time>
      </trkpt>
      <trkpt lat="48.88506" lon="2.22678">
        <ele>74.400001525879</ele>
        <time>2016-03-14T21:02:18Z</time>
      </trkpt>
      <trkpt lat="48.88507" lon="2.2271">
        <ele>73</ele>
        <time>2016-03-14T21:02:23Z</time>
      </trkpt>
      <trkpt lat="48.88511" lon="2.22737">
        <ele>71.800003051758</ele>
        <time>2016-03-14T21:02:28Z</time>
      </trkpt>
      <trkpt lat="48.88519" lon="2.22765">
        <ele>71.199996948242</ele>
        <time>2016-03-14T21:02:33Z</time>
      </trkpt>
      <trkpt lat="48.88526" lon="2.22782">
        <ele>71</ele>
        <time>2016-03-14T21:02:38Z</time>
      </trkpt>
      <trkpt lat="48.88535" lon="2.228">
        <ele>71.199996948242</ele>
        <time>2016-03-14T21:03:07Z</time>
      </trkpt>
      <trkpt lat="48.88539" lon="2.2281">
        <ele>71.199996948242</ele>
        <time>2016-03-14T21:03:10Z</time>
      </trkpt>
      <trkpt lat="48.88543" lon="2.2282">
        <ele>71.199996948242</ele>
        <time>2016-03-14T21:03:13Z</time>
      </trkpt>
      <trkpt lat="48.88555" lon="2.22843">
        <ele>71.599998474121</ele>
        <time>2016-03-14T21:03:19Z</time>
      </trkpt>
      <trkpt lat="48.88561" lon="2.22859">
        <ele>71.800003051758</ele>
        <time>2016-03-14T21:03:22Z</time>
      </trkpt>
      <trkpt lat="48.8857" lon="2.22886">
        <ele>72.199996948242</ele>
        <time>2016-03-14T21:03:27Z</time>
      </trkpt>
      <trkpt lat="48.88581" lon="2.22911">
        <ele>72.599998474121</ele>
        <time>2016-03-14T21:03:31Z</time>
      </trkpt>
      <trkpt lat="48.88583" lon="2.22917">
        <ele>73</ele>
        <time>2016-03-14T21:03:32Z</time>
      </trkpt>
      <trkpt lat="48.88595" lon="2.22947">
        <ele>74.199996948242</ele>
        <time>2016-03-14T21:03:37Z</time>
      </trkpt>
      <trkpt lat="48.88607" lon="2.22974">
        <ele>75.199996948242</ele>
        <time>2016-03-14T21:03:41Z</time>
      </trkpt>
      <trkpt lat="48.88619" lon="2.23">
        <ele>76.199996948242</ele>
        <time>2016-03-14T21:03:44Z</time>
      </trkpt>
      <trkpt lat="48.88631" lon="2.23028">
        <ele>75.400001525879</ele>
        <time>2016-03-14T21:03:47Z</time>
      </trkpt>
      <trkpt lat="48.88644" lon="2.23057">
        <ele>75.199996948242</ele>
        <time>2016-03-14T21:03:50Z</time>
      </trkpt>
      <trkpt lat="48.88657" lon="2.23088">
        <ele>74.800003051758</ele>
        <time>2016-03-14T21:03:53Z</time>
      </trkpt>
      <trkpt lat="48.88668" lon="2.23116">
        <ele>74.599998474121</ele>
        <time>2016-03-14T21:03:56Z</time>
      </trkpt>
      <trkpt lat="48.88678" lon="2.23142">
        <ele>74.199996948242</ele>
        <time>2016-03-14T21:03:59Z</time>
      </trkpt>
      <trkpt lat="48.88689" lon="2.23167">
        <ele>74</ele>
        <time>2016-03-14T21:04:02Z</time>
      </trkpt>
      <trkpt lat="48.88703" lon="2.23196">
        <ele>72.800003051758</ele>
        <time>2016-03-14T21:04:06Z</time>
      </trkpt>
      <trkpt lat="48.88714" lon="2.23218">
        <ele>72</ele>
        <time>2016-03-14T21:04:10Z</time>
      </trkpt>
      <trkpt lat="48.88716" lon="2.23225">
        <ele>71.800003051758</ele>
        <time>2016-03-14T21:04:11Z</time>
      </trkpt>
      <trkpt lat="48.88727" lon="2.23254">
        <ele>71.199996948242</ele>
        <time>2016-03-14T21:04:15Z</time>
      </trkpt>
      <trkpt lat="48.88737" lon="2.23281">
        <ele>71.199996948242</ele>
        <time>2016-03-14T21:04:19Z</time>
      </trkpt>
      <trkpt lat="48.88739" lon="2.23287">
        <ele>71.400001525879</ele>
        <time>2016-03-14T21:04:20Z</time>
      </trkpt>
      <trkpt lat="48.88748" lon="2.23315">
        <ele>71.199996948242</ele>
        <time>2016-03-14T21:04:24Z</time>
      </trkpt>
      <trkpt lat="48.88758" lon="2.23342">
        <ele>71</ele>
        <time>2016-03-14T21:04:28Z</time>
      </trkpt>
      <trkpt lat="48.88769" lon="2.23372">
        <ele>71</ele>
        <time>2016-03-14T21:04:32Z</time>
      </trkpt>
      <trkpt lat="48.88778" lon="2.23396">
        <ele>71.199996948242</ele>
        <time>2016-03-14T21:04:36Z</time>
      </trkpt>
      <trkpt lat="48.88791" lon="2.23424">
        <ele>72.199996948242</ele>
        <time>2016-03-14T21:04:41Z</time>
      </trkpt>
      <trkpt lat="48.88794" lon="2.23429">
        <ele>72.400001525879</ele>
        <time>2016-03-14T21:04:42Z</time>
      </trkpt>
      <trkpt lat="48.88802" lon="2.23452">
        <ele>72.800003051758</ele>
        <time>2016-03-14T21:04:46Z</time>
      </trkpt>
      <trkpt lat="48.88806" lon="2.2348">
        <ele>72.400001525879</ele>
        <time>2016-03-14T21:04:51Z</time>
      </trkpt>
      <trkpt lat="48.88809" lon="2.23499">
        <ele>72.199996948242</ele>
        <time>2016-03-14T21:04:54Z</time>
      </trkpt>
      <trkpt lat="48.88813" lon="2.23511">
        <ele>71.800003051758</ele>
        <time>2016-03-14T21:04:56Z</time>
      </trkpt>
      <trkpt lat="48.88824" lon="2.23536">
        <ele>71</ele>
        <time>2016-03-14T21:05:00Z</time>
      </trkpt>
      <trkpt lat="48.88834" lon="2.2356">
        <ele>70.400001525879</ele>
        <time>2016-03-14T21:05:04Z</time>
      </trkpt>
      <trkpt lat="48.88844" lon="2.23585">
        <ele>70.400001525879</ele>
        <time>2016-03-14T21:05:08Z</time>
      </trkpt>
      <trkpt lat="48.88852" lon="2.23611">
        <ele>69</ele>
        <time>2016-03-14T21:05:13Z</time>
      </trkpt>
      <trkpt lat="48.88853" lon="2.23614">
        <ele>68.800003051758</ele>
        <time>2016-03-14T21:05:14Z</time>
      </trkpt>
      <trkpt lat="48.88855" lon="2.23622">
        <ele>68.400001525879</ele>
        <time>2016-03-14T21:05:16Z</time>
      </trkpt>
      <trkpt lat="48.88866" lon="2.23649">
        <ele>67.800003051758</ele>
        <time>2016-03-14T21:05:22Z</time>
      </trkpt>
      <trkpt lat="48.8887" lon="2.2366">
        <ele>67.599998474121</ele>
        <time>2016-03-14T21:05:25Z</time>
      </trkpt>
      <trkpt lat="48.88882" lon="2.23684">
        <ele>67.400001525879</ele>
        <time>2016-03-14T21:05:32Z</time>
      </trkpt>
      <trkpt lat="48.8889" lon="2.23704">
        <ele>67.599998474121</ele>
        <time>2016-03-14T21:05:42Z</time>
      </trkpt>
      <trkpt lat="48.88877" lon="2.23725">
        <ele>67</ele>
        <time>2016-03-14T21:06:03Z</time>
      </trkpt>
      <trkpt lat="48.88891" lon="2.23746">
        <ele>67.599998474121</ele>
        <time>2016-03-14T21:06:13Z</time>
      </trkpt>
      <trkpt lat="48.88906" lon="2.23767">
        <ele>67.400001525879</ele>
        <time>2016-03-14T21:06:18Z</time>
      </trkpt>
      <trkpt lat="48.88918" lon="2.23795">
        <ele>66.599998474121</ele>
        <time>2016-03-14T21:06:22Z</time>
      </trkpt>
      <trkpt lat="48.88929" lon="2.23819">
        <ele>66</ele>
        <time>2016-03-14T21:06:26Z</time>
      </trkpt>
      <trkpt lat="48.88942" lon="2.23839">
        <ele>66.599998474121</ele>
        <time>2016-03-14T21:06:32Z</time>
      </trkpt>
      <trkpt lat="48.88945" lon="2.23856">
        <ele>67.400001525879</ele>
        <time>2016-03-14T21:06:38Z</time>
      </trkpt>
      <trkpt lat="48.88955" lon="2.23872">
        <ele>68.599998474121</ele>
        <time>2016-03-14T21:06:50Z</time>
      </trkpt>
      <trkpt lat="48.8895" lon="2.23877">
        <ele>68.400001525879</ele>
        <time>2016-03-14T21:06:55Z</time>
      </trkpt>
      <trkpt lat="48.88931" lon="2.23884">
        <ele>68</ele>
        <time>2016-03-14T21:07:02Z</time>
      </trkpt>
      <trkpt lat="48.8894" lon="2.24227">
        <ele>63.400001525879</ele>
        <time>2016-03-14T21:07:44Z</time>
      </trkpt>
      <trkpt lat="48.88931" lon="2.24249">
        <ele>62.400001525879</ele>
        <time>2016-03-14T21:07:45Z</time>
      </trkpt>
      <trkpt lat="48.88948" lon="2.24267">
        <ele>60.599998474121</ele>
        <time>2016-03-14T21:07:52Z</time>
      </trkpt>
      <trkpt lat="48.88921" lon="2.25104">
        <ele>43.79999923706</ele>
        <time>2016-03-14T21:10:31Z</time>
      </trkpt>
      <trkpt lat="48.88926" lon="2.25106">
        <ele>43.599998474121</ele>
        <time>2016-03-14T21:10:36Z</time>
      </trkpt>
      <trkpt lat="48.88911" lon="2.25071">
        <ele>44.79999923706</ele>
        <time>2016-03-14T21:10:40Z</time>
      </trkpt>
      <trkpt lat="48.88902" lon="2.25045">
        <ele>45.599998474121</ele>
        <time>2016-03-14T21:10:42Z</time>
      </trkpt>
      <trkpt lat="48.88898" lon="2.25039">
        <ele>46</ele>
        <time>2016-03-14T21:10:43Z</time>
      </trkpt>
      <trkpt lat="48.88883" lon="2.25009">
        <ele>48.400001525879</ele>
        <time>2016-03-14T21:10:47Z</time>
      </trkpt>
      <trkpt lat="48.88872" lon="2.24997">
        <ele>49.20000076294</ele>
        <time>2016-03-14T21:10:50Z</time>
      </trkpt>
      <trkpt lat="48.88866" lon="2.25011">
        <ele>48.20000076294</ele>
        <time>2016-03-14T21:10:55Z</time>
      </trkpt>
      <trkpt lat="48.88851" lon="2.25032">
        <ele>47.79999923706</ele>
        <time>2016-03-14T21:11:02Z</time>
      </trkpt>
      <trkpt lat="48.88845" lon="2.25037">
        <ele>46.79999923706</ele>
        <time>2016-03-14T21:11:04Z</time>
      </trkpt>
      <trkpt lat="48.88839" lon="2.25044">
        <ele>45.79999923706</ele>
        <time>2016-03-14T21:11:07Z</time>
      </trkpt>
      <trkpt lat="48.88831" lon="2.25052">
        <ele>44.599998474121</ele>
        <time>2016-03-14T21:11:11Z</time>
      </trkpt>
      <trkpt lat="48.8883" lon="2.2507">
        <ele>45</ele>
        <time>2016-03-14T21:11:15Z</time>
      </trkpt>
      <trkpt lat="48.8883" lon="2.25085">
        <ele>45.400001525879</ele>
        <time>2016-03-14T21:11:21Z</time>
      </trkpt>
      <trkpt lat="48.88838" lon="2.25104">
        <ele>46.20000076294</ele>
        <time>2016-03-14T21:11:27Z</time>
      </trkpt>
      <trkpt lat="48.88832" lon="2.25136">
        <ele>45.599998474121</ele>
        <time>2016-03-14T21:11:33Z</time>
      </trkpt>
      <trkpt lat="48.88825" lon="2.25165">
        <ele>44.400001525879</ele>
        <time>2016-03-14T21:11:38Z</time>
      </trkpt>
      <trkpt lat="48.88814" lon="2.25187">
        <ele>41.599998474121</ele>
        <time>2016-03-14T21:11:40Z</time>
      </trkpt>
      <trkpt lat="48.88802" lon="2.2521">
        <ele>39.79999923706</ele>
        <time>2016-03-14T21:11:43Z</time>
      </trkpt>
      <trkpt lat="48.88793" lon="2.25238">
        <ele>39</ele>
        <time>2016-03-14T21:11:48Z</time>
      </trkpt>
      <trkpt lat="48.88784" lon="2.25266">
        <ele>38.599998474121</ele>
        <time>2016-03-14T21:11:53Z</time>
      </trkpt>
      <trkpt lat="48.88782" lon="2.25271">
        <ele>38.20000076294</ele>
        <time>2016-03-14T21:11:54Z</time>
      </trkpt>
      <trkpt lat="48.88777" lon="2.25295">
        <ele>36.20000076294</ele>
        <time>2016-03-14T21:11:58Z</time>
      </trkpt>
      <trkpt lat="48.88777" lon="2.25304">
        <ele>35.79999923706</ele>
        <time>2016-03-14T21:12:00Z</time>
      </trkpt>
      <trkpt lat="48.88762" lon="2.2532">
        <ele>33.79999923706</ele>
        <time>2016-03-14T21:12:07Z</time>
      </trkpt>
      <trkpt lat="48.88755" lon="2.25316">
        <ele>33.79999923706</ele>
        <time>2016-03-14T21:12:10Z</time>
      </trkpt>
      <trkpt lat="48.88741" lon="2.25304">
        <ele>33.599998474121</ele>
        <time>2016-03-14T21:12:17Z</time>
      </trkpt>
      <trkpt lat="48.8874" lon="2.25303">
        <ele>33.599998474121</ele>
        <time>2016-03-14T21:13:02Z</time>
      </trkpt>
      <trkpt lat="48.88731" lon="2.25329">
        <ele>33.400001525879</ele>
        <time>2016-03-14T21:13:12Z</time>
      </trkpt>
      <trkpt lat="48.88723" lon="2.25357">
        <ele>33</ele>
        <time>2016-03-14T21:13:19Z</time>
      </trkpt>
      <trkpt lat="48.88715" lon="2.25384">
        <ele>33</ele>
        <time>2016-03-14T21:13:25Z</time>
      </trkpt>
      <trkpt lat="48.88706" lon="2.25411">
        <ele>33</ele>
        <time>2016-03-14T21:13:31Z</time>
      </trkpt>
      <trkpt lat="48.88695" lon="2.25439">
        <ele>31</ele>
        <time>2016-03-14T21:13:37Z</time>
      </trkpt>
      <trkpt lat="48.88687" lon="2.25465">
        <ele>28</ele>
        <time>2016-03-14T21:13:43Z</time>
      </trkpt>
      <trkpt lat="48.88678" lon="2.2549">
        <ele>26</ele>
        <time>2016-03-14T21:13:48Z</time>
      </trkpt>
      <trkpt lat="48.88669" lon="2.25515">
        <ele>27.39999961853</ele>
        <time>2016-03-14T21:13:54Z</time>
      </trkpt>
      <trkpt lat="48.88661" lon="2.2554">
        <ele>29.39999961853</ele>
        <time>2016-03-14T21:14:00Z</time>
      </trkpt>
      <trkpt lat="48.88653" lon="2.25565">
        <ele>31.60000038147</ele>
        <time>2016-03-14T21:14:06Z</time>
      </trkpt>
      <trkpt lat="48.88646" lon="2.25592">
        <ele>34</ele>
        <time>2016-03-14T21:14:12Z</time>
      </trkpt>
      <trkpt lat="48.88637" lon="2.25617">
        <ele>36.400001525879</ele>
        <time>2016-03-14T21:14:20Z</time>
      </trkpt>
      <trkpt lat="48.88635" lon="2.25649">
        <ele>38.400001525879</ele>
        <time>2016-03-14T21:14:27Z</time>
      </trkpt>
      <trkpt lat="48.88627" lon="2.25673">
        <ele>40</ele>
        <time>2016-03-14T21:14:32Z</time>
      </trkpt>
      <trkpt lat="48.88618" lon="2.25698">
        <ele>40.599998474121</ele>
        <time>2016-03-14T21:14:37Z</time>
      </trkpt>
      <trkpt lat="48.88608" lon="2.25726">
        <ele>41</ele>
        <time>2016-03-14T21:14:42Z</time>
      </trkpt>
      <trkpt lat="48.88597" lon="2.25749">
        <ele>41.20000076294</ele>
        <time>2016-03-14T21:14:47Z</time>
      </trkpt>
      <trkpt lat="48.88582" lon="2.25771">
        <ele>41</ele>
        <time>2016-03-14T21:14:53Z</time>
      </trkpt>
      <trkpt lat="48.88567" lon="2.2579">
        <ele>40.79999923706</ele>
        <time>2016-03-14T21:14:59Z</time>
      </trkpt>
      <trkpt lat="48.88558" lon="2.25803">
        <ele>39.599998474121</ele>
        <time>2016-03-14T21:15:05Z</time>
      </trkpt>
      <trkpt lat="48.8855" lon="2.25809">
        <ele>39</ele>
        <time>2016-03-14T21:15:09Z</time>
      </trkpt>
      <trkpt lat="48.88543" lon="2.2581">
        <ele>38.79999923706</ele>
        <time>2016-03-14T21:15:15Z</time>
      </trkpt>
      <trkpt lat="48.88538" lon="2.25817">
        <ele>38.20000076294</ele>
        <time>2016-03-14T21:15:23Z</time>
      </trkpt>
      <trkpt lat="48.88538" lon="2.25823">
        <ele>37.79999923706</ele>
        <time>2016-03-14T21:15:24Z</time>
      </trkpt>
      <trkpt lat="48.88532" lon="2.25852">
        <ele>37.400001525879</ele>
        <time>2016-03-14T21:15:29Z</time>
      </trkpt>
      <trkpt lat="48.88523" lon="2.25876">
        <ele>37.599998474121</ele>
        <time>2016-03-14T21:15:32Z</time>
      </trkpt>
      <trkpt lat="48.88511" lon="2.25906">
        <ele>38.400001525879</ele>
        <time>2016-03-14T21:15:36Z</time>
      </trkpt>
      <trkpt lat="48.88501" lon="2.25933">
        <ele>40.400001525879</ele>
        <time>2016-03-14T21:15:40Z</time>
      </trkpt>
      <trkpt lat="48.88492" lon="2.25961">
        <ele>43</ele>
        <time>2016-03-14T21:15:44Z</time>
      </trkpt>
      <trkpt lat="48.88481" lon="2.2599">
        <ele>44.20000076294</ele>
        <time>2016-03-14T21:15:48Z</time>
      </trkpt>
      <trkpt lat="48.88474" lon="2.26019">
        <ele>44.400001525879</ele>
        <time>2016-03-14T21:15:52Z</time>
      </trkpt>
      <trkpt lat="48.88463" lon="2.26046">
        <ele>43.79999923706</ele>
        <time>2016-03-14T21:15:56Z</time>
      </trkpt>
      <trkpt lat="48.88448" lon="2.26069">
        <ele>43.20000076294</ele>
        <time>2016-03-14T21:16:00Z</time>
      </trkpt>
      <trkpt lat="48.88441" lon="2.26089">
        <ele>42.79999923706</ele>
        <time>2016-03-14T21:16:03Z</time>
      </trkpt>
      <trkpt lat="48.88432" lon="2.26116">
        <ele>42.400001525879</ele>
        <time>2016-03-14T21:16:07Z</time>
      </trkpt>
      <trkpt lat="48.88418" lon="2.26144">
        <ele>42</ele>
        <time>2016-03-14T21:16:11Z</time>
      </trkpt>
      <trkpt lat="48.88416" lon="2.26153">
        <ele>42</ele>
        <time>2016-03-14T21:16:12Z</time>
      </trkpt>
      <trkpt lat="48.88407" lon="2.26186">
        <ele>42.79999923706</ele>
        <time>2016-03-14T21:16:16Z</time>
      </trkpt>
      <trkpt lat="48.88398" lon="2.26211">
        <ele>43.400001525879</ele>
        <time>2016-03-14T21:16:19Z</time>
      </trkpt>
      <trkpt lat="48.8839" lon="2.26236">
        <ele>42.599998474121</ele>
        <time>2016-03-14T21:16:22Z</time>
      </trkpt>
      <trkpt lat="48.8838" lon="2.26261">
        <ele>42</ele>
        <time>2016-03-14T21:16:25Z</time>
      </trkpt>
      <trkpt lat="48.8837" lon="2.26289">
        <ele>41.79999923706</ele>
        <time>2016-03-14T21:16:28Z</time>
      </trkpt>
      <trkpt lat="48.88363" lon="2.26319">
        <ele>42</ele>
        <time>2016-03-14T21:16:31Z</time>
      </trkpt>
      <trkpt lat="48.88355" lon="2.26347">
        <ele>42.79999923706</ele>
        <time>2016-03-14T21:16:34Z</time>
      </trkpt>
      <trkpt lat="48.88348" lon="2.26364">
        <ele>43.599998474121</ele>
        <time>2016-03-14T21:16:36Z</time>
      </trkpt>
      <trkpt lat="48.8834" lon="2.26389">
        <ele>44.599998474121</ele>
        <time>2016-03-14T21:16:39Z</time>
      </trkpt>
      <trkpt lat="48.88329" lon="2.26419">
        <ele>45.599998474121</ele>
        <time>2016-03-14T21:16:43Z</time>
      </trkpt>
      <trkpt lat="48.88314" lon="2.26439">
        <ele>45.400001525879</ele>
        <time>2016-03-14T21:16:47Z</time>
      </trkpt>
      <trkpt lat="48.88311" lon="2.26445">
        <ele>45.400001525879</ele>
        <time>2016-03-14T21:16:48Z</time>
      </trkpt>
      <trkpt lat="48.88305" lon="2.26474">
        <ele>44.20000076294</ele>
        <time>2016-03-14T21:16:53Z</time>
      </trkpt>
      <trkpt lat="48.88293" lon="2.26496">
        <ele>43</ele>
        <time>2016-03-14T21:16:57Z</time>
      </trkpt>
      <trkpt lat="48.88291" lon="2.26502">
        <ele>42.79999923706</ele>
        <time>2016-03-14T21:16:58Z</time>
      </trkpt>
      <trkpt lat="48.88282" lon="2.26523">
        <ele>42</ele>
        <time>2016-03-14T21:17:01Z</time>
      </trkpt>
      <trkpt lat="48.8827" lon="2.26555">
        <ele>40.599998474121</ele>
        <time>2016-03-14T21:17:05Z</time>
      </trkpt>
      <trkpt lat="48.88262" lon="2.26583">
        <ele>39.599998474121</ele>
        <time>2016-03-14T21:17:08Z</time>
      </trkpt>
      <trkpt lat="48.88254" lon="2.26611">
        <ele>39.20000076294</ele>
        <time>2016-03-14T21:17:11Z</time>
      </trkpt>
      <trkpt lat="48.88247" lon="2.26639">
        <ele>38.599998474121</ele>
        <time>2016-03-14T21:17:14Z</time>
      </trkpt>
      <trkpt lat="48.8824" lon="2.26667">
        <ele>38.599998474121</ele>
        <time>2016-03-14T21:17:17Z</time>
      </trkpt>
      <trkpt lat="48.88231" lon="2.26693">
        <ele>38.79999923706</ele>
        <time>2016-03-14T21:17:20Z</time>
      </trkpt>
      <trkpt lat="48.88224" lon="2.26719">
        <ele>39.599998474121</ele>
        <time>2016-03-14T21:17:23Z</time>
      </trkpt>
      <trkpt lat="48.88217" lon="2.26746">
        <ele>40.599998474121</ele>
        <time>2016-03-14T21:17:26Z</time>
      </trkpt>
      <trkpt lat="48.88211" lon="2.26776">
        <ele>41</ele>
        <time>2016-03-14T21:17:29Z</time>
      </trkpt>
      <trkpt lat="48.88202" lon="2.26801">
        <ele>39.20000076294</ele>
        <time>2016-03-14T21:17:32Z</time>
      </trkpt>
      <trkpt lat="48.88195" lon="2.26826">
        <ele>37.599998474121</ele>
        <time>2016-03-14T21:17:35Z</time>
      </trkpt>
      <trkpt lat="48.88185" lon="2.26857">
        <ele>38.599998474121</ele>
        <time>2016-03-14T21:17:39Z</time>
      </trkpt>
      <trkpt lat="48.88181" lon="2.26862">
        <ele>39.20000076294</ele>
        <time>2016-03-14T21:17:40Z</time>
      </trkpt>
      <trkpt lat="48.88171" lon="2.26886">
        <ele>41</ele>
        <time>2016-03-14T21:17:43Z</time>
      </trkpt>
      <trkpt lat="48.88162" lon="2.26912">
        <ele>43.20000076294</ele>
        <time>2016-03-14T21:17:46Z</time>
      </trkpt>
      <trkpt lat="48.88158" lon="2.2692">
        <ele>44</ele>
        <time>2016-03-14T21:17:47Z</time>
      </trkpt>
      <trkpt lat="48.88149" lon="2.26945">
        <ele>46</ele>
        <time>2016-03-14T21:17:50Z</time>
      </trkpt>
      <trkpt lat="48.88139" lon="2.2697">
        <ele>47.400001525879</ele>
        <time>2016-03-14T21:17:53Z</time>
      </trkpt>
      <trkpt lat="48.88128" lon="2.26994">
        <ele>48.599998474121</ele>
        <time>2016-03-14T21:17:56Z</time>
      </trkpt>
      <trkpt lat="48.88118" lon="2.27019">
        <ele>49.20000076294</ele>
        <time>2016-03-14T21:17:59Z</time>
      </trkpt>
      <trkpt lat="48.88109" lon="2.27044">
        <ele>49.20000076294</ele>
        <time>2016-03-14T21:18:02Z</time>
      </trkpt>
      <trkpt lat="48.88103" lon="2.27073">
        <ele>49</ele>
        <time>2016-03-14T21:18:05Z</time>
      </trkpt>
      <trkpt lat="48.88098" lon="2.27101">
        <ele>47.599998474121</ele>
        <time>2016-03-14T21:18:08Z</time>
      </trkpt>
      <trkpt lat="48.88089" lon="2.27134">
        <ele>45.79999923706</ele>
        <time>2016-03-14T21:18:12Z</time>
      </trkpt>
      <trkpt lat="48.88081" lon="2.27167">
        <ele>45.599998474121</ele>
        <time>2016-03-14T21:18:16Z</time>
      </trkpt>
      <trkpt lat="48.88067" lon="2.27188">
        <ele>45.599998474121</ele>
        <time>2016-03-14T21:18:19Z</time>
      </trkpt>
      <trkpt lat="48.88057" lon="2.27211">
        <ele>45.599998474121</ele>
        <time>2016-03-14T21:18:22Z</time>
      </trkpt>
      <trkpt lat="48.8805" lon="2.27239">
        <ele>45.400001525879</ele>
        <time>2016-03-14T21:18:25Z</time>
      </trkpt>
      <trkpt lat="48.88041" lon="2.27267">
        <ele>45.79999923706</ele>
        <time>2016-03-14T21:18:28Z</time>
      </trkpt>
      <trkpt lat="48.88035" lon="2.27293">
        <ele>45</ele>
        <time>2016-03-14T21:18:31Z</time>
      </trkpt>
      <trkpt lat="48.88027" lon="2.27321">
        <ele>44.20000076294</ele>
        <time>2016-03-14T21:18:34Z</time>
      </trkpt>
      <trkpt lat="48.8802" lon="2.27349">
        <ele>43.79999923706</ele>
        <time>2016-03-14T21:18:37Z</time>
      </trkpt>
      <trkpt lat="48.88013" lon="2.27376">
        <ele>43.400001525879</ele>
        <time>2016-03-14T21:18:40Z</time>
      </trkpt>
      <trkpt lat="48.88004" lon="2.27402">
        <ele>43.20000076294</ele>
        <time>2016-03-14T21:18:43Z</time>
      </trkpt>
      <trkpt lat="48.87997" lon="2.27427">
        <ele>43.400001525879</ele>
        <time>2016-03-14T21:18:46Z</time>
      </trkpt>
      <trkpt lat="48.8799" lon="2.27456">
        <ele>44</ele>
        <time>2016-03-14T21:18:49Z</time>
      </trkpt>
      <trkpt lat="48.87981" lon="2.27483">
        <ele>44.400001525879</ele>
        <time>2016-03-14T21:18:52Z</time>
      </trkpt>
      <trkpt lat="48.87975" lon="2.27512">
        <ele>44.400001525879</ele>
        <time>2016-03-14T21:18:55Z</time>
      </trkpt>
      <trkpt lat="48.87966" lon="2.27537">
        <ele>44.79999923706</ele>
        <time>2016-03-14T21:18:58Z</time>
      </trkpt>
      <trkpt lat="48.87957" lon="2.27562">
        <ele>45.79999923706</ele>
        <time>2016-03-14T21:19:01Z</time>
      </trkpt>
      <trkpt lat="48.87947" lon="2.2759">
        <ele>46.79999923706</ele>
        <time>2016-03-14T21:19:04Z</time>
      </trkpt>
      <trkpt lat="48.87937" lon="2.27617">
        <ele>46</ele>
        <time>2016-03-14T21:19:07Z</time>
      </trkpt>
      <trkpt lat="48.87928" lon="2.27646">
        <ele>45.400001525879</ele>
        <time>2016-03-14T21:19:10Z</time>
      </trkpt>
      <trkpt lat="48.87919" lon="2.27675">
        <ele>44.79999923706</ele>
        <time>2016-03-14T21:19:13Z</time>
      </trkpt>
      <trkpt lat="48.8791" lon="2.27701">
        <ele>44.599998474121</ele>
        <time>2016-03-14T21:19:16Z</time>
      </trkpt>
      <trkpt lat="48.879" lon="2.27729">
        <ele>44.79999923706</ele>
        <time>2016-03-14T21:19:19Z</time>
      </trkpt>
      <trkpt lat="48.87892" lon="2.27756">
        <ele>45.400001525879</ele>
        <time>2016-03-14T21:19:22Z</time>
      </trkpt>
      <trkpt lat="48.87884" lon="2.27783">
        <ele>46.20000076294</ele>
        <time>2016-03-14T21:19:25Z</time>
      </trkpt>
      <trkpt lat="48.87879" lon="2.27811">
        <ele>47</ele>
        <time>2016-03-14T21:19:28Z</time>
      </trkpt>
      <trkpt lat="48.87871" lon="2.27837">
        <ele>47.79999923706</ele>
        <time>2016-03-14T21:19:31Z</time>
      </trkpt>
      <trkpt lat="48.87863" lon="2.27862">
        <ele>48</ele>
        <time>2016-03-14T21:19:34Z</time>
      </trkpt>
      <trkpt lat="48.87854" lon="2.27894">
        <ele>48</ele>
        <time>2016-03-14T21:19:38Z</time>
      </trkpt>
      <trkpt lat="48.87846" lon="2.27922">
        <ele>47</ele>
        <time>2016-03-14T21:19:42Z</time>
      </trkpt>
      <trkpt lat="48.87842" lon="2.27934">
        <ele>46</ele>
        <time>2016-03-14T21:19:44Z</time>
      </trkpt>
      <trkpt lat="48.87845" lon="2.27956">
        <ele>44.79999923706</ele>
        <time>2016-03-14T21:19:48Z</time>
      </trkpt>
      <trkpt lat="48.87838" lon="2.27961">
        <ele>44.20000076294</ele>
        <time>2016-03-14T21:19:51Z</time>
      </trkpt>
      <trkpt lat="48.87837" lon="2.27963">
        <ele>44</ele>
        <time>2016-03-14T21:19:54Z</time>
      </trkpt>
      <trkpt lat="48.87842" lon="2.27956">
        <ele>44.79999923706</ele>
        <time>2016-03-14T21:21:32Z</time>
      </trkpt>
      <trkpt lat="48.87835" lon="2.27983">
        <ele>42.599998474121</ele>
        <time>2016-03-14T21:21:57Z</time>
      </trkpt>
      <trkpt lat="48.8783" lon="2.2801">
        <ele>40.400001525879</ele>
        <time>2016-03-14T21:22:04Z</time>
      </trkpt>
      <trkpt lat="48.87823" lon="2.28039">
        <ele>38</ele>
        <time>2016-03-14T21:22:11Z</time>
      </trkpt>
      <trkpt lat="48.87813" lon="2.28063">
        <ele>37.599998474121</ele>
        <time>2016-03-14T21:22:17Z</time>
      </trkpt>
      <trkpt lat="48.87799" lon="2.28084">
        <ele>37.599998474121</ele>
        <time>2016-03-14T21:22:25Z</time>
      </trkpt>
      <trkpt lat="48.87779" lon="2.28094">
        <ele>37.599998474121</ele>
        <time>2016-03-14T21:22:33Z</time>
      </trkpt>
      <trkpt lat="48.87761" lon="2.28102">
        <ele>38</ele>
        <time>2016-03-14T21:22:38Z</time>
      </trkpt>
      <trkpt lat="48.87744" lon="2.28117">
        <ele>38.20000076294</ele>
        <time>2016-03-14T21:22:43Z</time>
      </trkpt>
      <trkpt lat="48.87729" lon="2.28133">
        <ele>39</ele>
        <time>2016-03-14T21:22:47Z</time>
      </trkpt>
      <trkpt lat="48.87716" lon="2.28156">
        <ele>40.20000076294</ele>
        <time>2016-03-14T21:22:51Z</time>
      </trkpt>
      <trkpt lat="48.87706" lon="2.28183">
        <ele>41</ele>
        <time>2016-03-14T21:22:55Z</time>
      </trkpt>
      <trkpt lat="48.87698" lon="2.28209">
        <ele>40.599998474121</ele>
        <time>2016-03-14T21:22:59Z</time>
      </trkpt>
      <trkpt lat="48.87696" lon="2.28229">
        <ele>40.20000076294</ele>
        <time>2016-03-14T21:23:02Z</time>
      </trkpt>
      <trkpt lat="48.87696" lon="2.28262">
        <ele>40.79999923706</ele>
        <time>2016-03-14T21:23:07Z</time>
      </trkpt>
      <trkpt lat="48.87696" lon="2.28289">
        <ele>43.20000076294</ele>
        <time>2016-03-14T21:23:11Z</time>
      </trkpt>
      <trkpt lat="48.877" lon="2.28319">
        <ele>45.599998474121</ele>
        <time>2016-03-14T21:23:16Z</time>
      </trkpt>
      <trkpt lat="48.87702" lon="2.28342">
        <ele>47.599998474121</ele>
        <time>2016-03-14T21:23:20Z</time>
      </trkpt>
      <trkpt lat="48.87698" lon="2.28354">
        <ele>47.79999923706</ele>
        <time>2016-03-14T21:23:26Z</time>
      </trkpt>
      <trkpt lat="48.87698" lon="2.28357">
        <ele>48</ele>
        <time>2016-03-14T21:23:36Z</time>
      </trkpt>
      <trkpt lat="48.87701" lon="2.28382">
        <ele>48</ele>
        <time>2016-03-14T21:23:49Z</time>
      </trkpt>
      <trkpt lat="48.87697" lon="2.28415">
        <ele>48.79999923706</ele>
        <time>2016-03-14T21:23:55Z</time>
      </trkpt>
      <trkpt lat="48.87698" lon="2.28422">
        <ele>49</ele>
        <time>2016-03-14T21:23:56Z</time>
      </trkpt>
      <trkpt lat="48.87691" lon="2.28448">
        <ele>49.79999923706</ele>
        <time>2016-03-14T21:24:01Z</time>
      </trkpt>
      <trkpt lat="48.87683" lon="2.28474">
        <ele>51.20000076294</ele>
        <time>2016-03-14T21:24:06Z</time>
      </trkpt>
      <trkpt lat="48.87674" lon="2.285">
        <ele>52.20000076294</ele>
        <time>2016-03-14T21:24:10Z</time>
      </trkpt>
      <trkpt lat="48.87671" lon="2.28506">
        <ele>52.400001525879</ele>
        <time>2016-03-14T21:24:11Z</time>
      </trkpt>
      <trkpt lat="48.87664" lon="2.28516">
        <ele>53.20000076294</ele>
        <time>2016-03-14T21:24:13Z</time>
      </trkpt>
      <trkpt lat="48.87658" lon="2.28528">
        <ele>53.599998474121</ele>
        <time>2016-03-14T21:24:15Z</time>
      </trkpt>
      <trkpt lat="48.87645" lon="2.28553">
        <ele>54.79999923706</ele>
        <time>2016-03-14T21:24:19Z</time>
      </trkpt>
      <trkpt lat="48.87633" lon="2.2858">
        <ele>56</ele>
        <time>2016-03-14T21:24:23Z</time>
      </trkpt>
      <trkpt lat="48.87627" lon="2.28612">
        <ele>56.400001525879</ele>
        <time>2016-03-14T21:24:27Z</time>
      </trkpt>
      <trkpt lat="48.87626" lon="2.28628">
        <ele>55.79999923706</ele>
        <time>2016-03-14T21:24:29Z</time>
      </trkpt>
      <trkpt lat="48.87621" lon="2.28647">
        <ele>55.20000076294</ele>
        <time>2016-03-14T21:24:32Z</time>
      </trkpt>
      <trkpt lat="48.8761" lon="2.28672">
        <ele>55</ele>
        <time>2016-03-14T21:24:37Z</time>
      </trkpt>
      <trkpt lat="48.87605" lon="2.28701">
        <ele>55</ele>
        <time>2016-03-14T21:24:41Z</time>
      </trkpt>
      <trkpt lat="48.87598" lon="2.28728">
        <ele>55.599998474121</ele>
        <time>2016-03-14T21:24:46Z</time>
      </trkpt>
      <trkpt lat="48.87597" lon="2.2874">
        <ele>55.599998474121</ele>
        <time>2016-03-14T21:24:48Z</time>
      </trkpt>
      <trkpt lat="48.87593" lon="2.2877">
        <ele>57</ele>
        <time>2016-03-14T21:24:55Z</time>
      </trkpt>
      <trkpt lat="48.87591" lon="2.28776">
        <ele>57.400001525879</ele>
        <time>2016-03-14T21:24:57Z</time>
      </trkpt>
      <trkpt lat="48.87587" lon="2.28812">
        <ele>58.79999923706</ele>
        <time>2016-03-14T21:25:05Z</time>
      </trkpt>
      <trkpt lat="48.87578" lon="2.28836">
        <ele>58.400001525879</ele>
        <time>2016-03-14T21:25:10Z</time>
      </trkpt>
      <trkpt lat="48.87575" lon="2.28867">
        <ele>59.20000076294</ele>
        <time>2016-03-14T21:25:15Z</time>
      </trkpt>
      <trkpt lat="48.87568" lon="2.28894">
        <ele>60.400001525879</ele>
        <time>2016-03-14T21:25:20Z</time>
      </trkpt>
      <trkpt lat="48.87571" lon="2.28927">
        <ele>61.20000076294</ele>
        <time>2016-03-14T21:25:24Z</time>
      </trkpt>
      <trkpt lat="48.87567" lon="2.28962">
        <ele>61.79999923706</ele>
        <time>2016-03-14T21:25:29Z</time>
      </trkpt>
      <trkpt lat="48.87563" lon="2.28977">
        <ele>63</ele>
        <time>2016-03-14T21:25:31Z</time>
      </trkpt>
      <trkpt lat="48.87557" lon="2.29007">
        <ele>64.800003051758</ele>
        <time>2016-03-14T21:25:35Z</time>
      </trkpt>
      <trkpt lat="48.87555" lon="2.29022">
        <ele>65.199996948242</ele>
        <time>2016-03-14T21:25:37Z</time>
      </trkpt>
      <trkpt lat="48.87552" lon="2.29042">
        <ele>65.400001525879</ele>
        <time>2016-03-14T21:25:39Z</time>
      </trkpt>
      <trkpt lat="48.87539" lon="2.29066">
        <ele>66</ele>
        <time>2016-03-14T21:25:43Z</time>
      </trkpt>
      <trkpt lat="48.87529" lon="2.29092">
        <ele>67</ele>
        <time>2016-03-14T21:25:47Z</time>
      </trkpt>
      <trkpt lat="48.87524" lon="2.29106">
        <ele>66.599998474121</ele>
        <time>2016-03-14T21:25:49Z</time>
      </trkpt>
      <trkpt lat="48.87513" lon="2.2913">
        <ele>66.800003051758</ele>
        <time>2016-03-14T21:25:52Z</time>
      </trkpt>
      <trkpt lat="48.87504" lon="2.29154">
        <ele>66.599998474121</ele>
        <time>2016-03-14T21:25:55Z</time>
      </trkpt>
      <trkpt lat="48.87503" lon="2.29162">
        <ele>66.199996948242</ele>
        <time>2016-03-14T21:25:56Z</time>
      </trkpt>
      <trkpt lat="48.87492" lon="2.29186">
        <ele>67.199996948242</ele>
        <time>2016-03-14T21:25:59Z</time>
      </trkpt>
      <trkpt lat="48.87487" lon="2.29193">
        <ele>67.400001525879</ele>
        <time>2016-03-14T21:26:00Z</time>
      </trkpt>
      <trkpt lat="48.87481" lon="2.29208">
        <ele>67.800003051758</ele>
        <time>2016-03-14T21:26:02Z</time>
      </trkpt>
      <trkpt lat="48.8747" lon="2.29235">
        <ele>65.800003051758</ele>
        <time>2016-03-14T21:26:06Z</time>
      </trkpt>
      <trkpt lat="48.8746" lon="2.29263">
        <ele>64.400001525879</ele>
        <time>2016-03-14T21:26:10Z</time>
      </trkpt>
      <trkpt lat="48.87456" lon="2.29279">
        <ele>63.79999923706</ele>
        <time>2016-03-14T21:26:12Z</time>
      </trkpt>
      <trkpt lat="48.87452" lon="2.293">
        <ele>63</ele>
        <time>2016-03-14T21:26:15Z</time>
      </trkpt>
      <trkpt lat="48.87443" lon="2.29311">
        <ele>61.79999923706</ele>
        <time>2016-03-14T21:26:19Z</time>
      </trkpt>
      <trkpt lat="48.87441" lon="2.29313">
        <ele>61.599998474121</ele>
        <time>2016-03-14T21:26:20Z</time>
      </trkpt>
      <trkpt lat="48.87441" lon="2.29315">
        <ele>61.400001525879</ele>
        <time>2016-03-14T21:26:26Z</time>
      </trkpt>
      <trkpt lat="48.87432" lon="2.29298">
        <ele>62.20000076294</ele>
        <time>2016-03-14T21:27:06Z</time>
      </trkpt>
      <trkpt lat="48.87428" lon="2.29293">
        <ele>62.400001525879</ele>
        <time>2016-03-14T21:27:27Z</time>
      </trkpt>
      <trkpt lat="48.87416" lon="2.29287">
        <ele>63.20000076294</ele>
        <time>2016-03-14T21:27:39Z</time>
      </trkpt>
      <trkpt lat="48.87405" lon="2.29298">
        <ele>63.400001525879</ele>
        <time>2016-03-14T21:28:10Z</time>
      </trkpt>
      <trkpt lat="48.87391" lon="2.293">
        <ele>64</ele>
        <time>2016-03-14T21:28:18Z</time>
      </trkpt>
      <trkpt lat="48.87374" lon="2.29282">
        <ele>65.199996948242</ele>
        <time>2016-03-14T21:28:29Z</time>
      </trkpt>
      <trkpt lat="48.87368" lon="2.29278">
        <ele>65.599998474121</ele>
        <time>2016-03-14T21:28:38Z</time>
      </trkpt>
      <trkpt lat="48.8735" lon="2.29288">
        <ele>66.599998474121</ele>
        <time>2016-03-14T21:28:45Z</time>
      </trkpt>
      <trkpt lat="48.87331" lon="2.29297">
        <ele>67.800003051758</ele>
        <time>2016-03-14T21:28:53Z</time>
      </trkpt>
      <trkpt lat="48.87315" lon="2.29312">
        <ele>67.599998474121</ele>
        <time>2016-03-14T21:28:59Z</time>
      </trkpt>
      <trkpt lat="48.87299" lon="2.29327">
        <ele>66.599998474121</ele>
        <time>2016-03-14T21:29:06Z</time>
      </trkpt>
      <trkpt lat="48.87286" lon="2.29348">
        <ele>66.800003051758</ele>
        <time>2016-03-14T21:29:11Z</time>
      </trkpt>
      <trkpt lat="48.87274" lon="2.2937">
        <ele>66</ele>
        <time>2016-03-14T21:29:16Z</time>
      </trkpt>
      <trkpt lat="48.87259" lon="2.29387">
        <ele>65.800003051758</ele>
        <time>2016-03-14T21:29:21Z</time>
      </trkpt>
      <trkpt lat="48.87252" lon="2.29389">
        <ele>65.800003051758</ele>
        <time>2016-03-14T21:29:24Z</time>
      </trkpt>
      <trkpt lat="48.87246" lon="2.2939">
        <ele>65.800003051758</ele>
        <time>2016-03-14T21:29:31Z</time>
      </trkpt>
      <trkpt lat="48.87234" lon="2.29415">
        <ele>65.400001525879</ele>
        <time>2016-03-14T21:29:53Z</time>
      </trkpt>
      <trkpt lat="48.87229" lon="2.29442">
        <ele>64.800003051758</ele>
        <time>2016-03-14T21:29:57Z</time>
      </trkpt>
      <trkpt lat="48.87224" lon="2.29471">
        <ele>64.800003051758</ele>
        <time>2016-03-14T21:30:02Z</time>
      </trkpt>
      <trkpt lat="48.87225" lon="2.29499">
        <ele>64.599998474121</ele>
        <time>2016-03-14T21:30:06Z</time>
      </trkpt>
      <trkpt lat="48.87226" lon="2.29527">
        <ele>64</ele>
        <time>2016-03-14T21:30:10Z</time>
      </trkpt>
      <trkpt lat="48.87229" lon="2.2956">
        <ele>63.599998474121</ele>
        <time>2016-03-14T21:30:15Z</time>
      </trkpt>
      <trkpt lat="48.87237" lon="2.2959">
        <ele>63.599998474121</ele>
        <time>2016-03-14T21:30:20Z</time>
      </trkpt>
      <trkpt lat="48.87249" lon="2.29614">
        <ele>64</ele>
        <time>2016-03-14T21:30:25Z</time>
      </trkpt>
      <trkpt lat="48.87267" lon="2.29628">
        <ele>63.599998474121</ele>
        <time>2016-03-14T21:30:28Z</time>
      </trkpt>
      <trkpt lat="48.87275" lon="2.29643">
        <ele>64</ele>
        <time>2016-03-14T21:30:32Z</time>
      </trkpt>
      <trkpt lat="48.87291" lon="2.29654">
        <ele>64</ele>
        <time>2016-03-14T21:30:39Z</time>
      </trkpt>
      <trkpt lat="48.87298" lon="2.29682">
        <ele>64.400001525879</ele>
        <time>2016-03-14T21:30:46Z</time>
      </trkpt>
      <trkpt lat="48.87301" lon="2.29687">
        <ele>64.400001525879</ele>
        <time>2016-03-14T21:30:51Z</time>
      </trkpt>
      <trkpt lat="48.873" lon="2.29687">
        <ele>64.400001525879</ele>
        <time>2016-03-14T21:30:53Z</time>
      </trkpt>
      <trkpt lat="48.873" lon="2.29693">
        <ele>64.599998474121</ele>
        <time>2016-03-14T21:31:04Z</time>
      </trkpt>
      <trkpt lat="48.87302" lon="2.29704">
        <ele>65</ele>
        <time>2016-03-14T21:31:16Z</time>
      </trkpt>
      <trkpt lat="48.873" lon="2.29715">
        <ele>65.800003051758</ele>
        <time>2016-03-14T21:31:22Z</time>
      </trkpt>
      <trkpt lat="48.87301" lon="2.29743">
        <ele>67.400001525879</ele>
        <time>2016-03-14T21:31:29Z</time>
      </trkpt>
      <trkpt lat="48.873" lon="2.29775">
        <ele>69</ele>
        <time>2016-03-14T21:31:35Z</time>
      </trkpt>
      <trkpt lat="48.87296" lon="2.29807">
        <ele>67.800003051758</ele>
        <time>2016-03-14T21:31:40Z</time>
      </trkpt>
      <trkpt lat="48.87292" lon="2.29843">
        <ele>67.199996948242</ele>
        <time>2016-03-14T21:31:46Z</time>
      </trkpt>
      <trkpt lat="48.87284" lon="2.29872">
        <ele>65.599998474121</ele>
        <time>2016-03-14T21:31:50Z</time>
      </trkpt>
      <trkpt lat="48.87281" lon="2.299">
        <ele>64</ele>
        <time>2016-03-14T21:31:54Z</time>
      </trkpt>
      <trkpt lat="48.87271" lon="2.29929">
        <ele>62.79999923706</ele>
        <time>2016-03-14T21:31:58Z</time>
      </trkpt>
      <trkpt lat="48.8726" lon="2.29956">
        <ele>62.79999923706</ele>
        <time>2016-03-14T21:32:03Z</time>
      </trkpt>
      <trkpt lat="48.87257" lon="2.29965">
        <ele>62.79999923706</ele>
        <time>2016-03-14T21:32:05Z</time>
      </trkpt>
      <trkpt lat="48.87251" lon="2.29992">
        <ele>62</ele>
        <time>2016-03-14T21:32:09Z</time>
      </trkpt>
      <trkpt lat="48.87244" lon="2.30021">
        <ele>62.599998474121</ele>
        <time>2016-03-14T21:32:13Z</time>
      </trkpt>
      <trkpt lat="48.87236" lon="2.30047">
        <ele>63</ele>
        <time>2016-03-14T21:32:17Z</time>
      </trkpt>
      <trkpt lat="48.87229" lon="2.30064">
        <ele>61.599998474121</ele>
        <time>2016-03-14T21:32:20Z</time>
      </trkpt>
      <trkpt lat="48.87227" lon="2.30091">
        <ele>60.20000076294</ele>
        <time>2016-03-14T21:32:24Z</time>
      </trkpt>
      <trkpt lat="48.8721" lon="2.30111">
        <ele>58</ele>
        <time>2016-03-14T21:32:29Z</time>
      </trkpt>
      <trkpt lat="48.87206" lon="2.30115">
        <ele>57.599998474121</ele>
        <time>2016-03-14T21:32:30Z</time>
      </trkpt>
      <trkpt lat="48.872" lon="2.30133">
        <ele>56.599998474121</ele>
        <time>2016-03-14T21:32:33Z</time>
      </trkpt>
      <trkpt lat="48.87193" lon="2.3015">
        <ele>55.599998474121</ele>
        <time>2016-03-14T21:32:36Z</time>
      </trkpt>
      <trkpt lat="48.87189" lon="2.3017">
        <ele>55</ele>
        <time>2016-03-14T21:32:39Z</time>
      </trkpt>
      <trkpt lat="48.87181" lon="2.30192">
        <ele>54.599998474121</ele>
        <time>2016-03-14T21:32:43Z</time>
      </trkpt>
      <trkpt lat="48.87171" lon="2.30219">
        <ele>54.400001525879</ele>
        <time>2016-03-14T21:32:47Z</time>
      </trkpt>
      <trkpt lat="48.87163" lon="2.30245">
        <ele>54.400001525879</ele>
        <time>2016-03-14T21:32:51Z</time>
      </trkpt>
      <trkpt lat="48.87154" lon="2.30276">
        <ele>54.79999923706</ele>
        <time>2016-03-14T21:32:56Z</time>
      </trkpt>
      <trkpt lat="48.87153" lon="2.30282">
        <ele>55</ele>
        <time>2016-03-14T21:32:57Z</time>
      </trkpt>
      <trkpt lat="48.87148" lon="2.30313">
        <ele>55.599998474121</ele>
        <time>2016-03-14T21:33:02Z</time>
      </trkpt>
      <trkpt lat="48.87146" lon="2.30331">
        <ele>56</ele>
        <time>2016-03-14T21:33:05Z</time>
      </trkpt>
      <trkpt lat="48.87138" lon="2.30356">
        <ele>56</ele>
        <time>2016-03-14T21:33:09Z</time>
      </trkpt>
      <trkpt lat="48.8713" lon="2.30371">
        <ele>55.79999923706</ele>
        <time>2016-03-14T21:33:13Z</time>
      </trkpt>
      <trkpt lat="48.87124" lon="2.3039">
        <ele>55.599998474121</ele>
        <time>2016-03-14T21:33:17Z</time>
      </trkpt>
      <trkpt lat="48.8712" lon="2.30417">
        <ele>55.400001525879</ele>
        <time>2016-03-14T21:33:21Z</time>
      </trkpt>
      <trkpt lat="48.87114" lon="2.30446">
        <ele>54</ele>
        <time>2016-03-14T21:33:25Z</time>
      </trkpt>
      <trkpt lat="48.87109" lon="2.30477">
        <ele>52.79999923706</ele>
        <time>2016-03-14T21:33:29Z</time>
      </trkpt>
      <trkpt lat="48.87099" lon="2.30504">
        <ele>51.79999923706</ele>
        <time>2016-03-14T21:33:33Z</time>
      </trkpt>
      <trkpt lat="48.87088" lon="2.30527">
        <ele>51.400001525879</ele>
        <time>2016-03-14T21:33:37Z</time>
      </trkpt>
      <trkpt lat="48.87086" lon="2.30533">
        <ele>51.400001525879</ele>
        <time>2016-03-14T21:33:38Z</time>
      </trkpt>
      <trkpt lat="48.8708" lon="2.30558">
        <ele>50.79999923706</ele>
        <time>2016-03-14T21:33:42Z</time>
      </trkpt>
      <trkpt lat="48.87078" lon="2.30564">
        <ele>50.400001525879</ele>
        <time>2016-03-14T21:33:43Z</time>
      </trkpt>
      <trkpt lat="48.87068" lon="2.3059">
        <ele>49</ele>
        <time>2016-03-14T21:33:47Z</time>
      </trkpt>
      <trkpt lat="48.87064" lon="2.30616">
        <ele>48.599998474121</ele>
        <time>2016-03-14T21:33:52Z</time>
      </trkpt>
      <trkpt lat="48.87054" lon="2.30639">
        <ele>49.400001525879</ele>
        <time>2016-03-14T21:33:58Z</time>
      </trkpt>
      <trkpt lat="48.87049" lon="2.30652">
        <ele>50.20000076294</ele>
        <time>2016-03-14T21:34:02Z</time>
      </trkpt>
      <trkpt lat="48.87042" lon="2.30677">
        <ele>50.20000076294</ele>
        <time>2016-03-14T21:34:08Z</time>
      </trkpt>
      <trkpt lat="48.87032" lon="2.30703">
        <ele>50.20000076294</ele>
        <time>2016-03-14T21:34:14Z</time>
      </trkpt>
      <trkpt lat="48.87025" lon="2.3073">
        <ele>50.20000076294</ele>
        <time>2016-03-14T21:34:19Z</time>
      </trkpt>
      <trkpt lat="48.87015" lon="2.30761">
        <ele>48.400001525879</ele>
        <time>2016-03-14T21:34:24Z</time>
      </trkpt>
      <trkpt lat="48.87007" lon="2.30789">
        <ele>45.599998474121</ele>
        <time>2016-03-14T21:34:28Z</time>
      </trkpt>
      <trkpt lat="48.87002" lon="2.30816">
        <ele>43.79999923706</ele>
        <time>2016-03-14T21:34:32Z</time>
      </trkpt>
      <trkpt lat="48.86993" lon="2.3084">
        <ele>43.599998474121</ele>
        <time>2016-03-14T21:34:36Z</time>
      </trkpt>
      <trkpt lat="48.86984" lon="2.30867">
        <ele>43</ele>
        <time>2016-03-14T21:34:40Z</time>
      </trkpt>
      <trkpt lat="48.86976" lon="2.30885">
        <ele>43</ele>
        <time>2016-03-14T21:34:43Z</time>
      </trkpt>
      <trkpt lat="48.86971" lon="2.30902">
        <ele>43</ele>
        <time>2016-03-14T21:34:47Z</time>
      </trkpt>
      <trkpt lat="48.86965" lon="2.30906">
        <ele>43</ele>
        <time>2016-03-14T21:34:51Z</time>
      </trkpt>
      <trkpt lat="48.86965" lon="2.30906">
        <ele>43</ele>
        <time>2016-03-14T21:34:52Z</time>
      </trkpt>
      <trkpt lat="48.86964" lon="2.30906">
        <ele>43</ele>
        <time>2016-03-14T21:34:54Z</time>
      </trkpt>
      <trkpt lat="48.86962" lon="2.30904">
        <ele>43</ele>
        <time>2016-03-14T21:35:14Z</time>
      </trkpt>
      <trkpt lat="48.86956" lon="2.30904">
        <ele>43</ele>
        <time>2016-03-14T21:35:20Z</time>
      </trkpt>
      <trkpt lat="48.86953" lon="2.30904">
        <ele>43</ele>
        <time>2016-03-14T21:35:24Z</time>
      </trkpt>
      <trkpt lat="48.86951" lon="2.30913">
        <ele>43</ele>
        <time>2016-03-14T21:35:57Z</time>
      </trkpt>
      <trkpt lat="48.86936" lon="2.30933">
        <ele>43.20000076294</ele>
        <time>2016-03-14T21:36:03Z</time>
      </trkpt>
      <trkpt lat="48.86921" lon="2.30945">
        <ele>43</ele>
        <time>2016-03-14T21:36:09Z</time>
      </trkpt>
      <trkpt lat="48.86905" lon="2.30945">
        <ele>42.599998474121</ele>
        <time>2016-03-14T21:36:14Z</time>
      </trkpt>
      <trkpt lat="48.86888" lon="2.30954">
        <ele>41.79999923706</ele>
        <time>2016-03-14T21:36:20Z</time>
      </trkpt>
      <trkpt lat="48.86883" lon="2.30962">
        <ele>41.20000076294</ele>
        <time>2016-03-14T21:36:25Z</time>
      </trkpt>
      <trkpt lat="48.86877" lon="2.30963">
        <ele>40.79999923706</ele>
        <time>2016-03-14T21:36:35Z</time>
      </trkpt>
      <trkpt lat="48.86865" lon="2.30988">
        <ele>39</ele>
        <time>2016-03-14T21:36:43Z</time>
      </trkpt>
      <trkpt lat="48.86856" lon="2.31012">
        <ele>37.20000076294</ele>
        <time>2016-03-14T21:36:50Z</time>
      </trkpt>
      <trkpt lat="48.86837" lon="2.3102">
        <ele>37.20000076294</ele>
        <time>2016-03-14T21:36:57Z</time>
      </trkpt>
      <trkpt lat="48.86816" lon="2.31022">
        <ele>37.20000076294</ele>
        <time>2016-03-14T21:37:01Z</time>
      </trkpt>
      <trkpt lat="48.86793" lon="2.31021">
        <ele>37.599998474121</ele>
        <time>2016-03-14T21:37:05Z</time>
      </trkpt>
      <trkpt lat="48.86772" lon="2.3102">
        <ele>38.400001525879</ele>
        <time>2016-03-14T21:37:09Z</time>
      </trkpt>
      <trkpt lat="48.86751" lon="2.3102">
        <ele>39.20000076294</ele>
        <time>2016-03-14T21:37:13Z</time>
      </trkpt>
      <trkpt lat="48.86728" lon="2.31021">
        <ele>40</ele>
        <time>2016-03-14T21:37:17Z</time>
      </trkpt>
      <trkpt lat="48.86709" lon="2.31024">
        <ele>41</ele>
        <time>2016-03-14T21:37:21Z</time>
      </trkpt>
      <trkpt lat="48.8669" lon="2.31033">
        <ele>42.400001525879</ele>
        <time>2016-03-14T21:37:25Z</time>
      </trkpt>
      <trkpt lat="48.86667" lon="2.31039">
        <ele>43</ele>
        <time>2016-03-14T21:37:28Z</time>
      </trkpt>
      <trkpt lat="48.86644" lon="2.31043">
        <ele>43.400001525879</ele>
        <time>2016-03-14T21:37:31Z</time>
      </trkpt>
      <trkpt lat="48.86618" lon="2.31045">
        <ele>43</ele>
        <time>2016-03-14T21:37:34Z</time>
      </trkpt>
      <trkpt lat="48.86595" lon="2.31051">
        <ele>42.400001525879</ele>
        <time>2016-03-14T21:37:37Z</time>
      </trkpt>
      <trkpt lat="48.86568" lon="2.31049">
        <ele>41</ele>
        <time>2016-03-14T21:37:40Z</time>
      </trkpt>
      <trkpt lat="48.86545" lon="2.31051">
        <ele>39.400001525879</ele>
        <time>2016-03-14T21:37:43Z</time>
      </trkpt>
      <trkpt lat="48.86534" lon="2.31055">
        <ele>38.400001525879</ele>
        <time>2016-03-14T21:37:45Z</time>
      </trkpt>
      <trkpt lat="48.86524" lon="2.31062">
        <ele>37.20000076294</ele>
        <time>2016-03-14T21:37:48Z</time>
      </trkpt>
      <trkpt lat="48.86522" lon="2.31068">
        <ele>36.599998474121</ele>
        <time>2016-03-14T21:37:51Z</time>
      </trkpt>
      <trkpt lat="48.86521" lon="2.31068">
        <ele>36.400001525879</ele>
        <time>2016-03-14T21:37:53Z</time>
      </trkpt>
      <trkpt lat="48.86507" lon="2.31076">
        <ele>34.599998474121</ele>
        <time>2016-03-14T21:38:25Z</time>
      </trkpt>
      <trkpt lat="48.86483" lon="2.31083">
        <ele>31.60000038147</ele>
        <time>2016-03-14T21:38:39Z</time>
      </trkpt>
      <trkpt lat="48.86455" lon="2.31089">
        <ele>28.799999237061</ele>
        <time>2016-03-14T21:38:44Z</time>
      </trkpt>
      <trkpt lat="48.86451" lon="2.31119">
        <ele>28.39999961853</ele>
        <time>2016-03-14T21:38:52Z</time>
      </trkpt>
      <trkpt lat="48.86446" lon="2.31148">
        <ele>27.799999237061</ele>
        <time>2016-03-14T21:39:00Z</time>
      </trkpt>
      <trkpt lat="48.86442" lon="2.31178">
        <ele>28.60000038147</ele>
        <time>2016-03-14T21:39:07Z</time>
      </trkpt>
      <trkpt lat="48.86439" lon="2.3121">
        <ele>31.39999961853</ele>
        <time>2016-03-14T21:39:12Z</time>
      </trkpt>
      <trkpt lat="48.86447" lon="2.31268">
        <ele>35.20000076294</ele>
        <time>2016-03-14T21:39:14Z</time>
      </trkpt>
      <trkpt lat="48.86442" lon="2.31296">
        <ele>33.599998474121</ele>
        <time>2016-03-14T21:39:19Z</time>
      </trkpt>
      <trkpt lat="48.86441" lon="2.31303">
        <ele>33.20000076294</ele>
        <time>2016-03-14T21:39:21Z</time>
      </trkpt>
      <trkpt lat="48.86437" lon="2.31316">
        <ele>32.400001525879</ele>
        <time>2016-03-14T21:39:24Z</time>
      </trkpt>
      <trkpt lat="48.8644" lon="2.31348">
        <ele>31.60000038147</ele>
        <time>2016-03-14T21:39:28Z</time>
      </trkpt>
      <trkpt lat="48.86441" lon="2.31355">
        <ele>31.60000038147</ele>
        <time>2016-03-14T21:39:29Z</time>
      </trkpt>
      <trkpt lat="48.86451" lon="2.31378">
        <ele>31.799999237061</ele>
        <time>2016-03-14T21:39:33Z</time>
      </trkpt>
      <trkpt lat="48.86458" lon="2.31404">
        <ele>31.799999237061</ele>
        <time>2016-03-14T21:39:37Z</time>
      </trkpt>
      <trkpt lat="48.86459" lon="2.31419">
        <ele>32.20000076294</ele>
        <time>2016-03-14T21:39:39Z</time>
      </trkpt>
      <trkpt lat="48.8646" lon="2.31427">
        <ele>32.79999923706</ele>
        <time>2016-03-14T21:39:40Z</time>
      </trkpt>
      <trkpt lat="48.8646" lon="2.31455">
        <ele>33.20000076294</ele>
        <time>2016-03-14T21:39:44Z</time>
      </trkpt>
      <trkpt lat="48.86459" lon="2.3149">
        <ele>32.599998474121</ele>
        <time>2016-03-14T21:39:49Z</time>
      </trkpt>
      <trkpt lat="48.86457" lon="2.3152">
        <ele>30</ele>
        <time>2016-03-14T21:39:53Z</time>
      </trkpt>
      <trkpt lat="48.86455" lon="2.31537">
        <ele>29.200000762939</ele>
        <time>2016-03-14T21:39:55Z</time>
      </trkpt>
      <trkpt lat="48.86453" lon="2.31573">
        <ele>27.799999237061</ele>
        <time>2016-03-14T21:39:59Z</time>
      </trkpt>
      <trkpt lat="48.86452" lon="2.31608">
        <ele>26.39999961853</ele>
        <time>2016-03-14T21:40:03Z</time>
      </trkpt>
      <trkpt lat="48.86452" lon="2.31637">
        <ele>26.39999961853</ele>
        <time>2016-03-14T21:40:06Z</time>
      </trkpt>
      <trkpt lat="48.86452" lon="2.31667">
        <ele>26.60000038147</ele>
        <time>2016-03-14T21:40:09Z</time>
      </trkpt>
      <trkpt lat="48.86452" lon="2.31688">
        <ele>29.39999961853</ele>
        <time>2016-03-14T21:40:11Z</time>
      </trkpt>
      <trkpt lat="48.86454" lon="2.31719">
        <ele>34.79999923706</ele>
        <time>2016-03-14T21:40:14Z</time>
      </trkpt>
      <trkpt lat="48.86458" lon="2.3176">
        <ele>39.400001525879</ele>
        <time>2016-03-14T21:40:18Z</time>
      </trkpt>
      <trkpt lat="48.86461" lon="2.31788">
        <ele>37.400001525879</ele>
        <time>2016-03-14T21:40:20Z</time>
      </trkpt>
      <trkpt lat="48.8646" lon="2.31803">
        <ele>35.79999923706</ele>
        <time>2016-03-14T21:40:22Z</time>
      </trkpt>
      <trkpt lat="48.86448" lon="2.31835">
        <ele>33</ele>
        <time>2016-03-14T21:40:26Z</time>
      </trkpt>
      <trkpt lat="48.86445" lon="2.31845">
        <ele>32.20000076294</ele>
        <time>2016-03-14T21:40:27Z</time>
      </trkpt>
      <trkpt lat="48.8644" lon="2.31855">
        <ele>31.200000762939</ele>
        <time>2016-03-14T21:40:29Z</time>
      </trkpt>
      <trkpt lat="48.86433" lon="2.31871">
        <ele>31</ele>
        <time>2016-03-14T21:40:33Z</time>
      </trkpt>
      <trkpt lat="48.86431" lon="2.31876">
        <ele>30.799999237061</ele>
        <time>2016-03-14T21:40:34Z</time>
      </trkpt>
      <trkpt lat="48.86424" lon="2.31903">
        <ele>29</ele>
        <time>2016-03-14T21:40:39Z</time>
      </trkpt>
      <trkpt lat="48.86414" lon="2.31928">
        <ele>27.200000762939</ele>
        <time>2016-03-14T21:40:44Z</time>
      </trkpt>
      <trkpt lat="48.8641" lon="2.31944">
        <ele>27.799999237061</ele>
        <time>2016-03-14T21:40:47Z</time>
      </trkpt>
      <trkpt lat="48.86408" lon="2.31957">
        <ele>28.200000762939</ele>
        <time>2016-03-14T21:40:50Z</time>
      </trkpt>
      <trkpt lat="48.86404" lon="2.31978">
        <ele>28.60000038147</ele>
        <time>2016-03-14T21:40:56Z</time>
      </trkpt>
      <trkpt lat="48.86408" lon="2.31988">
        <ele>29</ele>
        <time>2016-03-14T21:41:18Z</time>
      </trkpt>
      <trkpt lat="48.86408" lon="2.3201">
        <ele>29.799999237061</ele>
        <time>2016-03-14T21:42:03Z</time>
      </trkpt>
      <trkpt lat="48.86401" lon="2.32036">
        <ele>30.60000038147</ele>
        <time>2016-03-14T21:42:09Z</time>
      </trkpt>
      <trkpt lat="48.86391" lon="2.32066">
        <ele>30</ele>
        <time>2016-03-14T21:42:14Z</time>
      </trkpt>
      <trkpt lat="48.86385" lon="2.3208">
        <ele>29.799999237061</ele>
        <time>2016-03-14T21:42:16Z</time>
      </trkpt>
      <trkpt lat="48.86377" lon="2.32106">
        <ele>30</ele>
        <time>2016-03-14T21:42:20Z</time>
      </trkpt>
      <trkpt lat="48.86367" lon="2.32134">
        <ele>29.60000038147</ele>
        <time>2016-03-14T21:42:24Z</time>
      </trkpt>
      <trkpt lat="48.86358" lon="2.32159">
        <ele>29</ele>
        <time>2016-03-14T21:42:27Z</time>
      </trkpt>
      <trkpt lat="48.86348" lon="2.32186">
        <ele>29.799999237061</ele>
        <time>2016-03-14T21:42:30Z</time>
      </trkpt>
      <trkpt lat="48.86338" lon="2.32216">
        <ele>31</ele>
        <time>2016-03-14T21:42:33Z</time>
      </trkpt>
      <trkpt lat="48.86329" lon="2.32247">
        <ele>31.60000038147</ele>
        <time>2016-03-14T21:42:36Z</time>
      </trkpt>
      <trkpt lat="48.86319" lon="2.32279">
        <ele>30.799999237061</ele>
        <time>2016-03-14T21:42:39Z</time>
      </trkpt>
      <trkpt lat="48.86308" lon="2.32309">
        <ele>30.200000762939</ele>
        <time>2016-03-14T21:42:42Z</time>
      </trkpt>
      <trkpt lat="48.86297" lon="2.32338">
        <ele>29.799999237061</ele>
        <time>2016-03-14T21:42:45Z</time>
      </trkpt>
      <trkpt lat="48.86287" lon="2.32368">
        <ele>29</ele>
        <time>2016-03-14T21:42:48Z</time>
      </trkpt>
      <trkpt lat="48.86277" lon="2.32399">
        <ele>27.60000038147</ele>
        <time>2016-03-14T21:42:51Z</time>
      </trkpt>
      <trkpt lat="48.86268" lon="2.32431">
        <ele>27.39999961853</ele>
        <time>2016-03-14T21:42:54Z</time>
      </trkpt>
      <trkpt lat="48.86258" lon="2.32463">
        <ele>28.200000762939</ele>
        <time>2016-03-14T21:42:57Z</time>
      </trkpt>
      <trkpt lat="48.86247" lon="2.32492">
        <ele>28.799999237061</ele>
        <time>2016-03-14T21:43:00Z</time>
      </trkpt>
      <trkpt lat="48.86244" lon="2.32502">
        <ele>29.200000762939</ele>
        <time>2016-03-14T21:43:01Z</time>
      </trkpt>
      <trkpt lat="48.86236" lon="2.32531">
        <ele>29.799999237061</ele>
        <time>2016-03-14T21:43:04Z</time>
      </trkpt>
      <trkpt lat="48.86226" lon="2.32558">
        <ele>30.200000762939</ele>
        <time>2016-03-14T21:43:07Z</time>
      </trkpt>
      <trkpt lat="48.86217" lon="2.32586">
        <ele>30.39999961853</ele>
        <time>2016-03-14T21:43:10Z</time>
      </trkpt>
      <trkpt lat="48.86207" lon="2.32614">
        <ele>30.39999961853</ele>
        <time>2016-03-14T21:43:13Z</time>
      </trkpt>
      <trkpt lat="48.86198" lon="2.32643">
        <ele>29.60000038147</ele>
        <time>2016-03-14T21:43:16Z</time>
      </trkpt>
      <trkpt lat="48.86188" lon="2.32673">
        <ele>29.39999961853</ele>
        <time>2016-03-14T21:43:19Z</time>
      </trkpt>
      <trkpt lat="48.86179" lon="2.327">
        <ele>30.39999961853</ele>
        <time>2016-03-14T21:43:22Z</time>
      </trkpt>
      <trkpt lat="48.8617" lon="2.32727">
        <ele>31.200000762939</ele>
        <time>2016-03-14T21:43:25Z</time>
      </trkpt>
      <trkpt lat="48.8616" lon="2.32755">
        <ele>30.60000038147</ele>
        <time>2016-03-14T21:43:28Z</time>
      </trkpt>
      <trkpt lat="48.8615" lon="2.32783">
        <ele>31.39999961853</ele>
        <time>2016-03-14T21:43:31Z</time>
      </trkpt>
      <trkpt lat="48.86141" lon="2.32813">
        <ele>30.39999961853</ele>
        <time>2016-03-14T21:43:34Z</time>
      </trkpt>
      <trkpt lat="48.86133" lon="2.32842">
        <ele>29.39999961853</ele>
        <time>2016-03-14T21:43:37Z</time>
      </trkpt>
      <trkpt lat="48.86123" lon="2.3287">
        <ele>30.200000762939</ele>
        <time>2016-03-14T21:43:40Z</time>
      </trkpt>
      <trkpt lat="48.86113" lon="2.32899">
        <ele>32</ele>
        <time>2016-03-14T21:43:43Z</time>
      </trkpt>
      <trkpt lat="48.86105" lon="2.32926">
        <ele>34.599998474121</ele>
        <time>2016-03-14T21:43:46Z</time>
      </trkpt>
      <trkpt lat="48.86096" lon="2.32958">
        <ele>39.599998474121</ele>
        <time>2016-03-14T21:43:50Z</time>
      </trkpt>
      <trkpt lat="48.8609" lon="2.32978">
        <ele>42.599998474121</ele>
        <time>2016-03-14T21:43:53Z</time>
      </trkpt>
      <trkpt lat="48.86083" lon="2.32999">
        <ele>42.79999923706</ele>
        <time>2016-03-14T21:43:57Z</time>
      </trkpt>
      <trkpt lat="48.86087" lon="2.33005">
        <ele>42.599998474121</ele>
        <time>2016-03-14T21:44:36Z</time>
      </trkpt>
      <trkpt lat="48.86105" lon="2.33012">
        <ele>43</ele>
        <time>2016-03-14T21:44:45Z</time>
      </trkpt>
      <trkpt lat="48.86107" lon="2.33013">
        <ele>43</ele>
        <time>2016-03-14T21:44:49Z</time>
      </trkpt>
      <trkpt lat="48.86118" lon="2.33023">
        <ele>42</ele>
        <time>2016-03-14T21:45:12Z</time>
      </trkpt>
      <trkpt lat="48.86124" lon="2.33027">
        <ele>41.599998474121</ele>
        <time>2016-03-14T21:45:13Z</time>
      </trkpt>
      <trkpt lat="48.86141" lon="2.33041">
        <ele>40.20000076294</ele>
        <time>2016-03-14T21:45:16Z</time>
      </trkpt>
      <trkpt lat="48.8616" lon="2.33057">
        <ele>38.400001525879</ele>
        <time>2016-03-14T21:45:19Z</time>
      </trkpt>
      <trkpt lat="48.86185" lon="2.33074">
        <ele>36.400001525879</ele>
        <time>2016-03-14T21:45:22Z</time>
      </trkpt>
      <trkpt lat="48.86203" lon="2.33088">
        <ele>36</ele>
        <time>2016-03-14T21:45:24Z</time>
      </trkpt>
      <trkpt lat="48.86221" lon="2.33101">
        <ele>36</ele>
        <time>2016-03-14T21:45:26Z</time>
      </trkpt>
      <trkpt lat="48.8624" lon="2.33114">
        <ele>36</ele>
        <time>2016-03-14T21:45:28Z</time>
      </trkpt>
      <trkpt lat="48.86318" lon="2.33161">
        <ele>38</ele>
        <time>2016-03-14T21:45:37Z</time>
      </trkpt>
      <trkpt lat="48.86334" lon="2.33175">
        <ele>39.20000076294</ele>
        <time>2016-03-14T21:45:41Z</time>
      </trkpt>
      <trkpt lat="48.86345" lon="2.33187">
        <ele>40.20000076294</ele>
        <time>2016-03-14T21:45:45Z</time>
      </trkpt>
      <trkpt lat="48.86362" lon="2.33205">
        <ele>41.599998474121</ele>
        <time>2016-03-14T21:45:51Z</time>
      </trkpt>
      <trkpt lat="48.86378" lon="2.3322">
        <ele>43.20000076294</ele>
        <time>2016-03-14T21:45:59Z</time>
      </trkpt>
      <trkpt lat="48.86379" lon="2.33222">
        <ele>43.400001525879</ele>
        <time>2016-03-14T21:46:01Z</time>
      </trkpt>
      <trkpt lat="48.86382" lon="2.33223">
        <ele>43.400001525879</ele>
        <time>2016-03-14T21:46:05Z</time>
      </trkpt>
      <trkpt lat="48.86401" lon="2.33232">
        <ele>44.79999923706</ele>
        <time>2016-03-14T21:46:24Z</time>
      </trkpt>
      <trkpt lat="48.86418" lon="2.33244">
        <ele>46</ele>
        <time>2016-03-14T21:46:28Z</time>
      </trkpt>
      <trkpt lat="48.86435" lon="2.33254">
        <ele>47</ele>
        <time>2016-03-14T21:46:32Z</time>
      </trkpt>
      <trkpt lat="48.86452" lon="2.33269">
        <ele>47.20000076294</ele>
        <time>2016-03-14T21:46:37Z</time>
      </trkpt>
      <trkpt lat="48.86451" lon="2.33277">
        <ele>47.400001525879</ele>
        <time>2016-03-14T21:46:38Z</time>
      </trkpt>
      <trkpt lat="48.86439" lon="2.33303">
        <ele>47.599998474121</ele>
        <time>2016-03-14T21:46:43Z</time>
      </trkpt>
      <trkpt lat="48.86426" lon="2.33325">
        <ele>47.79999923706</ele>
        <time>2016-03-14T21:46:47Z</time>
      </trkpt>
      <trkpt lat="48.8641" lon="2.33346">
        <ele>48.400001525879</ele>
        <time>2016-03-14T21:46:51Z</time>
      </trkpt>
      <trkpt lat="48.86396" lon="2.33372">
        <ele>49</ele>
        <time>2016-03-14T21:46:55Z</time>
      </trkpt>
      <trkpt lat="48.86383" lon="2.33398">
        <ele>50</ele>
        <time>2016-03-14T21:46:59Z</time>
      </trkpt>
      <trkpt lat="48.86379" lon="2.33413">
        <ele>50.599998474121</ele>
        <time>2016-03-14T21:47:03Z</time>
      </trkpt>
      <trkpt lat="48.86376" lon="2.33414">
        <ele>50.79999923706</ele>
        <time>2016-03-14T21:47:06Z</time>
      </trkpt>
      <trkpt lat="48.86367" lon="2.33444">
        <ele>50.20000076294</ele>
        <time>2016-03-14T21:47:16Z</time>
      </trkpt>
      <trkpt lat="48.86357" lon="2.33466">
        <ele>49.20000076294</ele>
        <time>2016-03-14T21:47:19Z</time>
      </trkpt>
      <trkpt lat="48.86346" lon="2.33493">
        <ele>47.400001525879</ele>
        <time>2016-03-14T21:47:23Z</time>
      </trkpt>
      <trkpt lat="48.8634" lon="2.33505">
        <ele>47.20000076294</ele>
        <time>2016-03-14T21:47:25Z</time>
      </trkpt>
      <trkpt lat="48.86329" lon="2.33527">
        <ele>46.400001525879</ele>
        <time>2016-03-14T21:47:30Z</time>
      </trkpt>
      <trkpt lat="48.86324" lon="2.33533">
        <ele>46</ele>
        <time>2016-03-14T21:47:36Z</time>
      </trkpt>
      <trkpt lat="48.86316" lon="2.33556">
        <ele>46.400001525879</ele>
        <time>2016-03-14T21:47:44Z</time>
      </trkpt>
      <trkpt lat="48.86315" lon="2.33584">
        <ele>47.400001525879</ele>
        <time>2016-03-14T21:47:50Z</time>
      </trkpt>
      <trkpt lat="48.86315" lon="2.33616">
        <ele>46.20000076294</ele>
        <time>2016-03-14T21:47:55Z</time>
      </trkpt>
      <trkpt lat="48.86308" lon="2.33646">
        <ele>46</ele>
        <time>2016-03-14T21:48:00Z</time>
      </trkpt>
      <trkpt lat="48.86304" lon="2.33673">
        <ele>45.79999923706</ele>
        <time>2016-03-14T21:48:04Z</time>
      </trkpt>
      <trkpt lat="48.86297" lon="2.33704">
        <ele>45.599998474121</ele>
        <time>2016-03-14T21:48:09Z</time>
      </trkpt>
      <trkpt lat="48.86278" lon="2.33728">
        <ele>46</ele>
        <time>2016-03-14T21:48:14Z</time>
      </trkpt>
      <trkpt lat="48.86268" lon="2.33753">
        <ele>46</ele>
        <time>2016-03-14T21:48:18Z</time>
      </trkpt>
      <trkpt lat="48.86262" lon="2.33764">
        <ele>46</ele>
        <time>2016-03-14T21:48:20Z</time>
      </trkpt>
      <trkpt lat="48.86251" lon="2.33775">
        <ele>46</ele>
        <time>2016-03-14T21:48:23Z</time>
      </trkpt>
      <trkpt lat="48.86239" lon="2.33797">
        <ele>45.79999923706</ele>
        <time>2016-03-14T21:48:27Z</time>
      </trkpt>
      <trkpt lat="48.86225" lon="2.33817">
        <ele>44.400001525879</ele>
        <time>2016-03-14T21:48:31Z</time>
      </trkpt>
      <trkpt lat="48.86212" lon="2.33845">
        <ele>44</ele>
        <time>2016-03-14T21:48:35Z</time>
      </trkpt>
      <trkpt lat="48.86207" lon="2.33868">
        <ele>44.599998474121</ele>
        <time>2016-03-14T21:48:38Z</time>
      </trkpt>
      <trkpt lat="48.86211" lon="2.33893">
        <ele>45.20000076294</ele>
        <time>2016-03-14T21:48:40Z</time>
      </trkpt>
      <trkpt lat="48.86199" lon="2.33919">
        <ele>45.400001525879</ele>
        <time>2016-03-14T21:48:43Z</time>
      </trkpt>
      <trkpt lat="48.86191" lon="2.33946">
        <ele>46.599998474121</ele>
        <time>2016-03-14T21:48:46Z</time>
      </trkpt>
      <trkpt lat="48.86183" lon="2.33978">
        <ele>48.599998474121</ele>
        <time>2016-03-14T21:48:50Z</time>
      </trkpt>
      <trkpt lat="48.86173" lon="2.34006">
        <ele>48.599998474121</ele>
        <time>2016-03-14T21:48:54Z</time>
      </trkpt>
      <trkpt lat="48.86163" lon="2.34032">
        <ele>48.400001525879</ele>
        <time>2016-03-14T21:48:58Z</time>
      </trkpt>
      <trkpt lat="48.86147" lon="2.34053">
        <ele>47.79999923706</ele>
        <time>2016-03-14T21:49:02Z</time>
      </trkpt>
      <trkpt lat="48.86142" lon="2.34063">
        <ele>47.599998474121</ele>
        <time>2016-03-14T21:49:04Z</time>
      </trkpt>
      <trkpt lat="48.86139" lon="2.34068">
        <ele>47.400001525879</ele>
        <time>2016-03-14T21:49:06Z</time>
      </trkpt>
      <trkpt lat="48.86138" lon="2.34073">
        <ele>47.20000076294</ele>
        <time>2016-03-14T21:49:11Z</time>
      </trkpt>
      <trkpt lat="48.86142" lon="2.341">
        <ele>47.599998474121</ele>
        <time>2016-03-14T21:49:35Z</time>
      </trkpt>
      <trkpt lat="48.86138" lon="2.3413">
        <ele>48</ele>
        <time>2016-03-14T21:49:40Z</time>
      </trkpt>
      <trkpt lat="48.86132" lon="2.34167">
        <ele>48.599998474121</ele>
        <time>2016-03-14T21:49:44Z</time>
      </trkpt>
      <trkpt lat="48.86132" lon="2.34207">
        <ele>48.79999923706</ele>
        <time>2016-03-14T21:49:48Z</time>
      </trkpt>
      <trkpt lat="48.86132" lon="2.3424">
        <ele>49.20000076294</ele>
        <time>2016-03-14T21:49:51Z</time>
      </trkpt>
      <trkpt lat="48.86124" lon="2.34269">
        <ele>49</ele>
        <time>2016-03-14T21:49:55Z</time>
      </trkpt>
      <trkpt lat="48.86118" lon="2.34298">
        <ele>50</ele>
        <time>2016-03-14T21:49:59Z</time>
      </trkpt>
      <trkpt lat="48.86114" lon="2.34334">
        <ele>50.599998474121</ele>
        <time>2016-03-14T21:50:03Z</time>
      </trkpt>
      <trkpt lat="48.86109" lon="2.34367">
        <ele>50.400001525879</ele>
        <time>2016-03-14T21:50:07Z</time>
      </trkpt>
      <trkpt lat="48.8611" lon="2.344">
        <ele>50</ele>
        <time>2016-03-14T21:50:11Z</time>
      </trkpt>
      <trkpt lat="48.86106" lon="2.34434">
        <ele>50.20000076294</ele>
        <time>2016-03-14T21:50:16Z</time>
      </trkpt>
      <trkpt lat="48.86102" lon="2.34449">
        <ele>50.599998474121</ele>
        <time>2016-03-14T21:50:18Z</time>
      </trkpt>
      <trkpt lat="48.86094" lon="2.34475">
        <ele>51.400001525879</ele>
        <time>2016-03-14T21:50:22Z</time>
      </trkpt>
      <trkpt lat="48.8609" lon="2.34486">
        <ele>51.599998474121</ele>
        <time>2016-03-14T21:50:24Z</time>
      </trkpt>
      <trkpt lat="48.86087" lon="2.34504">
        <ele>51.400001525879</ele>
        <time>2016-03-14T21:50:28Z</time>
      </trkpt>
      <trkpt lat="48.86084" lon="2.34536">
        <ele>51</ele>
        <time>2016-03-14T21:50:32Z</time>
      </trkpt>
      <trkpt lat="48.86076" lon="2.34566">
        <ele>50.400001525879</ele>
        <time>2016-03-14T21:50:36Z</time>
      </trkpt>
      <trkpt lat="48.86075" lon="2.34573">
        <ele>50</ele>
        <time>2016-03-14T21:50:37Z</time>
      </trkpt>
      <trkpt lat="48.86063" lon="2.34592">
        <ele>48.599998474121</ele>
        <time>2016-03-14T21:50:41Z</time>
      </trkpt>
      <trkpt lat="48.86059" lon="2.34601">
        <ele>47.79999923706</ele>
        <time>2016-03-14T21:50:43Z</time>
      </trkpt>
      <trkpt lat="48.86052" lon="2.34613">
        <ele>46.79999923706</ele>
        <time>2016-03-14T21:50:46Z</time>
      </trkpt>
      <trkpt lat="48.86049" lon="2.34621">
        <ele>46.599998474121</ele>
        <time>2016-03-14T21:50:48Z</time>
      </trkpt>
      <trkpt lat="48.86036" lon="2.34642">
        <ele>46.400001525879</ele>
        <time>2016-03-14T21:50:52Z</time>
      </trkpt>
      <trkpt lat="48.86022" lon="2.3466">
        <ele>46.20000076294</ele>
        <time>2016-03-14T21:50:56Z</time>
      </trkpt>
      <trkpt lat="48.86018" lon="2.34663">
        <ele>46.20000076294</ele>
        <time>2016-03-14T21:50:57Z</time>
      </trkpt>
      <trkpt lat="48.86" lon="2.34676">
        <ele>46.20000076294</ele>
        <time>2016-03-14T21:51:01Z</time>
      </trkpt>
      <trkpt lat="48.85998" lon="2.34679">
        <ele>46.20000076294</ele>
        <time>2016-03-14T21:51:02Z</time>
      </trkpt>
      <trkpt lat="48.85988" lon="2.34689">
        <ele>46.20000076294</ele>
        <time>2016-03-14T21:51:05Z</time>
      </trkpt>
      <trkpt lat="48.8597" lon="2.34696">
        <ele>46.20000076294</ele>
        <time>2016-03-14T21:51:10Z</time>
      </trkpt>
      <trkpt lat="48.85953" lon="2.34707">
        <ele>45.599998474121</ele>
        <time>2016-03-14T21:51:16Z</time>
      </trkpt>
      <trkpt lat="48.85949" lon="2.34715">
        <ele>45.20000076294</ele>
        <time>2016-03-14T21:51:22Z</time>
      </trkpt>
      <trkpt lat="48.85956" lon="2.34718">
        <ele>45.20000076294</ele>
        <time>2016-03-14T21:51:29Z</time>
      </trkpt>
      <trkpt lat="48.85958" lon="2.34719">
        <ele>45.20000076294</ele>
        <time>2016-03-14T21:51:31Z</time>
      </trkpt>
      <trkpt lat="48.85968" lon="2.34708">
        <ele>45.79999923706</ele>
        <time>2016-03-14T21:51:57Z</time>
      </trkpt>
      <trkpt lat="48.85969" lon="2.34708">
        <ele>45.79999923706</ele>
        <time>2016-03-14T21:51:58Z</time>
      </trkpt>
    </trkseg>
  </trk>
  <trk>
    <name><![CDATA[lundi 2016 03 21]]></name>
    <extensions>
      <line xmlns="http://www.topografix.com/GPX/gpx_style/0/2">
        <color>000000</color>
      </line>
    </extensions>
    <trkseg>
      <trkpt lat="48.85726" lon="2.34693">
        <ele>40.400001525879</ele>
        <time>2016-03-21T19:19:44Z</time>
      </trkpt>
      <trkpt lat="48.85725" lon="2.34697">
        <ele>40.400001525879</ele>
        <time>2016-03-21T19:19:45Z</time>
      </trkpt>
      <trkpt lat="48.85726" lon="2.34693">
        <ele>40.400001525879</ele>
        <time>2016-03-21T19:19:51Z</time>
      </trkpt>
      <trkpt lat="48.85723" lon="2.34693">
        <ele>40.400001525879</ele>
        <time>2016-03-21T19:19:52Z</time>
      </trkpt>
      <trkpt lat="48.85719" lon="2.34684">
        <ele>40.20000076294</ele>
        <time>2016-03-21T19:19:59Z</time>
      </trkpt>
      <trkpt lat="48.85699" lon="2.3468">
        <ele>40.79999923706</ele>
        <time>2016-03-21T19:20:05Z</time>
      </trkpt>
      <trkpt lat="48.85683" lon="2.34669">
        <ele>41.599998474121</ele>
        <time>2016-03-21T19:20:11Z</time>
      </trkpt>
      <trkpt lat="48.85666" lon="2.34659">
        <ele>43</ele>
        <time>2016-03-21T19:20:17Z</time>
      </trkpt>
      <trkpt lat="48.85647" lon="2.34647">
        <ele>44.599998474121</ele>
        <time>2016-03-21T19:20:23Z</time>
      </trkpt>
      <trkpt lat="48.8563" lon="2.34638">
        <ele>46</ele>
        <time>2016-03-21T19:20:29Z</time>
      </trkpt>
      <trkpt lat="48.8561" lon="2.34636">
        <ele>47.599998474121</ele>
        <time>2016-03-21T19:20:36Z</time>
      </trkpt>
      <trkpt lat="48.85592" lon="2.34624">
        <ele>47.79999923706</ele>
        <time>2016-03-21T19:20:41Z</time>
      </trkpt>
      <trkpt lat="48.85573" lon="2.3461">
        <ele>47.599998474121</ele>
        <time>2016-03-21T19:20:47Z</time>
      </trkpt>
      <trkpt lat="48.85554" lon="2.34591">
        <ele>47.400001525879</ele>
        <time>2016-03-21T19:20:52Z</time>
      </trkpt>
      <trkpt lat="48.85538" lon="2.34577">
        <ele>47</ele>
        <time>2016-03-21T19:20:56Z</time>
      </trkpt>
      <trkpt lat="48.85521" lon="2.34559">
        <ele>46.20000076294</ele>
        <time>2016-03-21T19:21:02Z</time>
      </trkpt>
      <trkpt lat="48.85501" lon="2.34533">
        <ele>44.400001525879</ele>
        <time>2016-03-21T19:21:08Z</time>
      </trkpt>
      <trkpt lat="48.85484" lon="2.34518">
        <ele>43.400001525879</ele>
        <time>2016-03-21T19:21:11Z</time>
      </trkpt>
      <trkpt lat="48.8546" lon="2.34513">
        <ele>42.20000076294</ele>
        <time>2016-03-21T19:21:14Z</time>
      </trkpt>
      <trkpt lat="48.85456" lon="2.34502">
        <ele>41.79999923706</ele>
        <time>2016-03-21T19:21:15Z</time>
      </trkpt>
      <trkpt lat="48.85436" lon="2.34483">
        <ele>40.599998474121</ele>
        <time>2016-03-21T19:21:19Z</time>
      </trkpt>
      <trkpt lat="48.8542" lon="2.34468">
        <ele>41.400001525879</ele>
        <time>2016-03-21T19:21:23Z</time>
      </trkpt>
      <trkpt lat="48.85405" lon="2.34452">
        <ele>41.79999923706</ele>
        <time>2016-03-21T19:21:27Z</time>
      </trkpt>
      <trkpt lat="48.854" lon="2.34445">
        <ele>42</ele>
        <time>2016-03-21T19:21:29Z</time>
      </trkpt>
      <trkpt lat="48.85392" lon="2.34439">
        <ele>42.20000076294</ele>
        <time>2016-03-21T19:21:34Z</time>
      </trkpt>
      <trkpt lat="48.85389" lon="2.34434">
        <ele>42.400001525879</ele>
        <time>2016-03-21T19:21:40Z</time>
      </trkpt>
      <trkpt lat="48.85387" lon="2.3443">
        <ele>42.400001525879</ele>
        <time>2016-03-21T19:21:44Z</time>
      </trkpt>
      <trkpt lat="48.85385" lon="2.34429">
        <ele>42.400001525879</ele>
        <time>2016-03-21T19:21:45Z</time>
      </trkpt>
      <trkpt lat="48.85383" lon="2.34427">
        <ele>42.400001525879</ele>
        <time>2016-03-21T19:21:55Z</time>
      </trkpt>
      <trkpt lat="48.85368" lon="2.34412">
        <ele>43.20000076294</ele>
        <time>2016-03-21T19:22:10Z</time>
      </trkpt>
      <trkpt lat="48.85354" lon="2.34394">
        <ele>44.79999923706</ele>
        <time>2016-03-21T19:22:15Z</time>
      </trkpt>
      <trkpt lat="48.85337" lon="2.34386">
        <ele>45.400001525879</ele>
        <time>2016-03-21T19:22:21Z</time>
      </trkpt>
      <trkpt lat="48.85317" lon="2.34388">
        <ele>46.599998474121</ele>
        <time>2016-03-21T19:22:28Z</time>
      </trkpt>
      <trkpt lat="48.853" lon="2.3438">
        <ele>48</ele>
        <time>2016-03-21T19:22:34Z</time>
      </trkpt>
      <trkpt lat="48.85287" lon="2.34381">
        <ele>49</ele>
        <time>2016-03-21T19:22:38Z</time>
      </trkpt>
      <trkpt lat="48.85269" lon="2.34378">
        <ele>50.20000076294</ele>
        <time>2016-03-21T19:22:43Z</time>
      </trkpt>
      <trkpt lat="48.85247" lon="2.34368">
        <ele>50</ele>
        <time>2016-03-21T19:22:48Z</time>
      </trkpt>
      <trkpt lat="48.85227" lon="2.34356">
        <ele>49.599998474121</ele>
        <time>2016-03-21T19:22:52Z</time>
      </trkpt>
      <trkpt lat="48.85209" lon="2.34342">
        <ele>49.20000076294</ele>
        <time>2016-03-21T19:22:56Z</time>
      </trkpt>
      <trkpt lat="48.85191" lon="2.34334">
        <ele>49</ele>
        <time>2016-03-21T19:22:59Z</time>
      </trkpt>
      <trkpt lat="48.85173" lon="2.34325">
        <ele>48.79999923706</ele>
        <time>2016-03-21T19:23:02Z</time>
      </trkpt>
      <trkpt lat="48.85152" lon="2.34312">
        <ele>48.599998474121</ele>
        <time>2016-03-21T19:23:06Z</time>
      </trkpt>
      <trkpt lat="48.85137" lon="2.343">
        <ele>48.599998474121</ele>
        <time>2016-03-21T19:23:10Z</time>
      </trkpt>
      <trkpt lat="48.85118" lon="2.34293">
        <ele>48.20000076294</ele>
        <time>2016-03-21T19:23:14Z</time>
      </trkpt>
      <trkpt lat="48.85099" lon="2.34285">
        <ele>48.400001525879</ele>
        <time>2016-03-21T19:23:18Z</time>
      </trkpt>
      <trkpt lat="48.85083" lon="2.34278">
        <ele>49.400001525879</ele>
        <time>2016-03-21T19:23:22Z</time>
      </trkpt>
      <trkpt lat="48.85071" lon="2.34273">
        <ele>50</ele>
        <time>2016-03-21T19:23:26Z</time>
      </trkpt>
      <trkpt lat="48.85055" lon="2.34287">
        <ele>50.79999923706</ele>
        <time>2016-03-21T19:23:32Z</time>
      </trkpt>
      <trkpt lat="48.85046" lon="2.34306">
        <ele>51.79999923706</ele>
        <time>2016-03-21T19:23:37Z</time>
      </trkpt>
      <trkpt lat="48.85043" lon="2.34315">
        <ele>52.20000076294</ele>
        <time>2016-03-21T19:23:39Z</time>
      </trkpt>
      <trkpt lat="48.85032" lon="2.34339">
        <ele>53.20000076294</ele>
        <time>2016-03-21T19:23:44Z</time>
      </trkpt>
      <trkpt lat="48.85032" lon="2.34372">
        <ele>53</ele>
        <time>2016-03-21T19:23:50Z</time>
      </trkpt>
      <trkpt lat="48.85026" lon="2.344">
        <ele>53.599998474121</ele>
        <time>2016-03-21T19:23:57Z</time>
      </trkpt>
      <trkpt lat="48.85024" lon="2.34433">
        <ele>54</ele>
        <time>2016-03-21T19:24:02Z</time>
      </trkpt>
      <trkpt lat="48.85024" lon="2.34464">
        <ele>54.400001525879</ele>
        <time>2016-03-21T19:24:07Z</time>
      </trkpt>
      <trkpt lat="48.85022" lon="2.34496">
        <ele>55</ele>
        <time>2016-03-21T19:24:13Z</time>
      </trkpt>
      <trkpt lat="48.85018" lon="2.34527">
        <ele>54.20000076294</ele>
        <time>2016-03-21T19:24:19Z</time>
      </trkpt>
      <trkpt lat="48.85016" lon="2.34558">
        <ele>53.599998474121</ele>
        <time>2016-03-21T19:24:24Z</time>
      </trkpt>
      <trkpt lat="48.85004" lon="2.34586">
        <ele>52</ele>
        <time>2016-03-21T19:24:29Z</time>
      </trkpt>
      <trkpt lat="48.84994" lon="2.34614">
        <ele>49.599998474121</ele>
        <time>2016-03-21T19:24:34Z</time>
      </trkpt>
      <trkpt lat="48.8499" lon="2.34645">
        <ele>48.400001525879</ele>
        <time>2016-03-21T19:24:39Z</time>
      </trkpt>
      <trkpt lat="48.8498" lon="2.34672">
        <ele>49.79999923706</ele>
        <time>2016-03-21T19:24:44Z</time>
      </trkpt>
      <trkpt lat="48.84974" lon="2.34701">
        <ele>49.79999923706</ele>
        <time>2016-03-21T19:24:49Z</time>
      </trkpt>
      <trkpt lat="48.84976" lon="2.34733">
        <ele>49.20000076294</ele>
        <time>2016-03-21T19:24:54Z</time>
      </trkpt>
      <trkpt lat="48.84968" lon="2.3476">
        <ele>49.599998474121</ele>
        <time>2016-03-21T19:24:59Z</time>
      </trkpt>
      <trkpt lat="48.84964" lon="2.34788">
        <ele>49.20000076294</ele>
        <time>2016-03-21T19:25:06Z</time>
      </trkpt>
      <trkpt lat="48.8496" lon="2.34796">
        <ele>49.20000076294</ele>
        <time>2016-03-21T19:25:09Z</time>
      </trkpt>
      <trkpt lat="48.84957" lon="2.34793">
        <ele>49.599998474121</ele>
        <time>2016-03-21T19:25:14Z</time>
      </trkpt>
      <trkpt lat="48.8495" lon="2.3479">
        <ele>50.400001525879</ele>
        <time>2016-03-21T19:25:19Z</time>
      </trkpt>
      <trkpt lat="48.84945" lon="2.34818">
        <ele>50</ele>
        <time>2016-03-21T19:25:25Z</time>
      </trkpt>
      <trkpt lat="48.84939" lon="2.34845">
        <ele>50.20000076294</ele>
        <time>2016-03-21T19:25:30Z</time>
      </trkpt>
      <trkpt lat="48.84933" lon="2.3486">
        <ele>51.400001525879</ele>
        <time>2016-03-21T19:25:34Z</time>
      </trkpt>
      <trkpt lat="48.84941" lon="2.3488">
        <ele>51</ele>
        <time>2016-03-21T19:25:45Z</time>
      </trkpt>
      <trkpt lat="48.84935" lon="2.34878">
        <ele>51.599998474121</ele>
        <time>2016-03-21T19:25:49Z</time>
      </trkpt>
      <trkpt lat="48.84917" lon="2.34865">
        <ele>53.400001525879</ele>
        <time>2016-03-21T19:25:57Z</time>
      </trkpt>
      <trkpt lat="48.84897" lon="2.34855">
        <ele>55.599998474121</ele>
        <time>2016-03-21T19:26:03Z</time>
      </trkpt>
      <trkpt lat="48.84877" lon="2.34848">
        <ele>57.79999923706</ele>
        <time>2016-03-21T19:26:09Z</time>
      </trkpt>
      <trkpt lat="48.84875" lon="2.34844">
        <ele>58</ele>
        <time>2016-03-21T19:26:13Z</time>
      </trkpt>
      <trkpt lat="48.8486" lon="2.34853">
        <ele>58.400001525879</ele>
        <time>2016-03-21T19:26:37Z</time>
      </trkpt>
      <trkpt lat="48.84841" lon="2.34852">
        <ele>58.79999923706</ele>
        <time>2016-03-21T19:26:42Z</time>
      </trkpt>
      <trkpt lat="48.8482" lon="2.34849">
        <ele>59</ele>
        <time>2016-03-21T19:26:47Z</time>
      </trkpt>
      <trkpt lat="48.848" lon="2.34847">
        <ele>59</ele>
        <time>2016-03-21T19:26:52Z</time>
      </trkpt>
      <trkpt lat="48.84781" lon="2.34851">
        <ele>59</ele>
        <time>2016-03-21T19:26:58Z</time>
      </trkpt>
      <trkpt lat="48.84763" lon="2.34859">
        <ele>58.599998474121</ele>
        <time>2016-03-21T19:27:04Z</time>
      </trkpt>
      <trkpt lat="48.84741" lon="2.34854">
        <ele>58.79999923706</ele>
        <time>2016-03-21T19:27:10Z</time>
      </trkpt>
      <trkpt lat="48.84732" lon="2.34852">
        <ele>59</ele>
        <time>2016-03-21T19:27:13Z</time>
      </trkpt>
      <trkpt lat="48.8472" lon="2.34865">
        <ele>58.400001525879</ele>
        <time>2016-03-21T19:27:21Z</time>
      </trkpt>
      <trkpt lat="48.84706" lon="2.34884">
        <ele>58.400001525879</ele>
        <time>2016-03-21T19:27:28Z</time>
      </trkpt>
      <trkpt lat="48.84687" lon="2.3489">
        <ele>58.599998474121</ele>
        <time>2016-03-21T19:27:32Z</time>
      </trkpt>
      <trkpt lat="48.84668" lon="2.34895">
        <ele>58.79999923706</ele>
        <time>2016-03-21T19:27:37Z</time>
      </trkpt>
      <trkpt lat="48.84649" lon="2.34896">
        <ele>59.400001525879</ele>
        <time>2016-03-21T19:27:42Z</time>
      </trkpt>
      <trkpt lat="48.84631" lon="2.34907">
        <ele>60</ele>
        <time>2016-03-21T19:27:48Z</time>
      </trkpt>
      <trkpt lat="48.8462" lon="2.34904">
        <ele>60.400001525879</ele>
        <time>2016-03-21T19:27:53Z</time>
      </trkpt>
      <trkpt lat="48.84605" lon="2.34908">
        <ele>61</ele>
        <time>2016-03-21T19:28:11Z</time>
      </trkpt>
      <trkpt lat="48.84595" lon="2.34909">
        <ele>61.400001525879</ele>
        <time>2016-03-21T19:28:15Z</time>
      </trkpt>
      <trkpt lat="48.84576" lon="2.34912">
        <ele>62.599998474121</ele>
        <time>2016-03-21T19:28:21Z</time>
      </trkpt>
      <trkpt lat="48.84556" lon="2.34915">
        <ele>64</ele>
        <time>2016-03-21T19:28:26Z</time>
      </trkpt>
      <trkpt lat="48.84538" lon="2.3492">
        <ele>65</ele>
        <time>2016-03-21T19:28:30Z</time>
      </trkpt>
      <trkpt lat="48.84519" lon="2.34925">
        <ele>65.800003051758</ele>
        <time>2016-03-21T19:28:35Z</time>
      </trkpt>
      <trkpt lat="48.84501" lon="2.34928">
        <ele>65.400001525879</ele>
        <time>2016-03-21T19:28:40Z</time>
      </trkpt>
      <trkpt lat="48.84479" lon="2.34928">
        <ele>64.800003051758</ele>
        <time>2016-03-21T19:28:46Z</time>
      </trkpt>
      <trkpt lat="48.84458" lon="2.34928">
        <ele>64.400001525879</ele>
        <time>2016-03-21T19:28:50Z</time>
      </trkpt>
      <trkpt lat="48.84454" lon="2.34926">
        <ele>64.199996948242</ele>
        <time>2016-03-21T19:28:52Z</time>
      </trkpt>
      <trkpt lat="48.8445" lon="2.34924">
        <ele>64.199996948242</ele>
        <time>2016-03-21T19:28:54Z</time>
      </trkpt>
      <trkpt lat="48.84446" lon="2.34896">
        <ele>64</ele>
        <time>2016-03-21T19:29:04Z</time>
      </trkpt>
      <trkpt lat="48.84441" lon="2.34867">
        <ele>63.400001525879</ele>
        <time>2016-03-21T19:29:12Z</time>
      </trkpt>
      <trkpt lat="48.84443" lon="2.34838">
        <ele>63.20000076294</ele>
        <time>2016-03-21T19:29:21Z</time>
      </trkpt>
      <trkpt lat="48.84451" lon="2.34806">
        <ele>62.79999923706</ele>
        <time>2016-03-21T19:29:28Z</time>
      </trkpt>
      <trkpt lat="48.84453" lon="2.34783">
        <ele>62.79999923706</ele>
        <time>2016-03-21T19:29:32Z</time>
      </trkpt>
      <trkpt lat="48.8446" lon="2.34752">
        <ele>62.79999923706</ele>
        <time>2016-03-21T19:29:38Z</time>
      </trkpt>
      <trkpt lat="48.84465" lon="2.34727">
        <ele>63</ele>
        <time>2016-03-21T19:29:45Z</time>
      </trkpt>
      <trkpt lat="48.84446" lon="2.3472">
        <ele>63.20000076294</ele>
        <time>2016-03-21T19:29:50Z</time>
      </trkpt>
      <trkpt lat="48.84425" lon="2.34714">
        <ele>63.400001525879</ele>
        <time>2016-03-21T19:29:55Z</time>
      </trkpt>
      <trkpt lat="48.84406" lon="2.34706">
        <ele>63.400001525879</ele>
        <time>2016-03-21T19:30:00Z</time>
      </trkpt>
      <trkpt lat="48.84386" lon="2.34698">
        <ele>63.79999923706</ele>
        <time>2016-03-21T19:30:06Z</time>
      </trkpt>
      <trkpt lat="48.84365" lon="2.34698">
        <ele>64.400001525879</ele>
        <time>2016-03-21T19:30:12Z</time>
      </trkpt>
      <trkpt lat="48.84346" lon="2.34699">
        <ele>64.199996948242</ele>
        <time>2016-03-21T19:30:19Z</time>
      </trkpt>
      <trkpt lat="48.84341" lon="2.34697">
        <ele>63.79999923706</ele>
        <time>2016-03-21T19:30:23Z</time>
      </trkpt>
      <trkpt lat="48.84341" lon="2.34687">
        <ele>63.400001525879</ele>
        <time>2016-03-21T19:30:27Z</time>
      </trkpt>
      <trkpt lat="48.84333" lon="2.34659">
        <ele>62.400001525879</ele>
        <time>2016-03-21T19:30:36Z</time>
      </trkpt>
      <trkpt lat="48.84334" lon="2.34654">
        <ele>62.599998474121</ele>
        <time>2016-03-21T19:30:40Z</time>
      </trkpt>
      <trkpt lat="48.8432" lon="2.34674">
        <ele>61.599998474121</ele>
        <time>2016-03-21T19:30:52Z</time>
      </trkpt>
      <trkpt lat="48.84306" lon="2.34694">
        <ele>61.20000076294</ele>
        <time>2016-03-21T19:31:03Z</time>
      </trkpt>
      <trkpt lat="48.84286" lon="2.34707">
        <ele>61</ele>
        <time>2016-03-21T19:31:08Z</time>
      </trkpt>
      <trkpt lat="48.84265" lon="2.3472">
        <ele>61</ele>
        <time>2016-03-21T19:31:14Z</time>
      </trkpt>
      <trkpt lat="48.84247" lon="2.34736">
        <ele>61</ele>
        <time>2016-03-21T19:31:23Z</time>
      </trkpt>
      <trkpt lat="48.84227" lon="2.34754">
        <ele>60.20000076294</ele>
        <time>2016-03-21T19:31:28Z</time>
      </trkpt>
      <trkpt lat="48.8421" lon="2.34774">
        <ele>59</ele>
        <time>2016-03-21T19:31:33Z</time>
      </trkpt>
      <trkpt lat="48.84193" lon="2.3479">
        <ele>58.20000076294</ele>
        <time>2016-03-21T19:31:38Z</time>
      </trkpt>
      <trkpt lat="48.84174" lon="2.348">
        <ele>57.79999923706</ele>
        <time>2016-03-21T19:31:44Z</time>
      </trkpt>
      <trkpt lat="48.84164" lon="2.34828">
        <ele>57.20000076294</ele>
        <time>2016-03-21T19:31:50Z</time>
      </trkpt>
      <trkpt lat="48.84149" lon="2.34849">
        <ele>55.599998474121</ele>
        <time>2016-03-21T19:31:56Z</time>
      </trkpt>
      <trkpt lat="48.84129" lon="2.34853">
        <ele>54.79999923706</ele>
        <time>2016-03-21T19:32:01Z</time>
      </trkpt>
      <trkpt lat="48.8411" lon="2.34858">
        <ele>53.20000076294</ele>
        <time>2016-03-21T19:32:06Z</time>
      </trkpt>
      <trkpt lat="48.84091" lon="2.34863">
        <ele>51.79999923706</ele>
        <time>2016-03-21T19:32:13Z</time>
      </trkpt>
      <trkpt lat="48.84069" lon="2.34869">
        <ele>50</ele>
        <time>2016-03-21T19:32:23Z</time>
      </trkpt>
      <trkpt lat="48.84053" lon="2.34855">
        <ele>50</ele>
        <time>2016-03-21T19:32:29Z</time>
      </trkpt>
      <trkpt lat="48.84044" lon="2.34837">
        <ele>50.79999923706</ele>
        <time>2016-03-21T19:32:33Z</time>
      </trkpt>
      <trkpt lat="48.84028" lon="2.34818">
        <ele>51</ele>
        <time>2016-03-21T19:32:38Z</time>
      </trkpt>
      <trkpt lat="48.84014" lon="2.34796">
        <ele>51.400001525879</ele>
        <time>2016-03-21T19:32:43Z</time>
      </trkpt>
      <trkpt lat="48.84004" lon="2.3477">
        <ele>52</ele>
        <time>2016-03-21T19:32:49Z</time>
      </trkpt>
      <trkpt lat="48.8399" lon="2.3475">
        <ele>52.400001525879</ele>
        <time>2016-03-21T19:32:58Z</time>
      </trkpt>
      <trkpt lat="48.83973" lon="2.34751">
        <ele>51.400001525879</ele>
        <time>2016-03-21T19:33:14Z</time>
      </trkpt>
      <trkpt lat="48.83959" lon="2.34775">
        <ele>49.79999923706</ele>
        <time>2016-03-21T19:33:20Z</time>
      </trkpt>
      <trkpt lat="48.8395" lon="2.34797">
        <ele>48.599998474121</ele>
        <time>2016-03-21T19:33:24Z</time>
      </trkpt>
      <trkpt lat="48.83939" lon="2.34825">
        <ele>47.20000076294</ele>
        <time>2016-03-21T19:33:29Z</time>
      </trkpt>
      <trkpt lat="48.83929" lon="2.34851">
        <ele>45.599998474121</ele>
        <time>2016-03-21T19:33:33Z</time>
      </trkpt>
      <trkpt lat="48.83918" lon="2.3488">
        <ele>43.400001525879</ele>
        <time>2016-03-21T19:33:37Z</time>
      </trkpt>
      <trkpt lat="48.83909" lon="2.34907">
        <ele>42</ele>
        <time>2016-03-21T19:33:41Z</time>
      </trkpt>
      <trkpt lat="48.83898" lon="2.34935">
        <ele>41.79999923706</ele>
        <time>2016-03-21T19:33:45Z</time>
      </trkpt>
      <trkpt lat="48.83885" lon="2.34966">
        <ele>42.20000076294</ele>
        <time>2016-03-21T19:33:49Z</time>
      </trkpt>
      <trkpt lat="48.83876" lon="2.3499">
        <ele>43</ele>
        <time>2016-03-21T19:33:52Z</time>
      </trkpt>
      <trkpt lat="48.83865" lon="2.35021">
        <ele>44.400001525879</ele>
        <time>2016-03-21T19:33:56Z</time>
      </trkpt>
      <trkpt lat="48.83856" lon="2.35049">
        <ele>45.20000076294</ele>
        <time>2016-03-21T19:34:00Z</time>
      </trkpt>
      <trkpt lat="48.83843" lon="2.35075">
        <ele>46.400001525879</ele>
        <time>2016-03-21T19:34:04Z</time>
      </trkpt>
      <trkpt lat="48.83825" lon="2.3509">
        <ele>47</ele>
        <time>2016-03-21T19:34:08Z</time>
      </trkpt>
      <trkpt lat="48.83807" lon="2.35102">
        <ele>47.20000076294</ele>
        <time>2016-03-21T19:34:12Z</time>
      </trkpt>
      <trkpt lat="48.83792" lon="2.3511">
        <ele>47.79999923706</ele>
        <time>2016-03-21T19:34:15Z</time>
      </trkpt>
      <trkpt lat="48.83773" lon="2.35121">
        <ele>48.400001525879</ele>
        <time>2016-03-21T19:34:19Z</time>
      </trkpt>
      <trkpt lat="48.83764" lon="2.35126">
        <ele>48.20000076294</ele>
        <time>2016-03-21T19:34:21Z</time>
      </trkpt>
      <trkpt lat="48.83744" lon="2.35137">
        <ele>47.599998474121</ele>
        <time>2016-03-21T19:34:26Z</time>
      </trkpt>
      <trkpt lat="48.83725" lon="2.3515">
        <ele>47.79999923706</ele>
        <time>2016-03-21T19:34:31Z</time>
      </trkpt>
      <trkpt lat="48.83707" lon="2.35161">
        <ele>48</ele>
        <time>2016-03-21T19:34:37Z</time>
      </trkpt>
      <trkpt lat="48.83703" lon="2.35165">
        <ele>48</ele>
        <time>2016-03-21T19:34:39Z</time>
      </trkpt>
      <trkpt lat="48.83695" lon="2.35173">
        <ele>48</ele>
        <time>2016-03-21T19:34:43Z</time>
      </trkpt>
      <trkpt lat="48.83688" lon="2.35175">
        <ele>48.400001525879</ele>
        <time>2016-03-21T19:34:48Z</time>
      </trkpt>
      <trkpt lat="48.83676" lon="2.35158">
        <ele>47.79999923706</ele>
        <time>2016-03-21T19:35:15Z</time>
      </trkpt>
      <trkpt lat="48.83669" lon="2.35131">
        <ele>47.20000076294</ele>
        <time>2016-03-21T19:35:20Z</time>
      </trkpt>
      <trkpt lat="48.83659" lon="2.351">
        <ele>46.599998474121</ele>
        <time>2016-03-21T19:35:25Z</time>
      </trkpt>
      <trkpt lat="48.83649" lon="2.35073">
        <ele>46.20000076294</ele>
        <time>2016-03-21T19:35:29Z</time>
      </trkpt>
      <trkpt lat="48.83639" lon="2.35043">
        <ele>46.20000076294</ele>
        <time>2016-03-21T19:35:33Z</time>
      </trkpt>
      <trkpt lat="48.83629" lon="2.35018">
        <ele>46.400001525879</ele>
        <time>2016-03-21T19:35:36Z</time>
      </trkpt>
      <trkpt lat="48.83622" lon="2.34992">
        <ele>46.599998474121</ele>
        <time>2016-03-21T19:35:39Z</time>
      </trkpt>
      <trkpt lat="48.83614" lon="2.34966">
        <ele>46.400001525879</ele>
        <time>2016-03-21T19:35:42Z</time>
      </trkpt>
      <trkpt lat="48.83606" lon="2.3494">
        <ele>46</ele>
        <time>2016-03-21T19:35:45Z</time>
      </trkpt>
      <trkpt lat="48.83595" lon="2.34909">
        <ele>45.599998474121</ele>
        <time>2016-03-21T19:35:49Z</time>
      </trkpt>
      <trkpt lat="48.8359" lon="2.34882">
        <ele>45.400001525879</ele>
        <time>2016-03-21T19:35:53Z</time>
      </trkpt>
      <trkpt lat="48.83586" lon="2.34872">
        <ele>45.20000076294</ele>
        <time>2016-03-21T19:35:55Z</time>
      </trkpt>
      <trkpt lat="48.83566" lon="2.34863">
        <ele>45</ele>
        <time>2016-03-21T19:35:59Z</time>
      </trkpt>
      <trkpt lat="48.83558" lon="2.34867">
        <ele>44.79999923706</ele>
        <time>2016-03-21T19:36:02Z</time>
      </trkpt>
      <trkpt lat="48.83555" lon="2.34869">
        <ele>44.79999923706</ele>
        <time>2016-03-21T19:36:03Z</time>
      </trkpt>
      <trkpt lat="48.83538" lon="2.34866">
        <ele>44.20000076294</ele>
        <time>2016-03-21T19:36:07Z</time>
      </trkpt>
      <trkpt lat="48.83518" lon="2.34861">
        <ele>43.599998474121</ele>
        <time>2016-03-21T19:36:12Z</time>
      </trkpt>
      <trkpt lat="48.83499" lon="2.34855">
        <ele>43.20000076294</ele>
        <time>2016-03-21T19:36:16Z</time>
      </trkpt>
      <trkpt lat="48.83491" lon="2.34856">
        <ele>43</ele>
        <time>2016-03-21T19:36:18Z</time>
      </trkpt>
      <trkpt lat="48.83472" lon="2.34874">
        <ele>42.400001525879</ele>
        <time>2016-03-21T19:36:24Z</time>
      </trkpt>
      <trkpt lat="48.83466" lon="2.3488">
        <ele>42.400001525879</ele>
        <time>2016-03-21T19:36:26Z</time>
      </trkpt>
      <trkpt lat="48.83449" lon="2.34889">
        <ele>42.20000076294</ele>
        <time>2016-03-21T19:36:33Z</time>
      </trkpt>
      <trkpt lat="48.8343" lon="2.34894">
        <ele>42</ele>
        <time>2016-03-21T19:36:38Z</time>
      </trkpt>
      <trkpt lat="48.83411" lon="2.34899">
        <ele>41.599998474121</ele>
        <time>2016-03-21T19:36:42Z</time>
      </trkpt>
      <trkpt lat="48.83391" lon="2.34898">
        <ele>40.79999923706</ele>
        <time>2016-03-21T19:36:47Z</time>
      </trkpt>
      <trkpt lat="48.83371" lon="2.34892">
        <ele>40.400001525879</ele>
        <time>2016-03-21T19:36:50Z</time>
      </trkpt>
      <trkpt lat="48.83351" lon="2.34881">
        <ele>40.20000076294</ele>
        <time>2016-03-21T19:36:54Z</time>
      </trkpt>
      <trkpt lat="48.83341" lon="2.34873">
        <ele>40.400001525879</ele>
        <time>2016-03-21T19:36:57Z</time>
      </trkpt>
      <trkpt lat="48.83328" lon="2.34849">
        <ele>41</ele>
        <time>2016-03-21T19:37:02Z</time>
      </trkpt>
      <trkpt lat="48.83323" lon="2.34827">
        <ele>41.79999923706</ele>
        <time>2016-03-21T19:37:06Z</time>
      </trkpt>
      <trkpt lat="48.83312" lon="2.34806">
        <ele>42.400001525879</ele>
        <time>2016-03-21T19:37:10Z</time>
      </trkpt>
      <trkpt lat="48.83303" lon="2.34788">
        <ele>43</ele>
        <time>2016-03-21T19:37:13Z</time>
      </trkpt>
      <trkpt lat="48.83291" lon="2.34764">
        <ele>43.599998474121</ele>
        <time>2016-03-21T19:37:17Z</time>
      </trkpt>
      <trkpt lat="48.8328" lon="2.34743">
        <ele>44</ele>
        <time>2016-03-21T19:37:21Z</time>
      </trkpt>
      <trkpt lat="48.83269" lon="2.34719">
        <ele>45.79999923706</ele>
        <time>2016-03-21T19:37:27Z</time>
      </trkpt>
      <trkpt lat="48.83262" lon="2.34699">
        <ele>47</ele>
        <time>2016-03-21T19:37:33Z</time>
      </trkpt>
      <trkpt lat="48.8326" lon="2.34693">
        <ele>47.20000076294</ele>
        <time>2016-03-21T19:37:35Z</time>
      </trkpt>
      <trkpt lat="48.83255" lon="2.34681">
        <ele>48</ele>
        <time>2016-03-21T19:37:40Z</time>
      </trkpt>
      <trkpt lat="48.83247" lon="2.34651">
        <ele>48.79999923706</ele>
        <time>2016-03-21T19:37:48Z</time>
      </trkpt>
      <trkpt lat="48.83238" lon="2.34622">
        <ele>48.400001525879</ele>
        <time>2016-03-21T19:37:55Z</time>
      </trkpt>
      <trkpt lat="48.83227" lon="2.34596">
        <ele>48.20000076294</ele>
        <time>2016-03-21T19:38:01Z</time>
      </trkpt>
      <trkpt lat="48.83218" lon="2.34571">
        <ele>48.20000076294</ele>
        <time>2016-03-21T19:38:08Z</time>
      </trkpt>
      <trkpt lat="48.83211" lon="2.34543">
        <ele>49</ele>
        <time>2016-03-21T19:38:13Z</time>
      </trkpt>
      <trkpt lat="48.832" lon="2.3452">
        <ele>49.400001525879</ele>
        <time>2016-03-21T19:38:18Z</time>
      </trkpt>
      <trkpt lat="48.83191" lon="2.34492">
        <ele>50</ele>
        <time>2016-03-21T19:38:24Z</time>
      </trkpt>
      <trkpt lat="48.83185" lon="2.34466">
        <ele>49.599998474121</ele>
        <time>2016-03-21T19:38:30Z</time>
      </trkpt>
      <trkpt lat="48.83184" lon="2.34444">
        <ele>49.400001525879</ele>
        <time>2016-03-21T19:38:37Z</time>
      </trkpt>
      <trkpt lat="48.83186" lon="2.34442">
        <ele>49.400001525879</ele>
        <time>2016-03-21T19:38:39Z</time>
      </trkpt>
      <trkpt lat="48.83171" lon="2.34426">
        <ele>49.20000076294</ele>
        <time>2016-03-21T19:38:57Z</time>
      </trkpt>
      <trkpt lat="48.83148" lon="2.34425">
        <ele>49.20000076294</ele>
        <time>2016-03-21T19:39:01Z</time>
      </trkpt>
      <trkpt lat="48.83127" lon="2.34424">
        <ele>49.20000076294</ele>
        <time>2016-03-21T19:39:06Z</time>
      </trkpt>
      <trkpt lat="48.83115" lon="2.34422">
        <ele>49</ele>
        <time>2016-03-21T19:39:10Z</time>
      </trkpt>
      <trkpt lat="48.83095" lon="2.34421">
        <ele>48.20000076294</ele>
        <time>2016-03-21T19:39:17Z</time>
      </trkpt>
      <trkpt lat="48.83074" lon="2.34415">
        <ele>47.20000076294</ele>
        <time>2016-03-21T19:39:22Z</time>
      </trkpt>
      <trkpt lat="48.83055" lon="2.34407">
        <ele>46</ele>
        <time>2016-03-21T19:39:26Z</time>
      </trkpt>
      <trkpt lat="48.83037" lon="2.34393">
        <ele>44.79999923706</ele>
        <time>2016-03-21T19:39:30Z</time>
      </trkpt>
      <trkpt lat="48.8302" lon="2.34379">
        <ele>44</ele>
        <time>2016-03-21T19:39:34Z</time>
      </trkpt>
      <trkpt lat="48.8301" lon="2.34372">
        <ele>44.20000076294</ele>
        <time>2016-03-21T19:39:36Z</time>
      </trkpt>
      <trkpt lat="48.82994" lon="2.34359">
        <ele>44.400001525879</ele>
        <time>2016-03-21T19:39:39Z</time>
      </trkpt>
      <trkpt lat="48.82974" lon="2.34344">
        <ele>44.599998474121</ele>
        <time>2016-03-21T19:39:43Z</time>
      </trkpt>
      <trkpt lat="48.82956" lon="2.34334">
        <ele>44.79999923706</ele>
        <time>2016-03-21T19:39:46Z</time>
      </trkpt>
      <trkpt lat="48.82935" lon="2.34326">
        <ele>45.20000076294</ele>
        <time>2016-03-21T19:39:49Z</time>
      </trkpt>
      <trkpt lat="48.82912" lon="2.34322">
        <ele>46.20000076294</ele>
        <time>2016-03-21T19:39:52Z</time>
      </trkpt>
      <trkpt lat="48.82891" lon="2.34313">
        <ele>47.20000076294</ele>
        <time>2016-03-21T19:39:56Z</time>
      </trkpt>
      <trkpt lat="48.82883" lon="2.34306">
        <ele>47.599998474121</ele>
        <time>2016-03-21T19:39:58Z</time>
      </trkpt>
      <trkpt lat="48.82869" lon="2.34289">
        <ele>48.599998474121</ele>
        <time>2016-03-21T19:40:02Z</time>
      </trkpt>
      <trkpt lat="48.82867" lon="2.34283">
        <ele>48.79999923706</ele>
        <time>2016-03-21T19:40:03Z</time>
      </trkpt>
      <trkpt lat="48.8287" lon="2.34252">
        <ele>49.599998474121</ele>
        <time>2016-03-21T19:40:07Z</time>
      </trkpt>
      <trkpt lat="48.82872" lon="2.34224">
        <ele>49.79999923706</ele>
        <time>2016-03-21T19:40:11Z</time>
      </trkpt>
      <trkpt lat="48.82874" lon="2.34193">
        <ele>50.20000076294</ele>
        <time>2016-03-21T19:40:15Z</time>
      </trkpt>
      <trkpt lat="48.82875" lon="2.34171">
        <ele>50.599998474121</ele>
        <time>2016-03-21T19:40:19Z</time>
      </trkpt>
      <trkpt lat="48.82874" lon="2.34161">
        <ele>50.79999923706</ele>
        <time>2016-03-21T19:40:22Z</time>
      </trkpt>
      <trkpt lat="48.82864" lon="2.34152">
        <ele>50.79999923706</ele>
        <time>2016-03-21T19:40:29Z</time>
      </trkpt>
      <trkpt lat="48.82846" lon="2.34156">
        <ele>51</ele>
        <time>2016-03-21T19:40:36Z</time>
      </trkpt>
      <trkpt lat="48.82826" lon="2.34162">
        <ele>51</ele>
        <time>2016-03-21T19:40:43Z</time>
      </trkpt>
      <trkpt lat="48.82817" lon="2.34163">
        <ele>51</ele>
        <time>2016-03-21T19:40:46Z</time>
      </trkpt>
      <trkpt lat="48.82798" lon="2.34166">
        <ele>51</ele>
        <time>2016-03-21T19:40:52Z</time>
      </trkpt>
      <trkpt lat="48.82777" lon="2.34168">
        <ele>51</ele>
        <time>2016-03-21T19:40:57Z</time>
      </trkpt>
      <trkpt lat="48.82758" lon="2.34169">
        <ele>50.79999923706</ele>
        <time>2016-03-21T19:41:01Z</time>
      </trkpt>
      <trkpt lat="48.82739" lon="2.34166">
        <ele>51</ele>
        <time>2016-03-21T19:41:05Z</time>
      </trkpt>
      <trkpt lat="48.8272" lon="2.34165">
        <ele>51</ele>
        <time>2016-03-21T19:41:09Z</time>
      </trkpt>
      <trkpt lat="48.82702" lon="2.34164">
        <ele>51</ele>
        <time>2016-03-21T19:41:13Z</time>
      </trkpt>
      <trkpt lat="48.82681" lon="2.34162">
        <ele>51</ele>
        <time>2016-03-21T19:41:17Z</time>
      </trkpt>
      <trkpt lat="48.82663" lon="2.34157">
        <ele>51</ele>
        <time>2016-03-21T19:41:23Z</time>
      </trkpt>
      <trkpt lat="48.82653" lon="2.34157">
        <ele>50.79999923706</ele>
        <time>2016-03-21T19:41:28Z</time>
      </trkpt>
      <trkpt lat="48.82639" lon="2.34175">
        <ele>49.599998474121</ele>
        <time>2016-03-21T19:41:50Z</time>
      </trkpt>
      <trkpt lat="48.82626" lon="2.34199">
        <ele>49</ele>
        <time>2016-03-21T19:42:00Z</time>
      </trkpt>
      <trkpt lat="48.82605" lon="2.34212">
        <ele>48.400001525879</ele>
        <time>2016-03-21T19:42:06Z</time>
      </trkpt>
      <trkpt lat="48.82595" lon="2.34223">
        <ele>48.20000076294</ele>
        <time>2016-03-21T19:42:09Z</time>
      </trkpt>
      <trkpt lat="48.82587" lon="2.34238">
        <ele>48</ele>
        <time>2016-03-21T19:42:12Z</time>
      </trkpt>
      <trkpt lat="48.82578" lon="2.34268">
        <ele>48.400001525879</ele>
        <time>2016-03-21T19:42:17Z</time>
      </trkpt>
      <trkpt lat="48.8257" lon="2.34294">
        <ele>49.20000076294</ele>
        <time>2016-03-21T19:42:22Z</time>
      </trkpt>
      <trkpt lat="48.8255" lon="2.34303">
        <ele>49.599998474121</ele>
        <time>2016-03-21T19:42:26Z</time>
      </trkpt>
      <trkpt lat="48.82535" lon="2.34324">
        <ele>50.599998474121</ele>
        <time>2016-03-21T19:42:30Z</time>
      </trkpt>
      <trkpt lat="48.82522" lon="2.34343">
        <ele>51.400001525879</ele>
        <time>2016-03-21T19:42:35Z</time>
      </trkpt>
      <trkpt lat="48.82511" lon="2.3435">
        <ele>51.20000076294</ele>
        <time>2016-03-21T19:42:38Z</time>
      </trkpt>
      <trkpt lat="48.82496" lon="2.3436">
        <ele>51.20000076294</ele>
        <time>2016-03-21T19:42:42Z</time>
      </trkpt>
      <trkpt lat="48.82484" lon="2.34368">
        <ele>51</ele>
        <time>2016-03-21T19:42:45Z</time>
      </trkpt>
      <trkpt lat="48.82469" lon="2.34384">
        <ele>51</ele>
        <time>2016-03-21T19:42:49Z</time>
      </trkpt>
      <trkpt lat="48.82451" lon="2.34393">
        <ele>50.599998474121</ele>
        <time>2016-03-21T19:42:53Z</time>
      </trkpt>
      <trkpt lat="48.82437" lon="2.34413">
        <ele>51</ele>
        <time>2016-03-21T19:42:57Z</time>
      </trkpt>
      <trkpt lat="48.82431" lon="2.3442">
        <ele>50.79999923706</ele>
        <time>2016-03-21T19:42:59Z</time>
      </trkpt>
      <trkpt lat="48.82419" lon="2.34427">
        <ele>50.599998474121</ele>
        <time>2016-03-21T19:43:02Z</time>
      </trkpt>
      <trkpt lat="48.82409" lon="2.34433">
        <ele>50.20000076294</ele>
        <time>2016-03-21T19:43:05Z</time>
      </trkpt>
      <trkpt lat="48.82396" lon="2.34454">
        <ele>50</ele>
        <time>2016-03-21T19:43:10Z</time>
      </trkpt>
      <trkpt lat="48.82393" lon="2.34457">
        <ele>50</ele>
        <time>2016-03-21T19:43:11Z</time>
      </trkpt>
      <trkpt lat="48.82377" lon="2.34481">
        <ele>50</ele>
        <time>2016-03-21T19:43:16Z</time>
      </trkpt>
      <trkpt lat="48.82368" lon="2.34491">
        <ele>50</ele>
        <time>2016-03-21T19:43:19Z</time>
      </trkpt>
      <trkpt lat="48.82361" lon="2.34502">
        <ele>50.20000076294</ele>
        <time>2016-03-21T19:43:22Z</time>
      </trkpt>
      <trkpt lat="48.8235" lon="2.34525">
        <ele>50.20000076294</ele>
        <time>2016-03-21T19:43:26Z</time>
      </trkpt>
      <trkpt lat="48.82343" lon="2.3454">
        <ele>50.400001525879</ele>
        <time>2016-03-21T19:43:29Z</time>
      </trkpt>
      <trkpt lat="48.82336" lon="2.34564">
        <ele>50.599998474121</ele>
        <time>2016-03-21T19:43:33Z</time>
      </trkpt>
      <trkpt lat="48.82322" lon="2.34583">
        <ele>50.599998474121</ele>
        <time>2016-03-21T19:43:37Z</time>
      </trkpt>
      <trkpt lat="48.82304" lon="2.34597">
        <ele>50.400001525879</ele>
        <time>2016-03-21T19:43:41Z</time>
      </trkpt>
      <trkpt lat="48.82292" lon="2.34609">
        <ele>50.20000076294</ele>
        <time>2016-03-21T19:43:44Z</time>
      </trkpt>
      <trkpt lat="48.82268" lon="2.3462">
        <ele>49.599998474121</ele>
        <time>2016-03-21T19:43:47Z</time>
      </trkpt>
      <trkpt lat="48.82264" lon="2.34624">
        <ele>49.79999923706</ele>
        <time>2016-03-21T19:43:48Z</time>
      </trkpt>
      <trkpt lat="48.82259" lon="2.34626">
        <ele>50</ele>
        <time>2016-03-21T19:43:50Z</time>
      </trkpt>
      <trkpt lat="48.82251" lon="2.34632">
        <ele>50.20000076294</ele>
        <time>2016-03-21T19:43:54Z</time>
      </trkpt>
      <trkpt lat="48.82249" lon="2.34635">
        <ele>50.20000076294</ele>
        <time>2016-03-21T19:43:56Z</time>
      </trkpt>
      <trkpt lat="48.82236" lon="2.34653">
        <ele>50.20000076294</ele>
        <time>2016-03-21T19:44:03Z</time>
      </trkpt>
      <trkpt lat="48.82229" lon="2.34683">
        <ele>50.20000076294</ele>
        <time>2016-03-21T19:44:09Z</time>
      </trkpt>
      <trkpt lat="48.8222" lon="2.34711">
        <ele>50.20000076294</ele>
        <time>2016-03-21T19:44:14Z</time>
      </trkpt>
      <trkpt lat="48.82215" lon="2.3474">
        <ele>49.599998474121</ele>
        <time>2016-03-21T19:44:18Z</time>
      </trkpt>
      <trkpt lat="48.82213" lon="2.34767">
        <ele>49.20000076294</ele>
        <time>2016-03-21T19:44:22Z</time>
      </trkpt>
      <trkpt lat="48.82213" lon="2.348">
        <ele>48.599998474121</ele>
        <time>2016-03-21T19:44:26Z</time>
      </trkpt>
      <trkpt lat="48.82215" lon="2.34835">
        <ele>48</ele>
        <time>2016-03-21T19:44:30Z</time>
      </trkpt>
      <trkpt lat="48.82217" lon="2.3486">
        <ele>48</ele>
        <time>2016-03-21T19:44:33Z</time>
      </trkpt>
      <trkpt lat="48.82216" lon="2.3489">
        <ele>47.599998474121</ele>
        <time>2016-03-21T19:44:37Z</time>
      </trkpt>
      <trkpt lat="48.82216" lon="2.34919">
        <ele>47.400001525879</ele>
        <time>2016-03-21T19:44:41Z</time>
      </trkpt>
      <trkpt lat="48.82216" lon="2.34948">
        <ele>47.79999923706</ele>
        <time>2016-03-21T19:44:45Z</time>
      </trkpt>
      <trkpt lat="48.82215" lon="2.34978">
        <ele>47</ele>
        <time>2016-03-21T19:44:49Z</time>
      </trkpt>
      <trkpt lat="48.82214" lon="2.35008">
        <ele>45.79999923706</ele>
        <time>2016-03-21T19:44:56Z</time>
      </trkpt>
      <trkpt lat="48.82215" lon="2.35023">
        <ele>44.79999923706</ele>
        <time>2016-03-21T19:45:00Z</time>
      </trkpt>
      <trkpt lat="48.82216" lon="2.3503">
        <ele>44.599998474121</ele>
        <time>2016-03-21T19:45:02Z</time>
      </trkpt>
      <trkpt lat="48.82212" lon="2.35053">
        <ele>44.20000076294</ele>
        <time>2016-03-21T19:45:07Z</time>
      </trkpt>
      <trkpt lat="48.82212" lon="2.35067">
        <ele>44</ele>
        <time>2016-03-21T19:45:10Z</time>
      </trkpt>
      <trkpt lat="48.82217" lon="2.35097">
        <ele>43.400001525879</ele>
        <time>2016-03-21T19:45:17Z</time>
      </trkpt>
      <trkpt lat="48.82216" lon="2.35128">
        <ele>43.20000076294</ele>
        <time>2016-03-21T19:45:22Z</time>
      </trkpt>
      <trkpt lat="48.82216" lon="2.35159">
        <ele>43.599998474121</ele>
        <time>2016-03-21T19:45:26Z</time>
      </trkpt>
      <trkpt lat="48.82213" lon="2.3519">
        <ele>43.400001525879</ele>
        <time>2016-03-21T19:45:31Z</time>
      </trkpt>
      <trkpt lat="48.82211" lon="2.35222">
        <ele>42.20000076294</ele>
        <time>2016-03-21T19:45:36Z</time>
      </trkpt>
      <trkpt lat="48.82215" lon="2.35251">
        <ele>41.400001525879</ele>
        <time>2016-03-21T19:45:40Z</time>
      </trkpt>
      <trkpt lat="48.82215" lon="2.3528">
        <ele>41.79999923706</ele>
        <time>2016-03-21T19:45:43Z</time>
      </trkpt>
      <trkpt lat="48.82214" lon="2.3531">
        <ele>42.400001525879</ele>
        <time>2016-03-21T19:45:47Z</time>
      </trkpt>
      <trkpt lat="48.82214" lon="2.3532">
        <ele>42.79999923706</ele>
        <time>2016-03-21T19:45:49Z</time>
      </trkpt>
      <trkpt lat="48.82215" lon="2.35353">
        <ele>44.400001525879</ele>
        <time>2016-03-21T19:45:55Z</time>
      </trkpt>
      <trkpt lat="48.82214" lon="2.35374">
        <ele>45.79999923706</ele>
        <time>2016-03-21T19:45:59Z</time>
      </trkpt>
      <trkpt lat="48.8221" lon="2.35403">
        <ele>48</ele>
        <time>2016-03-21T19:46:06Z</time>
      </trkpt>
      <trkpt lat="48.8221" lon="2.35431">
        <ele>50.20000076294</ele>
        <time>2016-03-21T19:46:13Z</time>
      </trkpt>
      <trkpt lat="48.8221" lon="2.35459">
        <ele>51.400001525879</ele>
        <time>2016-03-21T19:46:18Z</time>
      </trkpt>
      <trkpt lat="48.82212" lon="2.35489">
        <ele>52.599998474121</ele>
        <time>2016-03-21T19:46:24Z</time>
      </trkpt>
      <trkpt lat="48.82216" lon="2.35516">
        <ele>53.20000076294</ele>
        <time>2016-03-21T19:46:31Z</time>
      </trkpt>
      <trkpt lat="48.82217" lon="2.35518">
        <ele>53.20000076294</ele>
        <time>2016-03-21T19:46:34Z</time>
      </trkpt>
      <trkpt lat="48.82222" lon="2.35522">
        <ele>53.599998474121</ele>
        <time>2016-03-21T19:46:50Z</time>
      </trkpt>
      <trkpt lat="48.82223" lon="2.35522">
        <ele>53.599998474121</ele>
        <time>2016-03-21T19:46:52Z</time>
      </trkpt>
      <trkpt lat="48.82219" lon="2.3553">
        <ele>53.400001525879</ele>
        <time>2016-03-21T19:47:35Z</time>
      </trkpt>
      <trkpt lat="48.82215" lon="2.35529">
        <ele>53.400001525879</ele>
        <time>2016-03-21T19:47:36Z</time>
      </trkpt>
      <trkpt lat="48.82201" lon="2.35517">
        <ele>52.599998474121</ele>
        <time>2016-03-21T19:47:59Z</time>
      </trkpt>
      <trkpt lat="48.82206" lon="2.35542">
        <ele>53.20000076294</ele>
        <time>2016-03-21T19:48:19Z</time>
      </trkpt>
      <trkpt lat="48.8221" lon="2.35571">
        <ele>53.599998474121</ele>
        <time>2016-03-21T19:48:27Z</time>
      </trkpt>
      <trkpt lat="48.82213" lon="2.35604">
        <ele>53.79999923706</ele>
        <time>2016-03-21T19:48:32Z</time>
      </trkpt>
      <trkpt lat="48.82211" lon="2.35633">
        <ele>54.79999923706</ele>
        <time>2016-03-21T19:48:37Z</time>
      </trkpt>
      <trkpt lat="48.82215" lon="2.35663">
        <ele>56</ele>
        <time>2016-03-21T19:48:45Z</time>
      </trkpt>
      <trkpt lat="48.82216" lon="2.35695">
        <ele>57</ele>
        <time>2016-03-21T19:48:51Z</time>
      </trkpt>
      <trkpt lat="48.82221" lon="2.35727">
        <ele>57.599998474121</ele>
        <time>2016-03-21T19:48:56Z</time>
      </trkpt>
      <trkpt lat="48.82224" lon="2.3576">
        <ele>58.79999923706</ele>
        <time>2016-03-21T19:49:01Z</time>
      </trkpt>
      <trkpt lat="48.82227" lon="2.35792">
        <ele>60.79999923706</ele>
        <time>2016-03-21T19:49:06Z</time>
      </trkpt>
      <trkpt lat="48.82231" lon="2.3582">
        <ele>61.79999923706</ele>
        <time>2016-03-21T19:49:14Z</time>
      </trkpt>
      <trkpt lat="48.82227" lon="2.35832">
        <ele>61.79999923706</ele>
        <time>2016-03-21T19:49:21Z</time>
      </trkpt>
      <trkpt lat="48.82204" lon="2.35838">
        <ele>60</ele>
        <time>2016-03-21T19:49:41Z</time>
      </trkpt>
      <trkpt lat="48.82186" lon="2.35843">
        <ele>59.400001525879</ele>
        <time>2016-03-21T19:49:46Z</time>
      </trkpt>
      <trkpt lat="48.82165" lon="2.35845">
        <ele>59.400001525879</ele>
        <time>2016-03-21T19:49:51Z</time>
      </trkpt>
      <trkpt lat="48.82147" lon="2.35854">
        <ele>59.79999923706</ele>
        <time>2016-03-21T19:49:55Z</time>
      </trkpt>
      <trkpt lat="48.82128" lon="2.35865">
        <ele>60</ele>
        <time>2016-03-21T19:49:59Z</time>
      </trkpt>
      <trkpt lat="48.82107" lon="2.35873">
        <ele>59.599998474121</ele>
        <time>2016-03-21T19:50:03Z</time>
      </trkpt>
      <trkpt lat="48.8209" lon="2.35884">
        <ele>59.20000076294</ele>
        <time>2016-03-21T19:50:06Z</time>
      </trkpt>
      <trkpt lat="48.8207" lon="2.35891">
        <ele>59</ele>
        <time>2016-03-21T19:50:09Z</time>
      </trkpt>
      <trkpt lat="48.8205" lon="2.35898">
        <ele>59</ele>
        <time>2016-03-21T19:50:12Z</time>
      </trkpt>
      <trkpt lat="48.82029" lon="2.35905">
        <ele>58.79999923706</ele>
        <time>2016-03-21T19:50:15Z</time>
      </trkpt>
      <trkpt lat="48.82008" lon="2.3591">
        <ele>59.400001525879</ele>
        <time>2016-03-21T19:50:18Z</time>
      </trkpt>
      <trkpt lat="48.81993" lon="2.35913">
        <ele>60</ele>
        <time>2016-03-21T19:50:20Z</time>
      </trkpt>
      <trkpt lat="48.81972" lon="2.3592">
        <ele>61.20000076294</ele>
        <time>2016-03-21T19:50:23Z</time>
      </trkpt>
      <trkpt lat="48.81953" lon="2.35925">
        <ele>62.20000076294</ele>
        <time>2016-03-21T19:50:26Z</time>
      </trkpt>
      <trkpt lat="48.81934" lon="2.35932">
        <ele>62.400001525879</ele>
        <time>2016-03-21T19:50:29Z</time>
      </trkpt>
      <trkpt lat="48.81916" lon="2.3594">
        <ele>62.79999923706</ele>
        <time>2016-03-21T19:50:33Z</time>
      </trkpt>
      <trkpt lat="48.81906" lon="2.35942">
        <ele>63</ele>
        <time>2016-03-21T19:50:37Z</time>
      </trkpt>
      <trkpt lat="48.81892" lon="2.35946">
        <ele>63.400001525879</ele>
        <time>2016-03-21T19:51:00Z</time>
      </trkpt>
      <trkpt lat="48.81874" lon="2.35951">
        <ele>62.599998474121</ele>
        <time>2016-03-21T19:51:08Z</time>
      </trkpt>
      <trkpt lat="48.81855" lon="2.35955">
        <ele>61.599998474121</ele>
        <time>2016-03-21T19:51:15Z</time>
      </trkpt>
      <trkpt lat="48.81835" lon="2.35962">
        <ele>61.79999923706</ele>
        <time>2016-03-21T19:51:21Z</time>
      </trkpt>
      <trkpt lat="48.81817" lon="2.35969">
        <ele>61.79999923706</ele>
        <time>2016-03-21T19:51:26Z</time>
      </trkpt>
      <trkpt lat="48.81796" lon="2.35976">
        <ele>61.79999923706</ele>
        <time>2016-03-21T19:51:31Z</time>
      </trkpt>
      <trkpt lat="48.81777" lon="2.35982">
        <ele>61.599998474121</ele>
        <time>2016-03-21T19:51:35Z</time>
      </trkpt>
      <trkpt lat="48.81759" lon="2.35989">
        <ele>61.20000076294</ele>
        <time>2016-03-21T19:51:39Z</time>
      </trkpt>
      <trkpt lat="48.81741" lon="2.35996">
        <ele>61</ele>
        <time>2016-03-21T19:51:43Z</time>
      </trkpt>
      <trkpt lat="48.81718" lon="2.36002">
        <ele>61</ele>
        <time>2016-03-21T19:51:47Z</time>
      </trkpt>
      <trkpt lat="48.81697" lon="2.36008">
        <ele>61</ele>
        <time>2016-03-21T19:51:51Z</time>
      </trkpt>
      <trkpt lat="48.81681" lon="2.36014">
        <ele>61.20000076294</ele>
        <time>2016-03-21T19:51:54Z</time>
      </trkpt>
      <trkpt lat="48.81661" lon="2.36015">
        <ele>62</ele>
        <time>2016-03-21T19:51:59Z</time>
      </trkpt>
      <trkpt lat="48.81647" lon="2.36011">
        <ele>62.599998474121</ele>
        <time>2016-03-21T19:52:03Z</time>
      </trkpt>
      <trkpt lat="48.81629" lon="2.36007">
        <ele>63.20000076294</ele>
        <time>2016-03-21T19:52:08Z</time>
      </trkpt>
      <trkpt lat="48.81622" lon="2.36007">
        <ele>63.400001525879</ele>
        <time>2016-03-21T19:52:10Z</time>
      </trkpt>
      <trkpt lat="48.81608" lon="2.36009">
        <ele>63.79999923706</ele>
        <time>2016-03-21T19:52:15Z</time>
      </trkpt>
      <trkpt lat="48.81606" lon="2.36009">
        <ele>63.79999923706</ele>
        <time>2016-03-21T19:52:16Z</time>
      </trkpt>
      <trkpt lat="48.81598" lon="2.3601">
        <ele>64</ele>
        <time>2016-03-21T19:52:22Z</time>
      </trkpt>
      <trkpt lat="48.81597" lon="2.3601">
        <ele>64</ele>
        <time>2016-03-21T19:52:24Z</time>
      </trkpt>
      <trkpt lat="48.81581" lon="2.3602">
        <ele>64.400001525879</ele>
        <time>2016-03-21T19:52:39Z</time>
      </trkpt>
      <trkpt lat="48.81565" lon="2.36037">
        <ele>64.400001525879</ele>
        <time>2016-03-21T19:52:45Z</time>
      </trkpt>
      <trkpt lat="48.81547" lon="2.36042">
        <ele>65</ele>
        <time>2016-03-21T19:52:51Z</time>
      </trkpt>
      <trkpt lat="48.81527" lon="2.36049">
        <ele>65.800003051758</ele>
        <time>2016-03-21T19:52:58Z</time>
      </trkpt>
      <trkpt lat="48.81509" lon="2.36063">
        <ele>65.800003051758</ele>
        <time>2016-03-21T19:53:05Z</time>
      </trkpt>
      <trkpt lat="48.8149" lon="2.36061">
        <ele>65.400001525879</ele>
        <time>2016-03-21T19:53:12Z</time>
      </trkpt>
      <trkpt lat="48.81471" lon="2.36071">
        <ele>65</ele>
        <time>2016-03-21T19:53:19Z</time>
      </trkpt>
      <trkpt lat="48.81454" lon="2.36082">
        <ele>64.400001525879</ele>
        <time>2016-03-21T19:53:25Z</time>
      </trkpt>
      <trkpt lat="48.81436" lon="2.36091">
        <ele>64.199996948242</ele>
        <time>2016-03-21T19:53:30Z</time>
      </trkpt>
      <trkpt lat="48.81415" lon="2.36091">
        <ele>65.400001525879</ele>
        <time>2016-03-21T19:53:35Z</time>
      </trkpt>
      <trkpt lat="48.81394" lon="2.36099">
        <ele>66.800003051758</ele>
        <time>2016-03-21T19:53:40Z</time>
      </trkpt>
      <trkpt lat="48.81373" lon="2.36108">
        <ele>67.599998474121</ele>
        <time>2016-03-21T19:53:44Z</time>
      </trkpt>
      <trkpt lat="48.81354" lon="2.36113">
        <ele>67.800003051758</ele>
        <time>2016-03-21T19:53:48Z</time>
      </trkpt>
      <trkpt lat="48.81333" lon="2.36122">
        <ele>67.199996948242</ele>
        <time>2016-03-21T19:53:52Z</time>
      </trkpt>
      <trkpt lat="48.81313" lon="2.3613">
        <ele>66.800003051758</ele>
        <time>2016-03-21T19:53:56Z</time>
      </trkpt>
      <trkpt lat="48.81295" lon="2.36134">
        <ele>66.800003051758</ele>
        <time>2016-03-21T19:54:01Z</time>
      </trkpt>
      <trkpt lat="48.81293" lon="2.36135">
        <ele>66.800003051758</ele>
        <time>2016-03-21T19:54:02Z</time>
      </trkpt>
      <trkpt lat="48.81289" lon="2.36136">
        <ele>66.599998474121</ele>
        <time>2016-03-21T19:54:05Z</time>
      </trkpt>
      <trkpt lat="48.81287" lon="2.36135">
        <ele>66.800003051758</ele>
        <time>2016-03-21T19:54:08Z</time>
      </trkpt>
      <trkpt lat="48.81268" lon="2.36142">
        <ele>66.599998474121</ele>
        <time>2016-03-21T19:54:25Z</time>
      </trkpt>
      <trkpt lat="48.81249" lon="2.36146">
        <ele>66.800003051758</ele>
        <time>2016-03-21T19:54:31Z</time>
      </trkpt>
      <trkpt lat="48.81229" lon="2.36149">
        <ele>67.199996948242</ele>
        <time>2016-03-21T19:54:38Z</time>
      </trkpt>
      <trkpt lat="48.81205" lon="2.36154">
        <ele>67.800003051758</ele>
        <time>2016-03-21T19:54:44Z</time>
      </trkpt>
      <trkpt lat="48.81187" lon="2.36162">
        <ele>68</ele>
        <time>2016-03-21T19:54:47Z</time>
      </trkpt>
      <trkpt lat="48.81166" lon="2.36169">
        <ele>68.400001525879</ele>
        <time>2016-03-21T19:54:51Z</time>
      </trkpt>
      <trkpt lat="48.81149" lon="2.36177">
        <ele>68.800003051758</ele>
        <time>2016-03-21T19:54:54Z</time>
      </trkpt>
      <trkpt lat="48.81127" lon="2.36182">
        <ele>69.199996948242</ele>
        <time>2016-03-21T19:54:58Z</time>
      </trkpt>
      <trkpt lat="48.81104" lon="2.36187">
        <ele>69.599998474121</ele>
        <time>2016-03-21T19:55:02Z</time>
      </trkpt>
      <trkpt lat="48.81083" lon="2.36195">
        <ele>70.199996948242</ele>
        <time>2016-03-21T19:55:06Z</time>
      </trkpt>
      <trkpt lat="48.81062" lon="2.36203">
        <ele>71</ele>
        <time>2016-03-21T19:55:10Z</time>
      </trkpt>
      <trkpt lat="48.81045" lon="2.36209">
        <ele>70.400001525879</ele>
        <time>2016-03-21T19:55:13Z</time>
      </trkpt>
      <trkpt lat="48.81024" lon="2.36209">
        <ele>70</ele>
        <time>2016-03-21T19:55:17Z</time>
      </trkpt>
      <trkpt lat="48.81003" lon="2.36217">
        <ele>70.599998474121</ele>
        <time>2016-03-21T19:55:21Z</time>
      </trkpt>
      <trkpt lat="48.80984" lon="2.36221">
        <ele>71.199996948242</ele>
        <time>2016-03-21T19:55:25Z</time>
      </trkpt>
      <trkpt lat="48.80963" lon="2.36222">
        <ele>71.599998474121</ele>
        <time>2016-03-21T19:55:30Z</time>
      </trkpt>
      <trkpt lat="48.80961" lon="2.36222">
        <ele>71.800003051758</ele>
        <time>2016-03-21T19:55:31Z</time>
      </trkpt>
      <trkpt lat="48.80959" lon="2.3624">
        <ele>70.800003051758</ele>
        <time>2016-03-21T19:55:48Z</time>
      </trkpt>
      <trkpt lat="48.80965" lon="2.36255">
        <ele>70</ele>
        <time>2016-03-21T19:55:57Z</time>
      </trkpt>
      <trkpt lat="48.80974" lon="2.36262">
        <ele>69.599998474121</ele>
        <time>2016-03-21T19:56:08Z</time>
      </trkpt>
      <trkpt lat="48.80992" lon="2.36276">
        <ele>68.800003051758</ele>
        <time>2016-03-21T19:56:15Z</time>
      </trkpt>
      <trkpt lat="48.81006" lon="2.36293">
        <ele>67.800003051758</ele>
        <time>2016-03-21T19:56:20Z</time>
      </trkpt>
      <trkpt lat="48.81023" lon="2.36311">
        <ele>66.800003051758</ele>
        <time>2016-03-21T19:56:24Z</time>
      </trkpt>
      <trkpt lat="48.8104" lon="2.36329">
        <ele>66.599998474121</ele>
        <time>2016-03-21T19:56:28Z</time>
      </trkpt>
      <trkpt lat="48.81059" lon="2.36353">
        <ele>65.599998474121</ele>
        <time>2016-03-21T19:56:32Z</time>
      </trkpt>
      <trkpt lat="48.81077" lon="2.36377">
        <ele>64.599998474121</ele>
        <time>2016-03-21T19:56:36Z</time>
      </trkpt>
      <trkpt lat="48.81092" lon="2.364">
        <ele>63.599998474121</ele>
        <time>2016-03-21T19:56:40Z</time>
      </trkpt>
      <trkpt lat="48.81109" lon="2.36421">
        <ele>62.79999923706</ele>
        <time>2016-03-21T19:56:44Z</time>
      </trkpt>
      <trkpt lat="48.81117" lon="2.36429">
        <ele>62.400001525879</ele>
        <time>2016-03-21T19:56:46Z</time>
      </trkpt>
      <trkpt lat="48.81133" lon="2.36448">
        <ele>61.79999923706</ele>
        <time>2016-03-21T19:56:50Z</time>
      </trkpt>
      <trkpt lat="48.81136" lon="2.36453">
        <ele>61.79999923706</ele>
        <time>2016-03-21T19:56:51Z</time>
      </trkpt>
      <trkpt lat="48.81143" lon="2.36466">
        <ele>61.400001525879</ele>
        <time>2016-03-21T19:56:53Z</time>
      </trkpt>
      <trkpt lat="48.81155" lon="2.36496">
        <ele>60.400001525879</ele>
        <time>2016-03-21T19:56:57Z</time>
      </trkpt>
      <trkpt lat="48.8116" lon="2.36514">
        <ele>60.599998474121</ele>
        <time>2016-03-21T19:56:59Z</time>
      </trkpt>
      <trkpt lat="48.81167" lon="2.3654">
        <ele>60.79999923706</ele>
        <time>2016-03-21T19:57:02Z</time>
      </trkpt>
      <trkpt lat="48.81176" lon="2.36567">
        <ele>61</ele>
        <time>2016-03-21T19:57:05Z</time>
      </trkpt>
      <trkpt lat="48.81183" lon="2.36595">
        <ele>61.20000076294</ele>
        <time>2016-03-21T19:57:08Z</time>
      </trkpt>
      <trkpt lat="48.81191" lon="2.36622">
        <ele>61.400001525879</ele>
        <time>2016-03-21T19:57:11Z</time>
      </trkpt>
      <trkpt lat="48.81198" lon="2.36651">
        <ele>61.599998474121</ele>
        <time>2016-03-21T19:57:14Z</time>
      </trkpt>
      <trkpt lat="48.81207" lon="2.36679">
        <ele>61.79999923706</ele>
        <time>2016-03-21T19:57:17Z</time>
      </trkpt>
      <trkpt lat="48.81214" lon="2.36707">
        <ele>62.400001525879</ele>
        <time>2016-03-21T19:57:20Z</time>
      </trkpt>
      <trkpt lat="48.81222" lon="2.36734">
        <ele>63</ele>
        <time>2016-03-21T19:57:23Z</time>
      </trkpt>
      <trkpt lat="48.81229" lon="2.36759">
        <ele>63.400001525879</ele>
        <time>2016-03-21T19:57:26Z</time>
      </trkpt>
      <trkpt lat="48.81239" lon="2.36793">
        <ele>64.199996948242</ele>
        <time>2016-03-21T19:57:30Z</time>
      </trkpt>
      <trkpt lat="48.81245" lon="2.36815">
        <ele>64.400001525879</ele>
        <time>2016-03-21T19:57:33Z</time>
      </trkpt>
      <trkpt lat="48.81253" lon="2.36843">
        <ele>64.400001525879</ele>
        <time>2016-03-21T19:57:37Z</time>
      </trkpt>
      <trkpt lat="48.8126" lon="2.36871">
        <ele>64.599998474121</ele>
        <time>2016-03-21T19:57:41Z</time>
      </trkpt>
      <trkpt lat="48.81267" lon="2.36898">
        <ele>64.800003051758</ele>
        <time>2016-03-21T19:57:45Z</time>
      </trkpt>
      <trkpt lat="48.81275" lon="2.36929">
        <ele>65</ele>
        <time>2016-03-21T19:57:50Z</time>
      </trkpt>
      <trkpt lat="48.81282" lon="2.36957">
        <ele>64.800003051758</ele>
        <time>2016-03-21T19:57:55Z</time>
      </trkpt>
      <trkpt lat="48.81285" lon="2.36967">
        <ele>64.599998474121</ele>
        <time>2016-03-21T19:57:57Z</time>
      </trkpt>
      <trkpt lat="48.81288" lon="2.36981">
        <ele>64.599998474121</ele>
        <time>2016-03-21T19:58:00Z</time>
      </trkpt>
      <trkpt lat="48.81291" lon="2.36992">
        <ele>64.599998474121</ele>
        <time>2016-03-21T19:58:03Z</time>
      </trkpt>
      <trkpt lat="48.81292" lon="2.37">
        <ele>64.599998474121</ele>
        <time>2016-03-21T19:58:06Z</time>
      </trkpt>
      <trkpt lat="48.81295" lon="2.37014">
        <ele>64.400001525879</ele>
        <time>2016-03-21T19:58:09Z</time>
      </trkpt>
      <trkpt lat="48.81292" lon="2.37039">
        <ele>64</ele>
        <time>2016-03-21T19:58:41Z</time>
      </trkpt>
      <trkpt lat="48.81301" lon="2.37067">
        <ele>63.400001525879</ele>
        <time>2016-03-21T19:58:47Z</time>
      </trkpt>
      <trkpt lat="48.8131" lon="2.37091">
        <ele>63</ele>
        <time>2016-03-21T19:58:51Z</time>
      </trkpt>
      <trkpt lat="48.81319" lon="2.37115">
        <ele>63</ele>
        <time>2016-03-21T19:58:54Z</time>
      </trkpt>
      <trkpt lat="48.81327" lon="2.37129">
        <ele>63</ele>
        <time>2016-03-21T19:58:56Z</time>
      </trkpt>
      <trkpt lat="48.81339" lon="2.3715">
        <ele>63</ele>
        <time>2016-03-21T19:58:59Z</time>
      </trkpt>
      <trkpt lat="48.81349" lon="2.37174">
        <ele>63.20000076294</ele>
        <time>2016-03-21T19:59:02Z</time>
      </trkpt>
      <trkpt lat="48.81359" lon="2.37199">
        <ele>63.79999923706</ele>
        <time>2016-03-21T19:59:05Z</time>
      </trkpt>
      <trkpt lat="48.8137" lon="2.37228">
        <ele>64.400001525879</ele>
        <time>2016-03-21T19:59:08Z</time>
      </trkpt>
      <trkpt lat="48.81379" lon="2.37246">
        <ele>64.599998474121</ele>
        <time>2016-03-21T19:59:10Z</time>
      </trkpt>
      <trkpt lat="48.81392" lon="2.37275">
        <ele>64.800003051758</ele>
        <time>2016-03-21T19:59:13Z</time>
      </trkpt>
      <trkpt lat="48.81405" lon="2.37304">
        <ele>65</ele>
        <time>2016-03-21T19:59:16Z</time>
      </trkpt>
      <trkpt lat="48.81418" lon="2.37333">
        <ele>65</ele>
        <time>2016-03-21T19:59:19Z</time>
      </trkpt>
      <trkpt lat="48.81431" lon="2.37361">
        <ele>65</ele>
        <time>2016-03-21T19:59:22Z</time>
      </trkpt>
      <trkpt lat="48.81444" lon="2.37387">
        <ele>64.800003051758</ele>
        <time>2016-03-21T19:59:25Z</time>
      </trkpt>
      <trkpt lat="48.81457" lon="2.37415">
        <ele>64.400001525879</ele>
        <time>2016-03-21T19:59:29Z</time>
      </trkpt>
      <trkpt lat="48.81471" lon="2.37444">
        <ele>63.79999923706</ele>
        <time>2016-03-21T19:59:33Z</time>
      </trkpt>
      <trkpt lat="48.81483" lon="2.37472">
        <ele>63.400001525879</ele>
        <time>2016-03-21T19:59:37Z</time>
      </trkpt>
      <trkpt lat="48.81497" lon="2.37499">
        <ele>62.79999923706</ele>
        <time>2016-03-21T19:59:41Z</time>
      </trkpt>
      <trkpt lat="48.81507" lon="2.37518">
        <ele>62.400001525879</ele>
        <time>2016-03-21T19:59:44Z</time>
      </trkpt>
      <trkpt lat="48.81519" lon="2.37543">
        <ele>61.599998474121</ele>
        <time>2016-03-21T19:59:48Z</time>
      </trkpt>
      <trkpt lat="48.81521" lon="2.37548">
        <ele>61.400001525879</ele>
        <time>2016-03-21T19:59:49Z</time>
      </trkpt>
      <trkpt lat="48.81523" lon="2.37559">
        <ele>61.20000076294</ele>
        <time>2016-03-21T19:59:53Z</time>
      </trkpt>
      <trkpt lat="48.81524" lon="2.37571">
        <ele>61</ele>
        <time>2016-03-21T20:00:36Z</time>
      </trkpt>
      <trkpt lat="48.81536" lon="2.37593">
        <ele>60.599998474121</ele>
        <time>2016-03-21T20:00:42Z</time>
      </trkpt>
      <trkpt lat="48.81547" lon="2.37615">
        <ele>60.20000076294</ele>
        <time>2016-03-21T20:00:46Z</time>
      </trkpt>
      <trkpt lat="48.81558" lon="2.37637">
        <ele>59.79999923706</ele>
        <time>2016-03-21T20:00:50Z</time>
      </trkpt>
      <trkpt lat="48.8157" lon="2.37662">
        <ele>59.400001525879</ele>
        <time>2016-03-21T20:00:55Z</time>
      </trkpt>
      <trkpt lat="48.81581" lon="2.37688">
        <ele>58.400001525879</ele>
        <time>2016-03-21T20:01:00Z</time>
      </trkpt>
      <trkpt lat="48.81591" lon="2.37712">
        <ele>57.400001525879</ele>
        <time>2016-03-21T20:01:06Z</time>
      </trkpt>
      <trkpt lat="48.8159" lon="2.37718">
        <ele>57.20000076294</ele>
        <time>2016-03-21T20:01:08Z</time>
      </trkpt>
      <trkpt lat="48.81591" lon="2.37741">
        <ele>56.599998474121</ele>
        <time>2016-03-21T20:01:35Z</time>
      </trkpt>
      <trkpt lat="48.81608" lon="2.37755">
        <ele>55.400001525879</ele>
        <time>2016-03-21T20:01:54Z</time>
      </trkpt>
      <trkpt lat="48.8161" lon="2.37757">
        <ele>55.20000076294</ele>
        <time>2016-03-21T20:01:55Z</time>
      </trkpt>
      <trkpt lat="48.81612" lon="2.37759">
        <ele>55</ele>
        <time>2016-03-21T20:01:57Z</time>
      </trkpt>
      <trkpt lat="48.81625" lon="2.37762">
        <ele>53.79999923706</ele>
        <time>2016-03-21T20:02:07Z</time>
      </trkpt>
      <trkpt lat="48.81625" lon="2.37761">
        <ele>53.79999923706</ele>
        <time>2016-03-21T20:02:08Z</time>
      </trkpt>
      <trkpt lat="48.81632" lon="2.37755">
        <ele>54.400001525879</ele>
        <time>2016-03-21T20:02:15Z</time>
      </trkpt>
      <trkpt lat="48.8164" lon="2.3775">
        <ele>54.599998474121</ele>
        <time>2016-03-21T20:02:25Z</time>
      </trkpt>
      <trkpt lat="48.81651" lon="2.37752">
        <ele>54</ele>
        <time>2016-03-21T20:02:41Z</time>
      </trkpt>
      <trkpt lat="48.81656" lon="2.37763">
        <ele>52.599998474121</ele>
        <time>2016-03-21T20:02:53Z</time>
      </trkpt>
      <trkpt lat="48.8167" lon="2.37763">
        <ele>52</ele>
        <time>2016-03-21T20:03:32Z</time>
      </trkpt>
      <trkpt lat="48.81681" lon="2.37773">
        <ele>50.599998474121</ele>
        <time>2016-03-21T20:03:50Z</time>
      </trkpt>
      <trkpt lat="48.81633" lon="2.37814">
        <ele>50.599998474121</ele>
        <time>2016-03-21T20:04:02Z</time>
      </trkpt>
      <trkpt lat="48.81617" lon="2.37826">
        <ele>52</ele>
        <time>2016-03-21T20:04:08Z</time>
      </trkpt>
      <trkpt lat="48.81614" lon="2.37828">
        <ele>52.20000076294</ele>
        <time>2016-03-21T20:04:10Z</time>
      </trkpt>
      <trkpt lat="48.81599" lon="2.37824">
        <ele>53.400001525879</ele>
        <time>2016-03-21T20:04:18Z</time>
      </trkpt>
      <trkpt lat="48.8158" lon="2.37829">
        <ele>53.400001525879</ele>
        <time>2016-03-21T20:04:26Z</time>
      </trkpt>
      <trkpt lat="48.81565" lon="2.37846">
        <ele>51.599998474121</ele>
        <time>2016-03-21T20:04:32Z</time>
      </trkpt>
      <trkpt lat="48.81549" lon="2.37863">
        <ele>49.79999923706</ele>
        <time>2016-03-21T20:04:36Z</time>
      </trkpt>
      <trkpt lat="48.81533" lon="2.37876">
        <ele>50</ele>
        <time>2016-03-21T20:04:40Z</time>
      </trkpt>
      <trkpt lat="48.81518" lon="2.37899">
        <ele>49.20000076294</ele>
        <time>2016-03-21T20:04:45Z</time>
      </trkpt>
      <trkpt lat="48.81502" lon="2.37921">
        <ele>49.20000076294</ele>
        <time>2016-03-21T20:04:50Z</time>
      </trkpt>
      <trkpt lat="48.81484" lon="2.37941">
        <ele>49</ele>
        <time>2016-03-21T20:04:55Z</time>
      </trkpt>
      <trkpt lat="48.81471" lon="2.37966">
        <ele>47.79999923706</ele>
        <time>2016-03-21T20:05:00Z</time>
      </trkpt>
      <trkpt lat="48.81457" lon="2.37988">
        <ele>46.599998474121</ele>
        <time>2016-03-21T20:05:06Z</time>
      </trkpt>
      <trkpt lat="48.81442" lon="2.38006">
        <ele>46.20000076294</ele>
        <time>2016-03-21T20:05:12Z</time>
      </trkpt>
      <trkpt lat="48.81426" lon="2.38022">
        <ele>45.400001525879</ele>
        <time>2016-03-21T20:05:17Z</time>
      </trkpt>
      <trkpt lat="48.81408" lon="2.38035">
        <ele>45.20000076294</ele>
        <time>2016-03-21T20:05:22Z</time>
      </trkpt>
      <trkpt lat="48.81389" lon="2.38046">
        <ele>45.400001525879</ele>
        <time>2016-03-21T20:05:29Z</time>
      </trkpt>
      <trkpt lat="48.81374" lon="2.3806">
        <ele>45</ele>
        <time>2016-03-21T20:05:35Z</time>
      </trkpt>
      <trkpt lat="48.81359" lon="2.3808">
        <ele>43.79999923706</ele>
        <time>2016-03-21T20:05:41Z</time>
      </trkpt>
      <trkpt lat="48.81345" lon="2.38097">
        <ele>43.79999923706</ele>
        <time>2016-03-21T20:05:46Z</time>
      </trkpt>
      <trkpt lat="48.81331" lon="2.38114">
        <ele>43.599998474121</ele>
        <time>2016-03-21T20:05:53Z</time>
      </trkpt>
      <trkpt lat="48.8132" lon="2.38127">
        <ele>43.79999923706</ele>
        <time>2016-03-21T20:06:01Z</time>
      </trkpt>
      <trkpt lat="48.81316" lon="2.38134">
        <ele>43.79999923706</ele>
        <time>2016-03-21T20:06:06Z</time>
      </trkpt>
      <trkpt lat="48.81302" lon="2.38146">
        <ele>45</ele>
        <time>2016-03-21T20:07:00Z</time>
      </trkpt>
      <trkpt lat="48.81314" lon="2.38169">
        <ele>42.79999923706</ele>
        <time>2016-03-21T20:07:20Z</time>
      </trkpt>
      <trkpt lat="48.81328" lon="2.38193">
        <ele>40.599998474121</ele>
        <time>2016-03-21T20:07:24Z</time>
      </trkpt>
      <trkpt lat="48.81342" lon="2.38222">
        <ele>38.20000076294</ele>
        <time>2016-03-21T20:07:28Z</time>
      </trkpt>
      <trkpt lat="48.81354" lon="2.38248">
        <ele>36</ele>
        <time>2016-03-21T20:07:32Z</time>
      </trkpt>
      <trkpt lat="48.81367" lon="2.38273">
        <ele>36.400001525879</ele>
        <time>2016-03-21T20:07:37Z</time>
      </trkpt>
      <trkpt lat="48.81367" lon="2.38275">
        <ele>36.400001525879</ele>
        <time>2016-03-21T20:07:38Z</time>
      </trkpt>
      <trkpt lat="48.81353" lon="2.38292">
        <ele>37.20000076294</ele>
        <time>2016-03-21T20:07:45Z</time>
      </trkpt>
      <trkpt lat="48.81351" lon="2.38294">
        <ele>37.20000076294</ele>
        <time>2016-03-21T20:07:46Z</time>
      </trkpt>
      <trkpt lat="48.81334" lon="2.38315">
        <ele>38.20000076294</ele>
        <time>2016-03-21T20:07:52Z</time>
      </trkpt>
      <trkpt lat="48.81316" lon="2.38338">
        <ele>37.599998474121</ele>
        <time>2016-03-21T20:07:56Z</time>
      </trkpt>
      <trkpt lat="48.81299" lon="2.3835">
        <ele>37.400001525879</ele>
        <time>2016-03-21T20:08:00Z</time>
      </trkpt>
      <trkpt lat="48.81281" lon="2.38362">
        <ele>37.599998474121</ele>
        <time>2016-03-21T20:08:05Z</time>
      </trkpt>
      <trkpt lat="48.81265" lon="2.38374">
        <ele>38.20000076294</ele>
        <time>2016-03-21T20:08:09Z</time>
      </trkpt>
      <trkpt lat="48.81248" lon="2.38394">
        <ele>39</ele>
        <time>2016-03-21T20:08:12Z</time>
      </trkpt>
      <trkpt lat="48.81229" lon="2.38419">
        <ele>39</ele>
        <time>2016-03-21T20:08:15Z</time>
      </trkpt>
      <trkpt lat="48.81213" lon="2.38436">
        <ele>38.79999923706</ele>
        <time>2016-03-21T20:08:18Z</time>
      </trkpt>
      <trkpt lat="48.81199" lon="2.38455">
        <ele>39.599998474121</ele>
        <time>2016-03-21T20:08:21Z</time>
      </trkpt>
      <trkpt lat="48.8119" lon="2.38466">
        <ele>40.20000076294</ele>
        <time>2016-03-21T20:08:24Z</time>
      </trkpt>
      <trkpt lat="48.81185" lon="2.3847">
        <ele>40.400001525879</ele>
        <time>2016-03-21T20:08:28Z</time>
      </trkpt>
      <trkpt lat="48.81179" lon="2.38474">
        <ele>40.79999923706</ele>
        <time>2016-03-21T20:08:46Z</time>
      </trkpt>
      <trkpt lat="48.81162" lon="2.38487">
        <ele>41.599998474121</ele>
        <time>2016-03-21T20:08:56Z</time>
      </trkpt>
      <trkpt lat="48.8114" lon="2.38484">
        <ele>42.400001525879</ele>
        <time>2016-03-21T20:09:01Z</time>
      </trkpt>
      <trkpt lat="48.81137" lon="2.3848">
        <ele>42.400001525879</ele>
        <time>2016-03-21T20:09:02Z</time>
      </trkpt>
      <trkpt lat="48.8113" lon="2.38459">
        <ele>42.20000076294</ele>
        <time>2016-03-21T20:09:06Z</time>
      </trkpt>
      <trkpt lat="48.81124" lon="2.38428">
        <ele>41.599998474121</ele>
        <time>2016-03-21T20:09:11Z</time>
      </trkpt>
      <trkpt lat="48.81123" lon="2.38423">
        <ele>41.599998474121</ele>
        <time>2016-03-21T20:09:12Z</time>
      </trkpt>
      <trkpt lat="48.81119" lon="2.38408">
        <ele>41.599998474121</ele>
        <time>2016-03-21T20:09:16Z</time>
      </trkpt>
      <trkpt lat="48.81105" lon="2.38422">
        <ele>42.20000076294</ele>
        <time>2016-03-21T20:09:26Z</time>
      </trkpt>
      <trkpt lat="48.8109" lon="2.38438">
        <ele>43</ele>
        <time>2016-03-21T20:09:30Z</time>
      </trkpt>
      <trkpt lat="48.81074" lon="2.38451">
        <ele>44</ele>
        <time>2016-03-21T20:09:34Z</time>
      </trkpt>
      <trkpt lat="48.81062" lon="2.38487">
        <ele>43.79999923706</ele>
        <time>2016-03-21T20:09:40Z</time>
      </trkpt>
      <trkpt lat="48.8105" lon="2.3851">
        <ele>43.20000076294</ele>
        <time>2016-03-21T20:09:44Z</time>
      </trkpt>
      <trkpt lat="48.81026" lon="2.38525">
        <ele>42.20000076294</ele>
        <time>2016-03-21T20:09:48Z</time>
      </trkpt>
      <trkpt lat="48.81005" lon="2.38542">
        <ele>43.400001525879</ele>
        <time>2016-03-21T20:09:52Z</time>
      </trkpt>
      <trkpt lat="48.80997" lon="2.3855">
        <ele>44.20000076294</ele>
        <time>2016-03-21T20:09:54Z</time>
      </trkpt>
      <trkpt lat="48.80982" lon="2.3857">
        <ele>44.599998474121</ele>
        <time>2016-03-21T20:09:58Z</time>
      </trkpt>
      <trkpt lat="48.80968" lon="2.38592">
        <ele>45</ele>
        <time>2016-03-21T20:10:02Z</time>
      </trkpt>
      <trkpt lat="48.80955" lon="2.38614">
        <ele>44.79999923706</ele>
        <time>2016-03-21T20:10:06Z</time>
      </trkpt>
      <trkpt lat="48.8094" lon="2.38633">
        <ele>43.599998474121</ele>
        <time>2016-03-21T20:10:10Z</time>
      </trkpt>
      <trkpt lat="48.80924" lon="2.38652">
        <ele>43</ele>
        <time>2016-03-21T20:10:14Z</time>
      </trkpt>
      <trkpt lat="48.80909" lon="2.38669">
        <ele>44.79999923706</ele>
        <time>2016-03-21T20:10:18Z</time>
      </trkpt>
      <trkpt lat="48.80893" lon="2.38688">
        <ele>45.79999923706</ele>
        <time>2016-03-21T20:10:22Z</time>
      </trkpt>
      <trkpt lat="48.80891" lon="2.38694">
        <ele>45.79999923706</ele>
        <time>2016-03-21T20:10:23Z</time>
      </trkpt>
      <trkpt lat="48.80878" lon="2.38719">
        <ele>46</ele>
        <time>2016-03-21T20:10:28Z</time>
      </trkpt>
      <trkpt lat="48.8087" lon="2.38732">
        <ele>46.20000076294</ele>
        <time>2016-03-21T20:10:31Z</time>
      </trkpt>
      <trkpt lat="48.80858" lon="2.38757">
        <ele>46.20000076294</ele>
        <time>2016-03-21T20:10:36Z</time>
      </trkpt>
      <trkpt lat="48.80852" lon="2.38766">
        <ele>45.599998474121</ele>
        <time>2016-03-21T20:10:38Z</time>
      </trkpt>
      <trkpt lat="48.8084" lon="2.38791">
        <ele>44.20000076294</ele>
        <time>2016-03-21T20:10:43Z</time>
      </trkpt>
      <trkpt lat="48.80824" lon="2.3881">
        <ele>44</ele>
        <time>2016-03-21T20:10:47Z</time>
      </trkpt>
      <trkpt lat="48.80814" lon="2.38825">
        <ele>44</ele>
        <time>2016-03-21T20:10:50Z</time>
      </trkpt>
      <trkpt lat="48.808" lon="2.38852">
        <ele>44.400001525879</ele>
        <time>2016-03-21T20:10:55Z</time>
      </trkpt>
      <trkpt lat="48.80786" lon="2.38875">
        <ele>44</ele>
        <time>2016-03-21T20:11:00Z</time>
      </trkpt>
      <trkpt lat="48.80782" lon="2.38883">
        <ele>43.79999923706</ele>
        <time>2016-03-21T20:11:02Z</time>
      </trkpt>
      <trkpt lat="48.80776" lon="2.38888">
        <ele>43.599998474121</ele>
        <time>2016-03-21T20:11:05Z</time>
      </trkpt>
      <trkpt lat="48.80762" lon="2.38908">
        <ele>43.20000076294</ele>
        <time>2016-03-21T20:11:20Z</time>
      </trkpt>
      <trkpt lat="48.80744" lon="2.38926">
        <ele>43.599998474121</ele>
        <time>2016-03-21T20:11:27Z</time>
      </trkpt>
      <trkpt lat="48.80729" lon="2.38943">
        <ele>43.79999923706</ele>
        <time>2016-03-21T20:11:33Z</time>
      </trkpt>
      <trkpt lat="48.80714" lon="2.38959">
        <ele>43.79999923706</ele>
        <time>2016-03-21T20:11:38Z</time>
      </trkpt>
      <trkpt lat="48.807" lon="2.38977">
        <ele>43.599998474121</ele>
        <time>2016-03-21T20:11:43Z</time>
      </trkpt>
      <trkpt lat="48.80683" lon="2.38992">
        <ele>44</ele>
        <time>2016-03-21T20:11:48Z</time>
      </trkpt>
      <trkpt lat="48.80667" lon="2.39006">
        <ele>44.79999923706</ele>
        <time>2016-03-21T20:11:53Z</time>
      </trkpt>
      <trkpt lat="48.80654" lon="2.39034">
        <ele>45</ele>
        <time>2016-03-21T20:11:58Z</time>
      </trkpt>
      <trkpt lat="48.80638" lon="2.39052">
        <ele>45.400001525879</ele>
        <time>2016-03-21T20:12:04Z</time>
      </trkpt>
      <trkpt lat="48.80623" lon="2.39072">
        <ele>45.20000076294</ele>
        <time>2016-03-21T20:12:09Z</time>
      </trkpt>
      <trkpt lat="48.8061" lon="2.3909">
        <ele>45.400001525879</ele>
        <time>2016-03-21T20:12:14Z</time>
      </trkpt>
      <trkpt lat="48.80597" lon="2.39111">
        <ele>46.79999923706</ele>
        <time>2016-03-21T20:12:20Z</time>
      </trkpt>
      <trkpt lat="48.80583" lon="2.39133">
        <ele>48.79999923706</ele>
        <time>2016-03-21T20:12:26Z</time>
      </trkpt>
      <trkpt lat="48.80565" lon="2.39141">
        <ele>51.400001525879</ele>
        <time>2016-03-21T20:12:32Z</time>
      </trkpt>
      <trkpt lat="48.80547" lon="2.39149">
        <ele>53.79999923706</ele>
        <time>2016-03-21T20:12:38Z</time>
      </trkpt>
      <trkpt lat="48.80533" lon="2.3917">
        <ele>55</ele>
        <time>2016-03-21T20:12:44Z</time>
      </trkpt>
      <trkpt lat="48.8052" lon="2.3919">
        <ele>54.599998474121</ele>
        <time>2016-03-21T20:12:50Z</time>
      </trkpt>
      <trkpt lat="48.80508" lon="2.39212">
        <ele>52.79999923706</ele>
        <time>2016-03-21T20:12:56Z</time>
      </trkpt>
      <trkpt lat="48.80496" lon="2.39233">
        <ele>51.599998474121</ele>
        <time>2016-03-21T20:13:02Z</time>
      </trkpt>
      <trkpt lat="48.80486" lon="2.39256">
        <ele>51.400001525879</ele>
        <time>2016-03-21T20:13:08Z</time>
      </trkpt>
      <trkpt lat="48.80474" lon="2.39282">
        <ele>50.599998474121</ele>
        <time>2016-03-21T20:13:15Z</time>
      </trkpt>
      <trkpt lat="48.80464" lon="2.39307">
        <ele>50</ele>
        <time>2016-03-21T20:13:22Z</time>
      </trkpt>
      <trkpt lat="48.80452" lon="2.39328">
        <ele>50</ele>
        <time>2016-03-21T20:13:28Z</time>
      </trkpt>
      <trkpt lat="48.8044" lon="2.39351">
        <ele>50</ele>
        <time>2016-03-21T20:13:34Z</time>
      </trkpt>
      <trkpt lat="48.80425" lon="2.39373">
        <ele>49</ele>
        <time>2016-03-21T20:13:40Z</time>
      </trkpt>
      <trkpt lat="48.80412" lon="2.39393">
        <ele>48</ele>
        <time>2016-03-21T20:13:45Z</time>
      </trkpt>
      <trkpt lat="48.80401" lon="2.39414">
        <ele>47.400001525879</ele>
        <time>2016-03-21T20:13:50Z</time>
      </trkpt>
      <trkpt lat="48.80387" lon="2.39438">
        <ele>46.20000076294</ele>
        <time>2016-03-21T20:13:55Z</time>
      </trkpt>
      <trkpt lat="48.80375" lon="2.39459">
        <ele>45.400001525879</ele>
        <time>2016-03-21T20:14:00Z</time>
      </trkpt>
      <trkpt lat="48.80361" lon="2.39481">
        <ele>44.599998474121</ele>
        <time>2016-03-21T20:14:06Z</time>
      </trkpt>
      <trkpt lat="48.80349" lon="2.39506">
        <ele>43.79999923706</ele>
        <time>2016-03-21T20:14:11Z</time>
      </trkpt>
      <trkpt lat="48.80335" lon="2.3953">
        <ele>43</ele>
        <time>2016-03-21T20:14:16Z</time>
      </trkpt>
      <trkpt lat="48.80324" lon="2.39552">
        <ele>42.20000076294</ele>
        <time>2016-03-21T20:14:20Z</time>
      </trkpt>
      <trkpt lat="48.8031" lon="2.39578">
        <ele>40.20000076294</ele>
        <time>2016-03-21T20:14:25Z</time>
      </trkpt>
      <trkpt lat="48.80296" lon="2.39602">
        <ele>39.79999923706</ele>
        <time>2016-03-21T20:14:30Z</time>
      </trkpt>
      <trkpt lat="48.80285" lon="2.39623">
        <ele>39.599998474121</ele>
        <time>2016-03-21T20:14:35Z</time>
      </trkpt>
      <trkpt lat="48.8027" lon="2.39627">
        <ele>39.400001525879</ele>
        <time>2016-03-21T20:14:41Z</time>
      </trkpt>
      <trkpt lat="48.80266" lon="2.39617">
        <ele>39.599998474121</ele>
        <time>2016-03-21T20:15:13Z</time>
      </trkpt>
      <trkpt lat="48.80253" lon="2.39634">
        <ele>39.400001525879</ele>
        <time>2016-03-21T20:15:43Z</time>
      </trkpt>
      <trkpt lat="48.80244" lon="2.39662">
        <ele>38.400001525879</ele>
        <time>2016-03-21T20:15:49Z</time>
      </trkpt>
      <trkpt lat="48.80236" lon="2.39688">
        <ele>37.400001525879</ele>
        <time>2016-03-21T20:15:54Z</time>
      </trkpt>
      <trkpt lat="48.80221" lon="2.39696">
        <ele>36.599998474121</ele>
        <time>2016-03-21T20:15:59Z</time>
      </trkpt>
      <trkpt lat="48.80202" lon="2.39683">
        <ele>36.599998474121</ele>
        <time>2016-03-21T20:16:05Z</time>
      </trkpt>
      <trkpt lat="48.80186" lon="2.39669">
        <ele>36.79999923706</ele>
        <time>2016-03-21T20:16:10Z</time>
      </trkpt>
      <trkpt lat="48.80168" lon="2.39654">
        <ele>36.20000076294</ele>
        <time>2016-03-21T20:16:15Z</time>
      </trkpt>
      <trkpt lat="48.8015" lon="2.39637">
        <ele>35.79999923706</ele>
        <time>2016-03-21T20:16:20Z</time>
      </trkpt>
      <trkpt lat="48.80132" lon="2.39618">
        <ele>35.400001525879</ele>
        <time>2016-03-21T20:16:25Z</time>
      </trkpt>
      <trkpt lat="48.80115" lon="2.39602">
        <ele>35</ele>
        <time>2016-03-21T20:16:30Z</time>
      </trkpt>
      <trkpt lat="48.80097" lon="2.39581">
        <ele>34.79999923706</ele>
        <time>2016-03-21T20:16:35Z</time>
      </trkpt>
      <trkpt lat="48.80081" lon="2.39562">
        <ele>34.79999923706</ele>
        <time>2016-03-21T20:16:39Z</time>
      </trkpt>
      <trkpt lat="48.80074" lon="2.39553">
        <ele>35</ele>
        <time>2016-03-21T20:16:41Z</time>
      </trkpt>
      <trkpt lat="48.80058" lon="2.39534">
        <ele>35</ele>
        <time>2016-03-21T20:16:45Z</time>
      </trkpt>
      <trkpt lat="48.80042" lon="2.39517">
        <ele>35.20000076294</ele>
        <time>2016-03-21T20:16:49Z</time>
      </trkpt>
      <trkpt lat="48.8003" lon="2.39506">
        <ele>35.20000076294</ele>
        <time>2016-03-21T20:16:52Z</time>
      </trkpt>
      <trkpt lat="48.80015" lon="2.39488">
        <ele>35</ele>
        <time>2016-03-21T20:16:56Z</time>
      </trkpt>
      <trkpt lat="48.8" lon="2.39469">
        <ele>35</ele>
        <time>2016-03-21T20:17:00Z</time>
      </trkpt>
      <trkpt lat="48.79991" lon="2.39453">
        <ele>35</ele>
        <time>2016-03-21T20:17:03Z</time>
      </trkpt>
      <trkpt lat="48.79977" lon="2.39428">
        <ele>35.400001525879</ele>
        <time>2016-03-21T20:17:08Z</time>
      </trkpt>
      <trkpt lat="48.79975" lon="2.39424">
        <ele>35.599998474121</ele>
        <time>2016-03-21T20:17:09Z</time>
      </trkpt>
      <trkpt lat="48.79967" lon="2.39406">
        <ele>35.599998474121</ele>
        <time>2016-03-21T20:17:13Z</time>
      </trkpt>
      <trkpt lat="48.79955" lon="2.3938">
        <ele>35.599998474121</ele>
        <time>2016-03-21T20:17:19Z</time>
      </trkpt>
      <trkpt lat="48.79945" lon="2.39356">
        <ele>35.599998474121</ele>
        <time>2016-03-21T20:17:24Z</time>
      </trkpt>
      <trkpt lat="48.79936" lon="2.39332">
        <ele>36</ele>
        <time>2016-03-21T20:17:29Z</time>
      </trkpt>
      <trkpt lat="48.79926" lon="2.39306">
        <ele>37.599998474121</ele>
        <time>2016-03-21T20:17:35Z</time>
      </trkpt>
      <trkpt lat="48.79917" lon="2.39277">
        <ele>39.20000076294</ele>
        <time>2016-03-21T20:17:41Z</time>
      </trkpt>
      <trkpt lat="48.79911" lon="2.39251">
        <ele>40.79999923706</ele>
        <time>2016-03-21T20:17:47Z</time>
      </trkpt>
      <trkpt lat="48.79906" lon="2.39234">
        <ele>41.79999923706</ele>
        <time>2016-03-21T20:17:54Z</time>
      </trkpt>
      <trkpt lat="48.79888" lon="2.39227">
        <ele>42.20000076294</ele>
        <time>2016-03-21T20:18:04Z</time>
      </trkpt>
      <trkpt lat="48.7987" lon="2.39222">
        <ele>42.599998474121</ele>
        <time>2016-03-21T20:18:11Z</time>
      </trkpt>
      <trkpt lat="48.7985" lon="2.39217">
        <ele>42.79999923706</ele>
        <time>2016-03-21T20:18:17Z</time>
      </trkpt>
      <trkpt lat="48.7983" lon="2.39213">
        <ele>42.79999923706</ele>
        <time>2016-03-21T20:18:23Z</time>
      </trkpt>
      <trkpt lat="48.79811" lon="2.39207">
        <ele>43</ele>
        <time>2016-03-21T20:18:29Z</time>
      </trkpt>
      <trkpt lat="48.7979" lon="2.3921">
        <ele>42.79999923706</ele>
        <time>2016-03-21T20:18:39Z</time>
      </trkpt>
      <trkpt lat="48.79771" lon="2.39207">
        <ele>43</ele>
        <time>2016-03-21T20:18:46Z</time>
      </trkpt>
      <trkpt lat="48.79751" lon="2.39206">
        <ele>42.20000076294</ele>
        <time>2016-03-21T20:18:53Z</time>
      </trkpt>
      <trkpt lat="48.79733" lon="2.39201">
        <ele>41.79999923706</ele>
        <time>2016-03-21T20:18:59Z</time>
      </trkpt>
      <trkpt lat="48.79718" lon="2.39194">
        <ele>41.79999923706</ele>
        <time>2016-03-21T20:19:05Z</time>
      </trkpt>
      <trkpt lat="48.79711" lon="2.39165">
        <ele>42.79999923706</ele>
        <time>2016-03-21T20:19:13Z</time>
      </trkpt>
      <trkpt lat="48.7971" lon="2.39157">
        <ele>42.79999923706</ele>
        <time>2016-03-21T20:19:15Z</time>
      </trkpt>
      <trkpt lat="48.79708" lon="2.3913">
        <ele>43.20000076294</ele>
        <time>2016-03-21T20:19:28Z</time>
      </trkpt>
      <trkpt lat="48.79708" lon="2.39127">
        <ele>43.20000076294</ele>
        <time>2016-03-21T20:19:31Z</time>
      </trkpt>
      <trkpt lat="48.79687" lon="2.39127">
        <ele>42.400001525879</ele>
        <time>2016-03-21T20:19:46Z</time>
      </trkpt>
      <trkpt lat="48.79665" lon="2.39129">
        <ele>43</ele>
        <time>2016-03-21T20:19:51Z</time>
      </trkpt>
      <trkpt lat="48.79645" lon="2.3913">
        <ele>43.400001525879</ele>
        <time>2016-03-21T20:19:56Z</time>
      </trkpt>
      <trkpt lat="48.79626" lon="2.39135">
        <ele>43.400001525879</ele>
        <time>2016-03-21T20:20:00Z</time>
      </trkpt>
      <trkpt lat="48.79607" lon="2.39144">
        <ele>43.400001525879</ele>
        <time>2016-03-21T20:20:04Z</time>
      </trkpt>
      <trkpt lat="48.79588" lon="2.39151">
        <ele>43.400001525879</ele>
        <time>2016-03-21T20:20:08Z</time>
      </trkpt>
      <trkpt lat="48.79564" lon="2.39157">
        <ele>43</ele>
        <time>2016-03-21T20:20:12Z</time>
      </trkpt>
      <trkpt lat="48.79545" lon="2.39159">
        <ele>42.599998474121</ele>
        <time>2016-03-21T20:20:15Z</time>
      </trkpt>
      <trkpt lat="48.79541" lon="2.3916">
        <ele>42.400001525879</ele>
        <time>2016-03-21T20:20:16Z</time>
      </trkpt>
      <trkpt lat="48.79521" lon="2.39172">
        <ele>41.79999923706</ele>
        <time>2016-03-21T20:20:21Z</time>
      </trkpt>
      <trkpt lat="48.79501" lon="2.39183">
        <ele>42.599998474121</ele>
        <time>2016-03-21T20:20:26Z</time>
      </trkpt>
      <trkpt lat="48.79482" lon="2.39193">
        <ele>43.599998474121</ele>
        <time>2016-03-21T20:20:30Z</time>
      </trkpt>
      <trkpt lat="48.79461" lon="2.39205">
        <ele>44</ele>
        <time>2016-03-21T20:20:34Z</time>
      </trkpt>
      <trkpt lat="48.79442" lon="2.39216">
        <ele>44.20000076294</ele>
        <time>2016-03-21T20:20:38Z</time>
      </trkpt>
      <trkpt lat="48.79422" lon="2.39228">
        <ele>42.79999923706</ele>
        <time>2016-03-21T20:20:42Z</time>
      </trkpt>
      <trkpt lat="48.79402" lon="2.3924">
        <ele>42</ele>
        <time>2016-03-21T20:20:46Z</time>
      </trkpt>
      <trkpt lat="48.79382" lon="2.39252">
        <ele>41</ele>
        <time>2016-03-21T20:20:50Z</time>
      </trkpt>
      <trkpt lat="48.7937" lon="2.3926">
        <ele>40.400001525879</ele>
        <time>2016-03-21T20:20:53Z</time>
      </trkpt>
      <trkpt lat="48.79351" lon="2.39268">
        <ele>39.599998474121</ele>
        <time>2016-03-21T20:20:57Z</time>
      </trkpt>
      <trkpt lat="48.79329" lon="2.39275">
        <ele>39</ele>
        <time>2016-03-21T20:21:01Z</time>
      </trkpt>
      <trkpt lat="48.79308" lon="2.39287">
        <ele>38.20000076294</ele>
        <time>2016-03-21T20:21:05Z</time>
      </trkpt>
      <trkpt lat="48.79298" lon="2.39287">
        <ele>38.599998474121</ele>
        <time>2016-03-21T20:21:06Z</time>
      </trkpt>
      <trkpt lat="48.79283" lon="2.39278">
        <ele>39.20000076294</ele>
        <time>2016-03-21T20:21:10Z</time>
      </trkpt>
      <trkpt lat="48.79281" lon="2.39295">
        <ele>38.599998474121</ele>
        <time>2016-03-21T20:21:32Z</time>
      </trkpt>
      <trkpt lat="48.79284" lon="2.39327">
        <ele>37</ele>
        <time>2016-03-21T20:21:38Z</time>
      </trkpt>
      <trkpt lat="48.79285" lon="2.39362">
        <ele>36.79999923706</ele>
        <time>2016-03-21T20:21:43Z</time>
      </trkpt>
      <trkpt lat="48.79288" lon="2.39393">
        <ele>36.400001525879</ele>
        <time>2016-03-21T20:21:47Z</time>
      </trkpt>
      <trkpt lat="48.79289" lon="2.39421">
        <ele>36.20000076294</ele>
        <time>2016-03-21T20:21:50Z</time>
      </trkpt>
      <trkpt lat="48.79291" lon="2.39449">
        <ele>36</ele>
        <time>2016-03-21T20:21:53Z</time>
      </trkpt>
      <trkpt lat="48.79293" lon="2.39481">
        <ele>36</ele>
        <time>2016-03-21T20:21:57Z</time>
      </trkpt>
      <trkpt lat="48.79294" lon="2.39495">
        <ele>36</ele>
        <time>2016-03-21T20:21:59Z</time>
      </trkpt>
      <trkpt lat="48.79296" lon="2.39524">
        <ele>35.20000076294</ele>
        <time>2016-03-21T20:22:03Z</time>
      </trkpt>
      <trkpt lat="48.79296" lon="2.3953">
        <ele>35.20000076294</ele>
        <time>2016-03-21T20:22:04Z</time>
      </trkpt>
      <trkpt lat="48.793" lon="2.39554">
        <ele>35</ele>
        <time>2016-03-21T20:22:10Z</time>
      </trkpt>
      <trkpt lat="48.79301" lon="2.39558">
        <ele>35</ele>
        <time>2016-03-21T20:22:11Z</time>
      </trkpt>
      <trkpt lat="48.79309" lon="2.39584">
        <ele>34.599998474121</ele>
        <time>2016-03-21T20:22:18Z</time>
      </trkpt>
      <trkpt lat="48.7931" lon="2.39588">
        <ele>34.599998474121</ele>
        <time>2016-03-21T20:22:19Z</time>
      </trkpt>
      <trkpt lat="48.79316" lon="2.39617">
        <ele>34.400001525879</ele>
        <time>2016-03-21T20:22:25Z</time>
      </trkpt>
      <trkpt lat="48.79322" lon="2.39646">
        <ele>33.599998474121</ele>
        <time>2016-03-21T20:22:30Z</time>
      </trkpt>
      <trkpt lat="48.79329" lon="2.39677">
        <ele>33.20000076294</ele>
        <time>2016-03-21T20:22:35Z</time>
      </trkpt>
      <trkpt lat="48.79335" lon="2.39704">
        <ele>33.400001525879</ele>
        <time>2016-03-21T20:22:39Z</time>
      </trkpt>
      <trkpt lat="48.79341" lon="2.39734">
        <ele>33.79999923706</ele>
        <time>2016-03-21T20:22:44Z</time>
      </trkpt>
      <trkpt lat="48.79347" lon="2.39761">
        <ele>34</ele>
        <time>2016-03-21T20:22:48Z</time>
      </trkpt>
      <trkpt lat="48.79352" lon="2.39781">
        <ele>34</ele>
        <time>2016-03-21T20:22:51Z</time>
      </trkpt>
      <trkpt lat="48.79356" lon="2.39807">
        <ele>34</ele>
        <time>2016-03-21T20:22:55Z</time>
      </trkpt>
      <trkpt lat="48.79359" lon="2.39821">
        <ele>34</ele>
        <time>2016-03-21T20:22:57Z</time>
      </trkpt>
      <trkpt lat="48.79364" lon="2.3985">
        <ele>34.20000076294</ele>
        <time>2016-03-21T20:23:01Z</time>
      </trkpt>
      <trkpt lat="48.79368" lon="2.39879">
        <ele>34.20000076294</ele>
        <time>2016-03-21T20:23:05Z</time>
      </trkpt>
      <trkpt lat="48.79373" lon="2.39908">
        <ele>34.20000076294</ele>
        <time>2016-03-21T20:23:09Z</time>
      </trkpt>
      <trkpt lat="48.79374" lon="2.39915">
        <ele>34.20000076294</ele>
        <time>2016-03-21T20:23:10Z</time>
      </trkpt>
      <trkpt lat="48.79382" lon="2.39941">
        <ele>34.400001525879</ele>
        <time>2016-03-21T20:23:14Z</time>
      </trkpt>
      <trkpt lat="48.79383" lon="2.39948">
        <ele>34.20000076294</ele>
        <time>2016-03-21T20:23:15Z</time>
      </trkpt>
      <trkpt lat="48.79387" lon="2.39968">
        <ele>34.20000076294</ele>
        <time>2016-03-21T20:23:18Z</time>
      </trkpt>
      <trkpt lat="48.79389" lon="2.39981">
        <ele>34</ele>
        <time>2016-03-21T20:23:20Z</time>
      </trkpt>
      <trkpt lat="48.79394" lon="2.40013">
        <ele>33.79999923706</ele>
        <time>2016-03-21T20:23:25Z</time>
      </trkpt>
      <trkpt lat="48.79399" lon="2.40045">
        <ele>33.599998474121</ele>
        <time>2016-03-21T20:23:30Z</time>
      </trkpt>
      <trkpt lat="48.79404" lon="2.40071">
        <ele>33.20000076294</ele>
        <time>2016-03-21T20:23:34Z</time>
      </trkpt>
      <trkpt lat="48.79411" lon="2.40097">
        <ele>33.20000076294</ele>
        <time>2016-03-21T20:23:38Z</time>
      </trkpt>
      <trkpt lat="48.79413" lon="2.4011">
        <ele>33</ele>
        <time>2016-03-21T20:23:40Z</time>
      </trkpt>
      <trkpt lat="48.79415" lon="2.40139">
        <ele>32.79999923706</ele>
        <time>2016-03-21T20:23:44Z</time>
      </trkpt>
      <trkpt lat="48.79421" lon="2.40169">
        <ele>32.79999923706</ele>
        <time>2016-03-21T20:23:49Z</time>
      </trkpt>
      <trkpt lat="48.79429" lon="2.40199">
        <ele>32.400001525879</ele>
        <time>2016-03-21T20:23:54Z</time>
      </trkpt>
      <trkpt lat="48.79436" lon="2.40225">
        <ele>32.20000076294</ele>
        <time>2016-03-21T20:23:59Z</time>
      </trkpt>
      <trkpt lat="48.7944" lon="2.40238">
        <ele>32.20000076294</ele>
        <time>2016-03-21T20:24:02Z</time>
      </trkpt>
      <trkpt lat="48.79445" lon="2.40256">
        <ele>32</ele>
        <time>2016-03-21T20:24:07Z</time>
      </trkpt>
      <trkpt lat="48.79449" lon="2.40267">
        <ele>32.20000076294</ele>
        <time>2016-03-21T20:24:10Z</time>
      </trkpt>
      <trkpt lat="48.79458" lon="2.40296">
        <ele>32.20000076294</ele>
        <time>2016-03-21T20:24:17Z</time>
      </trkpt>
      <trkpt lat="48.79464" lon="2.40322">
        <ele>32.400001525879</ele>
        <time>2016-03-21T20:24:23Z</time>
      </trkpt>
      <trkpt lat="48.79471" lon="2.40348">
        <ele>32.400001525879</ele>
        <time>2016-03-21T20:24:28Z</time>
      </trkpt>
      <trkpt lat="48.7948" lon="2.40381">
        <ele>32.79999923706</ele>
        <time>2016-03-21T20:24:33Z</time>
      </trkpt>
      <trkpt lat="48.7949" lon="2.40408">
        <ele>33.599998474121</ele>
        <time>2016-03-21T20:24:37Z</time>
      </trkpt>
      <trkpt lat="48.79497" lon="2.40438">
        <ele>34.20000076294</ele>
        <time>2016-03-21T20:24:42Z</time>
      </trkpt>
      <trkpt lat="48.79505" lon="2.40466">
        <ele>34.599998474121</ele>
        <time>2016-03-21T20:24:47Z</time>
      </trkpt>
      <trkpt lat="48.79511" lon="2.40492">
        <ele>35</ele>
        <time>2016-03-21T20:24:52Z</time>
      </trkpt>
      <trkpt lat="48.79517" lon="2.4052">
        <ele>35</ele>
        <time>2016-03-21T20:24:57Z</time>
      </trkpt>
      <trkpt lat="48.79524" lon="2.40548">
        <ele>35</ele>
        <time>2016-03-21T20:25:03Z</time>
      </trkpt>
      <trkpt lat="48.7953" lon="2.40577">
        <ele>34.79999923706</ele>
        <time>2016-03-21T20:25:09Z</time>
      </trkpt>
      <trkpt lat="48.79536" lon="2.40608">
        <ele>34.20000076294</ele>
        <time>2016-03-21T20:25:15Z</time>
      </trkpt>
      <trkpt lat="48.79541" lon="2.40636">
        <ele>33</ele>
        <time>2016-03-21T20:25:20Z</time>
      </trkpt>
      <trkpt lat="48.79544" lon="2.4067">
        <ele>31.799999237061</ele>
        <time>2016-03-21T20:25:25Z</time>
      </trkpt>
      <trkpt lat="48.79546" lon="2.40701">
        <ele>32.400001525879</ele>
        <time>2016-03-21T20:25:29Z</time>
      </trkpt>
      <trkpt lat="48.79548" lon="2.40735">
        <ele>33.400001525879</ele>
        <time>2016-03-21T20:25:33Z</time>
      </trkpt>
      <trkpt lat="48.79551" lon="2.40768">
        <ele>33.79999923706</ele>
        <time>2016-03-21T20:25:37Z</time>
      </trkpt>
      <trkpt lat="48.79553" lon="2.40802">
        <ele>34</ele>
        <time>2016-03-21T20:25:41Z</time>
      </trkpt>
      <trkpt lat="48.79556" lon="2.40833">
        <ele>34.400001525879</ele>
        <time>2016-03-21T20:25:44Z</time>
      </trkpt>
      <trkpt lat="48.79557" lon="2.40842">
        <ele>34.400001525879</ele>
        <time>2016-03-21T20:25:45Z</time>
      </trkpt>
      <trkpt lat="48.79559" lon="2.40869">
        <ele>34</ele>
        <time>2016-03-21T20:25:48Z</time>
      </trkpt>
      <trkpt lat="48.79561" lon="2.40897">
        <ele>34.400001525879</ele>
        <time>2016-03-21T20:25:51Z</time>
      </trkpt>
      <trkpt lat="48.79565" lon="2.40935">
        <ele>34.20000076294</ele>
        <time>2016-03-21T20:25:55Z</time>
      </trkpt>
      <trkpt lat="48.79569" lon="2.40966">
        <ele>33.79999923706</ele>
        <time>2016-03-21T20:25:58Z</time>
      </trkpt>
      <trkpt lat="48.79573" lon="2.40996">
        <ele>33.400001525879</ele>
        <time>2016-03-21T20:26:02Z</time>
      </trkpt>
      <trkpt lat="48.79573" lon="2.41003">
        <ele>33.400001525879</ele>
        <time>2016-03-21T20:26:03Z</time>
      </trkpt>
      <trkpt lat="48.79575" lon="2.41032">
        <ele>33</ele>
        <time>2016-03-21T20:26:07Z</time>
      </trkpt>
      <trkpt lat="48.79575" lon="2.41039">
        <ele>32.79999923706</ele>
        <time>2016-03-21T20:26:08Z</time>
      </trkpt>
      <trkpt lat="48.79576" lon="2.4106">
        <ele>32.79999923706</ele>
        <time>2016-03-21T20:26:11Z</time>
      </trkpt>
      <trkpt lat="48.79577" lon="2.41089">
        <ele>33.20000076294</ele>
        <time>2016-03-21T20:26:15Z</time>
      </trkpt>
      <trkpt lat="48.79579" lon="2.4112">
        <ele>33.79999923706</ele>
        <time>2016-03-21T20:26:19Z</time>
      </trkpt>
      <trkpt lat="48.79582" lon="2.41151">
        <ele>34.400001525879</ele>
        <time>2016-03-21T20:26:24Z</time>
      </trkpt>
      <trkpt lat="48.79584" lon="2.4118">
        <ele>35.20000076294</ele>
        <time>2016-03-21T20:26:29Z</time>
      </trkpt>
      <trkpt lat="48.79584" lon="2.41209">
        <ele>35.79999923706</ele>
        <time>2016-03-21T20:26:34Z</time>
      </trkpt>
      <trkpt lat="48.79585" lon="2.41239">
        <ele>36.20000076294</ele>
        <time>2016-03-21T20:26:40Z</time>
      </trkpt>
      <trkpt lat="48.79582" lon="2.41254">
        <ele>36</ele>
        <time>2016-03-21T20:26:44Z</time>
      </trkpt>
      <trkpt lat="48.79581" lon="2.41257">
        <ele>35.79999923706</ele>
        <time>2016-03-21T20:26:45Z</time>
      </trkpt>
      <trkpt lat="48.79579" lon="2.41263">
        <ele>35.79999923706</ele>
        <time>2016-03-21T20:26:47Z</time>
      </trkpt>
      <trkpt lat="48.79579" lon="2.4127">
        <ele>35.79999923706</ele>
        <time>2016-03-21T20:26:55Z</time>
      </trkpt>
      <trkpt lat="48.79584" lon="2.41278">
        <ele>35.599998474121</ele>
        <time>2016-03-21T20:28:08Z</time>
      </trkpt>
      <trkpt lat="48.79579" lon="2.41277">
        <ele>35.599998474121</ele>
        <time>2016-03-21T20:28:11Z</time>
      </trkpt>
      <trkpt lat="48.79561" lon="2.41285">
        <ele>35.599998474121</ele>
        <time>2016-03-21T20:28:18Z</time>
      </trkpt>
      <trkpt lat="48.79541" lon="2.41294">
        <ele>35.400001525879</ele>
        <time>2016-03-21T20:28:24Z</time>
      </trkpt>
      <trkpt lat="48.7952" lon="2.41301">
        <ele>35.400001525879</ele>
        <time>2016-03-21T20:28:29Z</time>
      </trkpt>
      <trkpt lat="48.79499" lon="2.41311">
        <ele>34.79999923706</ele>
        <time>2016-03-21T20:28:34Z</time>
      </trkpt>
      <trkpt lat="48.79479" lon="2.4132">
        <ele>34.79999923706</ele>
        <time>2016-03-21T20:28:39Z</time>
      </trkpt>
      <trkpt lat="48.79458" lon="2.41328">
        <ele>35</ele>
        <time>2016-03-21T20:28:44Z</time>
      </trkpt>
      <trkpt lat="48.79436" lon="2.41332">
        <ele>35</ele>
        <time>2016-03-21T20:28:50Z</time>
      </trkpt>
      <trkpt lat="48.79416" lon="2.41339">
        <ele>34.400001525879</ele>
        <time>2016-03-21T20:28:55Z</time>
      </trkpt>
      <trkpt lat="48.79395" lon="2.41348">
        <ele>34</ele>
        <time>2016-03-21T20:29:00Z</time>
      </trkpt>
      <trkpt lat="48.7938" lon="2.41363">
        <ele>33.79999923706</ele>
        <time>2016-03-21T20:29:05Z</time>
      </trkpt>
      <trkpt lat="48.79379" lon="2.4139">
        <ele>34.400001525879</ele>
        <time>2016-03-21T20:29:11Z</time>
      </trkpt>
      <trkpt lat="48.79382" lon="2.41418">
        <ele>35</ele>
        <time>2016-03-21T20:29:16Z</time>
      </trkpt>
      <trkpt lat="48.79387" lon="2.41448">
        <ele>35</ele>
        <time>2016-03-21T20:29:21Z</time>
      </trkpt>
      <trkpt lat="48.79393" lon="2.41478">
        <ele>35</ele>
        <time>2016-03-21T20:29:26Z</time>
      </trkpt>
      <trkpt lat="48.79398" lon="2.41508">
        <ele>35.20000076294</ele>
        <time>2016-03-21T20:29:31Z</time>
      </trkpt>
      <trkpt lat="48.79399" lon="2.41538">
        <ele>35.400001525879</ele>
        <time>2016-03-21T20:29:37Z</time>
      </trkpt>
      <trkpt lat="48.79404" lon="2.41563">
        <ele>35.599998474121</ele>
        <time>2016-03-21T20:29:43Z</time>
      </trkpt>
      <trkpt lat="48.7941" lon="2.41589">
        <ele>35.599998474121</ele>
        <time>2016-03-21T20:29:50Z</time>
      </trkpt>
      <trkpt lat="48.79414" lon="2.41618">
        <ele>35.79999923706</ele>
        <time>2016-03-21T20:29:56Z</time>
      </trkpt>
      <trkpt lat="48.79419" lon="2.41648">
        <ele>35.79999923706</ele>
        <time>2016-03-21T20:30:01Z</time>
      </trkpt>
      <trkpt lat="48.79424" lon="2.41682">
        <ele>36.400001525879</ele>
        <time>2016-03-21T20:30:06Z</time>
      </trkpt>
      <trkpt lat="48.79429" lon="2.41704">
        <ele>36.599998474121</ele>
        <time>2016-03-21T20:30:11Z</time>
      </trkpt>
      <trkpt lat="48.79444" lon="2.41691">
        <ele>36.400001525879</ele>
        <time>2016-03-21T20:30:21Z</time>
      </trkpt>
      <trkpt lat="48.79448" lon="2.41693">
        <ele>36.400001525879</ele>
        <time>2016-03-21T20:30:23Z</time>
      </trkpt>
      <trkpt lat="48.79459" lon="2.41693">
        <ele>36.400001525879</ele>
        <time>2016-03-21T20:30:31Z</time>
      </trkpt>
      <trkpt lat="48.79454" lon="2.41672">
        <ele>36.400001525879</ele>
        <time>2016-03-21T20:30:45Z</time>
      </trkpt>
      <trkpt lat="48.79446" lon="2.41643">
        <ele>36.20000076294</ele>
        <time>2016-03-21T20:30:52Z</time>
      </trkpt>
      <trkpt lat="48.79438" lon="2.41616">
        <ele>36</ele>
        <time>2016-03-21T20:30:58Z</time>
      </trkpt>
      <trkpt lat="48.7944" lon="2.41597">
        <ele>36</ele>
        <time>2016-03-21T20:31:03Z</time>
      </trkpt>
      <trkpt lat="48.79458" lon="2.41591">
        <ele>36.400001525879</ele>
        <time>2016-03-21T20:31:11Z</time>
      </trkpt>
      <trkpt lat="48.79477" lon="2.41583">
        <ele>36.400001525879</ele>
        <time>2016-03-21T20:31:17Z</time>
      </trkpt>
      <trkpt lat="48.79491" lon="2.41566">
        <ele>36.400001525879</ele>
        <time>2016-03-21T20:31:23Z</time>
      </trkpt>
      <trkpt lat="48.79467" lon="2.41591">
        <ele>36.599998474121</ele>
        <time>2016-03-21T20:33:19Z</time>
      </trkpt>
      <trkpt lat="48.79448" lon="2.41599">
        <ele>36.400001525879</ele>
        <time>2016-03-21T20:33:27Z</time>
      </trkpt>
      <trkpt lat="48.79441" lon="2.41602">
        <ele>36</ele>
        <time>2016-03-21T20:33:32Z</time>
      </trkpt>
      <trkpt lat="48.79432" lon="2.41579">
        <ele>36</ele>
        <time>2016-03-21T20:33:47Z</time>
      </trkpt>
      <trkpt lat="48.7943" lon="2.41552">
        <ele>35.599998474121</ele>
        <time>2016-03-21T20:33:55Z</time>
      </trkpt>
      <trkpt lat="48.79424" lon="2.4153">
        <ele>35.400001525879</ele>
        <time>2016-03-21T20:34:04Z</time>
      </trkpt>
      <trkpt lat="48.79409" lon="2.41532">
        <ele>35.400001525879</ele>
        <time>2016-03-21T20:34:16Z</time>
      </trkpt>
      <trkpt lat="48.79408" lon="2.41534">
        <ele>35.400001525879</ele>
        <time>2016-03-21T20:34:18Z</time>
      </trkpt>
      <trkpt lat="48.79412" lon="2.41525">
        <ele>35.400001525879</ele>
        <time>2016-03-21T20:34:42Z</time>
      </trkpt>
      <trkpt lat="48.79408" lon="2.41538">
        <ele>35.400001525879</ele>
        <time>2016-03-21T20:35:57Z</time>
      </trkpt>
      <trkpt lat="48.79408" lon="2.41555">
        <ele>35.599998474121</ele>
        <time>2016-03-21T20:36:03Z</time>
      </trkpt>
      <trkpt lat="48.79415" lon="2.41583">
        <ele>35.79999923706</ele>
        <time>2016-03-21T20:36:11Z</time>
      </trkpt>
      <trkpt lat="48.79418" lon="2.41611">
        <ele>35.79999923706</ele>
        <time>2016-03-21T20:36:17Z</time>
      </trkpt>
      <trkpt lat="48.79424" lon="2.41639">
        <ele>35.79999923706</ele>
        <time>2016-03-21T20:36:22Z</time>
      </trkpt>
      <trkpt lat="48.79427" lon="2.41669">
        <ele>36.20000076294</ele>
        <time>2016-03-21T20:36:27Z</time>
      </trkpt>
      <trkpt lat="48.79433" lon="2.41698">
        <ele>36.400001525879</ele>
        <time>2016-03-21T20:36:32Z</time>
      </trkpt>
      <trkpt lat="48.79443" lon="2.41726">
        <ele>36.79999923706</ele>
        <time>2016-03-21T20:36:37Z</time>
      </trkpt>
      <trkpt lat="48.79454" lon="2.41754">
        <ele>37</ele>
        <time>2016-03-21T20:36:42Z</time>
      </trkpt>
      <trkpt lat="48.79464" lon="2.41781">
        <ele>37.20000076294</ele>
        <time>2016-03-21T20:36:47Z</time>
      </trkpt>
      <trkpt lat="48.79475" lon="2.41804">
        <ele>37.20000076294</ele>
        <time>2016-03-21T20:36:52Z</time>
      </trkpt>
      <trkpt lat="48.79488" lon="2.41823">
        <ele>37.400001525879</ele>
        <time>2016-03-21T20:36:58Z</time>
      </trkpt>
      <trkpt lat="48.79508" lon="2.41822">
        <ele>37.79999923706</ele>
        <time>2016-03-21T20:37:05Z</time>
      </trkpt>
      <trkpt lat="48.79528" lon="2.41806">
        <ele>37.599998474121</ele>
        <time>2016-03-21T20:37:11Z</time>
      </trkpt>
      <trkpt lat="48.79546" lon="2.41788">
        <ele>37.20000076294</ele>
        <time>2016-03-21T20:37:16Z</time>
      </trkpt>
      <trkpt lat="48.79562" lon="2.4177">
        <ele>37</ele>
        <time>2016-03-21T20:37:20Z</time>
      </trkpt>
      <trkpt lat="48.79578" lon="2.41752">
        <ele>37</ele>
        <time>2016-03-21T20:37:24Z</time>
      </trkpt>
      <trkpt lat="48.79594" lon="2.41733">
        <ele>37.400001525879</ele>
        <time>2016-03-21T20:37:28Z</time>
      </trkpt>
      <trkpt lat="48.79609" lon="2.41715">
        <ele>37.20000076294</ele>
        <time>2016-03-21T20:37:32Z</time>
      </trkpt>
      <trkpt lat="48.79611" lon="2.41711">
        <ele>37</ele>
        <time>2016-03-21T20:37:33Z</time>
      </trkpt>
      <trkpt lat="48.79623" lon="2.41693">
        <ele>36.20000076294</ele>
        <time>2016-03-21T20:37:39Z</time>
      </trkpt>
      <trkpt lat="48.79628" lon="2.41715">
        <ele>35.400001525879</ele>
        <time>2016-03-21T20:37:48Z</time>
      </trkpt>
      <trkpt lat="48.79633" lon="2.4172">
        <ele>35</ele>
        <time>2016-03-21T20:37:51Z</time>
      </trkpt>
      <trkpt lat="48.79648" lon="2.41736">
        <ele>33.599998474121</ele>
        <time>2016-03-21T20:37:59Z</time>
      </trkpt>
      <trkpt lat="48.7966" lon="2.41757">
        <ele>32.400001525879</ele>
        <time>2016-03-21T20:38:05Z</time>
      </trkpt>
      <trkpt lat="48.79673" lon="2.4178">
        <ele>31.39999961853</ele>
        <time>2016-03-21T20:38:10Z</time>
      </trkpt>
      <trkpt lat="48.79686" lon="2.41805">
        <ele>30.200000762939</ele>
        <time>2016-03-21T20:38:16Z</time>
      </trkpt>
      <trkpt lat="48.797" lon="2.41826">
        <ele>30</ele>
        <time>2016-03-21T20:38:23Z</time>
      </trkpt>
      <trkpt lat="48.79713" lon="2.41851">
        <ele>30</ele>
        <time>2016-03-21T20:38:29Z</time>
      </trkpt>
      <trkpt lat="48.79725" lon="2.41874">
        <ele>30</ele>
        <time>2016-03-21T20:38:34Z</time>
      </trkpt>
      <trkpt lat="48.79737" lon="2.41897">
        <ele>30</ele>
        <time>2016-03-21T20:38:39Z</time>
      </trkpt>
      <trkpt lat="48.79751" lon="2.4192">
        <ele>30</ele>
        <time>2016-03-21T20:38:44Z</time>
      </trkpt>
      <trkpt lat="48.79763" lon="2.4194">
        <ele>29.799999237061</ele>
        <time>2016-03-21T20:38:49Z</time>
      </trkpt>
      <trkpt lat="48.79776" lon="2.41963">
        <ele>29.60000038147</ele>
        <time>2016-03-21T20:38:55Z</time>
      </trkpt>
      <trkpt lat="48.79789" lon="2.41984">
        <ele>30</ele>
        <time>2016-03-21T20:39:00Z</time>
      </trkpt>
      <trkpt lat="48.79801" lon="2.42007">
        <ele>30.60000038147</ele>
        <time>2016-03-21T20:39:05Z</time>
      </trkpt>
      <trkpt lat="48.79811" lon="2.4203">
        <ele>31.60000038147</ele>
        <time>2016-03-21T20:39:10Z</time>
      </trkpt>
      <trkpt lat="48.79813" lon="2.42052">
        <ele>32.599998474121</ele>
        <time>2016-03-21T20:39:16Z</time>
      </trkpt>
      <trkpt lat="48.79823" lon="2.42057">
        <ele>33</ele>
        <time>2016-03-21T20:40:30Z</time>
      </trkpt>
      <trkpt lat="48.79837" lon="2.4206">
        <ele>33.599998474121</ele>
        <time>2016-03-21T20:40:55Z</time>
      </trkpt>
      <trkpt lat="48.79847" lon="2.42083">
        <ele>34.79999923706</ele>
        <time>2016-03-21T20:41:01Z</time>
      </trkpt>
      <trkpt lat="48.79858" lon="2.42105">
        <ele>34.400001525879</ele>
        <time>2016-03-21T20:41:05Z</time>
      </trkpt>
      <trkpt lat="48.79871" lon="2.42133">
        <ele>33.79999923706</ele>
        <time>2016-03-21T20:41:09Z</time>
      </trkpt>
      <trkpt lat="48.79884" lon="2.42156">
        <ele>33.20000076294</ele>
        <time>2016-03-21T20:41:12Z</time>
      </trkpt>
      <trkpt lat="48.79897" lon="2.42178">
        <ele>33</ele>
        <time>2016-03-21T20:41:15Z</time>
      </trkpt>
      <trkpt lat="48.79909" lon="2.422">
        <ele>33</ele>
        <time>2016-03-21T20:41:18Z</time>
      </trkpt>
      <trkpt lat="48.79916" lon="2.42215">
        <ele>33</ele>
        <time>2016-03-21T20:41:20Z</time>
      </trkpt>
      <trkpt lat="48.79931" lon="2.42241">
        <ele>33</ele>
        <time>2016-03-21T20:41:24Z</time>
      </trkpt>
      <trkpt lat="48.79941" lon="2.42259">
        <ele>33</ele>
        <time>2016-03-21T20:41:27Z</time>
      </trkpt>
      <trkpt lat="48.7995" lon="2.42275">
        <ele>33.20000076294</ele>
        <time>2016-03-21T20:41:31Z</time>
      </trkpt>
      <trkpt lat="48.79952" lon="2.42281">
        <ele>33.400001525879</ele>
        <time>2016-03-21T20:41:33Z</time>
      </trkpt>
      <trkpt lat="48.79965" lon="2.42286">
        <ele>33.599998474121</ele>
        <time>2016-03-21T20:41:44Z</time>
      </trkpt>
      <trkpt lat="48.79972" lon="2.42311">
        <ele>33.79999923706</ele>
        <time>2016-03-21T20:41:51Z</time>
      </trkpt>
      <trkpt lat="48.79978" lon="2.42342">
        <ele>34</ele>
        <time>2016-03-21T20:41:56Z</time>
      </trkpt>
      <trkpt lat="48.79988" lon="2.42369">
        <ele>34.20000076294</ele>
        <time>2016-03-21T20:42:00Z</time>
      </trkpt>
      <trkpt lat="48.79999" lon="2.42391">
        <ele>34.400001525879</ele>
        <time>2016-03-21T20:42:05Z</time>
      </trkpt>
      <trkpt lat="48.80013" lon="2.42416">
        <ele>34.79999923706</ele>
        <time>2016-03-21T20:42:11Z</time>
      </trkpt>
      <trkpt lat="48.80024" lon="2.42441">
        <ele>35</ele>
        <time>2016-03-21T20:42:17Z</time>
      </trkpt>
      <trkpt lat="48.80035" lon="2.42464">
        <ele>35.20000076294</ele>
        <time>2016-03-21T20:42:22Z</time>
      </trkpt>
      <trkpt lat="48.80045" lon="2.42488">
        <ele>35.20000076294</ele>
        <time>2016-03-21T20:42:27Z</time>
      </trkpt>
      <trkpt lat="48.80057" lon="2.42512">
        <ele>35.599998474121</ele>
        <time>2016-03-21T20:42:32Z</time>
      </trkpt>
      <trkpt lat="48.80068" lon="2.42534">
        <ele>36</ele>
        <time>2016-03-21T20:42:37Z</time>
      </trkpt>
      <trkpt lat="48.80079" lon="2.42561">
        <ele>36.400001525879</ele>
        <time>2016-03-21T20:42:44Z</time>
      </trkpt>
      <trkpt lat="48.80091" lon="2.42585">
        <ele>36.599998474121</ele>
        <time>2016-03-21T20:42:50Z</time>
      </trkpt>
      <trkpt lat="48.80101" lon="2.42609">
        <ele>36.79999923706</ele>
        <time>2016-03-21T20:42:56Z</time>
      </trkpt>
      <trkpt lat="48.80104" lon="2.42616">
        <ele>37</ele>
        <time>2016-03-21T20:42:58Z</time>
      </trkpt>
      <trkpt lat="48.80117" lon="2.42636">
        <ele>36.79999923706</ele>
        <time>2016-03-21T20:43:07Z</time>
      </trkpt>
      <trkpt lat="48.80118" lon="2.42639">
        <ele>36.599998474121</ele>
        <time>2016-03-21T20:43:09Z</time>
      </trkpt>
      <trkpt lat="48.80104" lon="2.42653">
        <ele>37</ele>
        <time>2016-03-21T20:43:19Z</time>
      </trkpt>
      <trkpt lat="48.80086" lon="2.42665">
        <ele>36.599998474121</ele>
        <time>2016-03-21T20:43:24Z</time>
      </trkpt>
      <trkpt lat="48.80067" lon="2.42676">
        <ele>35.79999923706</ele>
        <time>2016-03-21T20:43:29Z</time>
      </trkpt>
      <trkpt lat="48.80048" lon="2.42686">
        <ele>35</ele>
        <time>2016-03-21T20:43:33Z</time>
      </trkpt>
      <trkpt lat="48.80031" lon="2.42696">
        <ele>34.599998474121</ele>
        <time>2016-03-21T20:43:37Z</time>
      </trkpt>
      <trkpt lat="48.80012" lon="2.4271">
        <ele>34.400001525879</ele>
        <time>2016-03-21T20:43:42Z</time>
      </trkpt>
      <trkpt lat="48.79997" lon="2.42728">
        <ele>34.20000076294</ele>
        <time>2016-03-21T20:43:47Z</time>
      </trkpt>
      <trkpt lat="48.79997" lon="2.42759">
        <ele>33.599998474121</ele>
        <time>2016-03-21T20:43:53Z</time>
      </trkpt>
      <trkpt lat="48.8" lon="2.42788">
        <ele>33.79999923706</ele>
        <time>2016-03-21T20:43:58Z</time>
      </trkpt>
      <trkpt lat="48.80004" lon="2.42816">
        <ele>33.79999923706</ele>
        <time>2016-03-21T20:44:02Z</time>
      </trkpt>
      <trkpt lat="48.80009" lon="2.42846">
        <ele>34</ele>
        <time>2016-03-21T20:44:06Z</time>
      </trkpt>
      <trkpt lat="48.80015" lon="2.42881">
        <ele>34</ele>
        <time>2016-03-21T20:44:10Z</time>
      </trkpt>
      <trkpt lat="48.80021" lon="2.42907">
        <ele>34</ele>
        <time>2016-03-21T20:44:13Z</time>
      </trkpt>
      <trkpt lat="48.80029" lon="2.42932">
        <ele>34.20000076294</ele>
        <time>2016-03-21T20:44:16Z</time>
      </trkpt>
      <trkpt lat="48.80036" lon="2.42958">
        <ele>34.400001525879</ele>
        <time>2016-03-21T20:44:19Z</time>
      </trkpt>
      <trkpt lat="48.80043" lon="2.42986">
        <ele>34.599998474121</ele>
        <time>2016-03-21T20:44:22Z</time>
      </trkpt>
      <trkpt lat="48.80048" lon="2.43015">
        <ele>34.79999923706</ele>
        <time>2016-03-21T20:44:25Z</time>
      </trkpt>
      <trkpt lat="48.80055" lon="2.43047">
        <ele>34.79999923706</ele>
        <time>2016-03-21T20:44:28Z</time>
      </trkpt>
      <trkpt lat="48.80065" lon="2.43078">
        <ele>34.599998474121</ele>
        <time>2016-03-21T20:44:31Z</time>
      </trkpt>
      <trkpt lat="48.80071" lon="2.43096">
        <ele>35</ele>
        <time>2016-03-21T20:44:33Z</time>
      </trkpt>
      <trkpt lat="48.8008" lon="2.43116">
        <ele>36</ele>
        <time>2016-03-21T20:44:36Z</time>
      </trkpt>
      <trkpt lat="48.8009" lon="2.43133">
        <ele>36.599998474121</ele>
        <time>2016-03-21T20:44:39Z</time>
      </trkpt>
      <trkpt lat="48.801" lon="2.43147">
        <ele>37.20000076294</ele>
        <time>2016-03-21T20:44:42Z</time>
      </trkpt>
      <trkpt lat="48.80107" lon="2.43157">
        <ele>37.79999923706</ele>
        <time>2016-03-21T20:44:45Z</time>
      </trkpt>
      <trkpt lat="48.80115" lon="2.43168">
        <ele>38.20000076294</ele>
        <time>2016-03-21T20:45:00Z</time>
      </trkpt>
      <trkpt lat="48.80116" lon="2.43168">
        <ele>38.400001525879</ele>
        <time>2016-03-21T20:45:01Z</time>
      </trkpt>
      <trkpt lat="48.80127" lon="2.43178">
        <ele>38.79999923706</ele>
        <time>2016-03-21T20:45:05Z</time>
      </trkpt>
      <trkpt lat="48.80144" lon="2.43192">
        <ele>39.599998474121</ele>
        <time>2016-03-21T20:45:10Z</time>
      </trkpt>
      <trkpt lat="48.80162" lon="2.43206">
        <ele>40.400001525879</ele>
        <time>2016-03-21T20:45:15Z</time>
      </trkpt>
      <trkpt lat="48.80179" lon="2.43228">
        <ele>41.20000076294</ele>
        <time>2016-03-21T20:45:20Z</time>
      </trkpt>
      <trkpt lat="48.80195" lon="2.43249">
        <ele>42</ele>
        <time>2016-03-21T20:45:25Z</time>
      </trkpt>
      <trkpt lat="48.80208" lon="2.43272">
        <ele>41.79999923706</ele>
        <time>2016-03-21T20:45:30Z</time>
      </trkpt>
      <trkpt lat="48.80221" lon="2.43296">
        <ele>41.79999923706</ele>
        <time>2016-03-21T20:45:35Z</time>
      </trkpt>
      <trkpt lat="48.80235" lon="2.43318">
        <ele>41.79999923706</ele>
        <time>2016-03-21T20:45:40Z</time>
      </trkpt>
      <trkpt lat="48.80249" lon="2.43342">
        <ele>41.79999923706</ele>
        <time>2016-03-21T20:45:45Z</time>
      </trkpt>
      <trkpt lat="48.8026" lon="2.43367">
        <ele>42.20000076294</ele>
        <time>2016-03-21T20:45:50Z</time>
      </trkpt>
      <trkpt lat="48.80265" lon="2.43379">
        <ele>42.20000076294</ele>
        <time>2016-03-21T20:45:53Z</time>
      </trkpt>
      <trkpt lat="48.80277" lon="2.43399">
        <ele>42.400001525879</ele>
        <time>2016-03-21T20:46:02Z</time>
      </trkpt>
      <trkpt lat="48.80289" lon="2.43422">
        <ele>42</ele>
        <time>2016-03-21T20:46:17Z</time>
      </trkpt>
      <trkpt lat="48.80301" lon="2.43447">
        <ele>41.20000076294</ele>
        <time>2016-03-21T20:46:23Z</time>
      </trkpt>
      <trkpt lat="48.80312" lon="2.43475">
        <ele>40.599998474121</ele>
        <time>2016-03-21T20:46:28Z</time>
      </trkpt>
      <trkpt lat="48.80322" lon="2.43501">
        <ele>40</ele>
        <time>2016-03-21T20:46:32Z</time>
      </trkpt>
      <trkpt lat="48.80333" lon="2.43528">
        <ele>39.599998474121</ele>
        <time>2016-03-21T20:46:36Z</time>
      </trkpt>
      <trkpt lat="48.80345" lon="2.43557">
        <ele>39.20000076294</ele>
        <time>2016-03-21T20:46:40Z</time>
      </trkpt>
      <trkpt lat="48.80357" lon="2.43585">
        <ele>39</ele>
        <time>2016-03-21T20:46:44Z</time>
      </trkpt>
      <trkpt lat="48.8037" lon="2.43612">
        <ele>39</ele>
        <time>2016-03-21T20:46:48Z</time>
      </trkpt>
      <trkpt lat="48.80383" lon="2.43641">
        <ele>39</ele>
        <time>2016-03-21T20:46:52Z</time>
      </trkpt>
      <trkpt lat="48.80394" lon="2.43667">
        <ele>39</ele>
        <time>2016-03-21T20:46:56Z</time>
      </trkpt>
      <trkpt lat="48.80407" lon="2.43694">
        <ele>38.599998474121</ele>
        <time>2016-03-21T20:47:00Z</time>
      </trkpt>
      <trkpt lat="48.80419" lon="2.43721">
        <ele>38.400001525879</ele>
        <time>2016-03-21T20:47:04Z</time>
      </trkpt>
      <trkpt lat="48.8043" lon="2.43747">
        <ele>38</ele>
        <time>2016-03-21T20:47:08Z</time>
      </trkpt>
      <trkpt lat="48.80441" lon="2.43774">
        <ele>38.400001525879</ele>
        <time>2016-03-21T20:47:12Z</time>
      </trkpt>
      <trkpt lat="48.80453" lon="2.43798">
        <ele>38.79999923706</ele>
        <time>2016-03-21T20:47:16Z</time>
      </trkpt>
      <trkpt lat="48.80464" lon="2.43823">
        <ele>39.20000076294</ele>
        <time>2016-03-21T20:47:20Z</time>
      </trkpt>
      <trkpt lat="48.80474" lon="2.43851">
        <ele>39.79999923706</ele>
        <time>2016-03-21T20:47:24Z</time>
      </trkpt>
      <trkpt lat="48.80477" lon="2.43858">
        <ele>40</ele>
        <time>2016-03-21T20:47:25Z</time>
      </trkpt>
      <trkpt lat="48.80487" lon="2.43885">
        <ele>40.79999923706</ele>
        <time>2016-03-21T20:47:29Z</time>
      </trkpt>
      <trkpt lat="48.805" lon="2.43912">
        <ele>41.79999923706</ele>
        <time>2016-03-21T20:47:33Z</time>
      </trkpt>
      <trkpt lat="48.80511" lon="2.43937">
        <ele>42</ele>
        <time>2016-03-21T20:47:37Z</time>
      </trkpt>
      <trkpt lat="48.80523" lon="2.43965">
        <ele>42</ele>
        <time>2016-03-21T20:47:41Z</time>
      </trkpt>
      <trkpt lat="48.80526" lon="2.43972">
        <ele>42</ele>
        <time>2016-03-21T20:47:42Z</time>
      </trkpt>
      <trkpt lat="48.80531" lon="2.43986">
        <ele>41.79999923706</ele>
        <time>2016-03-21T20:47:44Z</time>
      </trkpt>
      <trkpt lat="48.80542" lon="2.44012">
        <ele>42</ele>
        <time>2016-03-21T20:47:48Z</time>
      </trkpt>
      <trkpt lat="48.8055" lon="2.44032">
        <ele>42.20000076294</ele>
        <time>2016-03-21T20:47:51Z</time>
      </trkpt>
      <trkpt lat="48.80561" lon="2.44058">
        <ele>42.79999923706</ele>
        <time>2016-03-21T20:47:55Z</time>
      </trkpt>
      <trkpt lat="48.80565" lon="2.44069">
        <ele>43</ele>
        <time>2016-03-21T20:47:57Z</time>
      </trkpt>
      <trkpt lat="48.80572" lon="2.44094">
        <ele>43</ele>
        <time>2016-03-21T20:48:03Z</time>
      </trkpt>
      <trkpt lat="48.80575" lon="2.44103">
        <ele>42.79999923706</ele>
        <time>2016-03-21T20:48:06Z</time>
      </trkpt>
      <trkpt lat="48.80577" lon="2.44112">
        <ele>42.599998474121</ele>
        <time>2016-03-21T20:48:09Z</time>
      </trkpt>
      <trkpt lat="48.80583" lon="2.44121">
        <ele>42.400001525879</ele>
        <time>2016-03-21T20:49:21Z</time>
      </trkpt>
      <trkpt lat="48.80587" lon="2.44123">
        <ele>42.20000076294</ele>
        <time>2016-03-21T20:51:09Z</time>
      </trkpt>
      <trkpt lat="48.80589" lon="2.44139">
        <ele>42</ele>
        <time>2016-03-21T20:52:13Z</time>
      </trkpt>
      <trkpt lat="48.80599" lon="2.44162">
        <ele>41.20000076294</ele>
        <time>2016-03-21T20:52:21Z</time>
      </trkpt>
      <trkpt lat="48.80608" lon="2.44191">
        <ele>41.400001525879</ele>
        <time>2016-03-21T20:52:27Z</time>
      </trkpt>
      <trkpt lat="48.80617" lon="2.44219">
        <ele>41.599998474121</ele>
        <time>2016-03-21T20:52:32Z</time>
      </trkpt>
      <trkpt lat="48.80623" lon="2.44247">
        <ele>42</ele>
        <time>2016-03-21T20:52:37Z</time>
      </trkpt>
      <trkpt lat="48.80629" lon="2.44274">
        <ele>42.20000076294</ele>
        <time>2016-03-21T20:52:42Z</time>
      </trkpt>
      <trkpt lat="48.80638" lon="2.44299">
        <ele>42.599998474121</ele>
        <time>2016-03-21T20:52:46Z</time>
      </trkpt>
      <trkpt lat="48.80645" lon="2.44327">
        <ele>43</ele>
        <time>2016-03-21T20:52:51Z</time>
      </trkpt>
      <trkpt lat="48.80653" lon="2.44356">
        <ele>42.79999923706</ele>
        <time>2016-03-21T20:52:56Z</time>
      </trkpt>
      <trkpt lat="48.80661" lon="2.44384">
        <ele>42.400001525879</ele>
        <time>2016-03-21T20:53:01Z</time>
      </trkpt>
      <trkpt lat="48.80668" lon="2.44412">
        <ele>42</ele>
        <time>2016-03-21T20:53:06Z</time>
      </trkpt>
      <trkpt lat="48.80677" lon="2.44442">
        <ele>41.599998474121</ele>
        <time>2016-03-21T20:53:11Z</time>
      </trkpt>
      <trkpt lat="48.80685" lon="2.44468">
        <ele>41.400001525879</ele>
        <time>2016-03-21T20:53:15Z</time>
      </trkpt>
      <trkpt lat="48.80693" lon="2.44496">
        <ele>41</ele>
        <time>2016-03-21T20:53:19Z</time>
      </trkpt>
      <trkpt lat="48.80699" lon="2.44517">
        <ele>40.79999923706</ele>
        <time>2016-03-21T20:53:22Z</time>
      </trkpt>
      <trkpt lat="48.80705" lon="2.44546">
        <ele>40.599998474121</ele>
        <time>2016-03-21T20:53:26Z</time>
      </trkpt>
      <trkpt lat="48.80708" lon="2.44559">
        <ele>40.599998474121</ele>
        <time>2016-03-21T20:53:28Z</time>
      </trkpt>
      <trkpt lat="48.80713" lon="2.44575">
        <ele>40.400001525879</ele>
        <time>2016-03-21T20:53:30Z</time>
      </trkpt>
      <trkpt lat="48.80722" lon="2.44605">
        <ele>40.20000076294</ele>
        <time>2016-03-21T20:53:34Z</time>
      </trkpt>
      <trkpt lat="48.80729" lon="2.44633">
        <ele>40</ele>
        <time>2016-03-21T20:53:38Z</time>
      </trkpt>
      <trkpt lat="48.80738" lon="2.44662">
        <ele>39.400001525879</ele>
        <time>2016-03-21T20:53:42Z</time>
      </trkpt>
      <trkpt lat="48.80747" lon="2.44691">
        <ele>39.599998474121</ele>
        <time>2016-03-21T20:53:46Z</time>
      </trkpt>
      <trkpt lat="48.80754" lon="2.44719">
        <ele>39.79999923706</ele>
        <time>2016-03-21T20:53:50Z</time>
      </trkpt>
      <trkpt lat="48.80762" lon="2.4475">
        <ele>39.79999923706</ele>
        <time>2016-03-21T20:53:54Z</time>
      </trkpt>
      <trkpt lat="48.80771" lon="2.44781">
        <ele>40</ele>
        <time>2016-03-21T20:53:58Z</time>
      </trkpt>
      <trkpt lat="48.80779" lon="2.44812">
        <ele>40</ele>
        <time>2016-03-21T20:54:02Z</time>
      </trkpt>
      <trkpt lat="48.80786" lon="2.44834">
        <ele>40.20000076294</ele>
        <time>2016-03-21T20:54:05Z</time>
      </trkpt>
      <trkpt lat="48.80794" lon="2.44863">
        <ele>40.400001525879</ele>
        <time>2016-03-21T20:54:09Z</time>
      </trkpt>
      <trkpt lat="48.80802" lon="2.4489">
        <ele>40.599998474121</ele>
        <time>2016-03-21T20:54:13Z</time>
      </trkpt>
      <trkpt lat="48.80812" lon="2.44917">
        <ele>41</ele>
        <time>2016-03-21T20:54:16Z</time>
      </trkpt>
      <trkpt lat="48.80815" lon="2.44933">
        <ele>40.599998474121</ele>
        <time>2016-03-21T20:54:18Z</time>
      </trkpt>
      <trkpt lat="48.80822" lon="2.44965">
        <ele>39.79999923706</ele>
        <time>2016-03-21T20:54:22Z</time>
      </trkpt>
      <trkpt lat="48.8083" lon="2.44995">
        <ele>39.20000076294</ele>
        <time>2016-03-21T20:54:26Z</time>
      </trkpt>
      <trkpt lat="48.80837" lon="2.45021">
        <ele>38.79999923706</ele>
        <time>2016-03-21T20:54:30Z</time>
      </trkpt>
      <trkpt lat="48.80844" lon="2.45052">
        <ele>38.400001525879</ele>
        <time>2016-03-21T20:54:34Z</time>
      </trkpt>
      <trkpt lat="48.80852" lon="2.45084">
        <ele>38</ele>
        <time>2016-03-21T20:54:38Z</time>
      </trkpt>
      <trkpt lat="48.8086" lon="2.45118">
        <ele>38.20000076294</ele>
        <time>2016-03-21T20:54:42Z</time>
      </trkpt>
      <trkpt lat="48.80865" lon="2.45135">
        <ele>38.20000076294</ele>
        <time>2016-03-21T20:54:44Z</time>
      </trkpt>
      <trkpt lat="48.80873" lon="2.45162">
        <ele>38.400001525879</ele>
        <time>2016-03-21T20:54:47Z</time>
      </trkpt>
      <trkpt lat="48.80883" lon="2.45195">
        <ele>37.599998474121</ele>
        <time>2016-03-21T20:54:51Z</time>
      </trkpt>
      <trkpt lat="48.80887" lon="2.45204">
        <ele>37.400001525879</ele>
        <time>2016-03-21T20:54:52Z</time>
      </trkpt>
      <trkpt lat="48.80894" lon="2.45231">
        <ele>36.599998474121</ele>
        <time>2016-03-21T20:54:55Z</time>
      </trkpt>
      <trkpt lat="48.80902" lon="2.45257">
        <ele>35.79999923706</ele>
        <time>2016-03-21T20:54:58Z</time>
      </trkpt>
      <trkpt lat="48.80908" lon="2.45284">
        <ele>35.79999923706</ele>
        <time>2016-03-21T20:55:01Z</time>
      </trkpt>
      <trkpt lat="48.80915" lon="2.45311">
        <ele>35.599998474121</ele>
        <time>2016-03-21T20:55:04Z</time>
      </trkpt>
      <trkpt lat="48.80923" lon="2.45338">
        <ele>35.400001525879</ele>
        <time>2016-03-21T20:55:07Z</time>
      </trkpt>
      <trkpt lat="48.8093" lon="2.45364">
        <ele>35.599998474121</ele>
        <time>2016-03-21T20:55:10Z</time>
      </trkpt>
      <trkpt lat="48.80939" lon="2.45392">
        <ele>35.79999923706</ele>
        <time>2016-03-21T20:55:13Z</time>
      </trkpt>
      <trkpt lat="48.80948" lon="2.45417">
        <ele>35.79999923706</ele>
        <time>2016-03-21T20:55:16Z</time>
      </trkpt>
      <trkpt lat="48.8096" lon="2.45446">
        <ele>36.20000076294</ele>
        <time>2016-03-21T20:55:20Z</time>
      </trkpt>
      <trkpt lat="48.80963" lon="2.45453">
        <ele>36.20000076294</ele>
        <time>2016-03-21T20:55:21Z</time>
      </trkpt>
      <trkpt lat="48.80973" lon="2.4548">
        <ele>36.400001525879</ele>
        <time>2016-03-21T20:55:25Z</time>
      </trkpt>
      <trkpt lat="48.80985" lon="2.45509">
        <ele>36.400001525879</ele>
        <time>2016-03-21T20:55:29Z</time>
      </trkpt>
      <trkpt lat="48.80997" lon="2.45538">
        <ele>35.79999923706</ele>
        <time>2016-03-21T20:55:33Z</time>
      </trkpt>
      <trkpt lat="48.81002" lon="2.45553">
        <ele>35.599998474121</ele>
        <time>2016-03-21T20:55:35Z</time>
      </trkpt>
      <trkpt lat="48.81013" lon="2.45583">
        <ele>35.20000076294</ele>
        <time>2016-03-21T20:55:39Z</time>
      </trkpt>
      <trkpt lat="48.81025" lon="2.45608">
        <ele>34.599998474121</ele>
        <time>2016-03-21T20:55:43Z</time>
      </trkpt>
      <trkpt lat="48.81031" lon="2.45619">
        <ele>34.20000076294</ele>
        <time>2016-03-21T20:55:45Z</time>
      </trkpt>
      <trkpt lat="48.81041" lon="2.45642">
        <ele>33.400001525879</ele>
        <time>2016-03-21T20:55:49Z</time>
      </trkpt>
      <trkpt lat="48.81048" lon="2.45659">
        <ele>32.79999923706</ele>
        <time>2016-03-21T20:55:53Z</time>
      </trkpt>
      <trkpt lat="48.81063" lon="2.45667">
        <ele>32</ele>
        <time>2016-03-21T20:56:19Z</time>
      </trkpt>
      <trkpt lat="48.81078" lon="2.45691">
        <ele>31.39999961853</ele>
        <time>2016-03-21T20:56:26Z</time>
      </trkpt>
      <trkpt lat="48.8109" lon="2.45711">
        <ele>30.799999237061</ele>
        <time>2016-03-21T20:56:31Z</time>
      </trkpt>
      <trkpt lat="48.81104" lon="2.45735">
        <ele>30</ele>
        <time>2016-03-21T20:56:36Z</time>
      </trkpt>
      <trkpt lat="48.81116" lon="2.45756">
        <ele>30.39999961853</ele>
        <time>2016-03-21T20:56:40Z</time>
      </trkpt>
      <trkpt lat="48.81131" lon="2.45779">
        <ele>31.200000762939</ele>
        <time>2016-03-21T20:56:44Z</time>
      </trkpt>
      <trkpt lat="48.81147" lon="2.45806">
        <ele>32.20000076294</ele>
        <time>2016-03-21T20:56:48Z</time>
      </trkpt>
      <trkpt lat="48.8116" lon="2.45827">
        <ele>33</ele>
        <time>2016-03-21T20:56:51Z</time>
      </trkpt>
      <trkpt lat="48.81174" lon="2.45849">
        <ele>33.599998474121</ele>
        <time>2016-03-21T20:56:54Z</time>
      </trkpt>
      <trkpt lat="48.81186" lon="2.45871">
        <ele>34.400001525879</ele>
        <time>2016-03-21T20:56:57Z</time>
      </trkpt>
      <trkpt lat="48.81201" lon="2.45898">
        <ele>34.400001525879</ele>
        <time>2016-03-21T20:57:01Z</time>
      </trkpt>
      <trkpt lat="48.81217" lon="2.45924">
        <ele>34.400001525879</ele>
        <time>2016-03-21T20:57:05Z</time>
      </trkpt>
      <trkpt lat="48.81227" lon="2.45943">
        <ele>34.400001525879</ele>
        <time>2016-03-21T20:57:08Z</time>
      </trkpt>
      <trkpt lat="48.81235" lon="2.45954">
        <ele>34.400001525879</ele>
        <time>2016-03-21T20:57:10Z</time>
      </trkpt>
      <trkpt lat="48.81249" lon="2.45976">
        <ele>34.20000076294</ele>
        <time>2016-03-21T20:57:14Z</time>
      </trkpt>
      <trkpt lat="48.81263" lon="2.45998">
        <ele>34</ele>
        <time>2016-03-21T20:57:18Z</time>
      </trkpt>
      <trkpt lat="48.81276" lon="2.46018">
        <ele>34.400001525879</ele>
        <time>2016-03-21T20:57:21Z</time>
      </trkpt>
      <trkpt lat="48.81289" lon="2.4604">
        <ele>35.20000076294</ele>
        <time>2016-03-21T20:57:24Z</time>
      </trkpt>
      <trkpt lat="48.81306" lon="2.46067">
        <ele>36</ele>
        <time>2016-03-21T20:57:27Z</time>
      </trkpt>
      <trkpt lat="48.81322" lon="2.46095">
        <ele>36.599998474121</ele>
        <time>2016-03-21T20:57:30Z</time>
      </trkpt>
      <trkpt lat="48.81336" lon="2.46122">
        <ele>36.400001525879</ele>
        <time>2016-03-21T20:57:33Z</time>
      </trkpt>
      <trkpt lat="48.8135" lon="2.46146">
        <ele>36.400001525879</ele>
        <time>2016-03-21T20:57:36Z</time>
      </trkpt>
      <trkpt lat="48.81362" lon="2.46168">
        <ele>36.400001525879</ele>
        <time>2016-03-21T20:57:39Z</time>
      </trkpt>
      <trkpt lat="48.81374" lon="2.46189">
        <ele>37.400001525879</ele>
        <time>2016-03-21T20:57:42Z</time>
      </trkpt>
      <trkpt lat="48.81388" lon="2.46216">
        <ele>38.400001525879</ele>
        <time>2016-03-21T20:57:46Z</time>
      </trkpt>
      <trkpt lat="48.81401" lon="2.46238">
        <ele>39.20000076294</ele>
        <time>2016-03-21T20:57:50Z</time>
      </trkpt>
      <trkpt lat="48.8141" lon="2.46253">
        <ele>40</ele>
        <time>2016-03-21T20:57:54Z</time>
      </trkpt>
      <trkpt lat="48.81418" lon="2.46261">
        <ele>40.79999923706</ele>
        <time>2016-03-21T20:57:59Z</time>
      </trkpt>
      <trkpt lat="48.81436" lon="2.46258">
        <ele>42.79999923706</ele>
        <time>2016-03-21T20:58:14Z</time>
      </trkpt>
      <trkpt lat="48.81443" lon="2.46264">
        <ele>43.400001525879</ele>
        <time>2016-03-21T20:58:18Z</time>
      </trkpt>
      <trkpt lat="48.81461" lon="2.46278">
        <ele>45</ele>
        <time>2016-03-21T20:58:25Z</time>
      </trkpt>
      <trkpt lat="48.81474" lon="2.46297">
        <ele>46.20000076294</ele>
        <time>2016-03-21T20:58:32Z</time>
      </trkpt>
      <trkpt lat="48.81487" lon="2.4632">
        <ele>47.400001525879</ele>
        <time>2016-03-21T20:58:39Z</time>
      </trkpt>
      <trkpt lat="48.81502" lon="2.4634">
        <ele>48.599998474121</ele>
        <time>2016-03-21T20:58:45Z</time>
      </trkpt>
      <trkpt lat="48.81517" lon="2.46362">
        <ele>49.599998474121</ele>
        <time>2016-03-21T20:58:51Z</time>
      </trkpt>
      <trkpt lat="48.8153" lon="2.46385">
        <ele>50.599998474121</ele>
        <time>2016-03-21T20:58:57Z</time>
      </trkpt>
      <trkpt lat="48.81546" lon="2.46409">
        <ele>51.79999923706</ele>
        <time>2016-03-21T20:59:03Z</time>
      </trkpt>
      <trkpt lat="48.8156" lon="2.4643">
        <ele>52.599998474121</ele>
        <time>2016-03-21T20:59:06Z</time>
      </trkpt>
      <trkpt lat="48.81572" lon="2.46452">
        <ele>53.20000076294</ele>
        <time>2016-03-21T20:59:09Z</time>
      </trkpt>
      <trkpt lat="48.81585" lon="2.46474">
        <ele>53.79999923706</ele>
        <time>2016-03-21T20:59:12Z</time>
      </trkpt>
      <trkpt lat="48.81601" lon="2.46502">
        <ele>55</ele>
        <time>2016-03-21T20:59:15Z</time>
      </trkpt>
      <trkpt lat="48.81618" lon="2.46527">
        <ele>55.599998474121</ele>
        <time>2016-03-21T20:59:18Z</time>
      </trkpt>
      <trkpt lat="48.81636" lon="2.46552">
        <ele>56.20000076294</ele>
        <time>2016-03-21T20:59:21Z</time>
      </trkpt>
      <trkpt lat="48.8165" lon="2.46575">
        <ele>56.79999923706</ele>
        <time>2016-03-21T20:59:24Z</time>
      </trkpt>
      <trkpt lat="48.81654" lon="2.46583">
        <ele>57</ele>
        <time>2016-03-21T20:59:25Z</time>
      </trkpt>
      <trkpt lat="48.81668" lon="2.46607">
        <ele>55.79999923706</ele>
        <time>2016-03-21T20:59:28Z</time>
      </trkpt>
      <trkpt lat="48.81681" lon="2.4663">
        <ele>54.79999923706</ele>
        <time>2016-03-21T20:59:31Z</time>
      </trkpt>
      <trkpt lat="48.81693" lon="2.46653">
        <ele>53.79999923706</ele>
        <time>2016-03-21T20:59:34Z</time>
      </trkpt>
      <trkpt lat="48.81705" lon="2.46674">
        <ele>53.20000076294</ele>
        <time>2016-03-21T20:59:37Z</time>
      </trkpt>
      <trkpt lat="48.81718" lon="2.46697">
        <ele>53</ele>
        <time>2016-03-21T20:59:42Z</time>
      </trkpt>
      <trkpt lat="48.81719" lon="2.46701">
        <ele>53</ele>
        <time>2016-03-21T20:59:43Z</time>
      </trkpt>
      <trkpt lat="48.81727" lon="2.46711">
        <ele>53</ele>
        <time>2016-03-21T21:00:59Z</time>
      </trkpt>
      <trkpt lat="48.81731" lon="2.46713">
        <ele>53</ele>
        <time>2016-03-21T21:01:02Z</time>
      </trkpt>
      <trkpt lat="48.81745" lon="2.46709">
        <ele>53.20000076294</ele>
        <time>2016-03-21T21:01:07Z</time>
      </trkpt>
      <trkpt lat="48.8176" lon="2.46694">
        <ele>53.599998474121</ele>
        <time>2016-03-21T21:01:12Z</time>
      </trkpt>
      <trkpt lat="48.81778" lon="2.46678">
        <ele>53.79999923706</ele>
        <time>2016-03-21T21:01:17Z</time>
      </trkpt>
      <trkpt lat="48.81797" lon="2.46664">
        <ele>54</ele>
        <time>2016-03-21T21:01:22Z</time>
      </trkpt>
      <trkpt lat="48.81813" lon="2.4664">
        <ele>54.599998474121</ele>
        <time>2016-03-21T21:01:27Z</time>
      </trkpt>
      <trkpt lat="48.81829" lon="2.46623">
        <ele>54.79999923706</ele>
        <time>2016-03-21T21:01:32Z</time>
      </trkpt>
      <trkpt lat="48.81844" lon="2.46605">
        <ele>54.79999923706</ele>
        <time>2016-03-21T21:01:37Z</time>
      </trkpt>
      <trkpt lat="48.81859" lon="2.46589">
        <ele>54.79999923706</ele>
        <time>2016-03-21T21:01:41Z</time>
      </trkpt>
      <trkpt lat="48.81874" lon="2.46573">
        <ele>54.400001525879</ele>
        <time>2016-03-21T21:01:45Z</time>
      </trkpt>
      <trkpt lat="48.81889" lon="2.46557">
        <ele>53.79999923706</ele>
        <time>2016-03-21T21:01:49Z</time>
      </trkpt>
      <trkpt lat="48.81907" lon="2.46535">
        <ele>53.599998474121</ele>
        <time>2016-03-21T21:01:54Z</time>
      </trkpt>
      <trkpt lat="48.81922" lon="2.4652">
        <ele>53.79999923706</ele>
        <time>2016-03-21T21:01:58Z</time>
      </trkpt>
      <trkpt lat="48.81938" lon="2.46506">
        <ele>54</ele>
        <time>2016-03-21T21:02:02Z</time>
      </trkpt>
      <trkpt lat="48.81954" lon="2.46486">
        <ele>54.20000076294</ele>
        <time>2016-03-21T21:02:06Z</time>
      </trkpt>
      <trkpt lat="48.81968" lon="2.46466">
        <ele>54.400001525879</ele>
        <time>2016-03-21T21:02:10Z</time>
      </trkpt>
      <trkpt lat="48.81972" lon="2.46462">
        <ele>54.400001525879</ele>
        <time>2016-03-21T21:02:11Z</time>
      </trkpt>
      <trkpt lat="48.81983" lon="2.46457">
        <ele>54.599998474121</ele>
        <time>2016-03-21T21:02:15Z</time>
      </trkpt>
      <trkpt lat="48.81999" lon="2.46448">
        <ele>54.599998474121</ele>
        <time>2016-03-21T21:02:22Z</time>
      </trkpt>
      <trkpt lat="48.82005" lon="2.46427">
        <ele>54</ele>
        <time>2016-03-21T21:02:46Z</time>
      </trkpt>
      <trkpt lat="48.82023" lon="2.46414">
        <ele>54</ele>
        <time>2016-03-21T21:02:54Z</time>
      </trkpt>
      <trkpt lat="48.82043" lon="2.46415">
        <ele>54.400001525879</ele>
        <time>2016-03-21T21:03:00Z</time>
      </trkpt>
      <trkpt lat="48.82064" lon="2.46418">
        <ele>55</ele>
        <time>2016-03-21T21:03:06Z</time>
      </trkpt>
      <trkpt lat="48.82084" lon="2.46426">
        <ele>55.20000076294</ele>
        <time>2016-03-21T21:03:11Z</time>
      </trkpt>
      <trkpt lat="48.82102" lon="2.46434">
        <ele>55.400001525879</ele>
        <time>2016-03-21T21:03:15Z</time>
      </trkpt>
      <trkpt lat="48.82123" lon="2.46441">
        <ele>55.20000076294</ele>
        <time>2016-03-21T21:03:19Z</time>
      </trkpt>
      <trkpt lat="48.82145" lon="2.46448">
        <ele>54.79999923706</ele>
        <time>2016-03-21T21:03:23Z</time>
      </trkpt>
      <trkpt lat="48.82167" lon="2.46456">
        <ele>54.599998474121</ele>
        <time>2016-03-21T21:03:27Z</time>
      </trkpt>
      <trkpt lat="48.82185" lon="2.46466">
        <ele>54.20000076294</ele>
        <time>2016-03-21T21:03:30Z</time>
      </trkpt>
      <trkpt lat="48.82205" lon="2.46478">
        <ele>53.400001525879</ele>
        <time>2016-03-21T21:03:33Z</time>
      </trkpt>
      <trkpt lat="48.82222" lon="2.46489">
        <ele>52.599998474121</ele>
        <time>2016-03-21T21:03:36Z</time>
      </trkpt>
      <trkpt lat="48.8224" lon="2.46501">
        <ele>51.79999923706</ele>
        <time>2016-03-21T21:03:39Z</time>
      </trkpt>
      <trkpt lat="48.82258" lon="2.46513">
        <ele>51</ele>
        <time>2016-03-21T21:03:42Z</time>
      </trkpt>
      <trkpt lat="48.82277" lon="2.46524">
        <ele>50.20000076294</ele>
        <time>2016-03-21T21:03:45Z</time>
      </trkpt>
      <trkpt lat="48.82297" lon="2.46528">
        <ele>49.400001525879</ele>
        <time>2016-03-21T21:03:48Z</time>
      </trkpt>
      <trkpt lat="48.82316" lon="2.46529">
        <ele>49.599998474121</ele>
        <time>2016-03-21T21:03:51Z</time>
      </trkpt>
      <trkpt lat="48.82334" lon="2.46529">
        <ele>50</ele>
        <time>2016-03-21T21:03:54Z</time>
      </trkpt>
      <trkpt lat="48.82358" lon="2.46526">
        <ele>50.599998474121</ele>
        <time>2016-03-21T21:03:58Z</time>
      </trkpt>
      <trkpt lat="48.82365" lon="2.46525">
        <ele>50.599998474121</ele>
        <time>2016-03-21T21:03:59Z</time>
      </trkpt>
      <trkpt lat="48.82383" lon="2.4652">
        <ele>50.400001525879</ele>
        <time>2016-03-21T21:04:02Z</time>
      </trkpt>
      <trkpt lat="48.82406" lon="2.46515">
        <ele>49.79999923706</ele>
        <time>2016-03-21T21:04:06Z</time>
      </trkpt>
      <trkpt lat="48.82425" lon="2.46509">
        <ele>49.79999923706</ele>
        <time>2016-03-21T21:04:09Z</time>
      </trkpt>
      <trkpt lat="48.82445" lon="2.46505">
        <ele>49.599998474121</ele>
        <time>2016-03-21T21:04:12Z</time>
      </trkpt>
      <trkpt lat="48.82468" lon="2.46501">
        <ele>49.599998474121</ele>
        <time>2016-03-21T21:04:16Z</time>
      </trkpt>
      <trkpt lat="48.8249" lon="2.46497">
        <ele>49.400001525879</ele>
        <time>2016-03-21T21:04:20Z</time>
      </trkpt>
      <trkpt lat="48.82509" lon="2.46492">
        <ele>49.20000076294</ele>
        <time>2016-03-21T21:04:24Z</time>
      </trkpt>
      <trkpt lat="48.82527" lon="2.46486">
        <ele>49</ele>
        <time>2016-03-21T21:04:28Z</time>
      </trkpt>
      <trkpt lat="48.82546" lon="2.4648">
        <ele>49.20000076294</ele>
        <time>2016-03-21T21:04:32Z</time>
      </trkpt>
      <trkpt lat="48.82565" lon="2.46475">
        <ele>49.599998474121</ele>
        <time>2016-03-21T21:04:36Z</time>
      </trkpt>
      <trkpt lat="48.82573" lon="2.46473">
        <ele>49.599998474121</ele>
        <time>2016-03-21T21:04:38Z</time>
      </trkpt>
      <trkpt lat="48.82595" lon="2.4647">
        <ele>50.20000076294</ele>
        <time>2016-03-21T21:04:43Z</time>
      </trkpt>
      <trkpt lat="48.82617" lon="2.46467">
        <ele>51.400001525879</ele>
        <time>2016-03-21T21:04:48Z</time>
      </trkpt>
      <trkpt lat="48.82637" lon="2.46463">
        <ele>53.20000076294</ele>
        <time>2016-03-21T21:04:53Z</time>
      </trkpt>
      <trkpt lat="48.82658" lon="2.46459">
        <ele>54.79999923706</ele>
        <time>2016-03-21T21:04:58Z</time>
      </trkpt>
      <trkpt lat="48.82676" lon="2.46455">
        <ele>56.400001525879</ele>
        <time>2016-03-21T21:05:03Z</time>
      </trkpt>
      <trkpt lat="48.82694" lon="2.46448">
        <ele>57.79999923706</ele>
        <time>2016-03-21T21:05:10Z</time>
      </trkpt>
      <trkpt lat="48.82693" lon="2.46443">
        <ele>58</ele>
        <time>2016-03-21T21:05:14Z</time>
      </trkpt>
      <trkpt lat="48.82694" lon="2.4644">
        <ele>58</ele>
        <time>2016-03-21T21:05:15Z</time>
      </trkpt>
      <trkpt lat="48.82697" lon="2.46429">
        <ele>58.400001525879</ele>
        <time>2016-03-21T21:05:22Z</time>
      </trkpt>
      <trkpt lat="48.82701" lon="2.4643">
        <ele>58.599998474121</ele>
        <time>2016-03-21T21:06:16Z</time>
      </trkpt>
      <trkpt lat="48.82707" lon="2.46443">
        <ele>58.79999923706</ele>
        <time>2016-03-21T21:06:20Z</time>
      </trkpt>
      <trkpt lat="48.82721" lon="2.46462">
        <ele>59.400001525879</ele>
        <time>2016-03-21T21:06:27Z</time>
      </trkpt>
      <trkpt lat="48.82739" lon="2.46475">
        <ele>60.20000076294</ele>
        <time>2016-03-21T21:06:33Z</time>
      </trkpt>
      <trkpt lat="48.82754" lon="2.46492">
        <ele>61</ele>
        <time>2016-03-21T21:06:39Z</time>
      </trkpt>
      <trkpt lat="48.82769" lon="2.4651">
        <ele>62</ele>
        <time>2016-03-21T21:06:45Z</time>
      </trkpt>
      <trkpt lat="48.82784" lon="2.46527">
        <ele>61.79999923706</ele>
        <time>2016-03-21T21:06:51Z</time>
      </trkpt>
      <trkpt lat="48.82799" lon="2.46544">
        <ele>61.20000076294</ele>
        <time>2016-03-21T21:06:56Z</time>
      </trkpt>
      <trkpt lat="48.82814" lon="2.46561">
        <ele>60.79999923706</ele>
        <time>2016-03-21T21:07:00Z</time>
      </trkpt>
      <trkpt lat="48.82831" lon="2.4658">
        <ele>60.20000076294</ele>
        <time>2016-03-21T21:07:05Z</time>
      </trkpt>
      <trkpt lat="48.82848" lon="2.466">
        <ele>59</ele>
        <time>2016-03-21T21:07:10Z</time>
      </trkpt>
      <trkpt lat="48.82866" lon="2.46619">
        <ele>58.400001525879</ele>
        <time>2016-03-21T21:07:15Z</time>
      </trkpt>
      <trkpt lat="48.82881" lon="2.46638">
        <ele>58.20000076294</ele>
        <time>2016-03-21T21:07:19Z</time>
      </trkpt>
      <trkpt lat="48.82897" lon="2.46655">
        <ele>58.20000076294</ele>
        <time>2016-03-21T21:07:23Z</time>
      </trkpt>
      <trkpt lat="48.82916" lon="2.46672">
        <ele>58</ele>
        <time>2016-03-21T21:07:27Z</time>
      </trkpt>
      <trkpt lat="48.82931" lon="2.46688">
        <ele>57.400001525879</ele>
        <time>2016-03-21T21:07:31Z</time>
      </trkpt>
      <trkpt lat="48.82934" lon="2.46694">
        <ele>57.20000076294</ele>
        <time>2016-03-21T21:07:32Z</time>
      </trkpt>
      <trkpt lat="48.82952" lon="2.46717">
        <ele>57</ele>
        <time>2016-03-21T21:07:36Z</time>
      </trkpt>
      <trkpt lat="48.82967" lon="2.46734">
        <ele>57.20000076294</ele>
        <time>2016-03-21T21:07:39Z</time>
      </trkpt>
      <trkpt lat="48.82984" lon="2.46755">
        <ele>57.400001525879</ele>
        <time>2016-03-21T21:07:43Z</time>
      </trkpt>
      <trkpt lat="48.82999" lon="2.46774">
        <ele>57.599998474121</ele>
        <time>2016-03-21T21:07:47Z</time>
      </trkpt>
      <trkpt lat="48.83015" lon="2.46793">
        <ele>57.79999923706</ele>
        <time>2016-03-21T21:07:51Z</time>
      </trkpt>
      <trkpt lat="48.8303" lon="2.46808">
        <ele>57.79999923706</ele>
        <time>2016-03-21T21:07:55Z</time>
      </trkpt>
      <trkpt lat="48.83047" lon="2.46824">
        <ele>57.79999923706</ele>
        <time>2016-03-21T21:08:00Z</time>
      </trkpt>
      <trkpt lat="48.83064" lon="2.46839">
        <ele>57.79999923706</ele>
        <time>2016-03-21T21:08:05Z</time>
      </trkpt>
      <trkpt lat="48.83079" lon="2.46862">
        <ele>57.599998474121</ele>
        <time>2016-03-21T21:08:09Z</time>
      </trkpt>
      <trkpt lat="48.83091" lon="2.46879">
        <ele>57.599998474121</ele>
        <time>2016-03-21T21:08:11Z</time>
      </trkpt>
      <trkpt lat="48.83105" lon="2.46899">
        <ele>57.599998474121</ele>
        <time>2016-03-21T21:08:15Z</time>
      </trkpt>
      <trkpt lat="48.83108" lon="2.46902">
        <ele>57.599998474121</ele>
        <time>2016-03-21T21:08:16Z</time>
      </trkpt>
      <trkpt lat="48.83119" lon="2.46913">
        <ele>57.400001525879</ele>
        <time>2016-03-21T21:08:20Z</time>
      </trkpt>
      <trkpt lat="48.83136" lon="2.46932">
        <ele>57.79999923706</ele>
        <time>2016-03-21T21:08:25Z</time>
      </trkpt>
      <trkpt lat="48.83154" lon="2.46951">
        <ele>58.20000076294</ele>
        <time>2016-03-21T21:08:29Z</time>
      </trkpt>
      <trkpt lat="48.83166" lon="2.46964">
        <ele>58.400001525879</ele>
        <time>2016-03-21T21:08:31Z</time>
      </trkpt>
      <trkpt lat="48.83184" lon="2.46984">
        <ele>58.79999923706</ele>
        <time>2016-03-21T21:08:34Z</time>
      </trkpt>
      <trkpt lat="48.83202" lon="2.47009">
        <ele>59.20000076294</ele>
        <time>2016-03-21T21:08:37Z</time>
      </trkpt>
      <trkpt lat="48.8322" lon="2.47028">
        <ele>59.400001525879</ele>
        <time>2016-03-21T21:08:40Z</time>
      </trkpt>
      <trkpt lat="48.83239" lon="2.47046">
        <ele>59.599998474121</ele>
        <time>2016-03-21T21:08:43Z</time>
      </trkpt>
      <trkpt lat="48.83261" lon="2.47071">
        <ele>59.79999923706</ele>
        <time>2016-03-21T21:08:46Z</time>
      </trkpt>
      <trkpt lat="48.83279" lon="2.47094">
        <ele>60</ele>
        <time>2016-03-21T21:08:49Z</time>
      </trkpt>
      <trkpt lat="48.83295" lon="2.47113">
        <ele>60.20000076294</ele>
        <time>2016-03-21T21:08:52Z</time>
      </trkpt>
      <trkpt lat="48.83311" lon="2.47131">
        <ele>60.400001525879</ele>
        <time>2016-03-21T21:08:56Z</time>
      </trkpt>
      <trkpt lat="48.83318" lon="2.47136">
        <ele>60.599998474121</ele>
        <time>2016-03-21T21:08:58Z</time>
      </trkpt>
      <trkpt lat="48.83331" lon="2.47123">
        <ele>60.400001525879</ele>
        <time>2016-03-21T21:09:06Z</time>
      </trkpt>
      <trkpt lat="48.83339" lon="2.47124">
        <ele>60.400001525879</ele>
        <time>2016-03-21T21:09:09Z</time>
      </trkpt>
      <trkpt lat="48.8336" lon="2.47128">
        <ele>60.79999923706</ele>
        <time>2016-03-21T21:09:16Z</time>
      </trkpt>
      <trkpt lat="48.8338" lon="2.47133">
        <ele>61.79999923706</ele>
        <time>2016-03-21T21:09:22Z</time>
      </trkpt>
      <trkpt lat="48.83387" lon="2.47134">
        <ele>62.20000076294</ele>
        <time>2016-03-21T21:09:24Z</time>
      </trkpt>
      <trkpt lat="48.83407" lon="2.47134">
        <ele>63</ele>
        <time>2016-03-21T21:09:30Z</time>
      </trkpt>
      <trkpt lat="48.83409" lon="2.47133">
        <ele>63.20000076294</ele>
        <time>2016-03-21T21:09:31Z</time>
      </trkpt>
      <trkpt lat="48.83429" lon="2.47134">
        <ele>63.79999923706</ele>
        <time>2016-03-21T21:09:37Z</time>
      </trkpt>
      <trkpt lat="48.83433" lon="2.47134">
        <ele>64</ele>
        <time>2016-03-21T21:09:38Z</time>
      </trkpt>
      <trkpt lat="48.83448" lon="2.47136">
        <ele>64.199996948242</ele>
        <time>2016-03-21T21:09:41Z</time>
      </trkpt>
      <trkpt lat="48.83462" lon="2.47137">
        <ele>64.400001525879</ele>
        <time>2016-03-21T21:09:44Z</time>
      </trkpt>
      <trkpt lat="48.83483" lon="2.47139">
        <ele>64.400001525879</ele>
        <time>2016-03-21T21:09:48Z</time>
      </trkpt>
      <trkpt lat="48.83502" lon="2.47142">
        <ele>64.400001525879</ele>
        <time>2016-03-21T21:09:52Z</time>
      </trkpt>
      <trkpt lat="48.8352" lon="2.47143">
        <ele>64.599998474121</ele>
        <time>2016-03-21T21:09:56Z</time>
      </trkpt>
      <trkpt lat="48.83531" lon="2.47143">
        <ele>64.599998474121</ele>
        <time>2016-03-21T21:09:58Z</time>
      </trkpt>
      <trkpt lat="48.83549" lon="2.47141">
        <ele>64</ele>
        <time>2016-03-21T21:10:02Z</time>
      </trkpt>
      <trkpt lat="48.83558" lon="2.4714">
        <ele>63.79999923706</ele>
        <time>2016-03-21T21:10:04Z</time>
      </trkpt>
      <trkpt lat="48.83575" lon="2.47152">
        <ele>63.599998474121</ele>
        <time>2016-03-21T21:10:10Z</time>
      </trkpt>
      <trkpt lat="48.83584" lon="2.47158">
        <ele>63.400001525879</ele>
        <time>2016-03-21T21:10:15Z</time>
      </trkpt>
      <trkpt lat="48.83585" lon="2.47157">
        <ele>63.400001525879</ele>
        <time>2016-03-21T21:10:16Z</time>
      </trkpt>
      <trkpt lat="48.83601" lon="2.47154">
        <ele>63.20000076294</ele>
        <time>2016-03-21T21:10:44Z</time>
      </trkpt>
      <trkpt lat="48.83614" lon="2.47142">
        <ele>63.20000076294</ele>
        <time>2016-03-21T21:11:04Z</time>
      </trkpt>
      <trkpt lat="48.83633" lon="2.47134">
        <ele>63</ele>
        <time>2016-03-21T21:11:09Z</time>
      </trkpt>
      <trkpt lat="48.83653" lon="2.47129">
        <ele>62.79999923706</ele>
        <time>2016-03-21T21:11:13Z</time>
      </trkpt>
      <trkpt lat="48.83674" lon="2.47126">
        <ele>62.599998474121</ele>
        <time>2016-03-21T21:11:17Z</time>
      </trkpt>
      <trkpt lat="48.83692" lon="2.4712">
        <ele>62.599998474121</ele>
        <time>2016-03-21T21:11:20Z</time>
      </trkpt>
      <trkpt lat="48.83712" lon="2.4711">
        <ele>63.400001525879</ele>
        <time>2016-03-21T21:11:23Z</time>
      </trkpt>
      <trkpt lat="48.83734" lon="2.471">
        <ele>63.400001525879</ele>
        <time>2016-03-21T21:11:27Z</time>
      </trkpt>
      <trkpt lat="48.8374" lon="2.47098">
        <ele>63.400001525879</ele>
        <time>2016-03-21T21:11:28Z</time>
      </trkpt>
      <trkpt lat="48.83758" lon="2.4709">
        <ele>63.20000076294</ele>
        <time>2016-03-21T21:11:31Z</time>
      </trkpt>
      <trkpt lat="48.83764" lon="2.47087">
        <ele>63.20000076294</ele>
        <time>2016-03-21T21:11:32Z</time>
      </trkpt>
      <trkpt lat="48.83776" lon="2.47082">
        <ele>63</ele>
        <time>2016-03-21T21:11:34Z</time>
      </trkpt>
      <trkpt lat="48.83793" lon="2.47072">
        <ele>62.79999923706</ele>
        <time>2016-03-21T21:11:37Z</time>
      </trkpt>
      <trkpt lat="48.83813" lon="2.4706">
        <ele>62.79999923706</ele>
        <time>2016-03-21T21:11:40Z</time>
      </trkpt>
      <trkpt lat="48.83833" lon="2.47045">
        <ele>63</ele>
        <time>2016-03-21T21:11:43Z</time>
      </trkpt>
      <trkpt lat="48.83852" lon="2.47031">
        <ele>63.599998474121</ele>
        <time>2016-03-21T21:11:46Z</time>
      </trkpt>
      <trkpt lat="48.8387" lon="2.47016">
        <ele>64.199996948242</ele>
        <time>2016-03-21T21:11:49Z</time>
      </trkpt>
      <trkpt lat="48.83888" lon="2.47002">
        <ele>63.400001525879</ele>
        <time>2016-03-21T21:11:52Z</time>
      </trkpt>
      <trkpt lat="48.83905" lon="2.46987">
        <ele>62.599998474121</ele>
        <time>2016-03-21T21:11:55Z</time>
      </trkpt>
      <trkpt lat="48.83921" lon="2.46971">
        <ele>62.20000076294</ele>
        <time>2016-03-21T21:11:58Z</time>
      </trkpt>
      <trkpt lat="48.83939" lon="2.46955">
        <ele>62.599998474121</ele>
        <time>2016-03-21T21:12:01Z</time>
      </trkpt>
      <trkpt lat="48.83956" lon="2.46939">
        <ele>63.599998474121</ele>
        <time>2016-03-21T21:12:04Z</time>
      </trkpt>
      <trkpt lat="48.83974" lon="2.46921">
        <ele>62.79999923706</ele>
        <time>2016-03-21T21:12:07Z</time>
      </trkpt>
      <trkpt lat="48.83991" lon="2.46905">
        <ele>62.400001525879</ele>
        <time>2016-03-21T21:12:10Z</time>
      </trkpt>
      <trkpt lat="48.83997" lon="2.469">
        <ele>62.400001525879</ele>
        <time>2016-03-21T21:12:11Z</time>
      </trkpt>
      <trkpt lat="48.84014" lon="2.46886">
        <ele>62.20000076294</ele>
        <time>2016-03-21T21:12:14Z</time>
      </trkpt>
      <trkpt lat="48.84029" lon="2.4687">
        <ele>62.20000076294</ele>
        <time>2016-03-21T21:12:17Z</time>
      </trkpt>
      <trkpt lat="48.84034" lon="2.46866">
        <ele>62.20000076294</ele>
        <time>2016-03-21T21:12:18Z</time>
      </trkpt>
      <trkpt lat="48.8405" lon="2.46851">
        <ele>62.599998474121</ele>
        <time>2016-03-21T21:12:21Z</time>
      </trkpt>
      <trkpt lat="48.84066" lon="2.46834">
        <ele>62.599998474121</ele>
        <time>2016-03-21T21:12:24Z</time>
      </trkpt>
      <trkpt lat="48.84083" lon="2.46818">
        <ele>62.79999923706</ele>
        <time>2016-03-21T21:12:27Z</time>
      </trkpt>
      <trkpt lat="48.84102" lon="2.46796">
        <ele>63.400001525879</ele>
        <time>2016-03-21T21:12:31Z</time>
      </trkpt>
      <trkpt lat="48.84117" lon="2.46778">
        <ele>64</ele>
        <time>2016-03-21T21:12:34Z</time>
      </trkpt>
      <trkpt lat="48.84127" lon="2.46768">
        <ele>64.199996948242</ele>
        <time>2016-03-21T21:12:36Z</time>
      </trkpt>
      <trkpt lat="48.84145" lon="2.46748">
        <ele>64</ele>
        <time>2016-03-21T21:12:40Z</time>
      </trkpt>
      <trkpt lat="48.84163" lon="2.46726">
        <ele>63.79999923706</ele>
        <time>2016-03-21T21:12:44Z</time>
      </trkpt>
      <trkpt lat="48.8418" lon="2.46703">
        <ele>64.800003051758</ele>
        <time>2016-03-21T21:12:48Z</time>
      </trkpt>
      <trkpt lat="48.84196" lon="2.4668">
        <ele>65.800003051758</ele>
        <time>2016-03-21T21:12:52Z</time>
      </trkpt>
      <trkpt lat="48.84213" lon="2.46657">
        <ele>65.199996948242</ele>
        <time>2016-03-21T21:12:56Z</time>
      </trkpt>
      <trkpt lat="48.84221" lon="2.46645">
        <ele>64.800003051758</ele>
        <time>2016-03-21T21:12:58Z</time>
      </trkpt>
      <trkpt lat="48.84232" lon="2.46625">
        <ele>64</ele>
        <time>2016-03-21T21:13:01Z</time>
      </trkpt>
      <trkpt lat="48.8424" lon="2.46612">
        <ele>63.79999923706</ele>
        <time>2016-03-21T21:13:03Z</time>
      </trkpt>
      <trkpt lat="48.84251" lon="2.46591">
        <ele>63.400001525879</ele>
        <time>2016-03-21T21:13:06Z</time>
      </trkpt>
      <trkpt lat="48.84263" lon="2.4657">
        <ele>63</ele>
        <time>2016-03-21T21:13:09Z</time>
      </trkpt>
      <trkpt lat="48.84271" lon="2.46556">
        <ele>62.599998474121</ele>
        <time>2016-03-21T21:13:11Z</time>
      </trkpt>
      <trkpt lat="48.84284" lon="2.46529">
        <ele>62.599998474121</ele>
        <time>2016-03-21T21:13:15Z</time>
      </trkpt>
      <trkpt lat="48.84293" lon="2.4651">
        <ele>62.599998474121</ele>
        <time>2016-03-21T21:13:18Z</time>
      </trkpt>
      <trkpt lat="48.843" lon="2.46488">
        <ele>62.400001525879</ele>
        <time>2016-03-21T21:13:23Z</time>
      </trkpt>
      <trkpt lat="48.84301" lon="2.46494">
        <ele>62.400001525879</ele>
        <time>2016-03-21T21:14:32Z</time>
      </trkpt>
      <trkpt lat="48.84306" lon="2.46473">
        <ele>62.79999923706</ele>
        <time>2016-03-21T21:14:56Z</time>
      </trkpt>
      <trkpt lat="48.84319" lon="2.46452">
        <ele>62.79999923706</ele>
        <time>2016-03-21T21:15:02Z</time>
      </trkpt>
      <trkpt lat="48.84332" lon="2.46428">
        <ele>61.79999923706</ele>
        <time>2016-03-21T21:15:07Z</time>
      </trkpt>
      <trkpt lat="48.84338" lon="2.46418">
        <ele>61.400001525879</ele>
        <time>2016-03-21T21:15:09Z</time>
      </trkpt>
      <trkpt lat="48.84351" lon="2.46392">
        <ele>61</ele>
        <time>2016-03-21T21:15:13Z</time>
      </trkpt>
      <trkpt lat="48.8436" lon="2.46365">
        <ele>61</ele>
        <time>2016-03-21T21:15:17Z</time>
      </trkpt>
      <trkpt lat="48.84368" lon="2.46338">
        <ele>61</ele>
        <time>2016-03-21T21:15:21Z</time>
      </trkpt>
      <trkpt lat="48.84378" lon="2.46312">
        <ele>61</ele>
        <time>2016-03-21T21:15:25Z</time>
      </trkpt>
      <trkpt lat="48.84387" lon="2.46286">
        <ele>61</ele>
        <time>2016-03-21T21:15:29Z</time>
      </trkpt>
      <trkpt lat="48.84396" lon="2.46263">
        <ele>60.599998474121</ele>
        <time>2016-03-21T21:15:33Z</time>
      </trkpt>
      <trkpt lat="48.84406" lon="2.46238">
        <ele>60.20000076294</ele>
        <time>2016-03-21T21:15:37Z</time>
      </trkpt>
      <trkpt lat="48.84414" lon="2.46211">
        <ele>59.599998474121</ele>
        <time>2016-03-21T21:15:41Z</time>
      </trkpt>
      <trkpt lat="48.84421" lon="2.46182">
        <ele>58.79999923706</ele>
        <time>2016-03-21T21:15:45Z</time>
      </trkpt>
      <trkpt lat="48.84426" lon="2.4616">
        <ele>58</ele>
        <time>2016-03-21T21:15:48Z</time>
      </trkpt>
      <trkpt lat="48.84434" lon="2.4613">
        <ele>57.599998474121</ele>
        <time>2016-03-21T21:15:52Z</time>
      </trkpt>
      <trkpt lat="48.84441" lon="2.46097">
        <ele>57.20000076294</ele>
        <time>2016-03-21T21:15:56Z</time>
      </trkpt>
      <trkpt lat="48.84446" lon="2.46072">
        <ele>57.20000076294</ele>
        <time>2016-03-21T21:15:59Z</time>
      </trkpt>
      <trkpt lat="48.84452" lon="2.46039">
        <ele>57.400001525879</ele>
        <time>2016-03-21T21:16:03Z</time>
      </trkpt>
      <trkpt lat="48.84458" lon="2.46005">
        <ele>57.20000076294</ele>
        <time>2016-03-21T21:16:07Z</time>
      </trkpt>
      <trkpt lat="48.84462" lon="2.45977">
        <ele>56.79999923706</ele>
        <time>2016-03-21T21:16:10Z</time>
      </trkpt>
      <trkpt lat="48.84466" lon="2.4595">
        <ele>56.400001525879</ele>
        <time>2016-03-21T21:16:13Z</time>
      </trkpt>
      <trkpt lat="48.84473" lon="2.45917">
        <ele>56</ele>
        <time>2016-03-21T21:16:17Z</time>
      </trkpt>
      <trkpt lat="48.84477" lon="2.4589">
        <ele>56.599998474121</ele>
        <time>2016-03-21T21:16:20Z</time>
      </trkpt>
      <trkpt lat="48.84483" lon="2.45864">
        <ele>56.79999923706</ele>
        <time>2016-03-21T21:16:23Z</time>
      </trkpt>
      <trkpt lat="48.84487" lon="2.45837">
        <ele>56.400001525879</ele>
        <time>2016-03-21T21:16:26Z</time>
      </trkpt>
      <trkpt lat="48.84492" lon="2.45802">
        <ele>55.400001525879</ele>
        <time>2016-03-21T21:16:30Z</time>
      </trkpt>
      <trkpt lat="48.84497" lon="2.45776">
        <ele>55</ele>
        <time>2016-03-21T21:16:33Z</time>
      </trkpt>
      <trkpt lat="48.84502" lon="2.45749">
        <ele>54.400001525879</ele>
        <time>2016-03-21T21:16:36Z</time>
      </trkpt>
      <trkpt lat="48.84505" lon="2.45722">
        <ele>54.20000076294</ele>
        <time>2016-03-21T21:16:39Z</time>
      </trkpt>
      <trkpt lat="48.84511" lon="2.45687">
        <ele>53.599998474121</ele>
        <time>2016-03-21T21:16:43Z</time>
      </trkpt>
      <trkpt lat="48.84517" lon="2.4566">
        <ele>53.20000076294</ele>
        <time>2016-03-21T21:16:46Z</time>
      </trkpt>
      <trkpt lat="48.84524" lon="2.45625">
        <ele>54</ele>
        <time>2016-03-21T21:16:50Z</time>
      </trkpt>
      <trkpt lat="48.8453" lon="2.45598">
        <ele>54.599998474121</ele>
        <time>2016-03-21T21:16:53Z</time>
      </trkpt>
      <trkpt lat="48.84535" lon="2.45571">
        <ele>54.20000076294</ele>
        <time>2016-03-21T21:16:56Z</time>
      </trkpt>
      <trkpt lat="48.84541" lon="2.4554">
        <ele>53.599998474121</ele>
        <time>2016-03-21T21:17:00Z</time>
      </trkpt>
      <trkpt lat="48.84547" lon="2.45508">
        <ele>53.400001525879</ele>
        <time>2016-03-21T21:17:04Z</time>
      </trkpt>
      <trkpt lat="48.84552" lon="2.45474">
        <ele>53.20000076294</ele>
        <time>2016-03-21T21:17:08Z</time>
      </trkpt>
      <trkpt lat="48.84558" lon="2.4544">
        <ele>53</ele>
        <time>2016-03-21T21:17:12Z</time>
      </trkpt>
      <trkpt lat="48.84564" lon="2.45406">
        <ele>52.79999923706</ele>
        <time>2016-03-21T21:17:16Z</time>
      </trkpt>
      <trkpt lat="48.84567" lon="2.45373">
        <ele>53.400001525879</ele>
        <time>2016-03-21T21:17:20Z</time>
      </trkpt>
      <trkpt lat="48.84571" lon="2.45356">
        <ele>53.79999923706</ele>
        <time>2016-03-21T21:17:22Z</time>
      </trkpt>
      <trkpt lat="48.84577" lon="2.45322">
        <ele>54.20000076294</ele>
        <time>2016-03-21T21:17:26Z</time>
      </trkpt>
      <trkpt lat="48.84583" lon="2.45289">
        <ele>54.400001525879</ele>
        <time>2016-03-21T21:17:30Z</time>
      </trkpt>
      <trkpt lat="48.84588" lon="2.45257">
        <ele>54.599998474121</ele>
        <time>2016-03-21T21:17:34Z</time>
      </trkpt>
      <trkpt lat="48.84595" lon="2.45222">
        <ele>54.20000076294</ele>
        <time>2016-03-21T21:17:38Z</time>
      </trkpt>
      <trkpt lat="48.84601" lon="2.45191">
        <ele>53.599998474121</ele>
        <time>2016-03-21T21:17:42Z</time>
      </trkpt>
      <trkpt lat="48.84605" lon="2.45161">
        <ele>53.20000076294</ele>
        <time>2016-03-21T21:17:47Z</time>
      </trkpt>
      <trkpt lat="48.84605" lon="2.45157">
        <ele>53.20000076294</ele>
        <time>2016-03-21T21:17:48Z</time>
      </trkpt>
      <trkpt lat="48.84607" lon="2.45147">
        <ele>53.20000076294</ele>
        <time>2016-03-21T21:17:51Z</time>
      </trkpt>
      <trkpt lat="48.84612" lon="2.45122">
        <ele>53.79999923706</ele>
        <time>2016-03-21T21:18:35Z</time>
      </trkpt>
      <trkpt lat="48.84617" lon="2.45095">
        <ele>54.20000076294</ele>
        <time>2016-03-21T21:18:41Z</time>
      </trkpt>
      <trkpt lat="48.8462" lon="2.45066">
        <ele>54.599998474121</ele>
        <time>2016-03-21T21:18:46Z</time>
      </trkpt>
      <trkpt lat="48.84621" lon="2.45038">
        <ele>54.79999923706</ele>
        <time>2016-03-21T21:18:50Z</time>
      </trkpt>
      <trkpt lat="48.84621" lon="2.45014">
        <ele>54.79999923706</ele>
        <time>2016-03-21T21:18:53Z</time>
      </trkpt>
      <trkpt lat="48.84625" lon="2.44981">
        <ele>55</ele>
        <time>2016-03-21T21:18:57Z</time>
      </trkpt>
      <trkpt lat="48.84629" lon="2.44947">
        <ele>54.79999923706</ele>
        <time>2016-03-21T21:19:01Z</time>
      </trkpt>
      <trkpt lat="48.84631" lon="2.4492">
        <ele>54.79999923706</ele>
        <time>2016-03-21T21:19:04Z</time>
      </trkpt>
      <trkpt lat="48.84633" lon="2.44891">
        <ele>55.20000076294</ele>
        <time>2016-03-21T21:19:07Z</time>
      </trkpt>
      <trkpt lat="48.84638" lon="2.44862">
        <ele>55.79999923706</ele>
        <time>2016-03-21T21:19:10Z</time>
      </trkpt>
      <trkpt lat="48.84644" lon="2.44832">
        <ele>55.400001525879</ele>
        <time>2016-03-21T21:19:13Z</time>
      </trkpt>
      <trkpt lat="48.84649" lon="2.44805">
        <ele>55.599998474121</ele>
        <time>2016-03-21T21:19:16Z</time>
      </trkpt>
      <trkpt lat="48.84655" lon="2.4477">
        <ele>55.79999923706</ele>
        <time>2016-03-21T21:19:20Z</time>
      </trkpt>
      <trkpt lat="48.84657" lon="2.44737">
        <ele>55.599998474121</ele>
        <time>2016-03-21T21:19:24Z</time>
      </trkpt>
      <trkpt lat="48.8466" lon="2.4471">
        <ele>54.79999923706</ele>
        <time>2016-03-21T21:19:27Z</time>
      </trkpt>
      <trkpt lat="48.84664" lon="2.44676">
        <ele>53.20000076294</ele>
        <time>2016-03-21T21:19:31Z</time>
      </trkpt>
      <trkpt lat="48.84664" lon="2.44642">
        <ele>53.20000076294</ele>
        <time>2016-03-21T21:19:35Z</time>
      </trkpt>
      <trkpt lat="48.84667" lon="2.44608">
        <ele>53.20000076294</ele>
        <time>2016-03-21T21:19:39Z</time>
      </trkpt>
      <trkpt lat="48.84669" lon="2.44574">
        <ele>53.599998474121</ele>
        <time>2016-03-21T21:19:43Z</time>
      </trkpt>
      <trkpt lat="48.84667" lon="2.44542">
        <ele>54</ele>
        <time>2016-03-21T21:19:47Z</time>
      </trkpt>
      <trkpt lat="48.84667" lon="2.4451">
        <ele>54</ele>
        <time>2016-03-21T21:19:51Z</time>
      </trkpt>
      <trkpt lat="48.84668" lon="2.44477">
        <ele>53.599998474121</ele>
        <time>2016-03-21T21:19:55Z</time>
      </trkpt>
      <trkpt lat="48.84669" lon="2.44444">
        <ele>53.400001525879</ele>
        <time>2016-03-21T21:19:59Z</time>
      </trkpt>
      <trkpt lat="48.84671" lon="2.4441">
        <ele>53.400001525879</ele>
        <time>2016-03-21T21:20:03Z</time>
      </trkpt>
      <trkpt lat="48.84671" lon="2.44394">
        <ele>53.20000076294</ele>
        <time>2016-03-21T21:20:05Z</time>
      </trkpt>
      <trkpt lat="48.84676" lon="2.44362">
        <ele>53.599998474121</ele>
        <time>2016-03-21T21:20:09Z</time>
      </trkpt>
      <trkpt lat="48.84676" lon="2.44331">
        <ele>54</ele>
        <time>2016-03-21T21:20:13Z</time>
      </trkpt>
      <trkpt lat="48.84678" lon="2.44298">
        <ele>54.20000076294</ele>
        <time>2016-03-21T21:20:17Z</time>
      </trkpt>
      <trkpt lat="48.84678" lon="2.44267">
        <ele>54.20000076294</ele>
        <time>2016-03-21T21:20:21Z</time>
      </trkpt>
      <trkpt lat="48.84679" lon="2.44259">
        <ele>54.20000076294</ele>
        <time>2016-03-21T21:20:22Z</time>
      </trkpt>
      <trkpt lat="48.84679" lon="2.44227">
        <ele>54</ele>
        <time>2016-03-21T21:20:26Z</time>
      </trkpt>
      <trkpt lat="48.84681" lon="2.44218">
        <ele>53.79999923706</ele>
        <time>2016-03-21T21:20:27Z</time>
      </trkpt>
      <trkpt lat="48.84682" lon="2.44183">
        <ele>53.400001525879</ele>
        <time>2016-03-21T21:20:31Z</time>
      </trkpt>
      <trkpt lat="48.84684" lon="2.4415">
        <ele>52.79999923706</ele>
        <time>2016-03-21T21:20:35Z</time>
      </trkpt>
      <trkpt lat="48.84685" lon="2.44118">
        <ele>52.400001525879</ele>
        <time>2016-03-21T21:20:39Z</time>
      </trkpt>
      <trkpt lat="48.84685" lon="2.44086">
        <ele>52</ele>
        <time>2016-03-21T21:20:43Z</time>
      </trkpt>
      <trkpt lat="48.84687" lon="2.44056">
        <ele>52</ele>
        <time>2016-03-21T21:20:47Z</time>
      </trkpt>
      <trkpt lat="48.8469" lon="2.44028">
        <ele>52</ele>
        <time>2016-03-21T21:20:51Z</time>
      </trkpt>
      <trkpt lat="48.84693" lon="2.43999">
        <ele>52</ele>
        <time>2016-03-21T21:20:56Z</time>
      </trkpt>
      <trkpt lat="48.84688" lon="2.43968">
        <ele>52.79999923706</ele>
        <time>2016-03-21T21:21:02Z</time>
      </trkpt>
      <trkpt lat="48.84689" lon="2.43963">
        <ele>52.79999923706</ele>
        <time>2016-03-21T21:21:03Z</time>
      </trkpt>
      <trkpt lat="48.84692" lon="2.43952">
        <ele>53.20000076294</ele>
        <time>2016-03-21T21:21:05Z</time>
      </trkpt>
      <trkpt lat="48.84694" lon="2.43944">
        <ele>53.400001525879</ele>
        <time>2016-03-21T21:21:07Z</time>
      </trkpt>
      <trkpt lat="48.84694" lon="2.43935">
        <ele>53.599998474121</ele>
        <time>2016-03-21T21:21:10Z</time>
      </trkpt>
      <trkpt lat="48.84705" lon="2.4392">
        <ele>54.400001525879</ele>
        <time>2016-03-21T21:21:17Z</time>
      </trkpt>
      <trkpt lat="48.84706" lon="2.43917">
        <ele>54.599998474121</ele>
        <time>2016-03-21T21:21:18Z</time>
      </trkpt>
      <trkpt lat="48.84709" lon="2.43901">
        <ele>55.20000076294</ele>
        <time>2016-03-21T21:21:23Z</time>
      </trkpt>
      <trkpt lat="48.8471" lon="2.43895">
        <ele>55.599998474121</ele>
        <time>2016-03-21T21:21:25Z</time>
      </trkpt>
      <trkpt lat="48.84714" lon="2.43867">
        <ele>56.599998474121</ele>
        <time>2016-03-21T21:21:32Z</time>
      </trkpt>
      <trkpt lat="48.84713" lon="2.43837">
        <ele>57</ele>
        <time>2016-03-21T21:21:39Z</time>
      </trkpt>
      <trkpt lat="48.84713" lon="2.4381">
        <ele>57</ele>
        <time>2016-03-21T21:21:46Z</time>
      </trkpt>
      <trkpt lat="48.84715" lon="2.43781">
        <ele>57</ele>
        <time>2016-03-21T21:21:52Z</time>
      </trkpt>
      <trkpt lat="48.84721" lon="2.43754">
        <ele>57.400001525879</ele>
        <time>2016-03-21T21:21:58Z</time>
      </trkpt>
      <trkpt lat="48.84721" lon="2.43724">
        <ele>56.79999923706</ele>
        <time>2016-03-21T21:22:05Z</time>
      </trkpt>
      <trkpt lat="48.8472" lon="2.43696">
        <ele>56</ele>
        <time>2016-03-21T21:22:11Z</time>
      </trkpt>
      <trkpt lat="48.84721" lon="2.43689">
        <ele>56</ele>
        <time>2016-03-21T21:22:13Z</time>
      </trkpt>
      <trkpt lat="48.84724" lon="2.43662">
        <ele>55.400001525879</ele>
        <time>2016-03-21T21:22:19Z</time>
      </trkpt>
      <trkpt lat="48.84724" lon="2.43633">
        <ele>55.400001525879</ele>
        <time>2016-03-21T21:22:24Z</time>
      </trkpt>
      <trkpt lat="48.84721" lon="2.43604">
        <ele>55.599998474121</ele>
        <time>2016-03-21T21:22:29Z</time>
      </trkpt>
      <trkpt lat="48.84721" lon="2.43576">
        <ele>56.400001525879</ele>
        <time>2016-03-21T21:22:34Z</time>
      </trkpt>
      <trkpt lat="48.84724" lon="2.43548">
        <ele>57.79999923706</ele>
        <time>2016-03-21T21:22:39Z</time>
      </trkpt>
      <trkpt lat="48.84734" lon="2.4352">
        <ele>58.400001525879</ele>
        <time>2016-03-21T21:22:44Z</time>
      </trkpt>
      <trkpt lat="48.84732" lon="2.4349">
        <ele>58.400001525879</ele>
        <time>2016-03-21T21:22:49Z</time>
      </trkpt>
      <trkpt lat="48.84734" lon="2.43463">
        <ele>58.400001525879</ele>
        <time>2016-03-21T21:22:54Z</time>
      </trkpt>
      <trkpt lat="48.84739" lon="2.43435">
        <ele>58.79999923706</ele>
        <time>2016-03-21T21:23:00Z</time>
      </trkpt>
      <trkpt lat="48.84751" lon="2.43408">
        <ele>59</ele>
        <time>2016-03-21T21:23:07Z</time>
      </trkpt>
      <trkpt lat="48.84755" lon="2.43381">
        <ele>58.599998474121</ele>
        <time>2016-03-21T21:23:15Z</time>
      </trkpt>
      <trkpt lat="48.84754" lon="2.43351">
        <ele>58.20000076294</ele>
        <time>2016-03-21T21:23:25Z</time>
      </trkpt>
      <trkpt lat="48.84756" lon="2.43324">
        <ele>57.599998474121</ele>
        <time>2016-03-21T21:23:33Z</time>
      </trkpt>
      <trkpt lat="48.84761" lon="2.43294">
        <ele>56.599998474121</ele>
        <time>2016-03-21T21:23:42Z</time>
      </trkpt>
      <trkpt lat="48.8476" lon="2.43261">
        <ele>55.400001525879</ele>
        <time>2016-03-21T21:23:49Z</time>
      </trkpt>
      <trkpt lat="48.84761" lon="2.43229">
        <ele>54.599998474121</ele>
        <time>2016-03-21T21:23:54Z</time>
      </trkpt>
      <trkpt lat="48.84761" lon="2.432">
        <ele>54.20000076294</ele>
        <time>2016-03-21T21:23:58Z</time>
      </trkpt>
      <trkpt lat="48.8476" lon="2.43171">
        <ele>54</ele>
        <time>2016-03-21T21:24:02Z</time>
      </trkpt>
      <trkpt lat="48.8476" lon="2.43139">
        <ele>53.79999923706</ele>
        <time>2016-03-21T21:24:07Z</time>
      </trkpt>
      <trkpt lat="48.84763" lon="2.43112">
        <ele>53.400001525879</ele>
        <time>2016-03-21T21:24:12Z</time>
      </trkpt>
      <trkpt lat="48.84763" lon="2.4308">
        <ele>53.20000076294</ele>
        <time>2016-03-21T21:24:17Z</time>
      </trkpt>
      <trkpt lat="48.84764" lon="2.4305">
        <ele>53.400001525879</ele>
        <time>2016-03-21T21:24:21Z</time>
      </trkpt>
      <trkpt lat="48.84764" lon="2.4302">
        <ele>53.79999923706</ele>
        <time>2016-03-21T21:24:25Z</time>
      </trkpt>
      <trkpt lat="48.8476" lon="2.42984">
        <ele>53.79999923706</ele>
        <time>2016-03-21T21:24:29Z</time>
      </trkpt>
      <trkpt lat="48.84753" lon="2.42951">
        <ele>53.400001525879</ele>
        <time>2016-03-21T21:24:33Z</time>
      </trkpt>
      <trkpt lat="48.8475" lon="2.42918">
        <ele>53</ele>
        <time>2016-03-21T21:24:37Z</time>
      </trkpt>
      <trkpt lat="48.84743" lon="2.42891">
        <ele>52.79999923706</ele>
        <time>2016-03-21T21:24:40Z</time>
      </trkpt>
      <trkpt lat="48.8474" lon="2.42856">
        <ele>52</ele>
        <time>2016-03-21T21:24:44Z</time>
      </trkpt>
      <trkpt lat="48.84738" lon="2.42823">
        <ele>51.400001525879</ele>
        <time>2016-03-21T21:24:48Z</time>
      </trkpt>
      <trkpt lat="48.84737" lon="2.42791">
        <ele>51.599998474121</ele>
        <time>2016-03-21T21:24:52Z</time>
      </trkpt>
      <trkpt lat="48.84735" lon="2.42761">
        <ele>52.20000076294</ele>
        <time>2016-03-21T21:24:56Z</time>
      </trkpt>
      <trkpt lat="48.8473" lon="2.42733">
        <ele>52.599998474121</ele>
        <time>2016-03-21T21:25:00Z</time>
      </trkpt>
      <trkpt lat="48.84723" lon="2.42705">
        <ele>53</ele>
        <time>2016-03-21T21:25:04Z</time>
      </trkpt>
      <trkpt lat="48.84718" lon="2.42684">
        <ele>53.20000076294</ele>
        <time>2016-03-21T21:25:07Z</time>
      </trkpt>
      <trkpt lat="48.84712" lon="2.42658">
        <ele>53.599998474121</ele>
        <time>2016-03-21T21:25:11Z</time>
      </trkpt>
      <trkpt lat="48.84704" lon="2.42627">
        <ele>53.400001525879</ele>
        <time>2016-03-21T21:25:16Z</time>
      </trkpt>
      <trkpt lat="48.84697" lon="2.42596">
        <ele>53.20000076294</ele>
        <time>2016-03-21T21:25:21Z</time>
      </trkpt>
      <trkpt lat="48.8469" lon="2.42569">
        <ele>52.79999923706</ele>
        <time>2016-03-21T21:25:25Z</time>
      </trkpt>
      <trkpt lat="48.84682" lon="2.42544">
        <ele>52.599998474121</ele>
        <time>2016-03-21T21:25:29Z</time>
      </trkpt>
      <trkpt lat="48.84674" lon="2.42519">
        <ele>52.400001525879</ele>
        <time>2016-03-21T21:25:33Z</time>
      </trkpt>
      <trkpt lat="48.84665" lon="2.42494">
        <ele>52.20000076294</ele>
        <time>2016-03-21T21:25:36Z</time>
      </trkpt>
      <trkpt lat="48.84653" lon="2.42464">
        <ele>52.400001525879</ele>
        <time>2016-03-21T21:25:40Z</time>
      </trkpt>
      <trkpt lat="48.84644" lon="2.42435">
        <ele>52.79999923706</ele>
        <time>2016-03-21T21:25:44Z</time>
      </trkpt>
      <trkpt lat="48.84635" lon="2.42411">
        <ele>53</ele>
        <time>2016-03-21T21:25:48Z</time>
      </trkpt>
      <trkpt lat="48.84619" lon="2.42394">
        <ele>53.20000076294</ele>
        <time>2016-03-21T21:25:52Z</time>
      </trkpt>
      <trkpt lat="48.84604" lon="2.42378">
        <ele>53.599998474121</ele>
        <time>2016-03-21T21:25:57Z</time>
      </trkpt>
      <trkpt lat="48.84604" lon="2.42357">
        <ele>53.79999923706</ele>
        <time>2016-03-21T21:26:04Z</time>
      </trkpt>
      <trkpt lat="48.84604" lon="2.42353">
        <ele>53.79999923706</ele>
        <time>2016-03-21T21:26:05Z</time>
      </trkpt>
      <trkpt lat="48.84604" lon="2.42337">
        <ele>54</ele>
        <time>2016-03-21T21:26:10Z</time>
      </trkpt>
      <trkpt lat="48.84598" lon="2.42311">
        <ele>54.20000076294</ele>
        <time>2016-03-21T21:26:27Z</time>
      </trkpt>
      <trkpt lat="48.84585" lon="2.42288">
        <ele>54.400001525879</ele>
        <time>2016-03-21T21:26:33Z</time>
      </trkpt>
      <trkpt lat="48.84573" lon="2.42267">
        <ele>54.79999923706</ele>
        <time>2016-03-21T21:26:38Z</time>
      </trkpt>
      <trkpt lat="48.84558" lon="2.42242">
        <ele>55</ele>
        <time>2016-03-21T21:26:43Z</time>
      </trkpt>
      <trkpt lat="48.84544" lon="2.42216">
        <ele>54.79999923706</ele>
        <time>2016-03-21T21:26:48Z</time>
      </trkpt>
      <trkpt lat="48.84532" lon="2.42194">
        <ele>54.400001525879</ele>
        <time>2016-03-21T21:26:52Z</time>
      </trkpt>
      <trkpt lat="48.84521" lon="2.4217">
        <ele>54.20000076294</ele>
        <time>2016-03-21T21:26:56Z</time>
      </trkpt>
      <trkpt lat="48.84507" lon="2.42148">
        <ele>54.20000076294</ele>
        <time>2016-03-21T21:27:00Z</time>
      </trkpt>
      <trkpt lat="48.84496" lon="2.42125">
        <ele>54.400001525879</ele>
        <time>2016-03-21T21:27:03Z</time>
      </trkpt>
      <trkpt lat="48.84485" lon="2.42099">
        <ele>54.400001525879</ele>
        <time>2016-03-21T21:27:07Z</time>
      </trkpt>
      <trkpt lat="48.84474" lon="2.42077">
        <ele>54.400001525879</ele>
        <time>2016-03-21T21:27:11Z</time>
      </trkpt>
      <trkpt lat="48.84463" lon="2.42054">
        <ele>54</ele>
        <time>2016-03-21T21:27:15Z</time>
      </trkpt>
      <trkpt lat="48.84452" lon="2.4203">
        <ele>53.599998474121</ele>
        <time>2016-03-21T21:27:19Z</time>
      </trkpt>
      <trkpt lat="48.84439" lon="2.42003">
        <ele>53.20000076294</ele>
        <time>2016-03-21T21:27:23Z</time>
      </trkpt>
      <trkpt lat="48.84425" lon="2.41976">
        <ele>53.599998474121</ele>
        <time>2016-03-21T21:27:27Z</time>
      </trkpt>
      <trkpt lat="48.84412" lon="2.41949">
        <ele>54.20000076294</ele>
        <time>2016-03-21T21:27:31Z</time>
      </trkpt>
      <trkpt lat="48.84398" lon="2.4192">
        <ele>55</ele>
        <time>2016-03-21T21:27:35Z</time>
      </trkpt>
      <trkpt lat="48.84387" lon="2.41898">
        <ele>54.599998474121</ele>
        <time>2016-03-21T21:27:38Z</time>
      </trkpt>
      <trkpt lat="48.84384" lon="2.41891">
        <ele>54.400001525879</ele>
        <time>2016-03-21T21:27:39Z</time>
      </trkpt>
      <trkpt lat="48.8437" lon="2.41863">
        <ele>53.79999923706</ele>
        <time>2016-03-21T21:27:43Z</time>
      </trkpt>
      <trkpt lat="48.84368" lon="2.41855">
        <ele>53.599998474121</ele>
        <time>2016-03-21T21:27:44Z</time>
      </trkpt>
      <trkpt lat="48.84366" lon="2.41821">
        <ele>53.20000076294</ele>
        <time>2016-03-21T21:27:48Z</time>
      </trkpt>
      <trkpt lat="48.84367" lon="2.41811">
        <ele>52.79999923706</ele>
        <time>2016-03-21T21:27:49Z</time>
      </trkpt>
      <trkpt lat="48.8437" lon="2.41784">
        <ele>52.400001525879</ele>
        <time>2016-03-21T21:27:52Z</time>
      </trkpt>
      <trkpt lat="48.84373" lon="2.4175">
        <ele>51.599998474121</ele>
        <time>2016-03-21T21:27:56Z</time>
      </trkpt>
      <trkpt lat="48.84376" lon="2.41719">
        <ele>52.79999923706</ele>
        <time>2016-03-21T21:28:00Z</time>
      </trkpt>
      <trkpt lat="48.84377" lon="2.41711">
        <ele>53.20000076294</ele>
        <time>2016-03-21T21:28:01Z</time>
      </trkpt>
      <trkpt lat="48.8438" lon="2.4168">
        <ele>54.20000076294</ele>
        <time>2016-03-21T21:28:05Z</time>
      </trkpt>
      <trkpt lat="48.84384" lon="2.4165">
        <ele>55.20000076294</ele>
        <time>2016-03-21T21:28:09Z</time>
      </trkpt>
      <trkpt lat="48.84384" lon="2.41635">
        <ele>56.20000076294</ele>
        <time>2016-03-21T21:28:11Z</time>
      </trkpt>
      <trkpt lat="48.84386" lon="2.416">
        <ele>57.79999923706</ele>
        <time>2016-03-21T21:28:15Z</time>
      </trkpt>
      <trkpt lat="48.84386" lon="2.41565">
        <ele>57.20000076294</ele>
        <time>2016-03-21T21:28:19Z</time>
      </trkpt>
      <trkpt lat="48.84389" lon="2.41531">
        <ele>55.20000076294</ele>
        <time>2016-03-21T21:28:23Z</time>
      </trkpt>
      <trkpt lat="48.8439" lon="2.41507">
        <ele>53.79999923706</ele>
        <time>2016-03-21T21:28:27Z</time>
      </trkpt>
      <trkpt lat="48.84389" lon="2.41514">
        <ele>54.20000076294</ele>
        <time>2016-03-21T21:28:32Z</time>
      </trkpt>
      <trkpt lat="48.8439" lon="2.4152">
        <ele>54.400001525879</ele>
        <time>2016-03-21T21:28:35Z</time>
      </trkpt>
      <trkpt lat="48.84393" lon="2.4151">
        <ele>53.79999923706</ele>
        <time>2016-03-21T21:28:40Z</time>
      </trkpt>
      <trkpt lat="48.84398" lon="2.41484">
        <ele>52</ele>
        <time>2016-03-21T21:28:47Z</time>
      </trkpt>
      <trkpt lat="48.84403" lon="2.41456">
        <ele>50</ele>
        <time>2016-03-21T21:28:54Z</time>
      </trkpt>
      <trkpt lat="48.84408" lon="2.41432">
        <ele>48.79999923706</ele>
        <time>2016-03-21T21:29:06Z</time>
      </trkpt>
      <trkpt lat="48.84406" lon="2.41405">
        <ele>48.20000076294</ele>
        <time>2016-03-21T21:29:18Z</time>
      </trkpt>
      <trkpt lat="48.84407" lon="2.41375">
        <ele>48.599998474121</ele>
        <time>2016-03-21T21:29:24Z</time>
      </trkpt>
      <trkpt lat="48.8441" lon="2.41348">
        <ele>49.79999923706</ele>
        <time>2016-03-21T21:29:29Z</time>
      </trkpt>
      <trkpt lat="48.84412" lon="2.41318">
        <ele>50.599998474121</ele>
        <time>2016-03-21T21:29:35Z</time>
      </trkpt>
      <trkpt lat="48.84415" lon="2.41288">
        <ele>51.20000076294</ele>
        <time>2016-03-21T21:29:43Z</time>
      </trkpt>
      <trkpt lat="48.84416" lon="2.41257">
        <ele>51.599998474121</ele>
        <time>2016-03-21T21:29:51Z</time>
      </trkpt>
      <trkpt lat="48.84417" lon="2.41226">
        <ele>52.20000076294</ele>
        <time>2016-03-21T21:29:57Z</time>
      </trkpt>
      <trkpt lat="48.8442" lon="2.41194">
        <ele>52.20000076294</ele>
        <time>2016-03-21T21:30:02Z</time>
      </trkpt>
      <trkpt lat="48.84422" lon="2.41164">
        <ele>52.20000076294</ele>
        <time>2016-03-21T21:30:06Z</time>
      </trkpt>
      <trkpt lat="48.84424" lon="2.41133">
        <ele>53.400001525879</ele>
        <time>2016-03-21T21:30:10Z</time>
      </trkpt>
      <trkpt lat="48.84426" lon="2.41102">
        <ele>54.20000076294</ele>
        <time>2016-03-21T21:30:15Z</time>
      </trkpt>
      <trkpt lat="48.84427" lon="2.41072">
        <ele>54.599998474121</ele>
        <time>2016-03-21T21:30:20Z</time>
      </trkpt>
      <trkpt lat="48.84426" lon="2.41046">
        <ele>54.79999923706</ele>
        <time>2016-03-21T21:30:30Z</time>
      </trkpt>
      <trkpt lat="48.84429" lon="2.41016">
        <ele>55.20000076294</ele>
        <time>2016-03-21T21:30:47Z</time>
      </trkpt>
      <trkpt lat="48.84432" lon="2.40988">
        <ele>55.20000076294</ele>
        <time>2016-03-21T21:30:52Z</time>
      </trkpt>
      <trkpt lat="48.84438" lon="2.40957">
        <ele>55.599998474121</ele>
        <time>2016-03-21T21:30:56Z</time>
      </trkpt>
      <trkpt lat="48.84443" lon="2.40926">
        <ele>56</ele>
        <time>2016-03-21T21:31:00Z</time>
      </trkpt>
      <trkpt lat="48.84447" lon="2.40895">
        <ele>56.400001525879</ele>
        <time>2016-03-21T21:31:04Z</time>
      </trkpt>
      <trkpt lat="48.8445" lon="2.40865">
        <ele>56.599998474121</ele>
        <time>2016-03-21T21:31:08Z</time>
      </trkpt>
      <trkpt lat="48.84454" lon="2.40832">
        <ele>56</ele>
        <time>2016-03-21T21:31:12Z</time>
      </trkpt>
      <trkpt lat="48.84461" lon="2.40798">
        <ele>55.599998474121</ele>
        <time>2016-03-21T21:31:16Z</time>
      </trkpt>
      <trkpt lat="48.84468" lon="2.40772">
        <ele>55.20000076294</ele>
        <time>2016-03-21T21:31:19Z</time>
      </trkpt>
      <trkpt lat="48.84472" lon="2.40742">
        <ele>53.79999923706</ele>
        <time>2016-03-21T21:31:22Z</time>
      </trkpt>
      <trkpt lat="48.84476" lon="2.40715">
        <ele>52</ele>
        <time>2016-03-21T21:31:25Z</time>
      </trkpt>
      <trkpt lat="48.84476" lon="2.40705">
        <ele>51.599998474121</ele>
        <time>2016-03-21T21:31:26Z</time>
      </trkpt>
      <trkpt lat="48.84475" lon="2.40671">
        <ele>51</ele>
        <time>2016-03-21T21:31:30Z</time>
      </trkpt>
      <trkpt lat="48.84477" lon="2.40654">
        <ele>51</ele>
        <time>2016-03-21T21:31:32Z</time>
      </trkpt>
      <trkpt lat="48.8448" lon="2.40637">
        <ele>51.400001525879</ele>
        <time>2016-03-21T21:31:34Z</time>
      </trkpt>
      <trkpt lat="48.84484" lon="2.40608">
        <ele>51.400001525879</ele>
        <time>2016-03-21T21:31:37Z</time>
      </trkpt>
      <trkpt lat="48.84485" lon="2.40598">
        <ele>51.20000076294</ele>
        <time>2016-03-21T21:31:38Z</time>
      </trkpt>
      <trkpt lat="48.8448" lon="2.40567">
        <ele>51</ele>
        <time>2016-03-21T21:31:41Z</time>
      </trkpt>
      <trkpt lat="48.8448" lon="2.40548">
        <ele>51</ele>
        <time>2016-03-21T21:31:43Z</time>
      </trkpt>
      <trkpt lat="48.84482" lon="2.40519">
        <ele>51</ele>
        <time>2016-03-21T21:31:46Z</time>
      </trkpt>
      <trkpt lat="48.84483" lon="2.40493">
        <ele>51</ele>
        <time>2016-03-21T21:31:49Z</time>
      </trkpt>
      <trkpt lat="48.84484" lon="2.40468">
        <ele>51.400001525879</ele>
        <time>2016-03-21T21:31:52Z</time>
      </trkpt>
      <trkpt lat="48.84486" lon="2.40438">
        <ele>50.599998474121</ele>
        <time>2016-03-21T21:31:56Z</time>
      </trkpt>
      <trkpt lat="48.84487" lon="2.40424">
        <ele>50</ele>
        <time>2016-03-21T21:31:58Z</time>
      </trkpt>
      <trkpt lat="48.84488" lon="2.40412">
        <ele>49.79999923706</ele>
        <time>2016-03-21T21:32:00Z</time>
      </trkpt>
      <trkpt lat="48.84493" lon="2.40382">
        <ele>50.599998474121</ele>
        <time>2016-03-21T21:32:05Z</time>
      </trkpt>
      <trkpt lat="48.84501" lon="2.40354">
        <ele>51.20000076294</ele>
        <time>2016-03-21T21:32:10Z</time>
      </trkpt>
      <trkpt lat="48.84507" lon="2.40328">
        <ele>51.599998474121</ele>
        <time>2016-03-21T21:32:14Z</time>
      </trkpt>
      <trkpt lat="48.84513" lon="2.40298">
        <ele>52.20000076294</ele>
        <time>2016-03-21T21:32:19Z</time>
      </trkpt>
      <trkpt lat="48.84517" lon="2.40283">
        <ele>52.79999923706</ele>
        <time>2016-03-21T21:32:22Z</time>
      </trkpt>
      <trkpt lat="48.84523" lon="2.40253">
        <ele>53.79999923706</ele>
        <time>2016-03-21T21:32:27Z</time>
      </trkpt>
      <trkpt lat="48.84523" lon="2.40238">
        <ele>54</ele>
        <time>2016-03-21T21:32:30Z</time>
      </trkpt>
      <trkpt lat="48.84516" lon="2.40211">
        <ele>53.599998474121</ele>
        <time>2016-03-21T21:32:36Z</time>
      </trkpt>
      <trkpt lat="48.84515" lon="2.40208">
        <ele>53.599998474121</ele>
        <time>2016-03-21T21:32:37Z</time>
      </trkpt>
      <trkpt lat="48.84513" lon="2.40196">
        <ele>53.599998474121</ele>
        <time>2016-03-21T21:32:40Z</time>
      </trkpt>
      <trkpt lat="48.84515" lon="2.40167">
        <ele>53.599998474121</ele>
        <time>2016-03-21T21:32:46Z</time>
      </trkpt>
      <trkpt lat="48.8452" lon="2.40137">
        <ele>54.20000076294</ele>
        <time>2016-03-21T21:32:52Z</time>
      </trkpt>
      <trkpt lat="48.84522" lon="2.40109">
        <ele>54.599998474121</ele>
        <time>2016-03-21T21:32:57Z</time>
      </trkpt>
      <trkpt lat="48.84527" lon="2.40081">
        <ele>55</ele>
        <time>2016-03-21T21:33:02Z</time>
      </trkpt>
      <trkpt lat="48.8453" lon="2.40051">
        <ele>55.400001525879</ele>
        <time>2016-03-21T21:33:06Z</time>
      </trkpt>
      <trkpt lat="48.8453" lon="2.40024">
        <ele>55.79999923706</ele>
        <time>2016-03-21T21:33:10Z</time>
      </trkpt>
      <trkpt lat="48.84528" lon="2.39995">
        <ele>56</ele>
        <time>2016-03-21T21:33:14Z</time>
      </trkpt>
      <trkpt lat="48.84528" lon="2.39961">
        <ele>55.599998474121</ele>
        <time>2016-03-21T21:33:19Z</time>
      </trkpt>
      <trkpt lat="48.84527" lon="2.39939">
        <ele>55.20000076294</ele>
        <time>2016-03-21T21:33:22Z</time>
      </trkpt>
      <trkpt lat="48.84535" lon="2.39913">
        <ele>55</ele>
        <time>2016-03-21T21:33:26Z</time>
      </trkpt>
      <trkpt lat="48.84538" lon="2.3988">
        <ele>55.400001525879</ele>
        <time>2016-03-21T21:33:31Z</time>
      </trkpt>
      <trkpt lat="48.84539" lon="2.39859">
        <ele>55.599998474121</ele>
        <time>2016-03-21T21:33:34Z</time>
      </trkpt>
      <trkpt lat="48.8454" lon="2.3984">
        <ele>56</ele>
        <time>2016-03-21T21:33:37Z</time>
      </trkpt>
      <trkpt lat="48.84543" lon="2.39822">
        <ele>55.599998474121</ele>
        <time>2016-03-21T21:33:40Z</time>
      </trkpt>
      <trkpt lat="48.84545" lon="2.39789">
        <ele>54</ele>
        <time>2016-03-21T21:33:44Z</time>
      </trkpt>
      <trkpt lat="48.84547" lon="2.39775">
        <ele>53.20000076294</ele>
        <time>2016-03-21T21:33:46Z</time>
      </trkpt>
      <trkpt lat="48.84545" lon="2.39745">
        <ele>54</ele>
        <time>2016-03-21T21:33:50Z</time>
      </trkpt>
      <trkpt lat="48.84545" lon="2.39712">
        <ele>55.20000076294</ele>
        <time>2016-03-21T21:33:54Z</time>
      </trkpt>
      <trkpt lat="48.84546" lon="2.39696">
        <ele>55.79999923706</ele>
        <time>2016-03-21T21:33:56Z</time>
      </trkpt>
      <trkpt lat="48.84548" lon="2.39666">
        <ele>57</ele>
        <time>2016-03-21T21:34:00Z</time>
      </trkpt>
      <trkpt lat="48.84558" lon="2.39652">
        <ele>58.400001525879</ele>
        <time>2016-03-21T21:34:02Z</time>
      </trkpt>
      <trkpt lat="48.84562" lon="2.39625">
        <ele>59.20000076294</ele>
        <time>2016-03-21T21:34:05Z</time>
      </trkpt>
      <trkpt lat="48.84567" lon="2.39608">
        <ele>59.599998474121</ele>
        <time>2016-03-21T21:34:07Z</time>
      </trkpt>
      <trkpt lat="48.8457" lon="2.39593">
        <ele>59.79999923706</ele>
        <time>2016-03-21T21:34:09Z</time>
      </trkpt>
      <trkpt lat="48.84575" lon="2.39562">
        <ele>60.400001525879</ele>
        <time>2016-03-21T21:34:13Z</time>
      </trkpt>
      <trkpt lat="48.84574" lon="2.39535">
        <ele>59.599998474121</ele>
        <time>2016-03-21T21:34:16Z</time>
      </trkpt>
      <trkpt lat="48.84582" lon="2.39513">
        <ele>58.20000076294</ele>
        <time>2016-03-21T21:34:20Z</time>
      </trkpt>
      <trkpt lat="48.84594" lon="2.39494">
        <ele>57.400001525879</ele>
        <time>2016-03-21T21:34:24Z</time>
      </trkpt>
      <trkpt lat="48.84595" lon="2.39481">
        <ele>57.400001525879</ele>
        <time>2016-03-21T21:34:26Z</time>
      </trkpt>
      <trkpt lat="48.84601" lon="2.39465">
        <ele>56.79999923706</ele>
        <time>2016-03-21T21:34:30Z</time>
      </trkpt>
      <trkpt lat="48.84609" lon="2.39457">
        <ele>56.79999923706</ele>
        <time>2016-03-21T21:34:33Z</time>
      </trkpt>
      <trkpt lat="48.84629" lon="2.39449">
        <ele>57.79999923706</ele>
        <time>2016-03-21T21:34:38Z</time>
      </trkpt>
      <trkpt lat="48.84649" lon="2.39446">
        <ele>58.599998474121</ele>
        <time>2016-03-21T21:34:42Z</time>
      </trkpt>
      <trkpt lat="48.84667" lon="2.39437">
        <ele>58.599998474121</ele>
        <time>2016-03-21T21:34:47Z</time>
      </trkpt>
      <trkpt lat="48.84684" lon="2.39419">
        <ele>58</ele>
        <time>2016-03-21T21:34:55Z</time>
      </trkpt>
      <trkpt lat="48.84682" lon="2.3941">
        <ele>57.79999923706</ele>
        <time>2016-03-21T21:34:56Z</time>
      </trkpt>
      <trkpt lat="48.84697" lon="2.39376">
        <ele>57.400001525879</ele>
        <time>2016-03-21T21:35:00Z</time>
      </trkpt>
      <trkpt lat="48.84716" lon="2.3936">
        <ele>56</ele>
        <time>2016-03-21T21:35:03Z</time>
      </trkpt>
      <trkpt lat="48.84742" lon="2.39348">
        <ele>54.599998474121</ele>
        <time>2016-03-21T21:35:05Z</time>
      </trkpt>
      <trkpt lat="48.84759" lon="2.39331">
        <ele>53.79999923706</ele>
        <time>2016-03-21T21:35:09Z</time>
      </trkpt>
      <trkpt lat="48.84761" lon="2.39325">
        <ele>53.400001525879</ele>
        <time>2016-03-21T21:35:10Z</time>
      </trkpt>
      <trkpt lat="48.84777" lon="2.39301">
        <ele>53.79999923706</ele>
        <time>2016-03-21T21:35:15Z</time>
      </trkpt>
      <trkpt lat="48.84787" lon="2.39292">
        <ele>54.400001525879</ele>
        <time>2016-03-21T21:35:19Z</time>
      </trkpt>
      <trkpt lat="48.84797" lon="2.39284">
        <ele>55</ele>
        <time>2016-03-21T21:35:29Z</time>
      </trkpt>
      <trkpt lat="48.848" lon="2.39282">
        <ele>55.20000076294</ele>
        <time>2016-03-21T21:35:30Z</time>
      </trkpt>
      <trkpt lat="48.84812" lon="2.39277">
        <ele>55.20000076294</ele>
        <time>2016-03-21T21:35:33Z</time>
      </trkpt>
      <trkpt lat="48.84832" lon="2.39272">
        <ele>54.79999923706</ele>
        <time>2016-03-21T21:35:37Z</time>
      </trkpt>
      <trkpt lat="48.84848" lon="2.39256">
        <ele>54.20000076294</ele>
        <time>2016-03-21T21:35:41Z</time>
      </trkpt>
      <trkpt lat="48.84863" lon="2.39239">
        <ele>53.20000076294</ele>
        <time>2016-03-21T21:35:45Z</time>
      </trkpt>
      <trkpt lat="48.84881" lon="2.39222">
        <ele>51.79999923706</ele>
        <time>2016-03-21T21:35:51Z</time>
      </trkpt>
      <trkpt lat="48.84891" lon="2.39206">
        <ele>50.79999923706</ele>
        <time>2016-03-21T21:35:55Z</time>
      </trkpt>
      <trkpt lat="48.84899" lon="2.39181">
        <ele>50.20000076294</ele>
        <time>2016-03-21T21:35:59Z</time>
      </trkpt>
      <trkpt lat="48.84908" lon="2.39155">
        <ele>49.599998474121</ele>
        <time>2016-03-21T21:36:03Z</time>
      </trkpt>
      <trkpt lat="48.84913" lon="2.39129">
        <ele>48.79999923706</ele>
        <time>2016-03-21T21:36:06Z</time>
      </trkpt>
      <trkpt lat="48.84921" lon="2.39095">
        <ele>48</ele>
        <time>2016-03-21T21:36:10Z</time>
      </trkpt>
      <trkpt lat="48.84926" lon="2.39078">
        <ele>47.79999923706</ele>
        <time>2016-03-21T21:36:12Z</time>
      </trkpt>
      <trkpt lat="48.84938" lon="2.39047">
        <ele>48</ele>
        <time>2016-03-21T21:36:16Z</time>
      </trkpt>
      <trkpt lat="48.84948" lon="2.39014">
        <ele>48.599998474121</ele>
        <time>2016-03-21T21:36:20Z</time>
      </trkpt>
      <trkpt lat="48.84955" lon="2.38988">
        <ele>48.79999923706</ele>
        <time>2016-03-21T21:36:23Z</time>
      </trkpt>
      <trkpt lat="48.84961" lon="2.38962">
        <ele>49</ele>
        <time>2016-03-21T21:36:26Z</time>
      </trkpt>
      <trkpt lat="48.84966" lon="2.38936">
        <ele>49</ele>
        <time>2016-03-21T21:36:29Z</time>
      </trkpt>
      <trkpt lat="48.84969" lon="2.38918">
        <ele>48.20000076294</ele>
        <time>2016-03-21T21:36:31Z</time>
      </trkpt>
      <trkpt lat="48.84975" lon="2.3889">
        <ele>47.20000076294</ele>
        <time>2016-03-21T21:36:34Z</time>
      </trkpt>
      <trkpt lat="48.84977" lon="2.38859">
        <ele>46</ele>
        <time>2016-03-21T21:36:37Z</time>
      </trkpt>
      <trkpt lat="48.84981" lon="2.38829">
        <ele>45</ele>
        <time>2016-03-21T21:36:40Z</time>
      </trkpt>
      <trkpt lat="48.84985" lon="2.388">
        <ele>45</ele>
        <time>2016-03-21T21:36:43Z</time>
      </trkpt>
      <trkpt lat="48.84987" lon="2.38772">
        <ele>45.20000076294</ele>
        <time>2016-03-21T21:36:46Z</time>
      </trkpt>
      <trkpt lat="48.8499" lon="2.38736">
        <ele>45.20000076294</ele>
        <time>2016-03-21T21:36:50Z</time>
      </trkpt>
      <trkpt lat="48.84997" lon="2.38702">
        <ele>44.79999923706</ele>
        <time>2016-03-21T21:36:54Z</time>
      </trkpt>
      <trkpt lat="48.84999" lon="2.38667">
        <ele>44.79999923706</ele>
        <time>2016-03-21T21:36:58Z</time>
      </trkpt>
      <trkpt lat="48.85006" lon="2.38635">
        <ele>45.20000076294</ele>
        <time>2016-03-21T21:37:02Z</time>
      </trkpt>
      <trkpt lat="48.85012" lon="2.38614">
        <ele>45.79999923706</ele>
        <time>2016-03-21T21:37:05Z</time>
      </trkpt>
      <trkpt lat="48.85019" lon="2.38595">
        <ele>46.599998474121</ele>
        <time>2016-03-21T21:37:08Z</time>
      </trkpt>
      <trkpt lat="48.85024" lon="2.38573">
        <ele>46.79999923706</ele>
        <time>2016-03-21T21:37:11Z</time>
      </trkpt>
      <trkpt lat="48.85031" lon="2.38541">
        <ele>46</ele>
        <time>2016-03-21T21:37:15Z</time>
      </trkpt>
      <trkpt lat="48.85039" lon="2.38518">
        <ele>45.400001525879</ele>
        <time>2016-03-21T21:37:18Z</time>
      </trkpt>
      <trkpt lat="48.85045" lon="2.38493">
        <ele>44.599998474121</ele>
        <time>2016-03-21T21:37:22Z</time>
      </trkpt>
      <trkpt lat="48.8505" lon="2.38477">
        <ele>44</ele>
        <time>2016-03-21T21:37:25Z</time>
      </trkpt>
      <trkpt lat="48.85044" lon="2.38453">
        <ele>43.20000076294</ele>
        <time>2016-03-21T21:37:28Z</time>
      </trkpt>
      <trkpt lat="48.85044" lon="2.3842">
        <ele>42.400001525879</ele>
        <time>2016-03-21T21:37:32Z</time>
      </trkpt>
      <trkpt lat="48.85044" lon="2.38404">
        <ele>41.599998474121</ele>
        <time>2016-03-21T21:37:34Z</time>
      </trkpt>
      <trkpt lat="48.8504" lon="2.38372">
        <ele>39.599998474121</ele>
        <time>2016-03-21T21:37:38Z</time>
      </trkpt>
      <trkpt lat="48.85037" lon="2.3834">
        <ele>38.20000076294</ele>
        <time>2016-03-21T21:37:42Z</time>
      </trkpt>
      <trkpt lat="48.85037" lon="2.38304">
        <ele>39.599998474121</ele>
        <time>2016-03-21T21:37:46Z</time>
      </trkpt>
      <trkpt lat="48.85041" lon="2.38277">
        <ele>41.20000076294</ele>
        <time>2016-03-21T21:37:49Z</time>
      </trkpt>
      <trkpt lat="48.85042" lon="2.38247">
        <ele>41.599998474121</ele>
        <time>2016-03-21T21:37:52Z</time>
      </trkpt>
      <trkpt lat="48.8504" lon="2.38218">
        <ele>42.400001525879</ele>
        <time>2016-03-21T21:37:55Z</time>
      </trkpt>
      <trkpt lat="48.85042" lon="2.3819">
        <ele>43</ele>
        <time>2016-03-21T21:37:58Z</time>
      </trkpt>
      <trkpt lat="48.85047" lon="2.38155">
        <ele>42.79999923706</ele>
        <time>2016-03-21T21:38:02Z</time>
      </trkpt>
      <trkpt lat="48.8505" lon="2.38127">
        <ele>43.20000076294</ele>
        <time>2016-03-21T21:38:05Z</time>
      </trkpt>
      <trkpt lat="48.8505" lon="2.38118">
        <ele>43.20000076294</ele>
        <time>2016-03-21T21:38:06Z</time>
      </trkpt>
      <trkpt lat="48.85051" lon="2.38089">
        <ele>43.400001525879</ele>
        <time>2016-03-21T21:38:09Z</time>
      </trkpt>
      <trkpt lat="48.85051" lon="2.3806">
        <ele>42.599998474121</ele>
        <time>2016-03-21T21:38:12Z</time>
      </trkpt>
      <trkpt lat="48.85052" lon="2.38031">
        <ele>41.400001525879</ele>
        <time>2016-03-21T21:38:15Z</time>
      </trkpt>
      <trkpt lat="48.85054" lon="2.38003">
        <ele>40.79999923706</ele>
        <time>2016-03-21T21:38:18Z</time>
      </trkpt>
      <trkpt lat="48.85058" lon="2.37967">
        <ele>40.599998474121</ele>
        <time>2016-03-21T21:38:22Z</time>
      </trkpt>
      <trkpt lat="48.85063" lon="2.37932">
        <ele>40.79999923706</ele>
        <time>2016-03-21T21:38:26Z</time>
      </trkpt>
      <trkpt lat="48.85065" lon="2.37896">
        <ele>41.20000076294</ele>
        <time>2016-03-21T21:38:30Z</time>
      </trkpt>
      <trkpt lat="48.85066" lon="2.37888">
        <ele>41.400001525879</ele>
        <time>2016-03-21T21:38:31Z</time>
      </trkpt>
      <trkpt lat="48.85074" lon="2.37856">
        <ele>41.79999923706</ele>
        <time>2016-03-21T21:38:35Z</time>
      </trkpt>
      <trkpt lat="48.85086" lon="2.37826">
        <ele>42</ele>
        <time>2016-03-21T21:38:39Z</time>
      </trkpt>
      <trkpt lat="48.85089" lon="2.37818">
        <ele>42.20000076294</ele>
        <time>2016-03-21T21:38:40Z</time>
      </trkpt>
      <trkpt lat="48.85099" lon="2.37794">
        <ele>42.400001525879</ele>
        <time>2016-03-21T21:38:43Z</time>
      </trkpt>
      <trkpt lat="48.85106" lon="2.37767">
        <ele>42.79999923706</ele>
        <time>2016-03-21T21:38:46Z</time>
      </trkpt>
      <trkpt lat="48.8511" lon="2.3775">
        <ele>43</ele>
        <time>2016-03-21T21:38:48Z</time>
      </trkpt>
      <trkpt lat="48.85115" lon="2.37723">
        <ele>44.20000076294</ele>
        <time>2016-03-21T21:38:51Z</time>
      </trkpt>
      <trkpt lat="48.85122" lon="2.37698">
        <ele>45.400001525879</ele>
        <time>2016-03-21T21:38:54Z</time>
      </trkpt>
      <trkpt lat="48.85128" lon="2.37674">
        <ele>46.20000076294</ele>
        <time>2016-03-21T21:38:57Z</time>
      </trkpt>
      <trkpt lat="48.85134" lon="2.37646">
        <ele>45.79999923706</ele>
        <time>2016-03-21T21:39:01Z</time>
      </trkpt>
      <trkpt lat="48.85138" lon="2.37625">
        <ele>45.20000076294</ele>
        <time>2016-03-21T21:39:05Z</time>
      </trkpt>
      <trkpt lat="48.85137" lon="2.3762">
        <ele>45.20000076294</ele>
        <time>2016-03-21T21:39:07Z</time>
      </trkpt>
      <trkpt lat="48.85135" lon="2.37598">
        <ele>45</ele>
        <time>2016-03-21T21:39:14Z</time>
      </trkpt>
      <trkpt lat="48.85136" lon="2.37593">
        <ele>45</ele>
        <time>2016-03-21T21:39:15Z</time>
      </trkpt>
      <trkpt lat="48.85145" lon="2.37565">
        <ele>44.599998474121</ele>
        <time>2016-03-21T21:39:19Z</time>
      </trkpt>
      <trkpt lat="48.85151" lon="2.37534">
        <ele>44</ele>
        <time>2016-03-21T21:39:23Z</time>
      </trkpt>
      <trkpt lat="48.8516" lon="2.37501">
        <ele>43.599998474121</ele>
        <time>2016-03-21T21:39:27Z</time>
      </trkpt>
      <trkpt lat="48.85168" lon="2.3747">
        <ele>44</ele>
        <time>2016-03-21T21:39:31Z</time>
      </trkpt>
      <trkpt lat="48.85176" lon="2.37445">
        <ele>44</ele>
        <time>2016-03-21T21:39:34Z</time>
      </trkpt>
      <trkpt lat="48.85183" lon="2.37419">
        <ele>44</ele>
        <time>2016-03-21T21:39:37Z</time>
      </trkpt>
      <trkpt lat="48.85189" lon="2.37393">
        <ele>44</ele>
        <time>2016-03-21T21:39:40Z</time>
      </trkpt>
      <trkpt lat="48.85195" lon="2.37366">
        <ele>44</ele>
        <time>2016-03-21T21:39:43Z</time>
      </trkpt>
      <trkpt lat="48.85202" lon="2.37339">
        <ele>44</ele>
        <time>2016-03-21T21:39:46Z</time>
      </trkpt>
      <trkpt lat="48.85209" lon="2.37313">
        <ele>43.599998474121</ele>
        <time>2016-03-21T21:39:49Z</time>
      </trkpt>
      <trkpt lat="48.85217" lon="2.37286">
        <ele>43.20000076294</ele>
        <time>2016-03-21T21:39:52Z</time>
      </trkpt>
      <trkpt lat="48.85223" lon="2.3727">
        <ele>42.79999923706</ele>
        <time>2016-03-21T21:39:54Z</time>
      </trkpt>
      <trkpt lat="48.85231" lon="2.37245">
        <ele>42.79999923706</ele>
        <time>2016-03-21T21:39:57Z</time>
      </trkpt>
      <trkpt lat="48.85237" lon="2.37218">
        <ele>45</ele>
        <time>2016-03-21T21:40:00Z</time>
      </trkpt>
      <trkpt lat="48.85245" lon="2.37192">
        <ele>44.599998474121</ele>
        <time>2016-03-21T21:40:03Z</time>
      </trkpt>
      <trkpt lat="48.85252" lon="2.37177">
        <ele>44</ele>
        <time>2016-03-21T21:40:05Z</time>
      </trkpt>
      <trkpt lat="48.85264" lon="2.37148">
        <ele>43.599998474121</ele>
        <time>2016-03-21T21:40:09Z</time>
      </trkpt>
      <trkpt lat="48.85278" lon="2.37121">
        <ele>45.20000076294</ele>
        <time>2016-03-21T21:40:13Z</time>
      </trkpt>
      <trkpt lat="48.85292" lon="2.37098">
        <ele>46.599998474121</ele>
        <time>2016-03-21T21:40:17Z</time>
      </trkpt>
      <trkpt lat="48.85307" lon="2.37073">
        <ele>45.79999923706</ele>
        <time>2016-03-21T21:40:21Z</time>
      </trkpt>
      <trkpt lat="48.85319" lon="2.3705">
        <ele>45.400001525879</ele>
        <time>2016-03-21T21:40:25Z</time>
      </trkpt>
      <trkpt lat="48.8533" lon="2.37029">
        <ele>44.599998474121</ele>
        <time>2016-03-21T21:40:29Z</time>
      </trkpt>
      <trkpt lat="48.85332" lon="2.37021">
        <ele>44.20000076294</ele>
        <time>2016-03-21T21:40:54Z</time>
      </trkpt>
      <trkpt lat="48.85341" lon="2.36995">
        <ele>43.20000076294</ele>
        <time>2016-03-21T21:41:03Z</time>
      </trkpt>
      <trkpt lat="48.85343" lon="2.36992">
        <ele>42.79999923706</ele>
        <time>2016-03-21T21:41:04Z</time>
      </trkpt>
      <trkpt lat="48.85357" lon="2.36979">
        <ele>42.20000076294</ele>
        <time>2016-03-21T21:41:13Z</time>
      </trkpt>
      <trkpt lat="48.85355" lon="2.36976">
        <ele>42.20000076294</ele>
        <time>2016-03-21T21:42:19Z</time>
      </trkpt>
      <trkpt lat="48.85358" lon="2.36948">
        <ele>42.599998474121</ele>
        <time>2016-03-21T21:42:41Z</time>
      </trkpt>
      <trkpt lat="48.85365" lon="2.36921">
        <ele>42.79999923706</ele>
        <time>2016-03-21T21:42:50Z</time>
      </trkpt>
      <trkpt lat="48.85367" lon="2.36914">
        <ele>42.400001525879</ele>
        <time>2016-03-21T21:42:54Z</time>
      </trkpt>
      <trkpt lat="48.85362" lon="2.36892">
        <ele>44.20000076294</ele>
        <time>2016-03-21T21:43:20Z</time>
      </trkpt>
      <trkpt lat="48.85368" lon="2.36863">
        <ele>45.400001525879</ele>
        <time>2016-03-21T21:43:49Z</time>
      </trkpt>
      <trkpt lat="48.8537" lon="2.36839">
        <ele>47</ele>
        <time>2016-03-21T21:43:57Z</time>
      </trkpt>
      <trkpt lat="48.85379" lon="2.3681">
        <ele>47.400001525879</ele>
        <time>2016-03-21T21:44:05Z</time>
      </trkpt>
      <trkpt lat="48.85384" lon="2.36784">
        <ele>47</ele>
        <time>2016-03-21T21:44:10Z</time>
      </trkpt>
      <trkpt lat="48.85387" lon="2.36753">
        <ele>47.599998474121</ele>
        <time>2016-03-21T21:44:15Z</time>
      </trkpt>
      <trkpt lat="48.85384" lon="2.36745">
        <ele>47.400001525879</ele>
        <time>2016-03-21T21:44:17Z</time>
      </trkpt>
      <trkpt lat="48.85367" lon="2.36733">
        <ele>46.400001525879</ele>
        <time>2016-03-21T21:44:24Z</time>
      </trkpt>
      <trkpt lat="48.85361" lon="2.36725">
        <ele>45.79999923706</ele>
        <time>2016-03-21T21:44:27Z</time>
      </trkpt>
      <trkpt lat="48.85364" lon="2.36695">
        <ele>44</ele>
        <time>2016-03-21T21:44:33Z</time>
      </trkpt>
      <trkpt lat="48.85367" lon="2.36667">
        <ele>42.599998474121</ele>
        <time>2016-03-21T21:44:37Z</time>
      </trkpt>
      <trkpt lat="48.85373" lon="2.36638">
        <ele>43.20000076294</ele>
        <time>2016-03-21T21:44:41Z</time>
      </trkpt>
      <trkpt lat="48.8538" lon="2.36609">
        <ele>44.20000076294</ele>
        <time>2016-03-21T21:44:45Z</time>
      </trkpt>
      <trkpt lat="48.85388" lon="2.36579">
        <ele>43.20000076294</ele>
        <time>2016-03-21T21:44:49Z</time>
      </trkpt>
      <trkpt lat="48.85393" lon="2.36555">
        <ele>43.20000076294</ele>
        <time>2016-03-21T21:44:52Z</time>
      </trkpt>
      <trkpt lat="48.85402" lon="2.36526">
        <ele>43.400001525879</ele>
        <time>2016-03-21T21:44:56Z</time>
      </trkpt>
      <trkpt lat="48.85406" lon="2.36498">
        <ele>44</ele>
        <time>2016-03-21T21:45:00Z</time>
      </trkpt>
      <trkpt lat="48.85411" lon="2.36469">
        <ele>45</ele>
        <time>2016-03-21T21:45:04Z</time>
      </trkpt>
      <trkpt lat="48.85419" lon="2.36438">
        <ele>45.599998474121</ele>
        <time>2016-03-21T21:45:08Z</time>
      </trkpt>
      <trkpt lat="48.8542" lon="2.3643">
        <ele>45.79999923706</ele>
        <time>2016-03-21T21:45:09Z</time>
      </trkpt>
      <trkpt lat="48.85427" lon="2.36405">
        <ele>45.599998474121</ele>
        <time>2016-03-21T21:45:12Z</time>
      </trkpt>
      <trkpt lat="48.85434" lon="2.3638">
        <ele>45.400001525879</ele>
        <time>2016-03-21T21:45:15Z</time>
      </trkpt>
      <trkpt lat="48.85442" lon="2.36354">
        <ele>45.20000076294</ele>
        <time>2016-03-21T21:45:18Z</time>
      </trkpt>
      <trkpt lat="48.8545" lon="2.36328">
        <ele>44.599998474121</ele>
        <time>2016-03-21T21:45:21Z</time>
      </trkpt>
      <trkpt lat="48.85459" lon="2.36296">
        <ele>43.20000076294</ele>
        <time>2016-03-21T21:45:25Z</time>
      </trkpt>
      <trkpt lat="48.85465" lon="2.36282">
        <ele>42.599998474121</ele>
        <time>2016-03-21T21:45:27Z</time>
      </trkpt>
      <trkpt lat="48.85477" lon="2.36254">
        <ele>42.400001525879</ele>
        <time>2016-03-21T21:45:31Z</time>
      </trkpt>
      <trkpt lat="48.85488" lon="2.36225">
        <ele>42.400001525879</ele>
        <time>2016-03-21T21:45:35Z</time>
      </trkpt>
      <trkpt lat="48.85499" lon="2.36197">
        <ele>43</ele>
        <time>2016-03-21T21:45:39Z</time>
      </trkpt>
      <trkpt lat="48.85508" lon="2.36168">
        <ele>44.20000076294</ele>
        <time>2016-03-21T21:45:43Z</time>
      </trkpt>
      <trkpt lat="48.85517" lon="2.36134">
        <ele>44.400001525879</ele>
        <time>2016-03-21T21:45:47Z</time>
      </trkpt>
      <trkpt lat="48.85524" lon="2.36104">
        <ele>44.20000076294</ele>
        <time>2016-03-21T21:45:50Z</time>
      </trkpt>
      <trkpt lat="48.85532" lon="2.36077">
        <ele>44.20000076294</ele>
        <time>2016-03-21T21:45:53Z</time>
      </trkpt>
      <trkpt lat="48.85534" lon="2.36067">
        <ele>44.400001525879</ele>
        <time>2016-03-21T21:45:54Z</time>
      </trkpt>
      <trkpt lat="48.8554" lon="2.36039">
        <ele>44.79999923706</ele>
        <time>2016-03-21T21:45:57Z</time>
      </trkpt>
      <trkpt lat="48.85542" lon="2.36019">
        <ele>45</ele>
        <time>2016-03-21T21:45:59Z</time>
      </trkpt>
      <trkpt lat="48.85548" lon="2.35993">
        <ele>45.20000076294</ele>
        <time>2016-03-21T21:46:02Z</time>
      </trkpt>
      <trkpt lat="48.85555" lon="2.35965">
        <ele>45</ele>
        <time>2016-03-21T21:46:05Z</time>
      </trkpt>
      <trkpt lat="48.85563" lon="2.35936">
        <ele>45</ele>
        <time>2016-03-21T21:46:08Z</time>
      </trkpt>
      <trkpt lat="48.85572" lon="2.35908">
        <ele>45</ele>
        <time>2016-03-21T21:46:11Z</time>
      </trkpt>
      <trkpt lat="48.8558" lon="2.35879">
        <ele>44.400001525879</ele>
        <time>2016-03-21T21:46:14Z</time>
      </trkpt>
      <trkpt lat="48.85588" lon="2.35851">
        <ele>45</ele>
        <time>2016-03-21T21:46:17Z</time>
      </trkpt>
      <trkpt lat="48.85596" lon="2.35821">
        <ele>45.20000076294</ele>
        <time>2016-03-21T21:46:20Z</time>
      </trkpt>
      <trkpt lat="48.85604" lon="2.35792">
        <ele>45.400001525879</ele>
        <time>2016-03-21T21:46:23Z</time>
      </trkpt>
      <trkpt lat="48.85612" lon="2.35764">
        <ele>45.400001525879</ele>
        <time>2016-03-21T21:46:26Z</time>
      </trkpt>
      <trkpt lat="48.8562" lon="2.35737">
        <ele>45.400001525879</ele>
        <time>2016-03-21T21:46:29Z</time>
      </trkpt>
      <trkpt lat="48.85628" lon="2.3571">
        <ele>45.400001525879</ele>
        <time>2016-03-21T21:46:32Z</time>
      </trkpt>
      <trkpt lat="48.85635" lon="2.35683">
        <ele>45.20000076294</ele>
        <time>2016-03-21T21:46:35Z</time>
      </trkpt>
      <trkpt lat="48.85643" lon="2.3565">
        <ele>44.79999923706</ele>
        <time>2016-03-21T21:46:39Z</time>
      </trkpt>
      <trkpt lat="48.85651" lon="2.35622">
        <ele>44.599998474121</ele>
        <time>2016-03-21T21:46:42Z</time>
      </trkpt>
      <trkpt lat="48.8566" lon="2.35592">
        <ele>45</ele>
        <time>2016-03-21T21:46:45Z</time>
      </trkpt>
      <trkpt lat="48.85668" lon="2.35561">
        <ele>44.20000076294</ele>
        <time>2016-03-21T21:46:48Z</time>
      </trkpt>
      <trkpt lat="48.85677" lon="2.35529">
        <ele>45.400001525879</ele>
        <time>2016-03-21T21:46:51Z</time>
      </trkpt>
      <trkpt lat="48.85684" lon="2.35494">
        <ele>46.599998474121</ele>
        <time>2016-03-21T21:46:54Z</time>
      </trkpt>
      <trkpt lat="48.85692" lon="2.35461">
        <ele>46</ele>
        <time>2016-03-21T21:46:57Z</time>
      </trkpt>
      <trkpt lat="48.85697" lon="2.35431">
        <ele>45.400001525879</ele>
        <time>2016-03-21T21:47:00Z</time>
      </trkpt>
      <trkpt lat="48.85702" lon="2.35402">
        <ele>46.400001525879</ele>
        <time>2016-03-21T21:47:03Z</time>
      </trkpt>
      <trkpt lat="48.85703" lon="2.35372">
        <ele>47.599998474121</ele>
        <time>2016-03-21T21:47:06Z</time>
      </trkpt>
      <trkpt lat="48.85704" lon="2.35342">
        <ele>48.599998474121</ele>
        <time>2016-03-21T21:47:09Z</time>
      </trkpt>
      <trkpt lat="48.85711" lon="2.35314">
        <ele>48.79999923706</ele>
        <time>2016-03-21T21:47:12Z</time>
      </trkpt>
      <trkpt lat="48.85718" lon="2.3529">
        <ele>48.79999923706</ele>
        <time>2016-03-21T21:47:15Z</time>
      </trkpt>
      <trkpt lat="48.85728" lon="2.35261">
        <ele>47.400001525879</ele>
        <time>2016-03-21T21:47:19Z</time>
      </trkpt>
      <trkpt lat="48.85737" lon="2.35235">
        <ele>45.20000076294</ele>
        <time>2016-03-21T21:47:23Z</time>
      </trkpt>
      <trkpt lat="48.85737" lon="2.35226">
        <ele>44.400001525879</ele>
        <time>2016-03-21T21:47:24Z</time>
      </trkpt>
      <trkpt lat="48.85741" lon="2.35203">
        <ele>42.599998474121</ele>
        <time>2016-03-21T21:47:27Z</time>
      </trkpt>
      <trkpt lat="48.85748" lon="2.35173">
        <ele>41</ele>
        <time>2016-03-21T21:47:32Z</time>
      </trkpt>
      <trkpt lat="48.85755" lon="2.3514">
        <ele>40.400001525879</ele>
        <time>2016-03-21T21:47:37Z</time>
      </trkpt>
      <trkpt lat="48.85758" lon="2.35133">
        <ele>41.20000076294</ele>
        <time>2016-03-21T21:47:38Z</time>
      </trkpt>
      <trkpt lat="48.85769" lon="2.35106">
        <ele>43.400001525879</ele>
        <time>2016-03-21T21:47:41Z</time>
      </trkpt>
      <trkpt lat="48.85778" lon="2.35077">
        <ele>45.400001525879</ele>
        <time>2016-03-21T21:47:44Z</time>
      </trkpt>
      <trkpt lat="48.85788" lon="2.3505">
        <ele>46.79999923706</ele>
        <time>2016-03-21T21:47:47Z</time>
      </trkpt>
      <trkpt lat="48.85797" lon="2.35024">
        <ele>48.20000076294</ele>
        <time>2016-03-21T21:47:50Z</time>
      </trkpt>
      <trkpt lat="48.85806" lon="2.34997">
        <ele>47.599998474121</ele>
        <time>2016-03-21T21:47:53Z</time>
      </trkpt>
      <trkpt lat="48.85809" lon="2.34988">
        <ele>46.79999923706</ele>
        <time>2016-03-21T21:47:54Z</time>
      </trkpt>
      <trkpt lat="48.85818" lon="2.34963">
        <ele>44.599998474121</ele>
        <time>2016-03-21T21:47:57Z</time>
      </trkpt>
      <trkpt lat="48.85827" lon="2.34936">
        <ele>45.400001525879</ele>
        <time>2016-03-21T21:48:00Z</time>
      </trkpt>
      <trkpt lat="48.85835" lon="2.34909">
        <ele>46</ele>
        <time>2016-03-21T21:48:03Z</time>
      </trkpt>
      <trkpt lat="48.85843" lon="2.34883">
        <ele>46.400001525879</ele>
        <time>2016-03-21T21:48:06Z</time>
      </trkpt>
      <trkpt lat="48.85853" lon="2.34856">
        <ele>47.599998474121</ele>
        <time>2016-03-21T21:48:09Z</time>
      </trkpt>
      <trkpt lat="48.85864" lon="2.34829">
        <ele>48</ele>
        <time>2016-03-21T21:48:12Z</time>
      </trkpt>
      <trkpt lat="48.85873" lon="2.34801">
        <ele>47.599998474121</ele>
        <time>2016-03-21T21:48:15Z</time>
      </trkpt>
      <trkpt lat="48.85881" lon="2.34774">
        <ele>47.400001525879</ele>
        <time>2016-03-21T21:48:18Z</time>
      </trkpt>
      <trkpt lat="48.85889" lon="2.34745">
        <ele>45.79999923706</ele>
        <time>2016-03-21T21:48:22Z</time>
      </trkpt>
      <trkpt lat="48.85906" lon="2.34735">
        <ele>45.400001525879</ele>
        <time>2016-03-21T21:48:26Z</time>
      </trkpt>
      <trkpt lat="48.85924" lon="2.34722">
        <ele>45.20000076294</ele>
        <time>2016-03-21T21:48:30Z</time>
      </trkpt>
      <trkpt lat="48.85936" lon="2.34716">
        <ele>45.20000076294</ele>
        <time>2016-03-21T21:48:33Z</time>
      </trkpt>
      <trkpt lat="48.85954" lon="2.34721">
        <ele>45.20000076294</ele>
        <time>2016-03-21T21:48:38Z</time>
      </trkpt>
      <trkpt lat="48.85958" lon="2.34727">
        <ele>45</ele>
        <time>2016-03-21T21:48:40Z</time>
      </trkpt>
      <trkpt lat="48.85964" lon="2.34736">
        <ele>44.599998474121</ele>
        <time>2016-03-21T21:48:43Z</time>
      </trkpt>
      <trkpt lat="48.85967" lon="2.34739">
        <ele>44.599998474121</ele>
        <time>2016-03-21T21:48:48Z</time>
      </trkpt>
    </trkseg>
  </trk>
</gpx>